<?xml version="1.0" encoding="UTF-8" standalone="no" ?>
<gpx xmlns="http://www.topografix.com/GPX/1/1" xmlns:xsi="http://www.w3.org/2001/XMLSchema-instance" xsi:schemaLocation="http://www.topografix.com/GPX/1/1 http://www.topografix.com/GPX/1/1/gpx.xsd" version="1.1" creator="VisuGPX - https://www.visugpx.com">
  <metadata>
    <name>1er roc des terrils à Wallers</name>
    <desc><![CDATA[Beau parcours roulant mais avec des terrils en 2ème partie (1ère: champs mais sympa!)

à faire!]]></desc>
  </metadata>
  <trk>
    <name><![CDATA[1er roc des terrils à Wallers_1]]></name>
    <trkseg>
      <trkpt lat="50.3843" lon="3.42609">
        <ele>44.358032226562</ele>
        <time>2010-05-16T07:10:26Z</time>
      </trkpt>
      <trkpt lat="50.38431" lon="3.42609">
        <ele>43.877319335938</ele>
        <time>2010-05-16T07:10:28Z</time>
      </trkpt>
      <trkpt lat="50.38431" lon="3.42609">
        <ele>43.396606445312</ele>
        <time>2010-05-16T07:10:31Z</time>
      </trkpt>
      <trkpt lat="50.38429" lon="3.42601">
        <ele>42.435424804688</ele>
        <time>2010-05-16T07:10:33Z</time>
      </trkpt>
      <trkpt lat="50.38428" lon="3.42598">
        <ele>42.916015625</ele>
        <time>2010-05-16T07:10:36Z</time>
      </trkpt>
      <trkpt lat="50.3842" lon="3.42581">
        <ele>41.954711914062</ele>
        <time>2010-05-16T07:10:41Z</time>
      </trkpt>
      <trkpt lat="50.38413" lon="3.42564">
        <ele>43.396606445312</ele>
        <time>2010-05-16T07:10:44Z</time>
      </trkpt>
      <trkpt lat="50.3841" lon="3.42539">
        <ele>45.319213867188</ele>
        <time>2010-05-16T07:10:49Z</time>
      </trkpt>
      <trkpt lat="50.38419" lon="3.42532">
        <ele>44.838623046875</ele>
        <time>2010-05-16T07:10:52Z</time>
      </trkpt>
      <trkpt lat="50.38446" lon="3.42503">
        <ele>42.916015625</ele>
        <time>2010-05-16T07:11:00Z</time>
      </trkpt>
      <trkpt lat="50.3847" lon="3.42476">
        <ele>41.954711914062</ele>
        <time>2010-05-16T07:11:07Z</time>
      </trkpt>
      <trkpt lat="50.38488" lon="3.42455">
        <ele>41.954711914062</ele>
        <time>2010-05-16T07:11:13Z</time>
      </trkpt>
      <trkpt lat="50.38507" lon="3.42439">
        <ele>41.473999023438</ele>
        <time>2010-05-16T07:11:19Z</time>
      </trkpt>
      <trkpt lat="50.38511" lon="3.42438">
        <ele>41.473999023438</ele>
        <time>2010-05-16T07:11:20Z</time>
      </trkpt>
      <trkpt lat="50.38523" lon="3.42452">
        <ele>41.473999023438</ele>
        <time>2010-05-16T07:11:24Z</time>
      </trkpt>
      <trkpt lat="50.3854" lon="3.42455">
        <ele>41.473999023438</ele>
        <time>2010-05-16T07:11:29Z</time>
      </trkpt>
      <trkpt lat="50.38544" lon="3.42453">
        <ele>40.993408203125</ele>
        <time>2010-05-16T07:11:30Z</time>
      </trkpt>
      <trkpt lat="50.38563" lon="3.42435">
        <ele>40.032104492188</ele>
        <time>2010-05-16T07:11:38Z</time>
      </trkpt>
      <trkpt lat="50.38573" lon="3.42442">
        <ele>39.55126953125</ele>
        <time>2010-05-16T07:11:43Z</time>
      </trkpt>
      <trkpt lat="50.38579" lon="3.42439">
        <ele>38.590087890625</ele>
        <time>2010-05-16T07:11:47Z</time>
      </trkpt>
      <trkpt lat="50.38583" lon="3.42435">
        <ele>38.109375</ele>
        <time>2010-05-16T07:11:51Z</time>
      </trkpt>
      <trkpt lat="50.38593" lon="3.42434">
        <ele>38.109375</ele>
        <time>2010-05-16T07:11:55Z</time>
      </trkpt>
      <trkpt lat="50.38615" lon="3.42416">
        <ele>38.109375</ele>
        <time>2010-05-16T07:12:02Z</time>
      </trkpt>
      <trkpt lat="50.38618" lon="3.42415">
        <ele>38.109375</ele>
        <time>2010-05-16T07:12:03Z</time>
      </trkpt>
      <trkpt lat="50.38622" lon="3.42404">
        <ele>38.109375</ele>
        <time>2010-05-16T07:12:06Z</time>
      </trkpt>
      <trkpt lat="50.38628" lon="3.42401">
        <ele>38.109375</ele>
        <time>2010-05-16T07:12:10Z</time>
      </trkpt>
      <trkpt lat="50.38632" lon="3.4241">
        <ele>37.148071289062</ele>
        <time>2010-05-16T07:12:15Z</time>
      </trkpt>
      <trkpt lat="50.38636" lon="3.42403">
        <ele>37.628662109375</ele>
        <time>2010-05-16T07:12:18Z</time>
      </trkpt>
      <trkpt lat="50.38639" lon="3.4239">
        <ele>37.148071289062</ele>
        <time>2010-05-16T07:12:22Z</time>
      </trkpt>
      <trkpt lat="50.38647" lon="3.42379">
        <ele>37.148071289062</ele>
        <time>2010-05-16T07:12:26Z</time>
      </trkpt>
      <trkpt lat="50.38655" lon="3.42386">
        <ele>36.66748046875</ele>
        <time>2010-05-16T07:12:30Z</time>
      </trkpt>
      <trkpt lat="50.38654" lon="3.42398">
        <ele>37.148071289062</ele>
        <time>2010-05-16T07:12:33Z</time>
      </trkpt>
      <trkpt lat="50.38654" lon="3.42404">
        <ele>37.148071289062</ele>
        <time>2010-05-16T07:12:36Z</time>
      </trkpt>
      <trkpt lat="50.38661" lon="3.42403">
        <ele>37.148071289062</ele>
        <time>2010-05-16T07:12:39Z</time>
      </trkpt>
      <trkpt lat="50.38668" lon="3.42386">
        <ele>36.66748046875</ele>
        <time>2010-05-16T07:12:44Z</time>
      </trkpt>
      <trkpt lat="50.38675" lon="3.42369">
        <ele>37.148071289062</ele>
        <time>2010-05-16T07:12:48Z</time>
      </trkpt>
      <trkpt lat="50.3868" lon="3.42369">
        <ele>36.66748046875</ele>
        <time>2010-05-16T07:12:51Z</time>
      </trkpt>
      <trkpt lat="50.38681" lon="3.42381">
        <ele>37.148071289062</ele>
        <time>2010-05-16T07:12:54Z</time>
      </trkpt>
      <trkpt lat="50.38689" lon="3.42383">
        <ele>36.186767578125</ele>
        <time>2010-05-16T07:12:57Z</time>
      </trkpt>
      <trkpt lat="50.38697" lon="3.42371">
        <ele>36.186767578125</ele>
        <time>2010-05-16T07:13:01Z</time>
      </trkpt>
      <trkpt lat="50.38697" lon="3.42363">
        <ele>36.186767578125</ele>
        <time>2010-05-16T07:13:05Z</time>
      </trkpt>
      <trkpt lat="50.38702" lon="3.42355">
        <ele>36.186767578125</ele>
        <time>2010-05-16T07:13:09Z</time>
      </trkpt>
      <trkpt lat="50.38713" lon="3.42341">
        <ele>37.628662109375</ele>
        <time>2010-05-16T07:13:13Z</time>
      </trkpt>
      <trkpt lat="50.38713" lon="3.42315">
        <ele>38.590087890625</ele>
        <time>2010-05-16T07:13:18Z</time>
      </trkpt>
      <trkpt lat="50.38705" lon="3.42306">
        <ele>39.070678710938</ele>
        <time>2010-05-16T07:13:22Z</time>
      </trkpt>
      <trkpt lat="50.38697" lon="3.42304">
        <ele>39.55126953125</ele>
        <time>2010-05-16T07:13:26Z</time>
      </trkpt>
      <trkpt lat="50.38693" lon="3.42311">
        <ele>39.55126953125</ele>
        <time>2010-05-16T07:13:29Z</time>
      </trkpt>
      <trkpt lat="50.38689" lon="3.42305">
        <ele>39.070678710938</ele>
        <time>2010-05-16T07:13:31Z</time>
      </trkpt>
      <trkpt lat="50.38686" lon="3.42292">
        <ele>39.55126953125</ele>
        <time>2010-05-16T07:13:34Z</time>
      </trkpt>
      <trkpt lat="50.3869" lon="3.4228">
        <ele>38.590087890625</ele>
        <time>2010-05-16T07:13:38Z</time>
      </trkpt>
      <trkpt lat="50.38689" lon="3.42274">
        <ele>38.109375</ele>
        <time>2010-05-16T07:13:40Z</time>
      </trkpt>
      <trkpt lat="50.38696" lon="3.42257">
        <ele>37.628662109375</ele>
        <time>2010-05-16T07:13:45Z</time>
      </trkpt>
      <trkpt lat="50.38706" lon="3.42245">
        <ele>37.148071289062</ele>
        <time>2010-05-16T07:13:50Z</time>
      </trkpt>
      <trkpt lat="50.38723" lon="3.42229">
        <ele>37.148071289062</ele>
        <time>2010-05-16T07:13:56Z</time>
      </trkpt>
      <trkpt lat="50.38729" lon="3.42209">
        <ele>36.66748046875</ele>
        <time>2010-05-16T07:14:00Z</time>
      </trkpt>
      <trkpt lat="50.38728" lon="3.42191">
        <ele>36.186767578125</ele>
        <time>2010-05-16T07:14:03Z</time>
      </trkpt>
      <trkpt lat="50.38716" lon="3.42173">
        <ele>35.7060546875</ele>
        <time>2010-05-16T07:14:07Z</time>
      </trkpt>
      <trkpt lat="50.38692" lon="3.4218">
        <ele>33.783447265625</ele>
        <time>2010-05-16T07:14:12Z</time>
      </trkpt>
      <trkpt lat="50.3867" lon="3.422">
        <ele>34.744873046875</ele>
        <time>2010-05-16T07:14:16Z</time>
      </trkpt>
      <trkpt lat="50.3866" lon="3.42226">
        <ele>35.225463867188</ele>
        <time>2010-05-16T07:14:20Z</time>
      </trkpt>
      <trkpt lat="50.3866" lon="3.42231">
        <ele>35.225463867188</ele>
        <time>2010-05-16T07:14:21Z</time>
      </trkpt>
      <trkpt lat="50.38669" lon="3.42274">
        <ele>36.186767578125</ele>
        <time>2010-05-16T07:14:27Z</time>
      </trkpt>
      <trkpt lat="50.38676" lon="3.42302">
        <ele>37.148071289062</ele>
        <time>2010-05-16T07:14:32Z</time>
      </trkpt>
      <trkpt lat="50.38678" lon="3.42313">
        <ele>36.186767578125</ele>
        <time>2010-05-16T07:14:34Z</time>
      </trkpt>
      <trkpt lat="50.38665" lon="3.42331">
        <ele>36.186767578125</ele>
        <time>2010-05-16T07:14:38Z</time>
      </trkpt>
      <trkpt lat="50.38634" lon="3.4236">
        <ele>34.744873046875</ele>
        <time>2010-05-16T07:14:43Z</time>
      </trkpt>
      <trkpt lat="50.38594" lon="3.42398">
        <ele>34.744873046875</ele>
        <time>2010-05-16T07:14:49Z</time>
      </trkpt>
      <trkpt lat="50.38583" lon="3.42412">
        <ele>34.744873046875</ele>
        <time>2010-05-16T07:14:51Z</time>
      </trkpt>
      <trkpt lat="50.38569" lon="3.42414">
        <ele>34.26416015625</ele>
        <time>2010-05-16T07:14:54Z</time>
      </trkpt>
      <trkpt lat="50.38566" lon="3.42407">
        <ele>34.26416015625</ele>
        <time>2010-05-16T07:14:55Z</time>
      </trkpt>
      <trkpt lat="50.38544" lon="3.4236">
        <ele>33.783447265625</ele>
        <time>2010-05-16T07:15:01Z</time>
      </trkpt>
      <trkpt lat="50.38529" lon="3.42353">
        <ele>34.26416015625</ele>
        <time>2010-05-16T07:15:04Z</time>
      </trkpt>
      <trkpt lat="50.38523" lon="3.42358">
        <ele>33.783447265625</ele>
        <time>2010-05-16T07:15:05Z</time>
      </trkpt>
      <trkpt lat="50.38501" lon="3.42379">
        <ele>33.783447265625</ele>
        <time>2010-05-16T07:15:09Z</time>
      </trkpt>
      <trkpt lat="50.38483" lon="3.42402">
        <ele>35.225463867188</ele>
        <time>2010-05-16T07:15:13Z</time>
      </trkpt>
      <trkpt lat="50.38475" lon="3.42399">
        <ele>35.7060546875</ele>
        <time>2010-05-16T07:15:15Z</time>
      </trkpt>
      <trkpt lat="50.38469" lon="3.42391">
        <ele>36.66748046875</ele>
        <time>2010-05-16T07:15:18Z</time>
      </trkpt>
      <trkpt lat="50.38463" lon="3.42398">
        <ele>36.186767578125</ele>
        <time>2010-05-16T07:15:20Z</time>
      </trkpt>
      <trkpt lat="50.38425" lon="3.42439">
        <ele>37.628662109375</ele>
        <time>2010-05-16T07:15:29Z</time>
      </trkpt>
      <trkpt lat="50.38406" lon="3.42439">
        <ele>37.628662109375</ele>
        <time>2010-05-16T07:15:33Z</time>
      </trkpt>
      <trkpt lat="50.38379" lon="3.42416">
        <ele>37.148071289062</ele>
        <time>2010-05-16T07:15:38Z</time>
      </trkpt>
      <trkpt lat="50.38354" lon="3.42413">
        <ele>37.148071289062</ele>
        <time>2010-05-16T07:15:42Z</time>
      </trkpt>
      <trkpt lat="50.38343" lon="3.42424">
        <ele>37.148071289062</ele>
        <time>2010-05-16T07:15:44Z</time>
      </trkpt>
      <trkpt lat="50.38327" lon="3.42442">
        <ele>37.628662109375</ele>
        <time>2010-05-16T07:15:47Z</time>
      </trkpt>
      <trkpt lat="50.38308" lon="3.42462">
        <ele>37.148071289062</ele>
        <time>2010-05-16T07:15:51Z</time>
      </trkpt>
      <trkpt lat="50.38301" lon="3.42475">
        <ele>36.66748046875</ele>
        <time>2010-05-16T07:15:54Z</time>
      </trkpt>
      <trkpt lat="50.38306" lon="3.42483">
        <ele>36.66748046875</ele>
        <time>2010-05-16T07:15:57Z</time>
      </trkpt>
      <trkpt lat="50.38303" lon="3.42487">
        <ele>36.66748046875</ele>
        <time>2010-05-16T07:15:59Z</time>
      </trkpt>
      <trkpt lat="50.38291" lon="3.42485">
        <ele>36.186767578125</ele>
        <time>2010-05-16T07:16:02Z</time>
      </trkpt>
      <trkpt lat="50.3828" lon="3.42498">
        <ele>35.7060546875</ele>
        <time>2010-05-16T07:16:05Z</time>
      </trkpt>
      <trkpt lat="50.3828" lon="3.4251">
        <ele>35.7060546875</ele>
        <time>2010-05-16T07:16:07Z</time>
      </trkpt>
      <trkpt lat="50.3829" lon="3.42512">
        <ele>35.225463867188</ele>
        <time>2010-05-16T07:16:10Z</time>
      </trkpt>
      <trkpt lat="50.38302" lon="3.42509">
        <ele>34.744873046875</ele>
        <time>2010-05-16T07:16:13Z</time>
      </trkpt>
      <trkpt lat="50.38312" lon="3.42521">
        <ele>34.744873046875</ele>
        <time>2010-05-16T07:16:16Z</time>
      </trkpt>
      <trkpt lat="50.38305" lon="3.42537">
        <ele>34.744873046875</ele>
        <time>2010-05-16T07:16:19Z</time>
      </trkpt>
      <trkpt lat="50.38291" lon="3.42539">
        <ele>34.744873046875</ele>
        <time>2010-05-16T07:16:22Z</time>
      </trkpt>
      <trkpt lat="50.38277" lon="3.42546">
        <ele>34.744873046875</ele>
        <time>2010-05-16T07:16:26Z</time>
      </trkpt>
      <trkpt lat="50.38279" lon="3.42554">
        <ele>34.744873046875</ele>
        <time>2010-05-16T07:16:28Z</time>
      </trkpt>
      <trkpt lat="50.38282" lon="3.42575">
        <ele>34.744873046875</ele>
        <time>2010-05-16T07:16:33Z</time>
      </trkpt>
      <trkpt lat="50.3828" lon="3.4258">
        <ele>34.744873046875</ele>
        <time>2010-05-16T07:16:34Z</time>
      </trkpt>
      <trkpt lat="50.38276" lon="3.42589">
        <ele>34.744873046875</ele>
        <time>2010-05-16T07:16:36Z</time>
      </trkpt>
      <trkpt lat="50.38264" lon="3.42601">
        <ele>35.225463867188</ele>
        <time>2010-05-16T07:16:39Z</time>
      </trkpt>
      <trkpt lat="50.38258" lon="3.42618">
        <ele>35.225463867188</ele>
        <time>2010-05-16T07:16:43Z</time>
      </trkpt>
      <trkpt lat="50.38249" lon="3.42627">
        <ele>35.225463867188</ele>
        <time>2010-05-16T07:16:46Z</time>
      </trkpt>
      <trkpt lat="50.38236" lon="3.42632">
        <ele>35.7060546875</ele>
        <time>2010-05-16T07:16:50Z</time>
      </trkpt>
      <trkpt lat="50.38231" lon="3.42631">
        <ele>35.7060546875</ele>
        <time>2010-05-16T07:16:55Z</time>
      </trkpt>
      <trkpt lat="50.38231" lon="3.42629">
        <ele>35.225463867188</ele>
        <time>2010-05-16T07:16:56Z</time>
      </trkpt>
      <trkpt lat="50.38241" lon="3.4262">
        <ele>36.66748046875</ele>
        <time>2010-05-16T07:17:02Z</time>
      </trkpt>
      <trkpt lat="50.3826" lon="3.426">
        <ele>37.148071289062</ele>
        <time>2010-05-16T07:17:08Z</time>
      </trkpt>
      <trkpt lat="50.38264" lon="3.42596">
        <ele>37.148071289062</ele>
        <time>2010-05-16T07:17:09Z</time>
      </trkpt>
      <trkpt lat="50.38273" lon="3.42582">
        <ele>37.148071289062</ele>
        <time>2010-05-16T07:17:12Z</time>
      </trkpt>
      <trkpt lat="50.38276" lon="3.42554">
        <ele>36.66748046875</ele>
        <time>2010-05-16T07:17:16Z</time>
      </trkpt>
      <trkpt lat="50.38275" lon="3.42545">
        <ele>36.66748046875</ele>
        <time>2010-05-16T07:17:17Z</time>
      </trkpt>
      <trkpt lat="50.38271" lon="3.42514">
        <ele>36.66748046875</ele>
        <time>2010-05-16T07:17:21Z</time>
      </trkpt>
      <trkpt lat="50.38273" lon="3.42502">
        <ele>36.66748046875</ele>
        <time>2010-05-16T07:17:23Z</time>
      </trkpt>
      <trkpt lat="50.38284" lon="3.42476">
        <ele>36.186767578125</ele>
        <time>2010-05-16T07:17:28Z</time>
      </trkpt>
      <trkpt lat="50.38302" lon="3.4246">
        <ele>36.186767578125</ele>
        <time>2010-05-16T07:17:33Z</time>
      </trkpt>
      <trkpt lat="50.38323" lon="3.42439">
        <ele>36.66748046875</ele>
        <time>2010-05-16T07:17:38Z</time>
      </trkpt>
      <trkpt lat="50.3834" lon="3.42415">
        <ele>37.628662109375</ele>
        <time>2010-05-16T07:17:42Z</time>
      </trkpt>
      <trkpt lat="50.38365" lon="3.42401">
        <ele>36.66748046875</ele>
        <time>2010-05-16T07:17:47Z</time>
      </trkpt>
      <trkpt lat="50.38376" lon="3.42409">
        <ele>37.148071289062</ele>
        <time>2010-05-16T07:17:49Z</time>
      </trkpt>
      <trkpt lat="50.38404" lon="3.4243">
        <ele>37.148071289062</ele>
        <time>2010-05-16T07:17:54Z</time>
      </trkpt>
      <trkpt lat="50.38423" lon="3.42432">
        <ele>35.7060546875</ele>
        <time>2010-05-16T07:17:58Z</time>
      </trkpt>
      <trkpt lat="50.38432" lon="3.42424">
        <ele>35.7060546875</ele>
        <time>2010-05-16T07:18:00Z</time>
      </trkpt>
      <trkpt lat="50.38465" lon="3.42392">
        <ele>36.66748046875</ele>
        <time>2010-05-16T07:18:07Z</time>
      </trkpt>
      <trkpt lat="50.38475" lon="3.42384">
        <ele>36.66748046875</ele>
        <time>2010-05-16T07:18:10Z</time>
      </trkpt>
      <trkpt lat="50.38494" lon="3.42384">
        <ele>35.7060546875</ele>
        <time>2010-05-16T07:18:15Z</time>
      </trkpt>
      <trkpt lat="50.38499" lon="3.42379">
        <ele>35.225463867188</ele>
        <time>2010-05-16T07:18:16Z</time>
      </trkpt>
      <trkpt lat="50.38525" lon="3.42351">
        <ele>35.225463867188</ele>
        <time>2010-05-16T07:18:21Z</time>
      </trkpt>
      <trkpt lat="50.38533" lon="3.4234">
        <ele>35.225463867188</ele>
        <time>2010-05-16T07:18:23Z</time>
      </trkpt>
      <trkpt lat="50.38546" lon="3.42346">
        <ele>35.7060546875</ele>
        <time>2010-05-16T07:18:27Z</time>
      </trkpt>
      <trkpt lat="50.38555" lon="3.42344">
        <ele>34.744873046875</ele>
        <time>2010-05-16T07:18:31Z</time>
      </trkpt>
      <trkpt lat="50.38562" lon="3.42334">
        <ele>35.7060546875</ele>
        <time>2010-05-16T07:18:36Z</time>
      </trkpt>
      <trkpt lat="50.38562" lon="3.42327">
        <ele>35.225463867188</ele>
        <time>2010-05-16T07:18:41Z</time>
      </trkpt>
      <trkpt lat="50.38562" lon="3.42326">
        <ele>35.225463867188</ele>
        <time>2010-05-16T07:18:49Z</time>
      </trkpt>
      <trkpt lat="50.3856" lon="3.42315">
        <ele>35.7060546875</ele>
        <time>2010-05-16T07:18:52Z</time>
      </trkpt>
      <trkpt lat="50.38559" lon="3.42305">
        <ele>36.186767578125</ele>
        <time>2010-05-16T07:18:54Z</time>
      </trkpt>
      <trkpt lat="50.38571" lon="3.42293">
        <ele>36.186767578125</ele>
        <time>2010-05-16T07:18:59Z</time>
      </trkpt>
      <trkpt lat="50.38575" lon="3.42295">
        <ele>35.7060546875</ele>
        <time>2010-05-16T07:19:00Z</time>
      </trkpt>
      <trkpt lat="50.38592" lon="3.42309">
        <ele>35.7060546875</ele>
        <time>2010-05-16T07:19:04Z</time>
      </trkpt>
      <trkpt lat="50.38602" lon="3.42303">
        <ele>36.186767578125</ele>
        <time>2010-05-16T07:19:08Z</time>
      </trkpt>
      <trkpt lat="50.38599" lon="3.42292">
        <ele>35.7060546875</ele>
        <time>2010-05-16T07:19:10Z</time>
      </trkpt>
      <trkpt lat="50.38594" lon="3.42282">
        <ele>35.7060546875</ele>
        <time>2010-05-16T07:19:12Z</time>
      </trkpt>
      <trkpt lat="50.38596" lon="3.4226">
        <ele>36.66748046875</ele>
        <time>2010-05-16T07:19:17Z</time>
      </trkpt>
      <trkpt lat="50.38606" lon="3.42261">
        <ele>36.186767578125</ele>
        <time>2010-05-16T07:19:20Z</time>
      </trkpt>
      <trkpt lat="50.38611" lon="3.42265">
        <ele>36.186767578125</ele>
        <time>2010-05-16T07:19:21Z</time>
      </trkpt>
      <trkpt lat="50.38626" lon="3.42267">
        <ele>36.186767578125</ele>
        <time>2010-05-16T07:19:25Z</time>
      </trkpt>
      <trkpt lat="50.38625" lon="3.42259">
        <ele>36.186767578125</ele>
        <time>2010-05-16T07:19:27Z</time>
      </trkpt>
      <trkpt lat="50.38617" lon="3.42233">
        <ele>37.148071289062</ele>
        <time>2010-05-16T07:19:32Z</time>
      </trkpt>
      <trkpt lat="50.38623" lon="3.42227">
        <ele>37.148071289062</ele>
        <time>2010-05-16T07:19:35Z</time>
      </trkpt>
      <trkpt lat="50.38624" lon="3.42229">
        <ele>36.186767578125</ele>
        <time>2010-05-16T07:19:36Z</time>
      </trkpt>
      <trkpt lat="50.38645" lon="3.4225">
        <ele>34.26416015625</ele>
        <time>2010-05-16T07:19:42Z</time>
      </trkpt>
      <trkpt lat="50.38653" lon="3.42249">
        <ele>33.783447265625</ele>
        <time>2010-05-16T07:19:45Z</time>
      </trkpt>
      <trkpt lat="50.38651" lon="3.42241">
        <ele>33.302856445312</ele>
        <time>2010-05-16T07:19:48Z</time>
      </trkpt>
      <trkpt lat="50.38642" lon="3.42236">
        <ele>33.783447265625</ele>
        <time>2010-05-16T07:19:53Z</time>
      </trkpt>
      <trkpt lat="50.3863" lon="3.42228">
        <ele>34.744873046875</ele>
        <time>2010-05-16T07:19:57Z</time>
      </trkpt>
      <trkpt lat="50.38629" lon="3.42221">
        <ele>36.186767578125</ele>
        <time>2010-05-16T07:20:01Z</time>
      </trkpt>
      <trkpt lat="50.38639" lon="3.42212">
        <ele>37.148071289062</ele>
        <time>2010-05-16T07:20:08Z</time>
      </trkpt>
      <trkpt lat="50.38645" lon="3.42204">
        <ele>37.148071289062</ele>
        <time>2010-05-16T07:20:14Z</time>
      </trkpt>
      <trkpt lat="50.38645" lon="3.42204">
        <ele>36.66748046875</ele>
        <time>2010-05-16T07:20:15Z</time>
      </trkpt>
      <trkpt lat="50.38645" lon="3.42201">
        <ele>45.799926757812</ele>
        <time>2010-05-16T07:21:37Z</time>
      </trkpt>
      <trkpt lat="50.38655" lon="3.42193">
        <ele>45.319213867188</ele>
        <time>2010-05-16T07:21:40Z</time>
      </trkpt>
      <trkpt lat="50.38662" lon="3.42189">
        <ele>43.877319335938</ele>
        <time>2010-05-16T07:21:43Z</time>
      </trkpt>
      <trkpt lat="50.38665" lon="3.42186">
        <ele>42.435424804688</ele>
        <time>2010-05-16T07:21:48Z</time>
      </trkpt>
      <trkpt lat="50.38665" lon="3.42186">
        <ele>41.954711914062</ele>
        <time>2010-05-16T07:21:51Z</time>
      </trkpt>
      <trkpt lat="50.38665" lon="3.42183">
        <ele>42.435424804688</ele>
        <time>2010-05-16T07:21:53Z</time>
      </trkpt>
      <trkpt lat="50.38665" lon="3.42182">
        <ele>42.435424804688</ele>
        <time>2010-05-16T07:21:56Z</time>
      </trkpt>
      <trkpt lat="50.38659" lon="3.42179">
        <ele>41.954711914062</ele>
        <time>2010-05-16T07:22:00Z</time>
      </trkpt>
      <trkpt lat="50.38655" lon="3.42182">
        <ele>40.032104492188</ele>
        <time>2010-05-16T07:22:05Z</time>
      </trkpt>
      <trkpt lat="50.3865" lon="3.42183">
        <ele>40.032104492188</ele>
        <time>2010-05-16T07:22:12Z</time>
      </trkpt>
      <trkpt lat="50.38649" lon="3.42183">
        <ele>40.512817382812</ele>
        <time>2010-05-16T07:22:13Z</time>
      </trkpt>
      <trkpt lat="50.38645" lon="3.42178">
        <ele>40.512817382812</ele>
        <time>2010-05-16T07:22:17Z</time>
      </trkpt>
      <trkpt lat="50.38644" lon="3.42172">
        <ele>40.512817382812</ele>
        <time>2010-05-16T07:22:19Z</time>
      </trkpt>
      <trkpt lat="50.38652" lon="3.42158">
        <ele>39.55126953125</ele>
        <time>2010-05-16T07:22:23Z</time>
      </trkpt>
      <trkpt lat="50.38658" lon="3.42153">
        <ele>39.55126953125</ele>
        <time>2010-05-16T07:22:25Z</time>
      </trkpt>
      <trkpt lat="50.3867" lon="3.42153">
        <ele>42.435424804688</ele>
        <time>2010-05-16T07:22:30Z</time>
      </trkpt>
      <trkpt lat="50.3867" lon="3.42143">
        <ele>42.435424804688</ele>
        <time>2010-05-16T07:22:33Z</time>
      </trkpt>
      <trkpt lat="50.38663" lon="3.42132">
        <ele>42.916015625</ele>
        <time>2010-05-16T07:22:36Z</time>
      </trkpt>
      <trkpt lat="50.38668" lon="3.42107">
        <ele>40.993408203125</ele>
        <time>2010-05-16T07:22:41Z</time>
      </trkpt>
      <trkpt lat="50.38676" lon="3.42078">
        <ele>39.070678710938</ele>
        <time>2010-05-16T07:22:47Z</time>
      </trkpt>
      <trkpt lat="50.38685" lon="3.42052">
        <ele>37.628662109375</ele>
        <time>2010-05-16T07:22:53Z</time>
      </trkpt>
      <trkpt lat="50.38697" lon="3.42033">
        <ele>36.66748046875</ele>
        <time>2010-05-16T07:22:57Z</time>
      </trkpt>
      <trkpt lat="50.38693" lon="3.42011">
        <ele>36.186767578125</ele>
        <time>2010-05-16T07:22:59Z</time>
      </trkpt>
      <trkpt lat="50.3869" lon="3.42002">
        <ele>35.7060546875</ele>
        <time>2010-05-16T07:23:00Z</time>
      </trkpt>
      <trkpt lat="50.38684" lon="3.41983">
        <ele>35.7060546875</ele>
        <time>2010-05-16T07:23:02Z</time>
      </trkpt>
      <trkpt lat="50.38678" lon="3.41968">
        <ele>35.7060546875</ele>
        <time>2010-05-16T07:23:04Z</time>
      </trkpt>
      <trkpt lat="50.38657" lon="3.41939">
        <ele>35.225463867188</ele>
        <time>2010-05-16T07:23:10Z</time>
      </trkpt>
      <trkpt lat="50.38633" lon="3.41904">
        <ele>34.26416015625</ele>
        <time>2010-05-16T07:23:16Z</time>
      </trkpt>
      <trkpt lat="50.38615" lon="3.4187">
        <ele>34.26416015625</ele>
        <time>2010-05-16T07:23:21Z</time>
      </trkpt>
      <trkpt lat="50.38598" lon="3.41852">
        <ele>34.26416015625</ele>
        <time>2010-05-16T07:23:25Z</time>
      </trkpt>
      <trkpt lat="50.38572" lon="3.41857">
        <ele>34.26416015625</ele>
        <time>2010-05-16T07:23:30Z</time>
      </trkpt>
      <trkpt lat="50.38563" lon="3.41864">
        <ele>33.783447265625</ele>
        <time>2010-05-16T07:23:32Z</time>
      </trkpt>
      <trkpt lat="50.38535" lon="3.41888">
        <ele>33.302856445312</ele>
        <time>2010-05-16T07:23:38Z</time>
      </trkpt>
      <trkpt lat="50.3852" lon="3.41885">
        <ele>32.822265625</ele>
        <time>2010-05-16T07:23:42Z</time>
      </trkpt>
      <trkpt lat="50.38515" lon="3.41864">
        <ele>32.822265625</ele>
        <time>2010-05-16T07:23:46Z</time>
      </trkpt>
      <trkpt lat="50.38515" lon="3.41861">
        <ele>32.822265625</ele>
        <time>2010-05-16T07:23:47Z</time>
      </trkpt>
      <trkpt lat="50.38514" lon="3.41831">
        <ele>30.418823242188</ele>
        <time>2010-05-16T07:23:52Z</time>
      </trkpt>
      <trkpt lat="50.38505" lon="3.41825">
        <ele>29.938110351562</ele>
        <time>2010-05-16T07:23:54Z</time>
      </trkpt>
      <trkpt lat="50.38491" lon="3.41814">
        <ele>30.418823242188</ele>
        <time>2010-05-16T07:23:57Z</time>
      </trkpt>
      <trkpt lat="50.38476" lon="3.41803">
        <ele>29.938110351562</ele>
        <time>2010-05-16T07:24:00Z</time>
      </trkpt>
      <trkpt lat="50.38465" lon="3.41794">
        <ele>30.418823242188</ele>
        <time>2010-05-16T07:24:02Z</time>
      </trkpt>
      <trkpt lat="50.38447" lon="3.41794">
        <ele>30.418823242188</ele>
        <time>2010-05-16T07:24:06Z</time>
      </trkpt>
      <trkpt lat="50.38441" lon="3.41806">
        <ele>30.899536132812</ele>
        <time>2010-05-16T07:24:08Z</time>
      </trkpt>
      <trkpt lat="50.38419" lon="3.41844">
        <ele>30.418823242188</ele>
        <time>2010-05-16T07:24:15Z</time>
      </trkpt>
      <trkpt lat="50.38397" lon="3.41874">
        <ele>31.380126953125</ele>
        <time>2010-05-16T07:24:21Z</time>
      </trkpt>
      <trkpt lat="50.38375" lon="3.41877">
        <ele>30.418823242188</ele>
        <time>2010-05-16T07:24:25Z</time>
      </trkpt>
      <trkpt lat="50.38349" lon="3.41854">
        <ele>30.418823242188</ele>
        <time>2010-05-16T07:24:30Z</time>
      </trkpt>
      <trkpt lat="50.38344" lon="3.41849">
        <ele>30.418823242188</ele>
        <time>2010-05-16T07:24:31Z</time>
      </trkpt>
      <trkpt lat="50.38302" lon="3.41799">
        <ele>29.938110351562</ele>
        <time>2010-05-16T07:24:40Z</time>
      </trkpt>
      <trkpt lat="50.38298" lon="3.41794">
        <ele>29.938110351562</ele>
        <time>2010-05-16T07:24:41Z</time>
      </trkpt>
      <trkpt lat="50.38281" lon="3.41792">
        <ele>29.45751953125</ele>
        <time>2010-05-16T07:24:45Z</time>
      </trkpt>
      <trkpt lat="50.38278" lon="3.41797">
        <ele>29.45751953125</ele>
        <time>2010-05-16T07:24:46Z</time>
      </trkpt>
      <trkpt lat="50.3826" lon="3.41837">
        <ele>29.45751953125</ele>
        <time>2010-05-16T07:24:53Z</time>
      </trkpt>
      <trkpt lat="50.38243" lon="3.41875">
        <ele>29.938110351562</ele>
        <time>2010-05-16T07:24:59Z</time>
      </trkpt>
      <trkpt lat="50.38226" lon="3.41907">
        <ele>29.45751953125</ele>
        <time>2010-05-16T07:25:04Z</time>
      </trkpt>
      <trkpt lat="50.38214" lon="3.41924">
        <ele>29.45751953125</ele>
        <time>2010-05-16T07:25:07Z</time>
      </trkpt>
      <trkpt lat="50.38206" lon="3.4195">
        <ele>28.976928710938</ele>
        <time>2010-05-16T07:25:11Z</time>
      </trkpt>
      <trkpt lat="50.38207" lon="3.41958">
        <ele>28.976928710938</ele>
        <time>2010-05-16T07:25:12Z</time>
      </trkpt>
      <trkpt lat="50.38213" lon="3.41997">
        <ele>29.45751953125</ele>
        <time>2010-05-16T07:25:17Z</time>
      </trkpt>
      <trkpt lat="50.3822" lon="3.42056">
        <ele>30.418823242188</ele>
        <time>2010-05-16T07:25:25Z</time>
      </trkpt>
      <trkpt lat="50.38226" lon="3.42103">
        <ele>30.899536132812</ele>
        <time>2010-05-16T07:25:32Z</time>
      </trkpt>
      <trkpt lat="50.38234" lon="3.4217">
        <ele>31.380126953125</ele>
        <time>2010-05-16T07:25:41Z</time>
      </trkpt>
      <trkpt lat="50.38238" lon="3.42198">
        <ele>31.380126953125</ele>
        <time>2010-05-16T07:25:45Z</time>
      </trkpt>
      <trkpt lat="50.3824" lon="3.42217">
        <ele>31.860717773438</ele>
        <time>2010-05-16T07:25:48Z</time>
      </trkpt>
      <trkpt lat="50.38245" lon="3.42258">
        <ele>32.822265625</ele>
        <time>2010-05-16T07:25:55Z</time>
      </trkpt>
      <trkpt lat="50.38239" lon="3.42275">
        <ele>32.341552734375</ele>
        <time>2010-05-16T07:25:59Z</time>
      </trkpt>
      <trkpt lat="50.38221" lon="3.42295">
        <ele>32.341552734375</ele>
        <time>2010-05-16T07:26:04Z</time>
      </trkpt>
      <trkpt lat="50.38218" lon="3.42319">
        <ele>32.822265625</ele>
        <time>2010-05-16T07:26:08Z</time>
      </trkpt>
      <trkpt lat="50.3822" lon="3.42325">
        <ele>32.822265625</ele>
        <time>2010-05-16T07:26:09Z</time>
      </trkpt>
      <trkpt lat="50.38232" lon="3.42363">
        <ele>34.26416015625</ele>
        <time>2010-05-16T07:26:16Z</time>
      </trkpt>
      <trkpt lat="50.38233" lon="3.42379">
        <ele>33.783447265625</ele>
        <time>2010-05-16T07:26:19Z</time>
      </trkpt>
      <trkpt lat="50.38221" lon="3.42399">
        <ele>33.302856445312</ele>
        <time>2010-05-16T07:26:24Z</time>
      </trkpt>
      <trkpt lat="50.38218" lon="3.42403">
        <ele>32.341552734375</ele>
        <time>2010-05-16T07:26:25Z</time>
      </trkpt>
      <trkpt lat="50.38187" lon="3.42438">
        <ele>31.860717773438</ele>
        <time>2010-05-16T07:26:33Z</time>
      </trkpt>
      <trkpt lat="50.38153" lon="3.4248">
        <ele>31.380126953125</ele>
        <time>2010-05-16T07:26:41Z</time>
      </trkpt>
      <trkpt lat="50.3814" lon="3.42496">
        <ele>31.380126953125</ele>
        <time>2010-05-16T07:26:44Z</time>
      </trkpt>
      <trkpt lat="50.38105" lon="3.4254">
        <ele>32.341552734375</ele>
        <time>2010-05-16T07:26:53Z</time>
      </trkpt>
      <trkpt lat="50.38098" lon="3.42547">
        <ele>32.341552734375</ele>
        <time>2010-05-16T07:26:55Z</time>
      </trkpt>
      <trkpt lat="50.38091" lon="3.4257">
        <ele>32.822265625</ele>
        <time>2010-05-16T07:26:59Z</time>
      </trkpt>
      <trkpt lat="50.38092" lon="3.42578">
        <ele>32.822265625</ele>
        <time>2010-05-16T07:27:00Z</time>
      </trkpt>
      <trkpt lat="50.38092" lon="3.42611">
        <ele>33.302856445312</ele>
        <time>2010-05-16T07:27:05Z</time>
      </trkpt>
      <trkpt lat="50.38085" lon="3.42617">
        <ele>33.302856445312</ele>
        <time>2010-05-16T07:27:07Z</time>
      </trkpt>
      <trkpt lat="50.38047" lon="3.42636">
        <ele>34.26416015625</ele>
        <time>2010-05-16T07:27:15Z</time>
      </trkpt>
      <trkpt lat="50.38014" lon="3.42633">
        <ele>34.744873046875</ele>
        <time>2010-05-16T07:27:22Z</time>
      </trkpt>
      <trkpt lat="50.37973" lon="3.42629">
        <ele>36.186767578125</ele>
        <time>2010-05-16T07:27:31Z</time>
      </trkpt>
      <trkpt lat="50.37935" lon="3.42625">
        <ele>37.148071289062</ele>
        <time>2010-05-16T07:27:40Z</time>
      </trkpt>
      <trkpt lat="50.37898" lon="3.42621">
        <ele>37.628662109375</ele>
        <time>2010-05-16T07:27:48Z</time>
      </trkpt>
      <trkpt lat="50.37871" lon="3.42618">
        <ele>38.109375</ele>
        <time>2010-05-16T07:27:54Z</time>
      </trkpt>
      <trkpt lat="50.37839" lon="3.42615">
        <ele>38.109375</ele>
        <time>2010-05-16T07:28:01Z</time>
      </trkpt>
      <trkpt lat="50.37818" lon="3.42612">
        <ele>38.109375</ele>
        <time>2010-05-16T07:28:07Z</time>
      </trkpt>
      <trkpt lat="50.3779" lon="3.42608">
        <ele>38.590087890625</ele>
        <time>2010-05-16T07:28:14Z</time>
      </trkpt>
      <trkpt lat="50.37766" lon="3.42602">
        <ele>38.590087890625</ele>
        <time>2010-05-16T07:28:20Z</time>
      </trkpt>
      <trkpt lat="50.37742" lon="3.42596">
        <ele>38.109375</ele>
        <time>2010-05-16T07:28:25Z</time>
      </trkpt>
      <trkpt lat="50.37723" lon="3.42589">
        <ele>38.590087890625</ele>
        <time>2010-05-16T07:28:29Z</time>
      </trkpt>
      <trkpt lat="50.3769" lon="3.42574">
        <ele>38.109375</ele>
        <time>2010-05-16T07:28:36Z</time>
      </trkpt>
      <trkpt lat="50.37663" lon="3.42557">
        <ele>38.109375</ele>
        <time>2010-05-16T07:28:42Z</time>
      </trkpt>
      <trkpt lat="50.37639" lon="3.42539">
        <ele>37.628662109375</ele>
        <time>2010-05-16T07:28:48Z</time>
      </trkpt>
      <trkpt lat="50.37636" lon="3.42538">
        <ele>37.628662109375</ele>
        <time>2010-05-16T07:28:53Z</time>
      </trkpt>
      <trkpt lat="50.3764" lon="3.42542">
        <ele>37.628662109375</ele>
        <time>2010-05-16T07:28:56Z</time>
      </trkpt>
      <trkpt lat="50.37639" lon="3.42547">
        <ele>37.628662109375</ele>
        <time>2010-05-16T07:28:59Z</time>
      </trkpt>
      <trkpt lat="50.37637" lon="3.42554">
        <ele>38.109375</ele>
        <time>2010-05-16T07:29:02Z</time>
      </trkpt>
      <trkpt lat="50.37644" lon="3.42564">
        <ele>37.628662109375</ele>
        <time>2010-05-16T07:29:06Z</time>
      </trkpt>
      <trkpt lat="50.37658" lon="3.42572">
        <ele>37.148071289062</ele>
        <time>2010-05-16T07:29:10Z</time>
      </trkpt>
      <trkpt lat="50.37672" lon="3.42599">
        <ele>36.186767578125</ele>
        <time>2010-05-16T07:29:15Z</time>
      </trkpt>
      <trkpt lat="50.37675" lon="3.42605">
        <ele>35.7060546875</ele>
        <time>2010-05-16T07:29:16Z</time>
      </trkpt>
      <trkpt lat="50.37679" lon="3.42619">
        <ele>35.7060546875</ele>
        <time>2010-05-16T07:29:18Z</time>
      </trkpt>
      <trkpt lat="50.37684" lon="3.42652">
        <ele>36.66748046875</ele>
        <time>2010-05-16T07:29:22Z</time>
      </trkpt>
      <trkpt lat="50.37685" lon="3.42675">
        <ele>37.628662109375</ele>
        <time>2010-05-16T07:29:25Z</time>
      </trkpt>
      <trkpt lat="50.37676" lon="3.4269">
        <ele>36.66748046875</ele>
        <time>2010-05-16T07:29:29Z</time>
      </trkpt>
      <trkpt lat="50.37671" lon="3.42689">
        <ele>36.66748046875</ele>
        <time>2010-05-16T07:29:30Z</time>
      </trkpt>
      <trkpt lat="50.37662" lon="3.42687">
        <ele>36.186767578125</ele>
        <time>2010-05-16T07:29:34Z</time>
      </trkpt>
      <trkpt lat="50.37661" lon="3.42687">
        <ele>36.186767578125</ele>
        <time>2010-05-16T07:29:37Z</time>
      </trkpt>
      <trkpt lat="50.3766" lon="3.42687">
        <ele>36.66748046875</ele>
        <time>2010-05-16T07:29:40Z</time>
      </trkpt>
      <trkpt lat="50.37659" lon="3.42688">
        <ele>37.628662109375</ele>
        <time>2010-05-16T07:29:41Z</time>
      </trkpt>
      <trkpt lat="50.37657" lon="3.42688">
        <ele>38.109375</ele>
        <time>2010-05-16T07:29:44Z</time>
      </trkpt>
      <trkpt lat="50.37648" lon="3.42688">
        <ele>38.109375</ele>
        <time>2010-05-16T07:29:49Z</time>
      </trkpt>
      <trkpt lat="50.37643" lon="3.42688">
        <ele>38.590087890625</ele>
        <time>2010-05-16T07:29:53Z</time>
      </trkpt>
      <trkpt lat="50.37635" lon="3.42693">
        <ele>38.109375</ele>
        <time>2010-05-16T07:29:58Z</time>
      </trkpt>
      <trkpt lat="50.37632" lon="3.42694">
        <ele>37.628662109375</ele>
        <time>2010-05-16T07:30:01Z</time>
      </trkpt>
      <trkpt lat="50.37632" lon="3.42694">
        <ele>37.628662109375</ele>
        <time>2010-05-16T07:30:04Z</time>
      </trkpt>
      <trkpt lat="50.37631" lon="3.42694">
        <ele>38.109375</ele>
        <time>2010-05-16T07:30:05Z</time>
      </trkpt>
      <trkpt lat="50.37627" lon="3.42692">
        <ele>38.109375</ele>
        <time>2010-05-16T07:30:09Z</time>
      </trkpt>
      <trkpt lat="50.37627" lon="3.42693">
        <ele>38.590087890625</ele>
        <time>2010-05-16T07:30:12Z</time>
      </trkpt>
      <trkpt lat="50.37626" lon="3.42692">
        <ele>38.590087890625</ele>
        <time>2010-05-16T07:30:13Z</time>
      </trkpt>
      <trkpt lat="50.37616" lon="3.42692">
        <ele>38.590087890625</ele>
        <time>2010-05-16T07:30:15Z</time>
      </trkpt>
      <trkpt lat="50.37597" lon="3.42693">
        <ele>39.070678710938</ele>
        <time>2010-05-16T07:30:22Z</time>
      </trkpt>
      <trkpt lat="50.37595" lon="3.42694">
        <ele>40.032104492188</ele>
        <time>2010-05-16T07:30:24Z</time>
      </trkpt>
      <trkpt lat="50.37586" lon="3.42693">
        <ele>39.070678710938</ele>
        <time>2010-05-16T07:30:30Z</time>
      </trkpt>
      <trkpt lat="50.37569" lon="3.42689">
        <ele>38.590087890625</ele>
        <time>2010-05-16T07:30:36Z</time>
      </trkpt>
      <trkpt lat="50.37551" lon="3.42688">
        <ele>38.590087890625</ele>
        <time>2010-05-16T07:30:42Z</time>
      </trkpt>
      <trkpt lat="50.37539" lon="3.42691">
        <ele>38.109375</ele>
        <time>2010-05-16T07:30:48Z</time>
      </trkpt>
      <trkpt lat="50.37535" lon="3.42694">
        <ele>38.109375</ele>
        <time>2010-05-16T07:30:50Z</time>
      </trkpt>
      <trkpt lat="50.37524" lon="3.42692">
        <ele>37.628662109375</ele>
        <time>2010-05-16T07:30:57Z</time>
      </trkpt>
      <trkpt lat="50.3752" lon="3.42694">
        <ele>38.109375</ele>
        <time>2010-05-16T07:31:00Z</time>
      </trkpt>
      <trkpt lat="50.37503" lon="3.42696">
        <ele>38.109375</ele>
        <time>2010-05-16T07:31:07Z</time>
      </trkpt>
      <trkpt lat="50.3748" lon="3.427">
        <ele>38.109375</ele>
        <time>2010-05-16T07:31:12Z</time>
      </trkpt>
      <trkpt lat="50.37442" lon="3.42706">
        <ele>38.109375</ele>
        <time>2010-05-16T07:31:21Z</time>
      </trkpt>
      <trkpt lat="50.37416" lon="3.42713">
        <ele>38.109375</ele>
        <time>2010-05-16T07:31:27Z</time>
      </trkpt>
      <trkpt lat="50.37405" lon="3.42734">
        <ele>38.590087890625</ele>
        <time>2010-05-16T07:31:31Z</time>
      </trkpt>
      <trkpt lat="50.37406" lon="3.42811">
        <ele>39.070678710938</ele>
        <time>2010-05-16T07:31:41Z</time>
      </trkpt>
      <trkpt lat="50.37405" lon="3.42817">
        <ele>39.070678710938</ele>
        <time>2010-05-16T07:31:42Z</time>
      </trkpt>
      <trkpt lat="50.37392" lon="3.42827">
        <ele>39.070678710938</ele>
        <time>2010-05-16T07:31:46Z</time>
      </trkpt>
      <trkpt lat="50.3735" lon="3.42827">
        <ele>38.590087890625</ele>
        <time>2010-05-16T07:31:55Z</time>
      </trkpt>
      <trkpt lat="50.37296" lon="3.42827">
        <ele>38.590087890625</ele>
        <time>2010-05-16T07:32:06Z</time>
      </trkpt>
      <trkpt lat="50.37257" lon="3.42826">
        <ele>39.070678710938</ele>
        <time>2010-05-16T07:32:14Z</time>
      </trkpt>
      <trkpt lat="50.3724" lon="3.42814">
        <ele>39.55126953125</ele>
        <time>2010-05-16T07:32:18Z</time>
      </trkpt>
      <trkpt lat="50.3721" lon="3.42781">
        <ele>40.032104492188</ele>
        <time>2010-05-16T07:32:25Z</time>
      </trkpt>
      <trkpt lat="50.37165" lon="3.42759">
        <ele>40.512817382812</ele>
        <time>2010-05-16T07:32:34Z</time>
      </trkpt>
      <trkpt lat="50.37108" lon="3.42738">
        <ele>40.512817382812</ele>
        <time>2010-05-16T07:32:45Z</time>
      </trkpt>
      <trkpt lat="50.37061" lon="3.42717">
        <ele>41.473999023438</ele>
        <time>2010-05-16T07:32:54Z</time>
      </trkpt>
      <trkpt lat="50.37008" lon="3.42698">
        <ele>42.435424804688</ele>
        <time>2010-05-16T07:33:04Z</time>
      </trkpt>
      <trkpt lat="50.36982" lon="3.42687">
        <ele>42.916015625</ele>
        <time>2010-05-16T07:33:09Z</time>
      </trkpt>
      <trkpt lat="50.36952" lon="3.4266">
        <ele>42.435424804688</ele>
        <time>2010-05-16T07:33:16Z</time>
      </trkpt>
      <trkpt lat="50.36946" lon="3.42652">
        <ele>42.435424804688</ele>
        <time>2010-05-16T07:33:18Z</time>
      </trkpt>
      <trkpt lat="50.36951" lon="3.42633">
        <ele>41.473999023438</ele>
        <time>2010-05-16T07:33:22Z</time>
      </trkpt>
      <trkpt lat="50.36972" lon="3.42586">
        <ele>39.55126953125</ele>
        <time>2010-05-16T07:33:30Z</time>
      </trkpt>
      <trkpt lat="50.36992" lon="3.42529">
        <ele>37.628662109375</ele>
        <time>2010-05-16T07:33:38Z</time>
      </trkpt>
      <trkpt lat="50.37009" lon="3.42476">
        <ele>36.66748046875</ele>
        <time>2010-05-16T07:33:45Z</time>
      </trkpt>
      <trkpt lat="50.37037" lon="3.42401">
        <ele>34.744873046875</ele>
        <time>2010-05-16T07:33:55Z</time>
      </trkpt>
      <trkpt lat="50.3705" lon="3.42354">
        <ele>33.783447265625</ele>
        <time>2010-05-16T07:34:01Z</time>
      </trkpt>
      <trkpt lat="50.37055" lon="3.4233">
        <ele>33.783447265625</ele>
        <time>2010-05-16T07:34:04Z</time>
      </trkpt>
      <trkpt lat="50.37059" lon="3.4229">
        <ele>32.341552734375</ele>
        <time>2010-05-16T07:34:09Z</time>
      </trkpt>
      <trkpt lat="50.37062" lon="3.42265">
        <ele>31.860717773438</ele>
        <time>2010-05-16T07:34:12Z</time>
      </trkpt>
      <trkpt lat="50.37076" lon="3.42245">
        <ele>31.860717773438</ele>
        <time>2010-05-16T07:34:16Z</time>
      </trkpt>
      <trkpt lat="50.37088" lon="3.42219">
        <ele>30.899536132812</ele>
        <time>2010-05-16T07:34:20Z</time>
      </trkpt>
      <trkpt lat="50.37096" lon="3.42157">
        <ele>29.938110351562</ele>
        <time>2010-05-16T07:34:27Z</time>
      </trkpt>
      <trkpt lat="50.37106" lon="3.42096">
        <ele>28.976928710938</ele>
        <time>2010-05-16T07:34:34Z</time>
      </trkpt>
      <trkpt lat="50.37117" lon="3.42017">
        <ele>28.015502929688</ele>
        <time>2010-05-16T07:34:43Z</time>
      </trkpt>
      <trkpt lat="50.37129" lon="3.41986">
        <ele>27.534912109375</ele>
        <time>2010-05-16T07:34:47Z</time>
      </trkpt>
      <trkpt lat="50.37156" lon="3.41944">
        <ele>27.534912109375</ele>
        <time>2010-05-16T07:34:53Z</time>
      </trkpt>
      <trkpt lat="50.37183" lon="3.41895">
        <ele>27.534912109375</ele>
        <time>2010-05-16T07:35:00Z</time>
      </trkpt>
      <trkpt lat="50.37186" lon="3.41871">
        <ele>27.054321289062</ele>
        <time>2010-05-16T07:35:03Z</time>
      </trkpt>
      <trkpt lat="50.37179" lon="3.41859">
        <ele>26.573608398438</ele>
        <time>2010-05-16T07:35:05Z</time>
      </trkpt>
      <trkpt lat="50.37159" lon="3.41835">
        <ele>25.6123046875</ele>
        <time>2010-05-16T07:35:09Z</time>
      </trkpt>
      <trkpt lat="50.3712" lon="3.41773">
        <ele>26.092895507812</ele>
        <time>2010-05-16T07:35:18Z</time>
      </trkpt>
      <trkpt lat="50.37079" lon="3.41709">
        <ele>26.573608398438</ele>
        <time>2010-05-16T07:35:28Z</time>
      </trkpt>
      <trkpt lat="50.37045" lon="3.41658">
        <ele>24.651000976562</ele>
        <time>2010-05-16T07:35:36Z</time>
      </trkpt>
      <trkpt lat="50.37022" lon="3.41618">
        <ele>25.6123046875</ele>
        <time>2010-05-16T07:35:42Z</time>
      </trkpt>
      <trkpt lat="50.36996" lon="3.41576">
        <ele>26.092895507812</ele>
        <time>2010-05-16T07:35:48Z</time>
      </trkpt>
      <trkpt lat="50.36968" lon="3.41523">
        <ele>23.689575195312</ele>
        <time>2010-05-16T07:35:55Z</time>
      </trkpt>
      <trkpt lat="50.36942" lon="3.41468">
        <ele>21.286376953125</ele>
        <time>2010-05-16T07:36:02Z</time>
      </trkpt>
      <trkpt lat="50.36916" lon="3.41411">
        <ele>21.286376953125</ele>
        <time>2010-05-16T07:36:09Z</time>
      </trkpt>
      <trkpt lat="50.36889" lon="3.4135">
        <ele>21.766967773438</ele>
        <time>2010-05-16T07:36:17Z</time>
      </trkpt>
      <trkpt lat="50.36857" lon="3.4128">
        <ele>22.24755859375</ele>
        <time>2010-05-16T07:36:26Z</time>
      </trkpt>
      <trkpt lat="50.36832" lon="3.41234">
        <ele>22.24755859375</ele>
        <time>2010-05-16T07:36:33Z</time>
      </trkpt>
      <trkpt lat="50.36822" lon="3.41201">
        <ele>22.24755859375</ele>
        <time>2010-05-16T07:36:38Z</time>
      </trkpt>
      <trkpt lat="50.36818" lon="3.41196">
        <ele>22.24755859375</ele>
        <time>2010-05-16T07:36:39Z</time>
      </trkpt>
      <trkpt lat="50.36786" lon="3.41169">
        <ele>22.24755859375</ele>
        <time>2010-05-16T07:36:46Z</time>
      </trkpt>
      <trkpt lat="50.36757" lon="3.41149">
        <ele>22.24755859375</ele>
        <time>2010-05-16T07:36:52Z</time>
      </trkpt>
      <trkpt lat="50.36721" lon="3.41121">
        <ele>21.286376953125</ele>
        <time>2010-05-16T07:36:59Z</time>
      </trkpt>
      <trkpt lat="50.36676" lon="3.41098">
        <ele>19.36376953125</ele>
        <time>2010-05-16T07:37:07Z</time>
      </trkpt>
      <trkpt lat="50.36628" lon="3.41086">
        <ele>19.36376953125</ele>
        <time>2010-05-16T07:37:15Z</time>
      </trkpt>
      <trkpt lat="50.36592" lon="3.41084">
        <ele>20.324951171875</ele>
        <time>2010-05-16T07:37:21Z</time>
      </trkpt>
      <trkpt lat="50.36557" lon="3.41084">
        <ele>18.883056640625</ele>
        <time>2010-05-16T07:37:27Z</time>
      </trkpt>
      <trkpt lat="50.36541" lon="3.41083">
        <ele>18.883056640625</ele>
        <time>2010-05-16T07:37:30Z</time>
      </trkpt>
      <trkpt lat="50.3652" lon="3.41083">
        <ele>20.324951171875</ele>
        <time>2010-05-16T07:37:34Z</time>
      </trkpt>
      <trkpt lat="50.36496" lon="3.41084">
        <ele>22.24755859375</ele>
        <time>2010-05-16T07:37:39Z</time>
      </trkpt>
      <trkpt lat="50.36481" lon="3.4108">
        <ele>22.728271484375</ele>
        <time>2010-05-16T07:37:43Z</time>
      </trkpt>
      <trkpt lat="50.36475" lon="3.41082">
        <ele>24.651000976562</ele>
        <time>2010-05-16T07:37:46Z</time>
      </trkpt>
      <trkpt lat="50.36463" lon="3.41082">
        <ele>25.131713867188</ele>
        <time>2010-05-16T07:37:50Z</time>
      </trkpt>
      <trkpt lat="50.36456" lon="3.41072">
        <ele>24.170288085938</ele>
        <time>2010-05-16T07:37:53Z</time>
      </trkpt>
      <trkpt lat="50.36448" lon="3.41067">
        <ele>24.170288085938</ele>
        <time>2010-05-16T07:37:55Z</time>
      </trkpt>
      <trkpt lat="50.36417" lon="3.41052">
        <ele>24.170288085938</ele>
        <time>2010-05-16T07:38:02Z</time>
      </trkpt>
      <trkpt lat="50.36377" lon="3.41028">
        <ele>24.170288085938</ele>
        <time>2010-05-16T07:38:11Z</time>
      </trkpt>
      <trkpt lat="50.36366" lon="3.4102">
        <ele>23.689575195312</ele>
        <time>2010-05-16T07:38:14Z</time>
      </trkpt>
      <trkpt lat="50.36354" lon="3.41034">
        <ele>24.170288085938</ele>
        <time>2010-05-16T07:38:18Z</time>
      </trkpt>
      <trkpt lat="50.36335" lon="3.41052">
        <ele>23.689575195312</ele>
        <time>2010-05-16T07:38:23Z</time>
      </trkpt>
      <trkpt lat="50.36313" lon="3.41056">
        <ele>23.689575195312</ele>
        <time>2010-05-16T07:38:28Z</time>
      </trkpt>
      <trkpt lat="50.36291" lon="3.41052">
        <ele>23.689575195312</ele>
        <time>2010-05-16T07:38:33Z</time>
      </trkpt>
      <trkpt lat="50.36277" lon="3.4105">
        <ele>24.170288085938</ele>
        <time>2010-05-16T07:38:36Z</time>
      </trkpt>
      <trkpt lat="50.36263" lon="3.41047">
        <ele>24.651000976562</ele>
        <time>2010-05-16T07:38:39Z</time>
      </trkpt>
      <trkpt lat="50.36216" lon="3.4103">
        <ele>25.131713867188</ele>
        <time>2010-05-16T07:38:49Z</time>
      </trkpt>
      <trkpt lat="50.36165" lon="3.41017">
        <ele>25.131713867188</ele>
        <time>2010-05-16T07:38:59Z</time>
      </trkpt>
      <trkpt lat="50.36123" lon="3.41008">
        <ele>24.651000976562</ele>
        <time>2010-05-16T07:39:07Z</time>
      </trkpt>
      <trkpt lat="50.36108" lon="3.41005">
        <ele>24.651000976562</ele>
        <time>2010-05-16T07:39:10Z</time>
      </trkpt>
      <trkpt lat="50.36092" lon="3.41014">
        <ele>25.131713867188</ele>
        <time>2010-05-16T07:39:14Z</time>
      </trkpt>
      <trkpt lat="50.3607" lon="3.41036">
        <ele>27.054321289062</ele>
        <time>2010-05-16T07:39:19Z</time>
      </trkpt>
      <trkpt lat="50.36044" lon="3.41064">
        <ele>27.054321289062</ele>
        <time>2010-05-16T07:39:25Z</time>
      </trkpt>
      <trkpt lat="50.36031" lon="3.41087">
        <ele>25.131713867188</ele>
        <time>2010-05-16T07:39:30Z</time>
      </trkpt>
      <trkpt lat="50.3603" lon="3.4109">
        <ele>25.131713867188</ele>
        <time>2010-05-16T07:39:31Z</time>
      </trkpt>
      <trkpt lat="50.3602" lon="3.41089">
        <ele>24.651000976562</ele>
        <time>2010-05-16T07:39:35Z</time>
      </trkpt>
      <trkpt lat="50.36004" lon="3.41089">
        <ele>24.170288085938</ele>
        <time>2010-05-16T07:39:38Z</time>
      </trkpt>
      <trkpt lat="50.35957" lon="3.41089">
        <ele>24.170288085938</ele>
        <time>2010-05-16T07:39:46Z</time>
      </trkpt>
      <trkpt lat="50.35913" lon="3.41087">
        <ele>25.6123046875</ele>
        <time>2010-05-16T07:39:53Z</time>
      </trkpt>
      <trkpt lat="50.35863" lon="3.41086">
        <ele>26.092895507812</ele>
        <time>2010-05-16T07:40:01Z</time>
      </trkpt>
      <trkpt lat="50.35833" lon="3.41088">
        <ele>25.6123046875</ele>
        <time>2010-05-16T07:40:06Z</time>
      </trkpt>
      <trkpt lat="50.35794" lon="3.41096">
        <ele>26.092895507812</ele>
        <time>2010-05-16T07:40:13Z</time>
      </trkpt>
      <trkpt lat="50.3579" lon="3.41096">
        <ele>26.573608398438</ele>
        <time>2010-05-16T07:40:16Z</time>
      </trkpt>
      <trkpt lat="50.35791" lon="3.41096">
        <ele>26.573608398438</ele>
        <time>2010-05-16T07:40:18Z</time>
      </trkpt>
      <trkpt lat="50.35792" lon="3.41096">
        <ele>27.054321289062</ele>
        <time>2010-05-16T07:40:21Z</time>
      </trkpt>
      <trkpt lat="50.35792" lon="3.41096">
        <ele>27.054321289062</ele>
        <time>2010-05-16T07:40:22Z</time>
      </trkpt>
      <trkpt lat="50.35802" lon="3.41092">
        <ele>28.015502929688</ele>
        <time>2010-05-16T07:40:26Z</time>
      </trkpt>
      <trkpt lat="50.35803" lon="3.41091">
        <ele>28.015502929688</ele>
        <time>2010-05-16T07:40:29Z</time>
      </trkpt>
      <trkpt lat="50.35801" lon="3.41077">
        <ele>25.131713867188</ele>
        <time>2010-05-16T07:40:33Z</time>
      </trkpt>
      <trkpt lat="50.35792" lon="3.41042">
        <ele>24.651000976562</ele>
        <time>2010-05-16T07:40:38Z</time>
      </trkpt>
      <trkpt lat="50.35785" lon="3.41016">
        <ele>23.208984375</ele>
        <time>2010-05-16T07:40:43Z</time>
      </trkpt>
      <trkpt lat="50.35782" lon="3.41">
        <ele>22.24755859375</ele>
        <time>2010-05-16T07:40:49Z</time>
      </trkpt>
      <trkpt lat="50.35782" lon="3.41">
        <ele>22.24755859375</ele>
        <time>2010-05-16T07:40:50Z</time>
      </trkpt>
      <trkpt lat="50.35781" lon="3.40996">
        <ele>24.170288085938</ele>
        <time>2010-05-16T07:41:39Z</time>
      </trkpt>
      <trkpt lat="50.35778" lon="3.40981">
        <ele>23.208984375</ele>
        <time>2010-05-16T07:41:42Z</time>
      </trkpt>
      <trkpt lat="50.35767" lon="3.40942">
        <ele>20.324951171875</ele>
        <time>2010-05-16T07:41:49Z</time>
      </trkpt>
      <trkpt lat="50.35753" lon="3.40912">
        <ele>18.40234375</ele>
        <time>2010-05-16T07:41:55Z</time>
      </trkpt>
      <trkpt lat="50.3575" lon="3.40907">
        <ele>18.40234375</ele>
        <time>2010-05-16T07:41:56Z</time>
      </trkpt>
      <trkpt lat="50.35735" lon="3.40896">
        <ele>18.40234375</ele>
        <time>2010-05-16T07:42:00Z</time>
      </trkpt>
      <trkpt lat="50.35727" lon="3.40895">
        <ele>19.36376953125</ele>
        <time>2010-05-16T07:42:02Z</time>
      </trkpt>
      <trkpt lat="50.35711" lon="3.40883">
        <ele>18.883056640625</ele>
        <time>2010-05-16T07:42:06Z</time>
      </trkpt>
      <trkpt lat="50.35708" lon="3.40868">
        <ele>18.883056640625</ele>
        <time>2010-05-16T07:42:08Z</time>
      </trkpt>
      <trkpt lat="50.35704" lon="3.40827">
        <ele>17.441162109375</ele>
        <time>2010-05-16T07:42:13Z</time>
      </trkpt>
      <trkpt lat="50.35693" lon="3.40801">
        <ele>19.36376953125</ele>
        <time>2010-05-16T07:42:17Z</time>
      </trkpt>
      <trkpt lat="50.3568" lon="3.4079">
        <ele>19.844360351562</ele>
        <time>2010-05-16T07:42:20Z</time>
      </trkpt>
      <trkpt lat="50.35664" lon="3.4076">
        <ele>20.8056640625</ele>
        <time>2010-05-16T07:42:25Z</time>
      </trkpt>
      <trkpt lat="50.3566" lon="3.40753">
        <ele>21.286376953125</ele>
        <time>2010-05-16T07:42:26Z</time>
      </trkpt>
      <trkpt lat="50.3564" lon="3.4073">
        <ele>22.24755859375</ele>
        <time>2010-05-16T07:42:31Z</time>
      </trkpt>
      <trkpt lat="50.3563" lon="3.40724">
        <ele>22.728271484375</ele>
        <time>2010-05-16T07:42:33Z</time>
      </trkpt>
      <trkpt lat="50.35604" lon="3.40713">
        <ele>23.689575195312</ele>
        <time>2010-05-16T07:42:38Z</time>
      </trkpt>
      <trkpt lat="50.3558" lon="3.40718">
        <ele>23.208984375</ele>
        <time>2010-05-16T07:42:43Z</time>
      </trkpt>
      <trkpt lat="50.35575" lon="3.40723">
        <ele>23.689575195312</ele>
        <time>2010-05-16T07:42:46Z</time>
      </trkpt>
      <trkpt lat="50.35572" lon="3.40727">
        <ele>23.689575195312</ele>
        <time>2010-05-16T07:42:51Z</time>
      </trkpt>
      <trkpt lat="50.35566" lon="3.40731">
        <ele>24.170288085938</ele>
        <time>2010-05-16T07:42:55Z</time>
      </trkpt>
      <trkpt lat="50.35553" lon="3.40737">
        <ele>25.131713867188</ele>
        <time>2010-05-16T07:42:58Z</time>
      </trkpt>
      <trkpt lat="50.35534" lon="3.40731">
        <ele>25.6123046875</ele>
        <time>2010-05-16T07:43:02Z</time>
      </trkpt>
      <trkpt lat="50.35518" lon="3.40716">
        <ele>25.6123046875</ele>
        <time>2010-05-16T07:43:06Z</time>
      </trkpt>
      <trkpt lat="50.35505" lon="3.40708">
        <ele>26.092895507812</ele>
        <time>2010-05-16T07:43:10Z</time>
      </trkpt>
      <trkpt lat="50.35499" lon="3.40707">
        <ele>26.092895507812</ele>
        <time>2010-05-16T07:43:13Z</time>
      </trkpt>
      <trkpt lat="50.35477" lon="3.40729">
        <ele>25.6123046875</ele>
        <time>2010-05-16T07:43:19Z</time>
      </trkpt>
      <trkpt lat="50.35448" lon="3.40756">
        <ele>25.131713867188</ele>
        <time>2010-05-16T07:43:26Z</time>
      </trkpt>
      <trkpt lat="50.35444" lon="3.40759">
        <ele>25.131713867188</ele>
        <time>2010-05-16T07:43:27Z</time>
      </trkpt>
      <trkpt lat="50.35443" lon="3.40771">
        <ele>25.131713867188</ele>
        <time>2010-05-16T07:43:31Z</time>
      </trkpt>
      <trkpt lat="50.35443" lon="3.40781">
        <ele>25.131713867188</ele>
        <time>2010-05-16T07:43:33Z</time>
      </trkpt>
      <trkpt lat="50.3544" lon="3.40811">
        <ele>25.131713867188</ele>
        <time>2010-05-16T07:43:37Z</time>
      </trkpt>
      <trkpt lat="50.35439" lon="3.40825">
        <ele>25.131713867188</ele>
        <time>2010-05-16T07:43:39Z</time>
      </trkpt>
      <trkpt lat="50.35443" lon="3.40851">
        <ele>27.054321289062</ele>
        <time>2010-05-16T07:43:44Z</time>
      </trkpt>
      <trkpt lat="50.35448" lon="3.40865">
        <ele>31.380126953125</ele>
        <time>2010-05-16T07:43:49Z</time>
      </trkpt>
      <trkpt lat="50.35448" lon="3.40876">
        <ele>33.783447265625</ele>
        <time>2010-05-16T07:43:55Z</time>
      </trkpt>
      <trkpt lat="50.35448" lon="3.40876">
        <ele>34.26416015625</ele>
        <time>2010-05-16T07:43:56Z</time>
      </trkpt>
      <trkpt lat="50.35448" lon="3.40876">
        <ele>35.225463867188</ele>
        <time>2010-05-16T07:44:02Z</time>
      </trkpt>
      <trkpt lat="50.35447" lon="3.40879">
        <ele>36.186767578125</ele>
        <time>2010-05-16T07:44:05Z</time>
      </trkpt>
      <trkpt lat="50.35447" lon="3.40881">
        <ele>39.070678710938</ele>
        <time>2010-05-16T07:44:10Z</time>
      </trkpt>
      <trkpt lat="50.35447" lon="3.40882">
        <ele>40.032104492188</ele>
        <time>2010-05-16T07:44:11Z</time>
      </trkpt>
      <trkpt lat="50.35444" lon="3.40895">
        <ele>48.203369140625</ele>
        <time>2010-05-16T07:44:19Z</time>
      </trkpt>
      <trkpt lat="50.3544" lon="3.40896">
        <ele>48.203369140625</ele>
        <time>2010-05-16T07:44:25Z</time>
      </trkpt>
      <trkpt lat="50.35438" lon="3.40898">
        <ele>45.799926757812</ele>
        <time>2010-05-16T07:44:38Z</time>
      </trkpt>
      <trkpt lat="50.35437" lon="3.40897">
        <ele>45.799926757812</ele>
        <time>2010-05-16T07:44:39Z</time>
      </trkpt>
      <trkpt lat="50.35428" lon="3.40903">
        <ele>43.877319335938</ele>
        <time>2010-05-16T07:44:43Z</time>
      </trkpt>
      <trkpt lat="50.3542" lon="3.40914">
        <ele>43.877319335938</ele>
        <time>2010-05-16T07:44:48Z</time>
      </trkpt>
      <trkpt lat="50.35419" lon="3.40925">
        <ele>44.358032226562</ele>
        <time>2010-05-16T07:44:52Z</time>
      </trkpt>
      <trkpt lat="50.35419" lon="3.40927">
        <ele>44.838623046875</ele>
        <time>2010-05-16T07:44:53Z</time>
      </trkpt>
      <trkpt lat="50.35419" lon="3.4094">
        <ele>45.799926757812</ele>
        <time>2010-05-16T07:44:58Z</time>
      </trkpt>
      <trkpt lat="50.35432" lon="3.40952">
        <ele>45.319213867188</ele>
        <time>2010-05-16T07:45:03Z</time>
      </trkpt>
      <trkpt lat="50.35437" lon="3.40977">
        <ele>44.838623046875</ele>
        <time>2010-05-16T07:45:08Z</time>
      </trkpt>
      <trkpt lat="50.35442" lon="3.41005">
        <ele>45.799926757812</ele>
        <time>2010-05-16T07:45:13Z</time>
      </trkpt>
      <trkpt lat="50.35442" lon="3.41008">
        <ele>46.280639648438</ele>
        <time>2010-05-16T07:45:14Z</time>
      </trkpt>
      <trkpt lat="50.35448" lon="3.4101">
        <ele>45.799926757812</ele>
        <time>2010-05-16T07:45:18Z</time>
      </trkpt>
      <trkpt lat="50.35456" lon="3.41021">
        <ele>44.838623046875</ele>
        <time>2010-05-16T07:45:22Z</time>
      </trkpt>
      <trkpt lat="50.35459" lon="3.4104">
        <ele>44.358032226562</ele>
        <time>2010-05-16T07:45:25Z</time>
      </trkpt>
      <trkpt lat="50.35461" lon="3.41062">
        <ele>43.877319335938</ele>
        <time>2010-05-16T07:45:29Z</time>
      </trkpt>
      <trkpt lat="50.35468" lon="3.41059">
        <ele>41.954711914062</ele>
        <time>2010-05-16T07:45:33Z</time>
      </trkpt>
      <trkpt lat="50.35473" lon="3.41051">
        <ele>39.55126953125</ele>
        <time>2010-05-16T07:45:37Z</time>
      </trkpt>
      <trkpt lat="50.35479" lon="3.41068">
        <ele>35.7060546875</ele>
        <time>2010-05-16T07:45:41Z</time>
      </trkpt>
      <trkpt lat="50.35487" lon="3.41087">
        <ele>30.418823242188</ele>
        <time>2010-05-16T07:45:45Z</time>
      </trkpt>
      <trkpt lat="50.35493" lon="3.41101">
        <ele>28.015502929688</ele>
        <time>2010-05-16T07:45:47Z</time>
      </trkpt>
      <trkpt lat="50.35501" lon="3.41131">
        <ele>25.6123046875</ele>
        <time>2010-05-16T07:45:50Z</time>
      </trkpt>
      <trkpt lat="50.35513" lon="3.41163">
        <ele>27.534912109375</ele>
        <time>2010-05-16T07:45:54Z</time>
      </trkpt>
      <trkpt lat="50.35513" lon="3.41171">
        <ele>26.573608398438</ele>
        <time>2010-05-16T07:45:57Z</time>
      </trkpt>
      <trkpt lat="50.35507" lon="3.41169">
        <ele>25.6123046875</ele>
        <time>2010-05-16T07:46:01Z</time>
      </trkpt>
      <trkpt lat="50.35477" lon="3.41178">
        <ele>24.170288085938</ele>
        <time>2010-05-16T07:46:08Z</time>
      </trkpt>
      <trkpt lat="50.35431" lon="3.41188">
        <ele>23.689575195312</ele>
        <time>2010-05-16T07:46:17Z</time>
      </trkpt>
      <trkpt lat="50.35389" lon="3.41198">
        <ele>23.208984375</ele>
        <time>2010-05-16T07:46:25Z</time>
      </trkpt>
      <trkpt lat="50.35355" lon="3.41206">
        <ele>22.728271484375</ele>
        <time>2010-05-16T07:46:32Z</time>
      </trkpt>
      <trkpt lat="50.35316" lon="3.41211">
        <ele>23.208984375</ele>
        <time>2010-05-16T07:46:39Z</time>
      </trkpt>
      <trkpt lat="50.3525" lon="3.4121">
        <ele>23.689575195312</ele>
        <time>2010-05-16T07:46:51Z</time>
      </trkpt>
      <trkpt lat="50.35196" lon="3.41199">
        <ele>25.131713867188</ele>
        <time>2010-05-16T07:47:01Z</time>
      </trkpt>
      <trkpt lat="50.35172" lon="3.41192">
        <ele>26.092895507812</ele>
        <time>2010-05-16T07:47:06Z</time>
      </trkpt>
      <trkpt lat="50.35127" lon="3.41176">
        <ele>26.573608398438</ele>
        <time>2010-05-16T07:47:15Z</time>
      </trkpt>
      <trkpt lat="50.35085" lon="3.41167">
        <ele>27.534912109375</ele>
        <time>2010-05-16T07:47:23Z</time>
      </trkpt>
      <trkpt lat="50.3507" lon="3.41167">
        <ele>27.534912109375</ele>
        <time>2010-05-16T07:47:26Z</time>
      </trkpt>
      <trkpt lat="50.35045" lon="3.41173">
        <ele>27.534912109375</ele>
        <time>2010-05-16T07:47:31Z</time>
      </trkpt>
      <trkpt lat="50.3502" lon="3.4117">
        <ele>27.534912109375</ele>
        <time>2010-05-16T07:47:36Z</time>
      </trkpt>
      <trkpt lat="50.35016" lon="3.41167">
        <ele>27.534912109375</ele>
        <time>2010-05-16T07:47:37Z</time>
      </trkpt>
      <trkpt lat="50.35008" lon="3.41159">
        <ele>27.534912109375</ele>
        <time>2010-05-16T07:47:39Z</time>
      </trkpt>
      <trkpt lat="50.34982" lon="3.4115">
        <ele>27.054321289062</ele>
        <time>2010-05-16T07:47:45Z</time>
      </trkpt>
      <trkpt lat="50.34962" lon="3.41148">
        <ele>28.496215820312</ele>
        <time>2010-05-16T07:47:50Z</time>
      </trkpt>
      <trkpt lat="50.34959" lon="3.41148">
        <ele>28.976928710938</ele>
        <time>2010-05-16T07:47:52Z</time>
      </trkpt>
      <trkpt lat="50.3495" lon="3.41149">
        <ele>28.976928710938</ele>
        <time>2010-05-16T07:47:57Z</time>
      </trkpt>
      <trkpt lat="50.34941" lon="3.4117">
        <ele>28.976928710938</ele>
        <time>2010-05-16T07:48:01Z</time>
      </trkpt>
      <trkpt lat="50.34939" lon="3.41176">
        <ele>28.976928710938</ele>
        <time>2010-05-16T07:48:02Z</time>
      </trkpt>
      <trkpt lat="50.34919" lon="3.41232">
        <ele>28.015502929688</ele>
        <time>2010-05-16T07:48:10Z</time>
      </trkpt>
      <trkpt lat="50.34896" lon="3.413">
        <ele>28.015502929688</ele>
        <time>2010-05-16T07:48:19Z</time>
      </trkpt>
      <trkpt lat="50.3489" lon="3.41313">
        <ele>28.496215820312</ele>
        <time>2010-05-16T07:48:21Z</time>
      </trkpt>
      <trkpt lat="50.34867" lon="3.41374">
        <ele>28.015502929688</ele>
        <time>2010-05-16T07:48:29Z</time>
      </trkpt>
      <trkpt lat="50.34861" lon="3.4139">
        <ele>28.015502929688</ele>
        <time>2010-05-16T07:48:31Z</time>
      </trkpt>
      <trkpt lat="50.3485" lon="3.41428">
        <ele>26.573608398438</ele>
        <time>2010-05-16T07:48:36Z</time>
      </trkpt>
      <trkpt lat="50.34849" lon="3.41465">
        <ele>26.092895507812</ele>
        <time>2010-05-16T07:48:40Z</time>
      </trkpt>
      <trkpt lat="50.34865" lon="3.41561">
        <ele>25.6123046875</ele>
        <time>2010-05-16T07:48:51Z</time>
      </trkpt>
      <trkpt lat="50.34875" lon="3.41651">
        <ele>26.092895507812</ele>
        <time>2010-05-16T07:49:01Z</time>
      </trkpt>
      <trkpt lat="50.34879" lon="3.41679">
        <ele>26.092895507812</ele>
        <time>2010-05-16T07:49:04Z</time>
      </trkpt>
      <trkpt lat="50.34892" lon="3.41702">
        <ele>25.6123046875</ele>
        <time>2010-05-16T07:49:08Z</time>
      </trkpt>
      <trkpt lat="50.34903" lon="3.41699">
        <ele>25.131713867188</ele>
        <time>2010-05-16T07:49:10Z</time>
      </trkpt>
      <trkpt lat="50.34953" lon="3.41682">
        <ele>24.170288085938</ele>
        <time>2010-05-16T07:49:18Z</time>
      </trkpt>
      <trkpt lat="50.34993" lon="3.41685">
        <ele>23.689575195312</ele>
        <time>2010-05-16T07:49:24Z</time>
      </trkpt>
      <trkpt lat="50.35031" lon="3.41688">
        <ele>23.208984375</ele>
        <time>2010-05-16T07:49:30Z</time>
      </trkpt>
      <trkpt lat="50.35077" lon="3.41694">
        <ele>24.170288085938</ele>
        <time>2010-05-16T07:49:37Z</time>
      </trkpt>
      <trkpt lat="50.35083" lon="3.41696">
        <ele>24.170288085938</ele>
        <time>2010-05-16T07:49:38Z</time>
      </trkpt>
      <trkpt lat="50.35124" lon="3.41718">
        <ele>26.092895507812</ele>
        <time>2010-05-16T07:49:45Z</time>
      </trkpt>
      <trkpt lat="50.35148" lon="3.41735">
        <ele>25.131713867188</ele>
        <time>2010-05-16T07:49:49Z</time>
      </trkpt>
      <trkpt lat="50.3516" lon="3.41742">
        <ele>25.6123046875</ele>
        <time>2010-05-16T07:49:51Z</time>
      </trkpt>
      <trkpt lat="50.35189" lon="3.41764">
        <ele>26.573608398438</ele>
        <time>2010-05-16T07:49:56Z</time>
      </trkpt>
      <trkpt lat="50.35199" lon="3.41778">
        <ele>25.6123046875</ele>
        <time>2010-05-16T07:49:58Z</time>
      </trkpt>
      <trkpt lat="50.35231" lon="3.41841">
        <ele>23.208984375</ele>
        <time>2010-05-16T07:50:05Z</time>
      </trkpt>
      <trkpt lat="50.35246" lon="3.41869">
        <ele>23.208984375</ele>
        <time>2010-05-16T07:50:08Z</time>
      </trkpt>
      <trkpt lat="50.35266" lon="3.41933">
        <ele>24.170288085938</ele>
        <time>2010-05-16T07:50:14Z</time>
      </trkpt>
      <trkpt lat="50.35273" lon="3.41955">
        <ele>24.651000976562</ele>
        <time>2010-05-16T07:50:16Z</time>
      </trkpt>
      <trkpt lat="50.35303" lon="3.42012">
        <ele>25.131713867188</ele>
        <time>2010-05-16T07:50:22Z</time>
      </trkpt>
      <trkpt lat="50.35329" lon="3.42052">
        <ele>25.131713867188</ele>
        <time>2010-05-16T07:50:27Z</time>
      </trkpt>
      <trkpt lat="50.35353" lon="3.42091">
        <ele>25.131713867188</ele>
        <time>2010-05-16T07:50:32Z</time>
      </trkpt>
      <trkpt lat="50.35367" lon="3.42121">
        <ele>25.6123046875</ele>
        <time>2010-05-16T07:50:36Z</time>
      </trkpt>
      <trkpt lat="50.35373" lon="3.42136">
        <ele>26.092895507812</ele>
        <time>2010-05-16T07:50:38Z</time>
      </trkpt>
      <trkpt lat="50.3539" lon="3.42165">
        <ele>26.092895507812</ele>
        <time>2010-05-16T07:50:43Z</time>
      </trkpt>
      <trkpt lat="50.35391" lon="3.42179">
        <ele>26.092895507812</ele>
        <time>2010-05-16T07:50:45Z</time>
      </trkpt>
      <trkpt lat="50.35387" lon="3.42214">
        <ele>26.092895507812</ele>
        <time>2010-05-16T07:50:50Z</time>
      </trkpt>
      <trkpt lat="50.35382" lon="3.42236">
        <ele>26.092895507812</ele>
        <time>2010-05-16T07:50:53Z</time>
      </trkpt>
      <trkpt lat="50.35358" lon="3.42302">
        <ele>28.496215820312</ele>
        <time>2010-05-16T07:51:02Z</time>
      </trkpt>
      <trkpt lat="50.35347" lon="3.42331">
        <ele>28.496215820312</ele>
        <time>2010-05-16T07:51:06Z</time>
      </trkpt>
      <trkpt lat="50.35334" lon="3.42375">
        <ele>28.496215820312</ele>
        <time>2010-05-16T07:51:12Z</time>
      </trkpt>
      <trkpt lat="50.3534" lon="3.42401">
        <ele>28.015502929688</ele>
        <time>2010-05-16T07:51:16Z</time>
      </trkpt>
      <trkpt lat="50.35361" lon="3.42422">
        <ele>27.534912109375</ele>
        <time>2010-05-16T07:51:21Z</time>
      </trkpt>
      <trkpt lat="50.35382" lon="3.42459">
        <ele>27.054321289062</ele>
        <time>2010-05-16T07:51:27Z</time>
      </trkpt>
      <trkpt lat="50.35403" lon="3.42514">
        <ele>27.534912109375</ele>
        <time>2010-05-16T07:51:35Z</time>
      </trkpt>
      <trkpt lat="50.35432" lon="3.42592">
        <ele>28.015502929688</ele>
        <time>2010-05-16T07:51:46Z</time>
      </trkpt>
      <trkpt lat="50.35454" lon="3.42656">
        <ele>28.496215820312</ele>
        <time>2010-05-16T07:51:55Z</time>
      </trkpt>
      <trkpt lat="50.35477" lon="3.4272">
        <ele>29.45751953125</ele>
        <time>2010-05-16T07:52:04Z</time>
      </trkpt>
      <trkpt lat="50.35492" lon="3.42767">
        <ele>28.976928710938</ele>
        <time>2010-05-16T07:52:11Z</time>
      </trkpt>
      <trkpt lat="50.35502" lon="3.42796">
        <ele>29.45751953125</ele>
        <time>2010-05-16T07:52:15Z</time>
      </trkpt>
      <trkpt lat="50.35521" lon="3.4285">
        <ele>31.380126953125</ele>
        <time>2010-05-16T07:52:23Z</time>
      </trkpt>
      <trkpt lat="50.35543" lon="3.42891">
        <ele>32.822265625</ele>
        <time>2010-05-16T07:52:30Z</time>
      </trkpt>
      <trkpt lat="50.35571" lon="3.42936">
        <ele>33.302856445312</ele>
        <time>2010-05-16T07:52:38Z</time>
      </trkpt>
      <trkpt lat="50.35582" lon="3.4295">
        <ele>33.783447265625</ele>
        <time>2010-05-16T07:52:41Z</time>
      </trkpt>
      <trkpt lat="50.35615" lon="3.42983">
        <ele>32.822265625</ele>
        <time>2010-05-16T07:52:49Z</time>
      </trkpt>
      <trkpt lat="50.35635" lon="3.43005">
        <ele>32.822265625</ele>
        <time>2010-05-16T07:52:54Z</time>
      </trkpt>
      <trkpt lat="50.35646" lon="3.43021">
        <ele>33.302856445312</ele>
        <time>2010-05-16T07:52:57Z</time>
      </trkpt>
      <trkpt lat="50.35667" lon="3.43072">
        <ele>34.26416015625</ele>
        <time>2010-05-16T07:53:05Z</time>
      </trkpt>
      <trkpt lat="50.35683" lon="3.43109">
        <ele>34.26416015625</ele>
        <time>2010-05-16T07:53:11Z</time>
      </trkpt>
      <trkpt lat="50.3569" lon="3.4312">
        <ele>34.744873046875</ele>
        <time>2010-05-16T07:53:13Z</time>
      </trkpt>
      <trkpt lat="50.35711" lon="3.4314">
        <ele>34.744873046875</ele>
        <time>2010-05-16T07:53:18Z</time>
      </trkpt>
      <trkpt lat="50.35748" lon="3.43157">
        <ele>34.744873046875</ele>
        <time>2010-05-16T07:53:26Z</time>
      </trkpt>
      <trkpt lat="50.35767" lon="3.43163">
        <ele>34.26416015625</ele>
        <time>2010-05-16T07:53:30Z</time>
      </trkpt>
      <trkpt lat="50.35811" lon="3.43159">
        <ele>34.26416015625</ele>
        <time>2010-05-16T07:53:39Z</time>
      </trkpt>
      <trkpt lat="50.35852" lon="3.43149">
        <ele>33.783447265625</ele>
        <time>2010-05-16T07:53:47Z</time>
      </trkpt>
      <trkpt lat="50.35878" lon="3.43145">
        <ele>33.302856445312</ele>
        <time>2010-05-16T07:53:52Z</time>
      </trkpt>
      <trkpt lat="50.35893" lon="3.43159">
        <ele>33.783447265625</ele>
        <time>2010-05-16T07:53:56Z</time>
      </trkpt>
      <trkpt lat="50.35894" lon="3.43174">
        <ele>34.26416015625</ele>
        <time>2010-05-16T07:53:58Z</time>
      </trkpt>
      <trkpt lat="50.35891" lon="3.43227">
        <ele>35.225463867188</ele>
        <time>2010-05-16T07:54:06Z</time>
      </trkpt>
      <trkpt lat="50.35886" lon="3.43267">
        <ele>36.186767578125</ele>
        <time>2010-05-16T07:54:13Z</time>
      </trkpt>
      <trkpt lat="50.35882" lon="3.43305">
        <ele>37.148071289062</ele>
        <time>2010-05-16T07:54:20Z</time>
      </trkpt>
      <trkpt lat="50.35883" lon="3.43346">
        <ele>37.628662109375</ele>
        <time>2010-05-16T07:54:27Z</time>
      </trkpt>
      <trkpt lat="50.35891" lon="3.43372">
        <ele>37.628662109375</ele>
        <time>2010-05-16T07:54:32Z</time>
      </trkpt>
      <trkpt lat="50.35911" lon="3.43406">
        <ele>38.590087890625</ele>
        <time>2010-05-16T07:54:40Z</time>
      </trkpt>
      <trkpt lat="50.35941" lon="3.43434">
        <ele>38.109375</ele>
        <time>2010-05-16T07:54:49Z</time>
      </trkpt>
      <trkpt lat="50.35966" lon="3.43453">
        <ele>37.628662109375</ele>
        <time>2010-05-16T07:54:56Z</time>
      </trkpt>
      <trkpt lat="50.35989" lon="3.43475">
        <ele>36.66748046875</ele>
        <time>2010-05-16T07:55:02Z</time>
      </trkpt>
      <trkpt lat="50.36028" lon="3.43504">
        <ele>36.66748046875</ele>
        <time>2010-05-16T07:55:11Z</time>
      </trkpt>
      <trkpt lat="50.36036" lon="3.43511">
        <ele>37.148071289062</ele>
        <time>2010-05-16T07:55:13Z</time>
      </trkpt>
      <trkpt lat="50.36075" lon="3.43537">
        <ele>37.148071289062</ele>
        <time>2010-05-16T07:55:22Z</time>
      </trkpt>
      <trkpt lat="50.36088" lon="3.43547">
        <ele>36.66748046875</ele>
        <time>2010-05-16T07:55:25Z</time>
      </trkpt>
      <trkpt lat="50.36129" lon="3.43577">
        <ele>36.186767578125</ele>
        <time>2010-05-16T07:55:34Z</time>
      </trkpt>
      <trkpt lat="50.36155" lon="3.43596">
        <ele>36.186767578125</ele>
        <time>2010-05-16T07:55:40Z</time>
      </trkpt>
      <trkpt lat="50.36178" lon="3.43614">
        <ele>35.7060546875</ele>
        <time>2010-05-16T07:55:46Z</time>
      </trkpt>
      <trkpt lat="50.362" lon="3.43617">
        <ele>36.186767578125</ele>
        <time>2010-05-16T07:55:52Z</time>
      </trkpt>
      <trkpt lat="50.36207" lon="3.43619">
        <ele>36.186767578125</ele>
        <time>2010-05-16T07:55:54Z</time>
      </trkpt>
      <trkpt lat="50.3624" lon="3.43627">
        <ele>36.186767578125</ele>
        <time>2010-05-16T07:56:02Z</time>
      </trkpt>
      <trkpt lat="50.36285" lon="3.4364">
        <ele>36.66748046875</ele>
        <time>2010-05-16T07:56:12Z</time>
      </trkpt>
      <trkpt lat="50.36315" lon="3.43648">
        <ele>37.148071289062</ele>
        <time>2010-05-16T07:56:19Z</time>
      </trkpt>
      <trkpt lat="50.36351" lon="3.43656">
        <ele>37.148071289062</ele>
        <time>2010-05-16T07:56:27Z</time>
      </trkpt>
      <trkpt lat="50.36374" lon="3.4366">
        <ele>37.148071289062</ele>
        <time>2010-05-16T07:56:32Z</time>
      </trkpt>
      <trkpt lat="50.36386" lon="3.43676">
        <ele>37.628662109375</ele>
        <time>2010-05-16T07:56:36Z</time>
      </trkpt>
      <trkpt lat="50.36383" lon="3.43696">
        <ele>38.590087890625</ele>
        <time>2010-05-16T07:56:39Z</time>
      </trkpt>
      <trkpt lat="50.36377" lon="3.43706">
        <ele>39.55126953125</ele>
        <time>2010-05-16T07:56:41Z</time>
      </trkpt>
      <trkpt lat="50.36356" lon="3.43735">
        <ele>40.993408203125</ele>
        <time>2010-05-16T07:56:48Z</time>
      </trkpt>
      <trkpt lat="50.36329" lon="3.43771">
        <ele>41.954711914062</ele>
        <time>2010-05-16T07:56:55Z</time>
      </trkpt>
      <trkpt lat="50.363" lon="3.43812">
        <ele>42.916015625</ele>
        <time>2010-05-16T07:57:03Z</time>
      </trkpt>
      <trkpt lat="50.3629" lon="3.43822">
        <ele>42.916015625</ele>
        <time>2010-05-16T07:57:07Z</time>
      </trkpt>
      <trkpt lat="50.36288" lon="3.43823">
        <ele>42.916015625</ele>
        <time>2010-05-16T07:57:11Z</time>
      </trkpt>
      <trkpt lat="50.36288" lon="3.43823">
        <ele>43.396606445312</ele>
        <time>2010-05-16T07:57:17Z</time>
      </trkpt>
      <trkpt lat="50.36287" lon="3.43822">
        <ele>43.396606445312</ele>
        <time>2010-05-16T07:57:20Z</time>
      </trkpt>
      <trkpt lat="50.36283" lon="3.43823">
        <ele>43.396606445312</ele>
        <time>2010-05-16T08:04:54Z</time>
      </trkpt>
      <trkpt lat="50.36283" lon="3.43824">
        <ele>43.396606445312</ele>
        <time>2010-05-16T08:04:55Z</time>
      </trkpt>
      <trkpt lat="50.36283" lon="3.43825">
        <ele>44.838623046875</ele>
        <time>2010-05-16T08:06:08Z</time>
      </trkpt>
      <trkpt lat="50.36275" lon="3.43839">
        <ele>44.358032226562</ele>
        <time>2010-05-16T08:06:13Z</time>
      </trkpt>
      <trkpt lat="50.36261" lon="3.4386">
        <ele>43.877319335938</ele>
        <time>2010-05-16T08:06:18Z</time>
      </trkpt>
      <trkpt lat="50.36225" lon="3.43911">
        <ele>42.916015625</ele>
        <time>2010-05-16T08:06:28Z</time>
      </trkpt>
      <trkpt lat="50.36193" lon="3.43955">
        <ele>42.435424804688</ele>
        <time>2010-05-16T08:06:36Z</time>
      </trkpt>
      <trkpt lat="50.36153" lon="3.44012">
        <ele>41.473999023438</ele>
        <time>2010-05-16T08:06:46Z</time>
      </trkpt>
      <trkpt lat="50.36132" lon="3.44055">
        <ele>41.473999023438</ele>
        <time>2010-05-16T08:06:53Z</time>
      </trkpt>
      <trkpt lat="50.36133" lon="3.44077">
        <ele>41.473999023438</ele>
        <time>2010-05-16T08:06:57Z</time>
      </trkpt>
      <trkpt lat="50.36145" lon="3.44087">
        <ele>41.954711914062</ele>
        <time>2010-05-16T08:07:01Z</time>
      </trkpt>
      <trkpt lat="50.36166" lon="3.44102">
        <ele>42.435424804688</ele>
        <time>2010-05-16T08:07:06Z</time>
      </trkpt>
      <trkpt lat="50.36171" lon="3.44107">
        <ele>42.435424804688</ele>
        <time>2010-05-16T08:07:07Z</time>
      </trkpt>
      <trkpt lat="50.36183" lon="3.44122">
        <ele>42.916015625</ele>
        <time>2010-05-16T08:07:10Z</time>
      </trkpt>
      <trkpt lat="50.36222" lon="3.44174">
        <ele>43.396606445312</ele>
        <time>2010-05-16T08:07:19Z</time>
      </trkpt>
      <trkpt lat="50.36244" lon="3.44202">
        <ele>43.396606445312</ele>
        <time>2010-05-16T08:07:24Z</time>
      </trkpt>
      <trkpt lat="50.36261" lon="3.44224">
        <ele>43.877319335938</ele>
        <time>2010-05-16T08:07:28Z</time>
      </trkpt>
      <trkpt lat="50.3628" lon="3.44275">
        <ele>44.358032226562</ele>
        <time>2010-05-16T08:07:35Z</time>
      </trkpt>
      <trkpt lat="50.36284" lon="3.44289">
        <ele>44.838623046875</ele>
        <time>2010-05-16T08:07:37Z</time>
      </trkpt>
      <trkpt lat="50.363" lon="3.44318">
        <ele>45.319213867188</ele>
        <time>2010-05-16T08:07:42Z</time>
      </trkpt>
      <trkpt lat="50.36308" lon="3.44328">
        <ele>45.319213867188</ele>
        <time>2010-05-16T08:07:44Z</time>
      </trkpt>
      <trkpt lat="50.36331" lon="3.44344">
        <ele>45.319213867188</ele>
        <time>2010-05-16T08:07:49Z</time>
      </trkpt>
      <trkpt lat="50.36376" lon="3.44354">
        <ele>46.280639648438</ele>
        <time>2010-05-16T08:07:57Z</time>
      </trkpt>
      <trkpt lat="50.36425" lon="3.44365">
        <ele>46.76123046875</ele>
        <time>2010-05-16T08:08:05Z</time>
      </trkpt>
      <trkpt lat="50.36437" lon="3.44367">
        <ele>46.280639648438</ele>
        <time>2010-05-16T08:08:07Z</time>
      </trkpt>
      <trkpt lat="50.36468" lon="3.44358">
        <ele>47.241821289062</ele>
        <time>2010-05-16T08:08:12Z</time>
      </trkpt>
      <trkpt lat="50.36492" lon="3.44343">
        <ele>46.76123046875</ele>
        <time>2010-05-16T08:08:16Z</time>
      </trkpt>
      <trkpt lat="50.36533" lon="3.44307">
        <ele>45.319213867188</ele>
        <time>2010-05-16T08:08:23Z</time>
      </trkpt>
      <trkpt lat="50.36568" lon="3.44276">
        <ele>44.838623046875</ele>
        <time>2010-05-16T08:08:29Z</time>
      </trkpt>
      <trkpt lat="50.36602" lon="3.44246">
        <ele>44.838623046875</ele>
        <time>2010-05-16T08:08:35Z</time>
      </trkpt>
      <trkpt lat="50.36613" lon="3.44236">
        <ele>44.838623046875</ele>
        <time>2010-05-16T08:08:37Z</time>
      </trkpt>
      <trkpt lat="50.36632" lon="3.44221">
        <ele>44.838623046875</ele>
        <time>2010-05-16T08:08:40Z</time>
      </trkpt>
      <trkpt lat="50.36654" lon="3.44208">
        <ele>44.358032226562</ele>
        <time>2010-05-16T08:08:43Z</time>
      </trkpt>
      <trkpt lat="50.36675" lon="3.44194">
        <ele>44.358032226562</ele>
        <time>2010-05-16T08:08:46Z</time>
      </trkpt>
      <trkpt lat="50.36688" lon="3.44186">
        <ele>44.358032226562</ele>
        <time>2010-05-16T08:08:48Z</time>
      </trkpt>
      <trkpt lat="50.36722" lon="3.44176">
        <ele>44.838623046875</ele>
        <time>2010-05-16T08:08:53Z</time>
      </trkpt>
      <trkpt lat="50.36746" lon="3.44171">
        <ele>45.319213867188</ele>
        <time>2010-05-16T08:08:57Z</time>
      </trkpt>
      <trkpt lat="50.36787" lon="3.44167">
        <ele>45.799926757812</ele>
        <time>2010-05-16T08:09:04Z</time>
      </trkpt>
      <trkpt lat="50.36821" lon="3.44167">
        <ele>46.280639648438</ele>
        <time>2010-05-16T08:09:10Z</time>
      </trkpt>
      <trkpt lat="50.36831" lon="3.44165">
        <ele>46.280639648438</ele>
        <time>2010-05-16T08:09:12Z</time>
      </trkpt>
      <trkpt lat="50.36842" lon="3.44143">
        <ele>46.280639648438</ele>
        <time>2010-05-16T08:09:16Z</time>
      </trkpt>
      <trkpt lat="50.36851" lon="3.44104">
        <ele>45.319213867188</ele>
        <time>2010-05-16T08:09:21Z</time>
      </trkpt>
      <trkpt lat="50.36864" lon="3.44081">
        <ele>45.319213867188</ele>
        <time>2010-05-16T08:09:25Z</time>
      </trkpt>
      <trkpt lat="50.36869" lon="3.44079">
        <ele>45.319213867188</ele>
        <time>2010-05-16T08:09:26Z</time>
      </trkpt>
      <trkpt lat="50.36885" lon="3.44073">
        <ele>45.319213867188</ele>
        <time>2010-05-16T08:09:29Z</time>
      </trkpt>
      <trkpt lat="50.36903" lon="3.44071">
        <ele>45.319213867188</ele>
        <time>2010-05-16T08:09:32Z</time>
      </trkpt>
      <trkpt lat="50.36949" lon="3.44065">
        <ele>44.838623046875</ele>
        <time>2010-05-16T08:09:40Z</time>
      </trkpt>
      <trkpt lat="50.36984" lon="3.44061">
        <ele>44.838623046875</ele>
        <time>2010-05-16T08:09:46Z</time>
      </trkpt>
      <trkpt lat="50.37012" lon="3.44056">
        <ele>44.838623046875</ele>
        <time>2010-05-16T08:09:51Z</time>
      </trkpt>
      <trkpt lat="50.37049" lon="3.44052">
        <ele>44.358032226562</ele>
        <time>2010-05-16T08:09:57Z</time>
      </trkpt>
      <trkpt lat="50.37061" lon="3.4405">
        <ele>44.358032226562</ele>
        <time>2010-05-16T08:09:59Z</time>
      </trkpt>
      <trkpt lat="50.37099" lon="3.44051">
        <ele>44.358032226562</ele>
        <time>2010-05-16T08:10:05Z</time>
      </trkpt>
      <trkpt lat="50.37111" lon="3.44053">
        <ele>44.358032226562</ele>
        <time>2010-05-16T08:10:07Z</time>
      </trkpt>
      <trkpt lat="50.37148" lon="3.44065">
        <ele>43.877319335938</ele>
        <time>2010-05-16T08:10:13Z</time>
      </trkpt>
      <trkpt lat="50.3716" lon="3.44066">
        <ele>43.877319335938</ele>
        <time>2010-05-16T08:10:15Z</time>
      </trkpt>
      <trkpt lat="50.37215" lon="3.44057">
        <ele>43.877319335938</ele>
        <time>2010-05-16T08:10:24Z</time>
      </trkpt>
      <trkpt lat="50.37252" lon="3.44058">
        <ele>43.877319335938</ele>
        <time>2010-05-16T08:10:30Z</time>
      </trkpt>
      <trkpt lat="50.37288" lon="3.44074">
        <ele>44.358032226562</ele>
        <time>2010-05-16T08:10:36Z</time>
      </trkpt>
      <trkpt lat="50.37327" lon="3.44092">
        <ele>43.877319335938</ele>
        <time>2010-05-16T08:10:42Z</time>
      </trkpt>
      <trkpt lat="50.3737" lon="3.44106">
        <ele>43.396606445312</ele>
        <time>2010-05-16T08:10:47Z</time>
      </trkpt>
      <trkpt lat="50.37432" lon="3.44121">
        <ele>42.916015625</ele>
        <time>2010-05-16T08:10:54Z</time>
      </trkpt>
      <trkpt lat="50.37456" lon="3.44122">
        <ele>42.435424804688</ele>
        <time>2010-05-16T08:10:57Z</time>
      </trkpt>
      <trkpt lat="50.37495" lon="3.44106">
        <ele>42.435424804688</ele>
        <time>2010-05-16T08:11:02Z</time>
      </trkpt>
      <trkpt lat="50.37535" lon="3.44088">
        <ele>42.435424804688</ele>
        <time>2010-05-16T08:11:07Z</time>
      </trkpt>
      <trkpt lat="50.37575" lon="3.44072">
        <ele>42.916015625</ele>
        <time>2010-05-16T08:11:12Z</time>
      </trkpt>
      <trkpt lat="50.3759" lon="3.44066">
        <ele>42.916015625</ele>
        <time>2010-05-16T08:11:14Z</time>
      </trkpt>
      <trkpt lat="50.37615" lon="3.4405">
        <ele>42.916015625</ele>
        <time>2010-05-16T08:11:18Z</time>
      </trkpt>
      <trkpt lat="50.37642" lon="3.44025">
        <ele>42.916015625</ele>
        <time>2010-05-16T08:11:23Z</time>
      </trkpt>
      <trkpt lat="50.3765" lon="3.44015">
        <ele>42.916015625</ele>
        <time>2010-05-16T08:11:25Z</time>
      </trkpt>
      <trkpt lat="50.37662" lon="3.4398">
        <ele>42.435424804688</ele>
        <time>2010-05-16T08:11:30Z</time>
      </trkpt>
      <trkpt lat="50.37663" lon="3.43959">
        <ele>42.435424804688</ele>
        <time>2010-05-16T08:11:33Z</time>
      </trkpt>
      <trkpt lat="50.37664" lon="3.43938">
        <ele>42.435424804688</ele>
        <time>2010-05-16T08:11:36Z</time>
      </trkpt>
      <trkpt lat="50.37671" lon="3.43897">
        <ele>42.435424804688</ele>
        <time>2010-05-16T08:11:42Z</time>
      </trkpt>
      <trkpt lat="50.37675" lon="3.43884">
        <ele>42.435424804688</ele>
        <time>2010-05-16T08:11:44Z</time>
      </trkpt>
      <trkpt lat="50.37685" lon="3.43865">
        <ele>41.954711914062</ele>
        <time>2010-05-16T08:11:47Z</time>
      </trkpt>
      <trkpt lat="50.3771" lon="3.43811">
        <ele>41.954711914062</ele>
        <time>2010-05-16T08:11:55Z</time>
      </trkpt>
      <trkpt lat="50.37714" lon="3.43805">
        <ele>41.954711914062</ele>
        <time>2010-05-16T08:11:56Z</time>
      </trkpt>
      <trkpt lat="50.37742" lon="3.43758">
        <ele>42.435424804688</ele>
        <time>2010-05-16T08:12:04Z</time>
      </trkpt>
      <trkpt lat="50.37765" lon="3.43714">
        <ele>42.435424804688</ele>
        <time>2010-05-16T08:12:11Z</time>
      </trkpt>
      <trkpt lat="50.37786" lon="3.43672">
        <ele>42.916015625</ele>
        <time>2010-05-16T08:12:18Z</time>
      </trkpt>
      <trkpt lat="50.37792" lon="3.43658">
        <ele>42.916015625</ele>
        <time>2010-05-16T08:12:20Z</time>
      </trkpt>
      <trkpt lat="50.37799" lon="3.43627">
        <ele>42.916015625</ele>
        <time>2010-05-16T08:12:24Z</time>
      </trkpt>
      <trkpt lat="50.37805" lon="3.43571">
        <ele>42.435424804688</ele>
        <time>2010-05-16T08:12:31Z</time>
      </trkpt>
      <trkpt lat="50.37814" lon="3.43514">
        <ele>42.435424804688</ele>
        <time>2010-05-16T08:12:38Z</time>
      </trkpt>
      <trkpt lat="50.37828" lon="3.43461">
        <ele>41.954711914062</ele>
        <time>2010-05-16T08:12:45Z</time>
      </trkpt>
      <trkpt lat="50.37848" lon="3.43396">
        <ele>41.473999023438</ele>
        <time>2010-05-16T08:12:54Z</time>
      </trkpt>
      <trkpt lat="50.37865" lon="3.43345">
        <ele>40.993408203125</ele>
        <time>2010-05-16T08:13:02Z</time>
      </trkpt>
      <trkpt lat="50.37867" lon="3.43338">
        <ele>40.512817382812</ele>
        <time>2010-05-16T08:13:03Z</time>
      </trkpt>
      <trkpt lat="50.37881" lon="3.43296">
        <ele>40.032104492188</ele>
        <time>2010-05-16T08:13:11Z</time>
      </trkpt>
      <trkpt lat="50.37892" lon="3.43264">
        <ele>40.032104492188</ele>
        <time>2010-05-16T08:13:18Z</time>
      </trkpt>
      <trkpt lat="50.37895" lon="3.43255">
        <ele>40.032104492188</ele>
        <time>2010-05-16T08:13:21Z</time>
      </trkpt>
      <trkpt lat="50.37902" lon="3.43255">
        <ele>40.032104492188</ele>
        <time>2010-05-16T08:13:26Z</time>
      </trkpt>
      <trkpt lat="50.37908" lon="3.43258">
        <ele>40.512817382812</ele>
        <time>2010-05-16T08:13:32Z</time>
      </trkpt>
      <trkpt lat="50.37907" lon="3.43254">
        <ele>40.512817382812</ele>
        <time>2010-05-16T08:13:36Z</time>
      </trkpt>
      <trkpt lat="50.379" lon="3.43248">
        <ele>40.032104492188</ele>
        <time>2010-05-16T08:13:41Z</time>
      </trkpt>
      <trkpt lat="50.37895" lon="3.4325">
        <ele>40.032104492188</ele>
        <time>2010-05-16T08:13:45Z</time>
      </trkpt>
      <trkpt lat="50.37894" lon="3.43254">
        <ele>39.55126953125</ele>
        <time>2010-05-16T08:13:48Z</time>
      </trkpt>
      <trkpt lat="50.37897" lon="3.43256">
        <ele>40.032104492188</ele>
        <time>2010-05-16T08:13:53Z</time>
      </trkpt>
      <trkpt lat="50.37899" lon="3.43253">
        <ele>40.032104492188</ele>
        <time>2010-05-16T08:13:56Z</time>
      </trkpt>
      <trkpt lat="50.37896" lon="3.43249">
        <ele>40.512817382812</ele>
        <time>2010-05-16T08:14:01Z</time>
      </trkpt>
      <trkpt lat="50.37895" lon="3.43254">
        <ele>40.032104492188</ele>
        <time>2010-05-16T08:14:05Z</time>
      </trkpt>
      <trkpt lat="50.379" lon="3.43259">
        <ele>40.032104492188</ele>
        <time>2010-05-16T08:14:09Z</time>
      </trkpt>
      <trkpt lat="50.37913" lon="3.43263">
        <ele>40.032104492188</ele>
        <time>2010-05-16T08:14:13Z</time>
      </trkpt>
      <trkpt lat="50.37933" lon="3.43261">
        <ele>40.512817382812</ele>
        <time>2010-05-16T08:14:18Z</time>
      </trkpt>
      <trkpt lat="50.37959" lon="3.4326">
        <ele>40.993408203125</ele>
        <time>2010-05-16T08:14:25Z</time>
      </trkpt>
      <trkpt lat="50.37977" lon="3.43263">
        <ele>40.993408203125</ele>
        <time>2010-05-16T08:14:30Z</time>
      </trkpt>
      <trkpt lat="50.37983" lon="3.4325">
        <ele>40.512817382812</ele>
        <time>2010-05-16T08:14:34Z</time>
      </trkpt>
      <trkpt lat="50.37983" lon="3.43236">
        <ele>40.512817382812</ele>
        <time>2010-05-16T08:14:36Z</time>
      </trkpt>
      <trkpt lat="50.37981" lon="3.43191">
        <ele>39.55126953125</ele>
        <time>2010-05-16T08:14:42Z</time>
      </trkpt>
      <trkpt lat="50.37993" lon="3.43181">
        <ele>39.070678710938</ele>
        <time>2010-05-16T08:14:46Z</time>
      </trkpt>
      <trkpt lat="50.38028" lon="3.43176">
        <ele>39.070678710938</ele>
        <time>2010-05-16T08:14:53Z</time>
      </trkpt>
      <trkpt lat="50.38069" lon="3.43172">
        <ele>38.109375</ele>
        <time>2010-05-16T08:15:01Z</time>
      </trkpt>
      <trkpt lat="50.38108" lon="3.43169">
        <ele>38.590087890625</ele>
        <time>2010-05-16T08:15:09Z</time>
      </trkpt>
      <trkpt lat="50.38144" lon="3.43169">
        <ele>39.070678710938</ele>
        <time>2010-05-16T08:15:17Z</time>
      </trkpt>
      <trkpt lat="50.38173" lon="3.43165">
        <ele>39.55126953125</ele>
        <time>2010-05-16T08:15:25Z</time>
      </trkpt>
      <trkpt lat="50.38196" lon="3.43161">
        <ele>40.032104492188</ele>
        <time>2010-05-16T08:15:32Z</time>
      </trkpt>
      <trkpt lat="50.38217" lon="3.43148">
        <ele>40.032104492188</ele>
        <time>2010-05-16T08:15:37Z</time>
      </trkpt>
      <trkpt lat="50.38247" lon="3.43121">
        <ele>39.55126953125</ele>
        <time>2010-05-16T08:15:45Z</time>
      </trkpt>
      <trkpt lat="50.38255" lon="3.43116">
        <ele>39.070678710938</ele>
        <time>2010-05-16T08:15:47Z</time>
      </trkpt>
      <trkpt lat="50.38287" lon="3.43085">
        <ele>38.109375</ele>
        <time>2010-05-16T08:15:53Z</time>
      </trkpt>
      <trkpt lat="50.38292" lon="3.43078">
        <ele>38.109375</ele>
        <time>2010-05-16T08:15:54Z</time>
      </trkpt>
      <trkpt lat="50.38309" lon="3.4306">
        <ele>38.109375</ele>
        <time>2010-05-16T08:15:57Z</time>
      </trkpt>
      <trkpt lat="50.38332" lon="3.43051">
        <ele>37.628662109375</ele>
        <time>2010-05-16T08:16:01Z</time>
      </trkpt>
      <trkpt lat="50.3835" lon="3.43052">
        <ele>37.628662109375</ele>
        <time>2010-05-16T08:16:04Z</time>
      </trkpt>
      <trkpt lat="50.38366" lon="3.43047">
        <ele>37.628662109375</ele>
        <time>2010-05-16T08:16:07Z</time>
      </trkpt>
      <trkpt lat="50.38389" lon="3.43043">
        <ele>37.628662109375</ele>
        <time>2010-05-16T08:16:11Z</time>
      </trkpt>
      <trkpt lat="50.38413" lon="3.4304">
        <ele>37.628662109375</ele>
        <time>2010-05-16T08:16:15Z</time>
      </trkpt>
      <trkpt lat="50.38425" lon="3.43036">
        <ele>37.628662109375</ele>
        <time>2010-05-16T08:16:17Z</time>
      </trkpt>
      <trkpt lat="50.38481" lon="3.43027">
        <ele>37.628662109375</ele>
        <time>2010-05-16T08:16:26Z</time>
      </trkpt>
      <trkpt lat="50.3852" lon="3.43016">
        <ele>37.628662109375</ele>
        <time>2010-05-16T08:16:33Z</time>
      </trkpt>
      <trkpt lat="50.38526" lon="3.43013">
        <ele>37.628662109375</ele>
        <time>2010-05-16T08:16:34Z</time>
      </trkpt>
      <trkpt lat="50.38536" lon="3.42989">
        <ele>37.628662109375</ele>
        <time>2010-05-16T08:16:38Z</time>
      </trkpt>
      <trkpt lat="50.38538" lon="3.42954">
        <ele>37.148071289062</ele>
        <time>2010-05-16T08:16:42Z</time>
      </trkpt>
      <trkpt lat="50.38551" lon="3.42948">
        <ele>37.148071289062</ele>
        <time>2010-05-16T08:16:46Z</time>
      </trkpt>
      <trkpt lat="50.38573" lon="3.42946">
        <ele>37.148071289062</ele>
        <time>2010-05-16T08:16:50Z</time>
      </trkpt>
      <trkpt lat="50.38578" lon="3.42946">
        <ele>37.148071289062</ele>
        <time>2010-05-16T08:16:51Z</time>
      </trkpt>
      <trkpt lat="50.38591" lon="3.42925">
        <ele>37.148071289062</ele>
        <time>2010-05-16T08:16:55Z</time>
      </trkpt>
      <trkpt lat="50.38587" lon="3.42909">
        <ele>37.628662109375</ele>
        <time>2010-05-16T08:16:58Z</time>
      </trkpt>
      <trkpt lat="50.38589" lon="3.42894">
        <ele>37.628662109375</ele>
        <time>2010-05-16T08:17:03Z</time>
      </trkpt>
      <trkpt lat="50.38593" lon="3.42896">
        <ele>38.109375</ele>
        <time>2010-05-16T08:17:07Z</time>
      </trkpt>
      <trkpt lat="50.38593" lon="3.42895">
        <ele>38.109375</ele>
        <time>2010-05-16T08:17:08Z</time>
      </trkpt>
      <trkpt lat="50.38596" lon="3.42897">
        <ele>39.070678710938</ele>
        <time>2010-05-16T08:17:18Z</time>
      </trkpt>
      <trkpt lat="50.38597" lon="3.42898">
        <ele>39.070678710938</ele>
        <time>2010-05-16T08:17:20Z</time>
      </trkpt>
      <trkpt lat="50.38597" lon="3.42899">
        <ele>39.070678710938</ele>
        <time>2010-05-16T08:17:21Z</time>
      </trkpt>
      <trkpt lat="50.38599" lon="3.42896">
        <ele>37.628662109375</ele>
        <time>2010-05-16T08:17:27Z</time>
      </trkpt>
      <trkpt lat="50.38604" lon="3.42895">
        <ele>36.186767578125</ele>
        <time>2010-05-16T08:17:30Z</time>
      </trkpt>
      <trkpt lat="50.38617" lon="3.42893">
        <ele>35.225463867188</ele>
        <time>2010-05-16T08:17:33Z</time>
      </trkpt>
      <trkpt lat="50.38641" lon="3.42886">
        <ele>35.225463867188</ele>
        <time>2010-05-16T08:17:38Z</time>
      </trkpt>
      <trkpt lat="50.38653" lon="3.42884">
        <ele>35.225463867188</ele>
        <time>2010-05-16T08:17:43Z</time>
      </trkpt>
      <trkpt lat="50.3866" lon="3.42885">
        <ele>35.225463867188</ele>
        <time>2010-05-16T08:17:47Z</time>
      </trkpt>
      <trkpt lat="50.38669" lon="3.42874">
        <ele>36.66748046875</ele>
        <time>2010-05-16T08:17:53Z</time>
      </trkpt>
      <trkpt lat="50.38673" lon="3.42877">
        <ele>36.186767578125</ele>
        <time>2010-05-16T08:17:56Z</time>
      </trkpt>
      <trkpt lat="50.38685" lon="3.42888">
        <ele>35.225463867188</ele>
        <time>2010-05-16T08:18:00Z</time>
      </trkpt>
      <trkpt lat="50.3869" lon="3.42889">
        <ele>35.225463867188</ele>
        <time>2010-05-16T08:18:01Z</time>
      </trkpt>
      <trkpt lat="50.38712" lon="3.4289">
        <ele>37.148071289062</ele>
        <time>2010-05-16T08:18:07Z</time>
      </trkpt>
      <trkpt lat="50.38725" lon="3.42886">
        <ele>36.186767578125</ele>
        <time>2010-05-16T08:18:11Z</time>
      </trkpt>
      <trkpt lat="50.3873" lon="3.4288">
        <ele>35.7060546875</ele>
        <time>2010-05-16T08:18:13Z</time>
      </trkpt>
      <trkpt lat="50.38739" lon="3.42881">
        <ele>35.225463867188</ele>
        <time>2010-05-16T08:18:15Z</time>
      </trkpt>
      <trkpt lat="50.38762" lon="3.42896">
        <ele>36.66748046875</ele>
        <time>2010-05-16T08:18:20Z</time>
      </trkpt>
      <trkpt lat="50.3879" lon="3.4293">
        <ele>40.032104492188</ele>
        <time>2010-05-16T08:18:26Z</time>
      </trkpt>
      <trkpt lat="50.38801" lon="3.42945">
        <ele>42.916015625</ele>
        <time>2010-05-16T08:18:29Z</time>
      </trkpt>
      <trkpt lat="50.38803" lon="3.42959">
        <ele>39.070678710938</ele>
        <time>2010-05-16T08:18:32Z</time>
      </trkpt>
      <trkpt lat="50.38802" lon="3.43011">
        <ele>31.860717773438</ele>
        <time>2010-05-16T08:18:38Z</time>
      </trkpt>
      <trkpt lat="50.38798" lon="3.43023">
        <ele>29.938110351562</ele>
        <time>2010-05-16T08:18:40Z</time>
      </trkpt>
      <trkpt lat="50.38787" lon="3.43051">
        <ele>28.496215820312</ele>
        <time>2010-05-16T08:18:45Z</time>
      </trkpt>
      <trkpt lat="50.38786" lon="3.43057">
        <ele>28.496215820312</ele>
        <time>2010-05-16T08:18:46Z</time>
      </trkpt>
      <trkpt lat="50.38789" lon="3.43082">
        <ele>28.496215820312</ele>
        <time>2010-05-16T08:18:50Z</time>
      </trkpt>
      <trkpt lat="50.38784" lon="3.43093">
        <ele>28.976928710938</ele>
        <time>2010-05-16T08:18:52Z</time>
      </trkpt>
      <trkpt lat="50.38777" lon="3.43103">
        <ele>29.938110351562</ele>
        <time>2010-05-16T08:18:54Z</time>
      </trkpt>
      <trkpt lat="50.38763" lon="3.43116">
        <ele>31.380126953125</ele>
        <time>2010-05-16T08:18:58Z</time>
      </trkpt>
      <trkpt lat="50.38755" lon="3.43125">
        <ele>32.341552734375</ele>
        <time>2010-05-16T08:19:01Z</time>
      </trkpt>
      <trkpt lat="50.38749" lon="3.43148">
        <ele>32.822265625</ele>
        <time>2010-05-16T08:19:05Z</time>
      </trkpt>
      <trkpt lat="50.38742" lon="3.4315">
        <ele>33.783447265625</ele>
        <time>2010-05-16T08:19:08Z</time>
      </trkpt>
      <trkpt lat="50.38737" lon="3.43152">
        <ele>34.26416015625</ele>
        <time>2010-05-16T08:19:10Z</time>
      </trkpt>
      <trkpt lat="50.38728" lon="3.43151">
        <ele>35.225463867188</ele>
        <time>2010-05-16T08:19:13Z</time>
      </trkpt>
      <trkpt lat="50.38722" lon="3.43162">
        <ele>35.7060546875</ele>
        <time>2010-05-16T08:19:16Z</time>
      </trkpt>
      <trkpt lat="50.38719" lon="3.4319">
        <ele>35.225463867188</ele>
        <time>2010-05-16T08:19:21Z</time>
      </trkpt>
      <trkpt lat="50.38718" lon="3.43203">
        <ele>34.744873046875</ele>
        <time>2010-05-16T08:19:23Z</time>
      </trkpt>
      <trkpt lat="50.38706" lon="3.4321">
        <ele>35.225463867188</ele>
        <time>2010-05-16T08:19:27Z</time>
      </trkpt>
      <trkpt lat="50.38686" lon="3.43209">
        <ele>35.7060546875</ele>
        <time>2010-05-16T08:19:32Z</time>
      </trkpt>
      <trkpt lat="50.3868" lon="3.43212">
        <ele>36.186767578125</ele>
        <time>2010-05-16T08:19:34Z</time>
      </trkpt>
      <trkpt lat="50.38673" lon="3.43227">
        <ele>36.66748046875</ele>
        <time>2010-05-16T08:19:38Z</time>
      </trkpt>
      <trkpt lat="50.38664" lon="3.43246">
        <ele>36.66748046875</ele>
        <time>2010-05-16T08:19:42Z</time>
      </trkpt>
      <trkpt lat="50.38668" lon="3.43268">
        <ele>36.186767578125</ele>
        <time>2010-05-16T08:19:46Z</time>
      </trkpt>
      <trkpt lat="50.38679" lon="3.4327">
        <ele>36.186767578125</ele>
        <time>2010-05-16T08:19:49Z</time>
      </trkpt>
      <trkpt lat="50.38691" lon="3.43281">
        <ele>36.186767578125</ele>
        <time>2010-05-16T08:19:53Z</time>
      </trkpt>
      <trkpt lat="50.38692" lon="3.43292">
        <ele>36.66748046875</ele>
        <time>2010-05-16T08:19:55Z</time>
      </trkpt>
      <trkpt lat="50.38702" lon="3.43306">
        <ele>37.148071289062</ele>
        <time>2010-05-16T08:20:00Z</time>
      </trkpt>
      <trkpt lat="50.38724" lon="3.43308">
        <ele>37.628662109375</ele>
        <time>2010-05-16T08:20:06Z</time>
      </trkpt>
      <trkpt lat="50.38728" lon="3.43308">
        <ele>37.628662109375</ele>
        <time>2010-05-16T08:20:07Z</time>
      </trkpt>
      <trkpt lat="50.38742" lon="3.43308">
        <ele>37.628662109375</ele>
        <time>2010-05-16T08:20:10Z</time>
      </trkpt>
      <trkpt lat="50.38772" lon="3.43309">
        <ele>37.148071289062</ele>
        <time>2010-05-16T08:20:16Z</time>
      </trkpt>
      <trkpt lat="50.38798" lon="3.43311">
        <ele>37.148071289062</ele>
        <time>2010-05-16T08:20:21Z</time>
      </trkpt>
      <trkpt lat="50.3883" lon="3.43312">
        <ele>39.070678710938</ele>
        <time>2010-05-16T08:20:27Z</time>
      </trkpt>
      <trkpt lat="50.38871" lon="3.43315">
        <ele>39.070678710938</ele>
        <time>2010-05-16T08:20:35Z</time>
      </trkpt>
      <trkpt lat="50.38888" lon="3.43321">
        <ele>36.66748046875</ele>
        <time>2010-05-16T08:20:39Z</time>
      </trkpt>
      <trkpt lat="50.38909" lon="3.43317">
        <ele>35.225463867188</ele>
        <time>2010-05-16T08:20:45Z</time>
      </trkpt>
      <trkpt lat="50.38912" lon="3.43318">
        <ele>34.26416015625</ele>
        <time>2010-05-16T08:20:49Z</time>
      </trkpt>
      <trkpt lat="50.38918" lon="3.43322">
        <ele>38.109375</ele>
        <time>2010-05-16T08:21:13Z</time>
      </trkpt>
      <trkpt lat="50.38927" lon="3.43322">
        <ele>37.148071289062</ele>
        <time>2010-05-16T08:21:16Z</time>
      </trkpt>
      <trkpt lat="50.38936" lon="3.43327">
        <ele>36.66748046875</ele>
        <time>2010-05-16T08:21:19Z</time>
      </trkpt>
      <trkpt lat="50.38948" lon="3.43326">
        <ele>34.744873046875</ele>
        <time>2010-05-16T08:21:23Z</time>
      </trkpt>
      <trkpt lat="50.38954" lon="3.43327">
        <ele>34.26416015625</ele>
        <time>2010-05-16T08:21:25Z</time>
      </trkpt>
      <trkpt lat="50.3896" lon="3.43344">
        <ele>35.225463867188</ele>
        <time>2010-05-16T08:21:30Z</time>
      </trkpt>
      <trkpt lat="50.38971" lon="3.43385">
        <ele>36.186767578125</ele>
        <time>2010-05-16T08:21:36Z</time>
      </trkpt>
      <trkpt lat="50.38976" lon="3.43403">
        <ele>35.225463867188</ele>
        <time>2010-05-16T08:21:39Z</time>
      </trkpt>
      <trkpt lat="50.38981" lon="3.43425">
        <ele>32.822265625</ele>
        <time>2010-05-16T08:21:43Z</time>
      </trkpt>
      <trkpt lat="50.38982" lon="3.43439">
        <ele>31.380126953125</ele>
        <time>2010-05-16T08:21:48Z</time>
      </trkpt>
      <trkpt lat="50.38982" lon="3.43441">
        <ele>30.899536132812</ele>
        <time>2010-05-16T08:21:49Z</time>
      </trkpt>
      <trkpt lat="50.38988" lon="3.4347">
        <ele>28.496215820312</ele>
        <time>2010-05-16T08:21:54Z</time>
      </trkpt>
      <trkpt lat="50.39002" lon="3.43497">
        <ele>26.092895507812</ele>
        <time>2010-05-16T08:22:00Z</time>
      </trkpt>
      <trkpt lat="50.39006" lon="3.43501">
        <ele>26.573608398438</ele>
        <time>2010-05-16T08:22:01Z</time>
      </trkpt>
      <trkpt lat="50.39014" lon="3.43511">
        <ele>26.092895507812</ele>
        <time>2010-05-16T08:22:03Z</time>
      </trkpt>
      <trkpt lat="50.39035" lon="3.43538">
        <ele>23.208984375</ele>
        <time>2010-05-16T08:22:09Z</time>
      </trkpt>
      <trkpt lat="50.39049" lon="3.43565">
        <ele>20.8056640625</ele>
        <time>2010-05-16T08:22:14Z</time>
      </trkpt>
      <trkpt lat="50.39067" lon="3.43601">
        <ele>17.441162109375</ele>
        <time>2010-05-16T08:22:20Z</time>
      </trkpt>
      <trkpt lat="50.39077" lon="3.43618">
        <ele>15.518432617188</ele>
        <time>2010-05-16T08:22:24Z</time>
      </trkpt>
      <trkpt lat="50.39089" lon="3.43626">
        <ele>15.518432617188</ele>
        <time>2010-05-16T08:22:28Z</time>
      </trkpt>
      <trkpt lat="50.39105" lon="3.43634">
        <ele>15.518432617188</ele>
        <time>2010-05-16T08:22:32Z</time>
      </trkpt>
      <trkpt lat="50.39117" lon="3.43622">
        <ele>19.844360351562</ele>
        <time>2010-05-16T08:22:36Z</time>
      </trkpt>
      <trkpt lat="50.39116" lon="3.4359">
        <ele>22.24755859375</ele>
        <time>2010-05-16T08:22:41Z</time>
      </trkpt>
      <trkpt lat="50.39127" lon="3.43589">
        <ele>23.208984375</ele>
        <time>2010-05-16T08:22:46Z</time>
      </trkpt>
      <trkpt lat="50.39132" lon="3.436">
        <ele>23.689575195312</ele>
        <time>2010-05-16T08:22:48Z</time>
      </trkpt>
      <trkpt lat="50.39154" lon="3.43658">
        <ele>22.728271484375</ele>
        <time>2010-05-16T08:22:57Z</time>
      </trkpt>
      <trkpt lat="50.39165" lon="3.43678">
        <ele>21.766967773438</ele>
        <time>2010-05-16T08:23:02Z</time>
      </trkpt>
      <trkpt lat="50.39168" lon="3.43684">
        <ele>21.766967773438</ele>
        <time>2010-05-16T08:23:03Z</time>
      </trkpt>
      <trkpt lat="50.39173" lon="3.43697">
        <ele>21.766967773438</ele>
        <time>2010-05-16T08:23:05Z</time>
      </trkpt>
      <trkpt lat="50.39197" lon="3.43753">
        <ele>20.8056640625</ele>
        <time>2010-05-16T08:23:12Z</time>
      </trkpt>
      <trkpt lat="50.39202" lon="3.43769">
        <ele>20.324951171875</ele>
        <time>2010-05-16T08:23:14Z</time>
      </trkpt>
      <trkpt lat="50.39229" lon="3.43836">
        <ele>20.324951171875</ele>
        <time>2010-05-16T08:23:22Z</time>
      </trkpt>
      <trkpt lat="50.3926" lon="3.43916">
        <ele>20.8056640625</ele>
        <time>2010-05-16T08:23:31Z</time>
      </trkpt>
      <trkpt lat="50.39285" lon="3.43978">
        <ele>20.8056640625</ele>
        <time>2010-05-16T08:23:38Z</time>
      </trkpt>
      <trkpt lat="50.39309" lon="3.44039">
        <ele>21.286376953125</ele>
        <time>2010-05-16T08:23:45Z</time>
      </trkpt>
      <trkpt lat="50.39331" lon="3.44096">
        <ele>22.24755859375</ele>
        <time>2010-05-16T08:23:52Z</time>
      </trkpt>
      <trkpt lat="50.39356" lon="3.44161">
        <ele>22.24755859375</ele>
        <time>2010-05-16T08:24:00Z</time>
      </trkpt>
      <trkpt lat="50.39377" lon="3.44214">
        <ele>21.286376953125</ele>
        <time>2010-05-16T08:24:06Z</time>
      </trkpt>
      <trkpt lat="50.39402" lon="3.44277">
        <ele>20.8056640625</ele>
        <time>2010-05-16T08:24:13Z</time>
      </trkpt>
      <trkpt lat="50.39425" lon="3.44332">
        <ele>19.844360351562</ele>
        <time>2010-05-16T08:24:19Z</time>
      </trkpt>
      <trkpt lat="50.39449" lon="3.4439">
        <ele>20.8056640625</ele>
        <time>2010-05-16T08:24:25Z</time>
      </trkpt>
      <trkpt lat="50.39471" lon="3.44445">
        <ele>21.766967773438</ele>
        <time>2010-05-16T08:24:31Z</time>
      </trkpt>
      <trkpt lat="50.39501" lon="3.44521">
        <ele>22.728271484375</ele>
        <time>2010-05-16T08:24:39Z</time>
      </trkpt>
      <trkpt lat="50.39535" lon="3.44604">
        <ele>23.208984375</ele>
        <time>2010-05-16T08:24:48Z</time>
      </trkpt>
      <trkpt lat="50.39563" lon="3.44673">
        <ele>25.131713867188</ele>
        <time>2010-05-16T08:24:56Z</time>
      </trkpt>
      <trkpt lat="50.39566" lon="3.44681">
        <ele>25.6123046875</ele>
        <time>2010-05-16T08:24:57Z</time>
      </trkpt>
      <trkpt lat="50.39582" lon="3.44719">
        <ele>26.092895507812</ele>
        <time>2010-05-16T08:25:03Z</time>
      </trkpt>
      <trkpt lat="50.39584" lon="3.44722">
        <ele>25.6123046875</ele>
        <time>2010-05-16T08:25:04Z</time>
      </trkpt>
      <trkpt lat="50.39607" lon="3.44717">
        <ele>28.015502929688</ele>
        <time>2010-05-16T08:25:10Z</time>
      </trkpt>
      <trkpt lat="50.39611" lon="3.44716">
        <ele>28.496215820312</ele>
        <time>2010-05-16T08:25:11Z</time>
      </trkpt>
      <trkpt lat="50.39631" lon="3.4473">
        <ele>30.418823242188</ele>
        <time>2010-05-16T08:25:16Z</time>
      </trkpt>
      <trkpt lat="50.3964" lon="3.44734">
        <ele>29.938110351562</ele>
        <time>2010-05-16T08:25:18Z</time>
      </trkpt>
      <trkpt lat="50.39656" lon="3.4474">
        <ele>30.418823242188</ele>
        <time>2010-05-16T08:25:21Z</time>
      </trkpt>
      <trkpt lat="50.39682" lon="3.44739">
        <ele>30.418823242188</ele>
        <time>2010-05-16T08:25:27Z</time>
      </trkpt>
      <trkpt lat="50.39692" lon="3.44733">
        <ele>29.938110351562</ele>
        <time>2010-05-16T08:25:29Z</time>
      </trkpt>
      <trkpt lat="50.3973" lon="3.44722">
        <ele>30.418823242188</ele>
        <time>2010-05-16T08:25:35Z</time>
      </trkpt>
      <trkpt lat="50.3975" lon="3.44725">
        <ele>29.45751953125</ele>
        <time>2010-05-16T08:25:38Z</time>
      </trkpt>
      <trkpt lat="50.39776" lon="3.44714">
        <ele>28.496215820312</ele>
        <time>2010-05-16T08:25:42Z</time>
      </trkpt>
      <trkpt lat="50.398" lon="3.44692">
        <ele>27.534912109375</ele>
        <time>2010-05-16T08:25:46Z</time>
      </trkpt>
      <trkpt lat="50.39815" lon="3.44668">
        <ele>28.015502929688</ele>
        <time>2010-05-16T08:25:49Z</time>
      </trkpt>
      <trkpt lat="50.39838" lon="3.44648">
        <ele>28.015502929688</ele>
        <time>2010-05-16T08:25:53Z</time>
      </trkpt>
      <trkpt lat="50.39845" lon="3.44647">
        <ele>27.534912109375</ele>
        <time>2010-05-16T08:25:54Z</time>
      </trkpt>
      <trkpt lat="50.39879" lon="3.44645">
        <ele>26.573608398438</ele>
        <time>2010-05-16T08:25:59Z</time>
      </trkpt>
      <trkpt lat="50.39924" lon="3.44639">
        <ele>26.573608398438</ele>
        <time>2010-05-16T08:26:05Z</time>
      </trkpt>
      <trkpt lat="50.39966" lon="3.44636">
        <ele>25.6123046875</ele>
        <time>2010-05-16T08:26:11Z</time>
      </trkpt>
      <trkpt lat="50.40004" lon="3.44632">
        <ele>26.092895507812</ele>
        <time>2010-05-16T08:26:16Z</time>
      </trkpt>
      <trkpt lat="50.40034" lon="3.44626">
        <ele>27.054321289062</ele>
        <time>2010-05-16T08:26:20Z</time>
      </trkpt>
      <trkpt lat="50.40063" lon="3.4461">
        <ele>27.054321289062</ele>
        <time>2010-05-16T08:26:24Z</time>
      </trkpt>
      <trkpt lat="50.40069" lon="3.44602">
        <ele>27.534912109375</ele>
        <time>2010-05-16T08:26:25Z</time>
      </trkpt>
      <trkpt lat="50.40098" lon="3.44565">
        <ele>27.534912109375</ele>
        <time>2010-05-16T08:26:30Z</time>
      </trkpt>
      <trkpt lat="50.40108" lon="3.44524">
        <ele>27.534912109375</ele>
        <time>2010-05-16T08:26:34Z</time>
      </trkpt>
      <trkpt lat="50.40106" lon="3.44463">
        <ele>26.092895507812</ele>
        <time>2010-05-16T08:26:40Z</time>
      </trkpt>
      <trkpt lat="50.40106" lon="3.44454">
        <ele>25.6123046875</ele>
        <time>2010-05-16T08:26:41Z</time>
      </trkpt>
      <trkpt lat="50.40115" lon="3.44428">
        <ele>26.092895507812</ele>
        <time>2010-05-16T08:26:45Z</time>
      </trkpt>
      <trkpt lat="50.40122" lon="3.4442">
        <ele>26.092895507812</ele>
        <time>2010-05-16T08:26:47Z</time>
      </trkpt>
      <trkpt lat="50.40137" lon="3.44406">
        <ele>26.092895507812</ele>
        <time>2010-05-16T08:26:52Z</time>
      </trkpt>
      <trkpt lat="50.40159" lon="3.444">
        <ele>25.6123046875</ele>
        <time>2010-05-16T08:26:57Z</time>
      </trkpt>
      <trkpt lat="50.40188" lon="3.44373">
        <ele>24.651000976562</ele>
        <time>2010-05-16T08:27:04Z</time>
      </trkpt>
      <trkpt lat="50.40195" lon="3.4436">
        <ele>25.131713867188</ele>
        <time>2010-05-16T08:27:06Z</time>
      </trkpt>
      <trkpt lat="50.40206" lon="3.44316">
        <ele>26.092895507812</ele>
        <time>2010-05-16T08:27:11Z</time>
      </trkpt>
      <trkpt lat="50.40216" lon="3.44298">
        <ele>26.092895507812</ele>
        <time>2010-05-16T08:27:14Z</time>
      </trkpt>
      <trkpt lat="50.40221" lon="3.44296">
        <ele>25.6123046875</ele>
        <time>2010-05-16T08:27:15Z</time>
      </trkpt>
      <trkpt lat="50.40265" lon="3.44292">
        <ele>27.054321289062</ele>
        <time>2010-05-16T08:27:24Z</time>
      </trkpt>
      <trkpt lat="50.40304" lon="3.44288">
        <ele>27.534912109375</ele>
        <time>2010-05-16T08:27:31Z</time>
      </trkpt>
      <trkpt lat="50.40343" lon="3.44284">
        <ele>30.418823242188</ele>
        <time>2010-05-16T08:27:38Z</time>
      </trkpt>
      <trkpt lat="50.4037" lon="3.44282">
        <ele>31.860717773438</ele>
        <time>2010-05-16T08:27:43Z</time>
      </trkpt>
      <trkpt lat="50.40403" lon="3.4428">
        <ele>32.341552734375</ele>
        <time>2010-05-16T08:27:49Z</time>
      </trkpt>
      <trkpt lat="50.40419" lon="3.44278">
        <ele>32.822265625</ele>
        <time>2010-05-16T08:27:52Z</time>
      </trkpt>
      <trkpt lat="50.40439" lon="3.44264">
        <ele>31.860717773438</ele>
        <time>2010-05-16T08:27:56Z</time>
      </trkpt>
      <trkpt lat="50.40442" lon="3.44258">
        <ele>31.860717773438</ele>
        <time>2010-05-16T08:27:57Z</time>
      </trkpt>
      <trkpt lat="50.40464" lon="3.44224">
        <ele>31.860717773438</ele>
        <time>2010-05-16T08:28:02Z</time>
      </trkpt>
      <trkpt lat="50.40477" lon="3.44203">
        <ele>31.380126953125</ele>
        <time>2010-05-16T08:28:05Z</time>
      </trkpt>
      <trkpt lat="50.40501" lon="3.44175">
        <ele>31.380126953125</ele>
        <time>2010-05-16T08:28:10Z</time>
      </trkpt>
      <trkpt lat="50.40538" lon="3.44145">
        <ele>30.418823242188</ele>
        <time>2010-05-16T08:28:17Z</time>
      </trkpt>
      <trkpt lat="50.40579" lon="3.44125">
        <ele>30.899536132812</ele>
        <time>2010-05-16T08:28:24Z</time>
      </trkpt>
      <trkpt lat="50.40602" lon="3.44114">
        <ele>31.860717773438</ele>
        <time>2010-05-16T08:28:28Z</time>
      </trkpt>
      <trkpt lat="50.4062" lon="3.44095">
        <ele>32.341552734375</ele>
        <time>2010-05-16T08:28:32Z</time>
      </trkpt>
      <trkpt lat="50.4064" lon="3.44069">
        <ele>31.860717773438</ele>
        <time>2010-05-16T08:28:36Z</time>
      </trkpt>
      <trkpt lat="50.40634" lon="3.44021">
        <ele>29.45751953125</ele>
        <time>2010-05-16T08:28:41Z</time>
      </trkpt>
      <trkpt lat="50.40603" lon="3.43958">
        <ele>27.054321289062</ele>
        <time>2010-05-16T08:28:49Z</time>
      </trkpt>
      <trkpt lat="50.40573" lon="3.43894">
        <ele>25.131713867188</ele>
        <time>2010-05-16T08:28:57Z</time>
      </trkpt>
      <trkpt lat="50.40548" lon="3.43839">
        <ele>26.573608398438</ele>
        <time>2010-05-16T08:29:04Z</time>
      </trkpt>
      <trkpt lat="50.40517" lon="3.43775">
        <ele>26.092895507812</ele>
        <time>2010-05-16T08:29:12Z</time>
      </trkpt>
      <trkpt lat="50.40493" lon="3.43728">
        <ele>26.573608398438</ele>
        <time>2010-05-16T08:29:18Z</time>
      </trkpt>
      <trkpt lat="50.40465" lon="3.43672">
        <ele>24.170288085938</ele>
        <time>2010-05-16T08:29:25Z</time>
      </trkpt>
      <trkpt lat="50.40434" lon="3.43605">
        <ele>25.6123046875</ele>
        <time>2010-05-16T08:29:33Z</time>
      </trkpt>
      <trkpt lat="50.40415" lon="3.43563">
        <ele>27.054321289062</ele>
        <time>2010-05-16T08:29:38Z</time>
      </trkpt>
      <trkpt lat="50.40386" lon="3.43503">
        <ele>26.092895507812</ele>
        <time>2010-05-16T08:29:45Z</time>
      </trkpt>
      <trkpt lat="50.40353" lon="3.43435">
        <ele>23.689575195312</ele>
        <time>2010-05-16T08:29:53Z</time>
      </trkpt>
      <trkpt lat="50.40324" lon="3.43376">
        <ele>23.208984375</ele>
        <time>2010-05-16T08:30:00Z</time>
      </trkpt>
      <trkpt lat="50.403" lon="3.43325">
        <ele>24.170288085938</ele>
        <time>2010-05-16T08:30:06Z</time>
      </trkpt>
      <trkpt lat="50.40276" lon="3.43278">
        <ele>26.092895507812</ele>
        <time>2010-05-16T08:30:12Z</time>
      </trkpt>
      <trkpt lat="50.40254" lon="3.43224">
        <ele>28.976928710938</ele>
        <time>2010-05-16T08:30:19Z</time>
      </trkpt>
      <trkpt lat="50.40236" lon="3.43177">
        <ele>35.7060546875</ele>
        <time>2010-05-16T08:30:26Z</time>
      </trkpt>
      <trkpt lat="50.40229" lon="3.4316">
        <ele>37.628662109375</ele>
        <time>2010-05-16T08:30:29Z</time>
      </trkpt>
      <trkpt lat="50.40213" lon="3.43124">
        <ele>40.512817382812</ele>
        <time>2010-05-16T08:30:35Z</time>
      </trkpt>
      <trkpt lat="50.40204" lon="3.43107">
        <ele>40.993408203125</ele>
        <time>2010-05-16T08:30:38Z</time>
      </trkpt>
      <trkpt lat="50.40179" lon="3.43058">
        <ele>37.628662109375</ele>
        <time>2010-05-16T08:30:46Z</time>
      </trkpt>
      <trkpt lat="50.40176" lon="3.43052">
        <ele>37.628662109375</ele>
        <time>2010-05-16T08:30:47Z</time>
      </trkpt>
      <trkpt lat="50.40165" lon="3.43031">
        <ele>35.225463867188</ele>
        <time>2010-05-16T08:30:51Z</time>
      </trkpt>
      <trkpt lat="50.40159" lon="3.4302">
        <ele>34.744873046875</ele>
        <time>2010-05-16T08:30:53Z</time>
      </trkpt>
      <trkpt lat="50.40158" lon="3.42994">
        <ele>32.341552734375</ele>
        <time>2010-05-16T08:30:57Z</time>
      </trkpt>
      <trkpt lat="50.40166" lon="3.42987">
        <ele>29.938110351562</ele>
        <time>2010-05-16T08:31:00Z</time>
      </trkpt>
      <trkpt lat="50.40179" lon="3.42984">
        <ele>27.534912109375</ele>
        <time>2010-05-16T08:31:06Z</time>
      </trkpt>
      <trkpt lat="50.40185" lon="3.42983">
        <ele>26.092895507812</ele>
        <time>2010-05-16T08:31:11Z</time>
      </trkpt>
      <trkpt lat="50.40185" lon="3.42983">
        <ele>26.092895507812</ele>
        <time>2010-05-16T08:31:12Z</time>
      </trkpt>
      <trkpt lat="50.40191" lon="3.42981">
        <ele>29.45751953125</ele>
        <time>2010-05-16T08:31:35Z</time>
      </trkpt>
      <trkpt lat="50.40204" lon="3.42978">
        <ele>28.976928710938</ele>
        <time>2010-05-16T08:31:38Z</time>
      </trkpt>
      <trkpt lat="50.40237" lon="3.42968">
        <ele>28.015502929688</ele>
        <time>2010-05-16T08:31:46Z</time>
      </trkpt>
      <trkpt lat="50.40278" lon="3.42954">
        <ele>27.534912109375</ele>
        <time>2010-05-16T08:31:54Z</time>
      </trkpt>
      <trkpt lat="50.40312" lon="3.42941">
        <ele>26.092895507812</ele>
        <time>2010-05-16T08:32:01Z</time>
      </trkpt>
      <trkpt lat="50.40346" lon="3.42926">
        <ele>25.6123046875</ele>
        <time>2010-05-16T08:32:08Z</time>
      </trkpt>
      <trkpt lat="50.40398" lon="3.42905">
        <ele>24.651000976562</ele>
        <time>2010-05-16T08:32:18Z</time>
      </trkpt>
      <trkpt lat="50.40442" lon="3.42887">
        <ele>24.651000976562</ele>
        <time>2010-05-16T08:32:26Z</time>
      </trkpt>
      <trkpt lat="50.40486" lon="3.4287">
        <ele>24.651000976562</ele>
        <time>2010-05-16T08:32:34Z</time>
      </trkpt>
      <trkpt lat="50.4052" lon="3.42857">
        <ele>24.651000976562</ele>
        <time>2010-05-16T08:32:41Z</time>
      </trkpt>
      <trkpt lat="50.40555" lon="3.42841">
        <ele>24.170288085938</ele>
        <time>2010-05-16T08:32:47Z</time>
      </trkpt>
      <trkpt lat="50.40589" lon="3.42828">
        <ele>24.170288085938</ele>
        <time>2010-05-16T08:32:53Z</time>
      </trkpt>
      <trkpt lat="50.40628" lon="3.42815">
        <ele>24.651000976562</ele>
        <time>2010-05-16T08:33:00Z</time>
      </trkpt>
      <trkpt lat="50.40648" lon="3.42809">
        <ele>24.651000976562</ele>
        <time>2010-05-16T08:33:04Z</time>
      </trkpt>
      <trkpt lat="50.4068" lon="3.42802">
        <ele>24.651000976562</ele>
        <time>2010-05-16T08:33:10Z</time>
      </trkpt>
      <trkpt lat="50.40729" lon="3.42794">
        <ele>24.170288085938</ele>
        <time>2010-05-16T08:33:18Z</time>
      </trkpt>
      <trkpt lat="50.40774" lon="3.4279">
        <ele>24.651000976562</ele>
        <time>2010-05-16T08:33:26Z</time>
      </trkpt>
      <trkpt lat="50.40819" lon="3.42785">
        <ele>28.015502929688</ele>
        <time>2010-05-16T08:33:34Z</time>
      </trkpt>
      <trkpt lat="50.40854" lon="3.42783">
        <ele>28.496215820312</ele>
        <time>2010-05-16T08:33:40Z</time>
      </trkpt>
      <trkpt lat="50.40884" lon="3.42781">
        <ele>27.054321289062</ele>
        <time>2010-05-16T08:33:45Z</time>
      </trkpt>
      <trkpt lat="50.40935" lon="3.42779">
        <ele>28.015502929688</ele>
        <time>2010-05-16T08:33:54Z</time>
      </trkpt>
      <trkpt lat="50.40953" lon="3.4278">
        <ele>28.015502929688</ele>
        <time>2010-05-16T08:33:57Z</time>
      </trkpt>
      <trkpt lat="50.40993" lon="3.42799">
        <ele>26.092895507812</ele>
        <time>2010-05-16T08:34:04Z</time>
      </trkpt>
      <trkpt lat="50.41027" lon="3.4282">
        <ele>26.573608398438</ele>
        <time>2010-05-16T08:34:10Z</time>
      </trkpt>
      <trkpt lat="50.41046" lon="3.42832">
        <ele>26.573608398438</ele>
        <time>2010-05-16T08:34:13Z</time>
      </trkpt>
      <trkpt lat="50.41084" lon="3.42858">
        <ele>25.131713867188</ele>
        <time>2010-05-16T08:34:20Z</time>
      </trkpt>
      <trkpt lat="50.41116" lon="3.42879">
        <ele>27.054321289062</ele>
        <time>2010-05-16T08:34:24Z</time>
      </trkpt>
      <trkpt lat="50.41139" lon="3.42894">
        <ele>26.573608398438</ele>
        <time>2010-05-16T08:34:27Z</time>
      </trkpt>
      <trkpt lat="50.41165" lon="3.42904">
        <ele>30.418823242188</ele>
        <time>2010-05-16T08:34:30Z</time>
      </trkpt>
      <trkpt lat="50.41185" lon="3.42923">
        <ele>31.380126953125</ele>
        <time>2010-05-16T08:34:34Z</time>
      </trkpt>
      <trkpt lat="50.41181" lon="3.42937">
        <ele>32.822265625</ele>
        <time>2010-05-16T08:34:37Z</time>
      </trkpt>
      <trkpt lat="50.41171" lon="3.42962">
        <ele>34.26416015625</ele>
        <time>2010-05-16T08:34:41Z</time>
      </trkpt>
      <trkpt lat="50.41167" lon="3.42979">
        <ele>33.302856445312</ele>
        <time>2010-05-16T08:34:43Z</time>
      </trkpt>
      <trkpt lat="50.41163" lon="3.43015">
        <ele>31.860717773438</ele>
        <time>2010-05-16T08:34:47Z</time>
      </trkpt>
      <trkpt lat="50.41166" lon="3.43058">
        <ele>28.496215820312</ele>
        <time>2010-05-16T08:34:52Z</time>
      </trkpt>
      <trkpt lat="50.41177" lon="3.4313">
        <ele>27.054321289062</ele>
        <time>2010-05-16T08:35:00Z</time>
      </trkpt>
      <trkpt lat="50.41181" lon="3.43147">
        <ele>26.573608398438</ele>
        <time>2010-05-16T08:35:02Z</time>
      </trkpt>
      <trkpt lat="50.41187" lon="3.43188">
        <ele>26.092895507812</ele>
        <time>2010-05-16T08:35:07Z</time>
      </trkpt>
      <trkpt lat="50.41203" lon="3.43223">
        <ele>26.092895507812</ele>
        <time>2010-05-16T08:35:12Z</time>
      </trkpt>
      <trkpt lat="50.41217" lon="3.4325">
        <ele>24.651000976562</ele>
        <time>2010-05-16T08:35:16Z</time>
      </trkpt>
      <trkpt lat="50.41248" lon="3.43301">
        <ele>24.170288085938</ele>
        <time>2010-05-16T08:35:24Z</time>
      </trkpt>
      <trkpt lat="50.41251" lon="3.43307">
        <ele>25.131713867188</ele>
        <time>2010-05-16T08:35:25Z</time>
      </trkpt>
      <trkpt lat="50.41283" lon="3.4335">
        <ele>23.689575195312</ele>
        <time>2010-05-16T08:35:33Z</time>
      </trkpt>
      <trkpt lat="50.41287" lon="3.43356">
        <ele>23.208984375</ele>
        <time>2010-05-16T08:35:34Z</time>
      </trkpt>
      <trkpt lat="50.41312" lon="3.43419">
        <ele>22.24755859375</ele>
        <time>2010-05-16T08:35:43Z</time>
      </trkpt>
      <trkpt lat="50.41328" lon="3.4346">
        <ele>22.728271484375</ele>
        <time>2010-05-16T08:35:49Z</time>
      </trkpt>
      <trkpt lat="50.41342" lon="3.43503">
        <ele>22.728271484375</ele>
        <time>2010-05-16T08:35:55Z</time>
      </trkpt>
      <trkpt lat="50.41356" lon="3.43548">
        <ele>23.689575195312</ele>
        <time>2010-05-16T08:36:01Z</time>
      </trkpt>
      <trkpt lat="50.41362" lon="3.43587">
        <ele>23.208984375</ele>
        <time>2010-05-16T08:36:06Z</time>
      </trkpt>
      <trkpt lat="50.41356" lon="3.43644">
        <ele>22.24755859375</ele>
        <time>2010-05-16T08:36:13Z</time>
      </trkpt>
      <trkpt lat="50.4134" lon="3.43729">
        <ele>20.8056640625</ele>
        <time>2010-05-16T08:36:23Z</time>
      </trkpt>
      <trkpt lat="50.41338" lon="3.43738">
        <ele>20.8056640625</ele>
        <time>2010-05-16T08:36:24Z</time>
      </trkpt>
      <trkpt lat="50.41328" lon="3.43788">
        <ele>20.8056640625</ele>
        <time>2010-05-16T08:36:30Z</time>
      </trkpt>
      <trkpt lat="50.41329" lon="3.43796">
        <ele>21.766967773438</ele>
        <time>2010-05-16T08:36:31Z</time>
      </trkpt>
      <trkpt lat="50.41333" lon="3.4382">
        <ele>22.728271484375</ele>
        <time>2010-05-16T08:36:34Z</time>
      </trkpt>
      <trkpt lat="50.41341" lon="3.43864">
        <ele>25.131713867188</ele>
        <time>2010-05-16T08:36:40Z</time>
      </trkpt>
      <trkpt lat="50.41343" lon="3.43878">
        <ele>25.6123046875</ele>
        <time>2010-05-16T08:36:42Z</time>
      </trkpt>
      <trkpt lat="50.41338" lon="3.43921">
        <ele>27.054321289062</ele>
        <time>2010-05-16T08:36:47Z</time>
      </trkpt>
      <trkpt lat="50.41328" lon="3.43952">
        <ele>29.45751953125</ele>
        <time>2010-05-16T08:36:51Z</time>
      </trkpt>
      <trkpt lat="50.41321" lon="3.44006">
        <ele>30.899536132812</ele>
        <time>2010-05-16T08:36:57Z</time>
      </trkpt>
      <trkpt lat="50.41318" lon="3.44042">
        <ele>32.341552734375</ele>
        <time>2010-05-16T08:37:01Z</time>
      </trkpt>
      <trkpt lat="50.41317" lon="3.4405">
        <ele>32.341552734375</ele>
        <time>2010-05-16T08:37:02Z</time>
      </trkpt>
      <trkpt lat="50.41307" lon="3.441">
        <ele>36.66748046875</ele>
        <time>2010-05-16T08:37:08Z</time>
      </trkpt>
      <trkpt lat="50.41301" lon="3.44124">
        <ele>36.66748046875</ele>
        <time>2010-05-16T08:37:11Z</time>
      </trkpt>
      <trkpt lat="50.41303" lon="3.44155">
        <ele>37.148071289062</ele>
        <time>2010-05-16T08:37:15Z</time>
      </trkpt>
      <trkpt lat="50.41311" lon="3.44159">
        <ele>35.225463867188</ele>
        <time>2010-05-16T08:37:18Z</time>
      </trkpt>
      <trkpt lat="50.4132" lon="3.4416">
        <ele>34.744873046875</ele>
        <time>2010-05-16T08:37:20Z</time>
      </trkpt>
      <trkpt lat="50.41344" lon="3.44168">
        <ele>30.899536132812</ele>
        <time>2010-05-16T08:37:25Z</time>
      </trkpt>
      <trkpt lat="50.41358" lon="3.44195">
        <ele>30.899536132812</ele>
        <time>2010-05-16T08:37:30Z</time>
      </trkpt>
      <trkpt lat="50.41351" lon="3.44218">
        <ele>31.860717773438</ele>
        <time>2010-05-16T08:37:33Z</time>
      </trkpt>
      <trkpt lat="50.41347" lon="3.44234">
        <ele>33.302856445312</ele>
        <time>2010-05-16T08:37:35Z</time>
      </trkpt>
      <trkpt lat="50.41342" lon="3.4425">
        <ele>33.783447265625</ele>
        <time>2010-05-16T08:37:37Z</time>
      </trkpt>
      <trkpt lat="50.41332" lon="3.44278">
        <ele>32.822265625</ele>
        <time>2010-05-16T08:37:41Z</time>
      </trkpt>
      <trkpt lat="50.41326" lon="3.4429">
        <ele>30.899536132812</ele>
        <time>2010-05-16T08:37:43Z</time>
      </trkpt>
      <trkpt lat="50.41318" lon="3.44325">
        <ele>30.899536132812</ele>
        <time>2010-05-16T08:37:48Z</time>
      </trkpt>
      <trkpt lat="50.41327" lon="3.44332">
        <ele>29.938110351562</ele>
        <time>2010-05-16T08:37:51Z</time>
      </trkpt>
      <trkpt lat="50.41348" lon="3.44337">
        <ele>28.015502929688</ele>
        <time>2010-05-16T08:37:56Z</time>
      </trkpt>
      <trkpt lat="50.41352" lon="3.44338">
        <ele>26.573608398438</ele>
        <time>2010-05-16T08:37:57Z</time>
      </trkpt>
      <trkpt lat="50.41378" lon="3.44345">
        <ele>25.131713867188</ele>
        <time>2010-05-16T08:38:03Z</time>
      </trkpt>
      <trkpt lat="50.41397" lon="3.44351">
        <ele>25.6123046875</ele>
        <time>2010-05-16T08:38:07Z</time>
      </trkpt>
      <trkpt lat="50.41422" lon="3.44359">
        <ele>24.651000976562</ele>
        <time>2010-05-16T08:38:12Z</time>
      </trkpt>
      <trkpt lat="50.41442" lon="3.44366">
        <ele>25.131713867188</ele>
        <time>2010-05-16T08:38:16Z</time>
      </trkpt>
      <trkpt lat="50.41456" lon="3.4437">
        <ele>25.6123046875</ele>
        <time>2010-05-16T08:38:19Z</time>
      </trkpt>
      <trkpt lat="50.41482" lon="3.44366">
        <ele>29.938110351562</ele>
        <time>2010-05-16T08:38:24Z</time>
      </trkpt>
      <trkpt lat="50.41497" lon="3.44351">
        <ele>32.341552734375</ele>
        <time>2010-05-16T08:38:28Z</time>
      </trkpt>
      <trkpt lat="50.41505" lon="3.44351">
        <ele>31.380126953125</ele>
        <time>2010-05-16T08:38:30Z</time>
      </trkpt>
      <trkpt lat="50.41519" lon="3.44356">
        <ele>29.45751953125</ele>
        <time>2010-05-16T08:38:33Z</time>
      </trkpt>
      <trkpt lat="50.41536" lon="3.44359">
        <ele>28.015502929688</ele>
        <time>2010-05-16T08:38:37Z</time>
      </trkpt>
      <trkpt lat="50.41556" lon="3.44366">
        <ele>28.015502929688</ele>
        <time>2010-05-16T08:38:41Z</time>
      </trkpt>
      <trkpt lat="50.41588" lon="3.44378">
        <ele>26.092895507812</ele>
        <time>2010-05-16T08:38:47Z</time>
      </trkpt>
      <trkpt lat="50.41623" lon="3.44378">
        <ele>24.651000976562</ele>
        <time>2010-05-16T08:38:53Z</time>
      </trkpt>
      <trkpt lat="50.41651" lon="3.44383">
        <ele>24.170288085938</ele>
        <time>2010-05-16T08:38:58Z</time>
      </trkpt>
      <trkpt lat="50.41685" lon="3.44386">
        <ele>22.728271484375</ele>
        <time>2010-05-16T08:39:04Z</time>
      </trkpt>
      <trkpt lat="50.41691" lon="3.44386">
        <ele>22.24755859375</ele>
        <time>2010-05-16T08:39:05Z</time>
      </trkpt>
      <trkpt lat="50.41718" lon="3.44379">
        <ele>22.728271484375</ele>
        <time>2010-05-16T08:39:10Z</time>
      </trkpt>
      <trkpt lat="50.41729" lon="3.44382">
        <ele>22.24755859375</ele>
        <time>2010-05-16T08:39:12Z</time>
      </trkpt>
      <trkpt lat="50.41741" lon="3.44387">
        <ele>22.24755859375</ele>
        <time>2010-05-16T08:39:14Z</time>
      </trkpt>
      <trkpt lat="50.41767" lon="3.44399">
        <ele>21.766967773438</ele>
        <time>2010-05-16T08:39:19Z</time>
      </trkpt>
      <trkpt lat="50.41797" lon="3.44405">
        <ele>21.286376953125</ele>
        <time>2010-05-16T08:39:24Z</time>
      </trkpt>
      <trkpt lat="50.41821" lon="3.44399">
        <ele>21.766967773438</ele>
        <time>2010-05-16T08:39:28Z</time>
      </trkpt>
      <trkpt lat="50.41851" lon="3.44404">
        <ele>22.24755859375</ele>
        <time>2010-05-16T08:39:33Z</time>
      </trkpt>
      <trkpt lat="50.41875" lon="3.44414">
        <ele>22.24755859375</ele>
        <time>2010-05-16T08:39:37Z</time>
      </trkpt>
      <trkpt lat="50.41894" lon="3.44403">
        <ele>24.170288085938</ele>
        <time>2010-05-16T08:39:40Z</time>
      </trkpt>
      <trkpt lat="50.41906" lon="3.44385">
        <ele>25.131713867188</ele>
        <time>2010-05-16T08:39:42Z</time>
      </trkpt>
      <trkpt lat="50.41936" lon="3.44324">
        <ele>28.976928710938</ele>
        <time>2010-05-16T08:39:48Z</time>
      </trkpt>
      <trkpt lat="50.41963" lon="3.44276">
        <ele>27.534912109375</ele>
        <time>2010-05-16T08:39:53Z</time>
      </trkpt>
      <trkpt lat="50.41973" lon="3.44255">
        <ele>28.976928710938</ele>
        <time>2010-05-16T08:39:55Z</time>
      </trkpt>
      <trkpt lat="50.42007" lon="3.44195">
        <ele>31.380126953125</ele>
        <time>2010-05-16T08:40:01Z</time>
      </trkpt>
      <trkpt lat="50.42018" lon="3.44176">
        <ele>29.938110351562</ele>
        <time>2010-05-16T08:40:03Z</time>
      </trkpt>
      <trkpt lat="50.42048" lon="3.44107">
        <ele>30.899536132812</ele>
        <time>2010-05-16T08:40:10Z</time>
      </trkpt>
      <trkpt lat="50.4206" lon="3.44088">
        <ele>31.380126953125</ele>
        <time>2010-05-16T08:40:12Z</time>
      </trkpt>
      <trkpt lat="50.42097" lon="3.44023">
        <ele>24.651000976562</ele>
        <time>2010-05-16T08:40:19Z</time>
      </trkpt>
      <trkpt lat="50.42102" lon="3.44014">
        <ele>26.092895507812</ele>
        <time>2010-05-16T08:40:20Z</time>
      </trkpt>
      <trkpt lat="50.42118" lon="3.44013">
        <ele>25.6123046875</ele>
        <time>2010-05-16T08:40:24Z</time>
      </trkpt>
      <trkpt lat="50.4212" lon="3.44018">
        <ele>24.651000976562</ele>
        <time>2010-05-16T08:40:25Z</time>
      </trkpt>
      <trkpt lat="50.42126" lon="3.4403">
        <ele>22.24755859375</ele>
        <time>2010-05-16T08:40:27Z</time>
      </trkpt>
      <trkpt lat="50.42151" lon="3.44065">
        <ele>23.208984375</ele>
        <time>2010-05-16T08:40:32Z</time>
      </trkpt>
      <trkpt lat="50.42172" lon="3.44096">
        <ele>22.24755859375</ele>
        <time>2010-05-16T08:40:36Z</time>
      </trkpt>
      <trkpt lat="50.42202" lon="3.4413">
        <ele>21.766967773438</ele>
        <time>2010-05-16T08:40:41Z</time>
      </trkpt>
      <trkpt lat="50.42226" lon="3.44157">
        <ele>20.8056640625</ele>
        <time>2010-05-16T08:40:45Z</time>
      </trkpt>
      <trkpt lat="50.42232" lon="3.44163">
        <ele>21.286376953125</ele>
        <time>2010-05-16T08:40:46Z</time>
      </trkpt>
      <trkpt lat="50.42265" lon="3.44203">
        <ele>22.24755859375</ele>
        <time>2010-05-16T08:40:51Z</time>
      </trkpt>
      <trkpt lat="50.42278" lon="3.44224">
        <ele>23.208984375</ele>
        <time>2010-05-16T08:40:54Z</time>
      </trkpt>
      <trkpt lat="50.42296" lon="3.44255">
        <ele>24.170288085938</ele>
        <time>2010-05-16T08:40:58Z</time>
      </trkpt>
      <trkpt lat="50.42306" lon="3.44269">
        <ele>23.689575195312</ele>
        <time>2010-05-16T08:41:00Z</time>
      </trkpt>
      <trkpt lat="50.42333" lon="3.44294">
        <ele>18.40234375</ele>
        <time>2010-05-16T08:41:05Z</time>
      </trkpt>
      <trkpt lat="50.42339" lon="3.44299">
        <ele>18.40234375</ele>
        <time>2010-05-16T08:41:06Z</time>
      </trkpt>
      <trkpt lat="50.42372" lon="3.44307">
        <ele>21.286376953125</ele>
        <time>2010-05-16T08:41:11Z</time>
      </trkpt>
      <trkpt lat="50.42377" lon="3.44312">
        <ele>21.286376953125</ele>
        <time>2010-05-16T08:41:12Z</time>
      </trkpt>
      <trkpt lat="50.42401" lon="3.4434">
        <ele>21.766967773438</ele>
        <time>2010-05-16T08:41:18Z</time>
      </trkpt>
      <trkpt lat="50.42405" lon="3.44345">
        <ele>21.766967773438</ele>
        <time>2010-05-16T08:41:19Z</time>
      </trkpt>
      <trkpt lat="50.42427" lon="3.44369">
        <ele>21.766967773438</ele>
        <time>2010-05-16T08:41:25Z</time>
      </trkpt>
      <trkpt lat="50.4243" lon="3.44373">
        <ele>21.766967773438</ele>
        <time>2010-05-16T08:41:26Z</time>
      </trkpt>
      <trkpt lat="50.42447" lon="3.4439">
        <ele>20.8056640625</ele>
        <time>2010-05-16T08:41:32Z</time>
      </trkpt>
      <trkpt lat="50.42448" lon="3.4439">
        <ele>20.8056640625</ele>
        <time>2010-05-16T08:41:34Z</time>
      </trkpt>
      <trkpt lat="50.42449" lon="3.44391">
        <ele>21.286376953125</ele>
        <time>2010-05-16T08:41:38Z</time>
      </trkpt>
      <trkpt lat="50.42454" lon="3.44389">
        <ele>22.24755859375</ele>
        <time>2010-05-16T08:41:45Z</time>
      </trkpt>
      <trkpt lat="50.4246" lon="3.44388">
        <ele>21.286376953125</ele>
        <time>2010-05-16T08:49:41Z</time>
      </trkpt>
      <trkpt lat="50.42461" lon="3.44396">
        <ele>23.208984375</ele>
        <time>2010-05-16T08:49:45Z</time>
      </trkpt>
      <trkpt lat="50.42466" lon="3.44406">
        <ele>23.208984375</ele>
        <time>2010-05-16T08:49:48Z</time>
      </trkpt>
      <trkpt lat="50.42484" lon="3.44423">
        <ele>23.689575195312</ele>
        <time>2010-05-16T08:49:52Z</time>
      </trkpt>
      <trkpt lat="50.42507" lon="3.44424">
        <ele>24.170288085938</ele>
        <time>2010-05-16T08:49:57Z</time>
      </trkpt>
      <trkpt lat="50.42519" lon="3.44414">
        <ele>24.170288085938</ele>
        <time>2010-05-16T08:50:01Z</time>
      </trkpt>
      <trkpt lat="50.42522" lon="3.44414">
        <ele>24.651000976562</ele>
        <time>2010-05-16T08:50:03Z</time>
      </trkpt>
      <trkpt lat="50.42526" lon="3.44421">
        <ele>24.651000976562</ele>
        <time>2010-05-16T08:50:06Z</time>
      </trkpt>
      <trkpt lat="50.42538" lon="3.44414">
        <ele>25.131713867188</ele>
        <time>2010-05-16T08:50:10Z</time>
      </trkpt>
      <trkpt lat="50.42558" lon="3.44388">
        <ele>24.170288085938</ele>
        <time>2010-05-16T08:50:16Z</time>
      </trkpt>
      <trkpt lat="50.4257" lon="3.44381">
        <ele>24.651000976562</ele>
        <time>2010-05-16T08:50:20Z</time>
      </trkpt>
      <trkpt lat="50.42583" lon="3.44374">
        <ele>24.170288085938</ele>
        <time>2010-05-16T08:50:24Z</time>
      </trkpt>
      <trkpt lat="50.42587" lon="3.44372">
        <ele>23.689575195312</ele>
        <time>2010-05-16T08:50:25Z</time>
      </trkpt>
      <trkpt lat="50.42595" lon="3.44365">
        <ele>23.689575195312</ele>
        <time>2010-05-16T08:50:27Z</time>
      </trkpt>
      <trkpt lat="50.42616" lon="3.44338">
        <ele>23.689575195312</ele>
        <time>2010-05-16T08:50:33Z</time>
      </trkpt>
      <trkpt lat="50.42629" lon="3.44325">
        <ele>23.208984375</ele>
        <time>2010-05-16T08:50:37Z</time>
      </trkpt>
      <trkpt lat="50.42632" lon="3.4432">
        <ele>22.728271484375</ele>
        <time>2010-05-16T08:50:38Z</time>
      </trkpt>
      <trkpt lat="50.42646" lon="3.44301">
        <ele>22.24755859375</ele>
        <time>2010-05-16T08:50:42Z</time>
      </trkpt>
      <trkpt lat="50.42677" lon="3.44273">
        <ele>25.131713867188</ele>
        <time>2010-05-16T08:50:49Z</time>
      </trkpt>
      <trkpt lat="50.42681" lon="3.44269">
        <ele>25.6123046875</ele>
        <time>2010-05-16T08:50:50Z</time>
      </trkpt>
      <trkpt lat="50.42709" lon="3.44251">
        <ele>27.534912109375</ele>
        <time>2010-05-16T08:50:57Z</time>
      </trkpt>
      <trkpt lat="50.42719" lon="3.44256">
        <ele>27.534912109375</ele>
        <time>2010-05-16T08:51:00Z</time>
      </trkpt>
      <trkpt lat="50.42726" lon="3.44262">
        <ele>26.092895507812</ele>
        <time>2010-05-16T08:51:02Z</time>
      </trkpt>
      <trkpt lat="50.42738" lon="3.4427">
        <ele>24.170288085938</ele>
        <time>2010-05-16T08:51:06Z</time>
      </trkpt>
      <trkpt lat="50.42746" lon="3.44274">
        <ele>27.534912109375</ele>
        <time>2010-05-16T08:51:10Z</time>
      </trkpt>
      <trkpt lat="50.42746" lon="3.44279">
        <ele>27.054321289062</ele>
        <time>2010-05-16T08:51:11Z</time>
      </trkpt>
      <trkpt lat="50.42749" lon="3.44317">
        <ele>26.573608398438</ele>
        <time>2010-05-16T08:51:17Z</time>
      </trkpt>
      <trkpt lat="50.42758" lon="3.44355">
        <ele>26.573608398438</ele>
        <time>2010-05-16T08:51:23Z</time>
      </trkpt>
      <trkpt lat="50.4276" lon="3.44361">
        <ele>27.054321289062</ele>
        <time>2010-05-16T08:51:24Z</time>
      </trkpt>
      <trkpt lat="50.42765" lon="3.44394">
        <ele>28.015502929688</ele>
        <time>2010-05-16T08:51:29Z</time>
      </trkpt>
      <trkpt lat="50.42765" lon="3.44406">
        <ele>28.496215820312</ele>
        <time>2010-05-16T08:51:32Z</time>
      </trkpt>
      <trkpt lat="50.42751" lon="3.44415">
        <ele>33.783447265625</ele>
        <time>2010-05-16T08:51:37Z</time>
      </trkpt>
      <trkpt lat="50.42739" lon="3.4443">
        <ele>38.590087890625</ele>
        <time>2010-05-16T08:51:43Z</time>
      </trkpt>
      <trkpt lat="50.42735" lon="3.44441">
        <ele>40.032104492188</ele>
        <time>2010-05-16T08:51:48Z</time>
      </trkpt>
      <trkpt lat="50.42734" lon="3.44438">
        <ele>39.55126953125</ele>
        <time>2010-05-16T08:51:53Z</time>
      </trkpt>
      <trkpt lat="50.4273" lon="3.44436">
        <ele>41.954711914062</ele>
        <time>2010-05-16T08:52:00Z</time>
      </trkpt>
      <trkpt lat="50.42731" lon="3.44434">
        <ele>42.435424804688</ele>
        <time>2010-05-16T08:52:03Z</time>
      </trkpt>
      <trkpt lat="50.4273" lon="3.44433">
        <ele>43.877319335938</ele>
        <time>2010-05-16T08:52:09Z</time>
      </trkpt>
      <trkpt lat="50.42727" lon="3.44433">
        <ele>44.358032226562</ele>
        <time>2010-05-16T08:52:13Z</time>
      </trkpt>
      <trkpt lat="50.42725" lon="3.44435">
        <ele>45.319213867188</ele>
        <time>2010-05-16T08:52:15Z</time>
      </trkpt>
      <trkpt lat="50.42722" lon="3.4445">
        <ele>43.877319335938</ele>
        <time>2010-05-16T08:52:19Z</time>
      </trkpt>
      <trkpt lat="50.42708" lon="3.44482">
        <ele>43.877319335938</ele>
        <time>2010-05-16T08:52:25Z</time>
      </trkpt>
      <trkpt lat="50.42698" lon="3.44506">
        <ele>42.435424804688</ele>
        <time>2010-05-16T08:52:29Z</time>
      </trkpt>
      <trkpt lat="50.42694" lon="3.44529">
        <ele>41.473999023438</ele>
        <time>2010-05-16T08:52:32Z</time>
      </trkpt>
      <trkpt lat="50.42673" lon="3.44571">
        <ele>39.55126953125</ele>
        <time>2010-05-16T08:52:37Z</time>
      </trkpt>
      <trkpt lat="50.4267" lon="3.44582">
        <ele>37.148071289062</ele>
        <time>2010-05-16T08:52:38Z</time>
      </trkpt>
      <trkpt lat="50.42645" lon="3.44653">
        <ele>30.899536132812</ele>
        <time>2010-05-16T08:52:44Z</time>
      </trkpt>
      <trkpt lat="50.42621" lon="3.44715">
        <ele>28.015502929688</ele>
        <time>2010-05-16T08:52:49Z</time>
      </trkpt>
      <trkpt lat="50.42589" lon="3.44805">
        <ele>25.131713867188</ele>
        <time>2010-05-16T08:52:56Z</time>
      </trkpt>
      <trkpt lat="50.42554" lon="3.44901">
        <ele>24.651000976562</ele>
        <time>2010-05-16T08:53:04Z</time>
      </trkpt>
      <trkpt lat="50.42523" lon="3.44986">
        <ele>24.651000976562</ele>
        <time>2010-05-16T08:53:12Z</time>
      </trkpt>
      <trkpt lat="50.425" lon="3.45046">
        <ele>25.131713867188</ele>
        <time>2010-05-16T08:53:18Z</time>
      </trkpt>
      <trkpt lat="50.42476" lon="3.4511">
        <ele>24.170288085938</ele>
        <time>2010-05-16T08:53:25Z</time>
      </trkpt>
      <trkpt lat="50.42451" lon="3.45174">
        <ele>24.170288085938</ele>
        <time>2010-05-16T08:53:32Z</time>
      </trkpt>
      <trkpt lat="50.42421" lon="3.45256">
        <ele>24.170288085938</ele>
        <time>2010-05-16T08:53:41Z</time>
      </trkpt>
      <trkpt lat="50.42391" lon="3.45337">
        <ele>24.170288085938</ele>
        <time>2010-05-16T08:53:50Z</time>
      </trkpt>
      <trkpt lat="50.42362" lon="3.45417">
        <ele>24.170288085938</ele>
        <time>2010-05-16T08:53:59Z</time>
      </trkpt>
      <trkpt lat="50.42332" lon="3.45495">
        <ele>25.131713867188</ele>
        <time>2010-05-16T08:54:08Z</time>
      </trkpt>
      <trkpt lat="50.42306" lon="3.45566">
        <ele>24.170288085938</ele>
        <time>2010-05-16T08:54:16Z</time>
      </trkpt>
      <trkpt lat="50.42278" lon="3.45639">
        <ele>25.6123046875</ele>
        <time>2010-05-16T08:54:24Z</time>
      </trkpt>
      <trkpt lat="50.42252" lon="3.45707">
        <ele>26.573608398438</ele>
        <time>2010-05-16T08:54:32Z</time>
      </trkpt>
      <trkpt lat="50.42229" lon="3.45769">
        <ele>28.496215820312</ele>
        <time>2010-05-16T08:54:40Z</time>
      </trkpt>
      <trkpt lat="50.42203" lon="3.45837">
        <ele>27.054321289062</ele>
        <time>2010-05-16T08:54:48Z</time>
      </trkpt>
      <trkpt lat="50.42178" lon="3.45904">
        <ele>28.496215820312</ele>
        <time>2010-05-16T08:54:55Z</time>
      </trkpt>
      <trkpt lat="50.42145" lon="3.4599">
        <ele>28.496215820312</ele>
        <time>2010-05-16T08:55:04Z</time>
      </trkpt>
      <trkpt lat="50.42126" lon="3.46044">
        <ele>27.054321289062</ele>
        <time>2010-05-16T08:55:10Z</time>
      </trkpt>
      <trkpt lat="50.42123" lon="3.46052">
        <ele>27.054321289062</ele>
        <time>2010-05-16T08:55:11Z</time>
      </trkpt>
      <trkpt lat="50.42125" lon="3.46072">
        <ele>24.651000976562</ele>
        <time>2010-05-16T08:55:14Z</time>
      </trkpt>
      <trkpt lat="50.42132" lon="3.4608">
        <ele>24.170288085938</ele>
        <time>2010-05-16T08:55:16Z</time>
      </trkpt>
      <trkpt lat="50.42152" lon="3.46098">
        <ele>24.170288085938</ele>
        <time>2010-05-16T08:55:21Z</time>
      </trkpt>
      <trkpt lat="50.42177" lon="3.46121">
        <ele>26.573608398438</ele>
        <time>2010-05-16T08:55:27Z</time>
      </trkpt>
      <trkpt lat="50.4221" lon="3.46152">
        <ele>30.418823242188</ele>
        <time>2010-05-16T08:55:34Z</time>
      </trkpt>
      <trkpt lat="50.42234" lon="3.46174">
        <ele>34.744873046875</ele>
        <time>2010-05-16T08:55:39Z</time>
      </trkpt>
      <trkpt lat="50.42244" lon="3.46182">
        <ele>36.66748046875</ele>
        <time>2010-05-16T08:55:41Z</time>
      </trkpt>
      <trkpt lat="50.42264" lon="3.46201">
        <ele>38.109375</ele>
        <time>2010-05-16T08:55:46Z</time>
      </trkpt>
      <trkpt lat="50.42292" lon="3.46226">
        <ele>39.070678710938</ele>
        <time>2010-05-16T08:55:53Z</time>
      </trkpt>
      <trkpt lat="50.42308" lon="3.46226">
        <ele>37.148071289062</ele>
        <time>2010-05-16T08:55:57Z</time>
      </trkpt>
      <trkpt lat="50.42316" lon="3.46205">
        <ele>35.225463867188</ele>
        <time>2010-05-16T08:56:00Z</time>
      </trkpt>
      <trkpt lat="50.42341" lon="3.46139">
        <ele>32.822265625</ele>
        <time>2010-05-16T08:56:08Z</time>
      </trkpt>
      <trkpt lat="50.42351" lon="3.4612">
        <ele>34.744873046875</ele>
        <time>2010-05-16T08:56:11Z</time>
      </trkpt>
      <trkpt lat="50.42362" lon="3.46101">
        <ele>36.66748046875</ele>
        <time>2010-05-16T08:56:14Z</time>
      </trkpt>
      <trkpt lat="50.42371" lon="3.46072">
        <ele>40.512817382812</ele>
        <time>2010-05-16T08:56:19Z</time>
      </trkpt>
      <trkpt lat="50.42389" lon="3.46036">
        <ele>41.954711914062</ele>
        <time>2010-05-16T08:56:25Z</time>
      </trkpt>
      <trkpt lat="50.42395" lon="3.46019">
        <ele>41.954711914062</ele>
        <time>2010-05-16T08:56:30Z</time>
      </trkpt>
      <trkpt lat="50.42403" lon="3.4601">
        <ele>43.396606445312</ele>
        <time>2010-05-16T08:56:34Z</time>
      </trkpt>
      <trkpt lat="50.42415" lon="3.46009">
        <ele>42.916015625</ele>
        <time>2010-05-16T08:56:40Z</time>
      </trkpt>
      <trkpt lat="50.42416" lon="3.46008">
        <ele>43.396606445312</ele>
        <time>2010-05-16T08:56:42Z</time>
      </trkpt>
      <trkpt lat="50.42414" lon="3.46003">
        <ele>48.683959960938</ele>
        <time>2010-05-16T08:56:55Z</time>
      </trkpt>
      <trkpt lat="50.42422" lon="3.45997">
        <ele>47.241821289062</ele>
        <time>2010-05-16T08:56:58Z</time>
      </trkpt>
      <trkpt lat="50.42426" lon="3.45995">
        <ele>46.76123046875</ele>
        <time>2010-05-16T08:56:59Z</time>
      </trkpt>
      <trkpt lat="50.42449" lon="3.4598">
        <ele>43.396606445312</ele>
        <time>2010-05-16T08:57:03Z</time>
      </trkpt>
      <trkpt lat="50.42455" lon="3.45975">
        <ele>42.916015625</ele>
        <time>2010-05-16T08:57:04Z</time>
      </trkpt>
      <trkpt lat="50.42475" lon="3.45979">
        <ele>36.66748046875</ele>
        <time>2010-05-16T08:57:08Z</time>
      </trkpt>
      <trkpt lat="50.42504" lon="3.45999">
        <ele>29.45751953125</ele>
        <time>2010-05-16T08:57:13Z</time>
      </trkpt>
      <trkpt lat="50.42524" lon="3.46006">
        <ele>26.573608398438</ele>
        <time>2010-05-16T08:57:16Z</time>
      </trkpt>
      <trkpt lat="50.42542" lon="3.46007">
        <ele>24.170288085938</ele>
        <time>2010-05-16T08:57:20Z</time>
      </trkpt>
      <trkpt lat="50.42555" lon="3.46006">
        <ele>24.651000976562</ele>
        <time>2010-05-16T08:57:25Z</time>
      </trkpt>
      <trkpt lat="50.4257" lon="3.46004">
        <ele>24.170288085938</ele>
        <time>2010-05-16T08:57:30Z</time>
      </trkpt>
      <trkpt lat="50.42579" lon="3.45996">
        <ele>24.651000976562</ele>
        <time>2010-05-16T08:57:34Z</time>
      </trkpt>
      <trkpt lat="50.42579" lon="3.45996">
        <ele>24.170288085938</ele>
        <time>2010-05-16T08:57:35Z</time>
      </trkpt>
      <trkpt lat="50.4258" lon="3.45999">
        <ele>13.595825195312</ele>
        <time>2010-05-16T08:58:19Z</time>
      </trkpt>
      <trkpt lat="50.4258" lon="3.46001">
        <ele>13.595825195312</ele>
        <time>2010-05-16T08:58:20Z</time>
      </trkpt>
      <trkpt lat="50.42582" lon="3.46003">
        <ele>13.595825195312</ele>
        <time>2010-05-16T08:58:22Z</time>
      </trkpt>
      <trkpt lat="50.42595" lon="3.46014">
        <ele>16.96044921875</ele>
        <time>2010-05-16T08:58:28Z</time>
      </trkpt>
      <trkpt lat="50.42601" lon="3.46022">
        <ele>19.36376953125</ele>
        <time>2010-05-16T08:58:31Z</time>
      </trkpt>
      <trkpt lat="50.42599" lon="3.46045">
        <ele>22.24755859375</ele>
        <time>2010-05-16T08:58:37Z</time>
      </trkpt>
      <trkpt lat="50.4259" lon="3.46078">
        <ele>27.054321289062</ele>
        <time>2010-05-16T08:58:43Z</time>
      </trkpt>
      <trkpt lat="50.42587" lon="3.46099">
        <ele>28.976928710938</ele>
        <time>2010-05-16T08:58:48Z</time>
      </trkpt>
      <trkpt lat="50.4258" lon="3.46139">
        <ele>28.976928710938</ele>
        <time>2010-05-16T08:58:54Z</time>
      </trkpt>
      <trkpt lat="50.42579" lon="3.46146">
        <ele>28.496215820312</ele>
        <time>2010-05-16T08:58:55Z</time>
      </trkpt>
      <trkpt lat="50.42565" lon="3.46213">
        <ele>24.651000976562</ele>
        <time>2010-05-16T08:59:03Z</time>
      </trkpt>
      <trkpt lat="50.4255" lon="3.46285">
        <ele>21.766967773438</ele>
        <time>2010-05-16T08:59:11Z</time>
      </trkpt>
      <trkpt lat="50.42534" lon="3.46355">
        <ele>20.324951171875</ele>
        <time>2010-05-16T08:59:19Z</time>
      </trkpt>
      <trkpt lat="50.42516" lon="3.46428">
        <ele>19.844360351562</ele>
        <time>2010-05-16T08:59:27Z</time>
      </trkpt>
      <trkpt lat="50.42502" lon="3.46496">
        <ele>20.324951171875</ele>
        <time>2010-05-16T08:59:34Z</time>
      </trkpt>
      <trkpt lat="50.42495" lon="3.46533">
        <ele>22.24755859375</ele>
        <time>2010-05-16T08:59:38Z</time>
      </trkpt>
      <trkpt lat="50.42491" lon="3.46561">
        <ele>22.728271484375</ele>
        <time>2010-05-16T08:59:41Z</time>
      </trkpt>
      <trkpt lat="50.42475" lon="3.46631">
        <ele>22.24755859375</ele>
        <time>2010-05-16T08:59:48Z</time>
      </trkpt>
      <trkpt lat="50.42471" lon="3.4665">
        <ele>22.24755859375</ele>
        <time>2010-05-16T08:59:50Z</time>
      </trkpt>
      <trkpt lat="50.42455" lon="3.46699">
        <ele>20.324951171875</ele>
        <time>2010-05-16T08:59:55Z</time>
      </trkpt>
      <trkpt lat="50.42438" lon="3.46769">
        <ele>15.9990234375</ele>
        <time>2010-05-16T09:00:02Z</time>
      </trkpt>
      <trkpt lat="50.42429" lon="3.46811">
        <ele>13.115112304688</ele>
        <time>2010-05-16T09:00:06Z</time>
      </trkpt>
      <trkpt lat="50.42421" lon="3.4686">
        <ele>13.595825195312</ele>
        <time>2010-05-16T09:00:11Z</time>
      </trkpt>
      <trkpt lat="50.4241" lon="3.4691">
        <ele>13.115112304688</ele>
        <time>2010-05-16T09:00:17Z</time>
      </trkpt>
      <trkpt lat="50.42408" lon="3.46943">
        <ele>15.037719726562</ele>
        <time>2010-05-16T09:00:22Z</time>
      </trkpt>
      <trkpt lat="50.42403" lon="3.46966">
        <ele>18.883056640625</ele>
        <time>2010-05-16T09:00:28Z</time>
      </trkpt>
      <trkpt lat="50.42399" lon="3.4699">
        <ele>23.208984375</ele>
        <time>2010-05-16T09:00:33Z</time>
      </trkpt>
      <trkpt lat="50.42395" lon="3.47027">
        <ele>27.534912109375</ele>
        <time>2010-05-16T09:00:39Z</time>
      </trkpt>
      <trkpt lat="50.42386" lon="3.47066">
        <ele>28.496215820312</ele>
        <time>2010-05-16T09:00:45Z</time>
      </trkpt>
      <trkpt lat="50.42384" lon="3.47071">
        <ele>29.938110351562</ele>
        <time>2010-05-16T09:00:46Z</time>
      </trkpt>
      <trkpt lat="50.4238" lon="3.47092">
        <ele>33.302856445312</ele>
        <time>2010-05-16T09:00:50Z</time>
      </trkpt>
      <trkpt lat="50.42368" lon="3.47144">
        <ele>35.7060546875</ele>
        <time>2010-05-16T09:00:56Z</time>
      </trkpt>
      <trkpt lat="50.42362" lon="3.47169">
        <ele>33.302856445312</ele>
        <time>2010-05-16T09:00:59Z</time>
      </trkpt>
      <trkpt lat="50.42359" lon="3.47188">
        <ele>31.860717773438</ele>
        <time>2010-05-16T09:01:01Z</time>
      </trkpt>
      <trkpt lat="50.42345" lon="3.47243">
        <ele>29.45751953125</ele>
        <time>2010-05-16T09:01:06Z</time>
      </trkpt>
      <trkpt lat="50.42342" lon="3.47254">
        <ele>29.938110351562</ele>
        <time>2010-05-16T09:01:07Z</time>
      </trkpt>
      <trkpt lat="50.42328" lon="3.47303">
        <ele>27.054321289062</ele>
        <time>2010-05-16T09:01:12Z</time>
      </trkpt>
      <trkpt lat="50.42327" lon="3.47311">
        <ele>26.092895507812</ele>
        <time>2010-05-16T09:01:13Z</time>
      </trkpt>
      <trkpt lat="50.4232" lon="3.47336">
        <ele>26.573608398438</ele>
        <time>2010-05-16T09:01:16Z</time>
      </trkpt>
      <trkpt lat="50.42313" lon="3.47395">
        <ele>28.496215820312</ele>
        <time>2010-05-16T09:01:23Z</time>
      </trkpt>
      <trkpt lat="50.42312" lon="3.47404">
        <ele>28.015502929688</ele>
        <time>2010-05-16T09:01:24Z</time>
      </trkpt>
      <trkpt lat="50.42299" lon="3.47452">
        <ele>31.380126953125</ele>
        <time>2010-05-16T09:01:30Z</time>
      </trkpt>
      <trkpt lat="50.42296" lon="3.47466">
        <ele>33.783447265625</ele>
        <time>2010-05-16T09:01:33Z</time>
      </trkpt>
      <trkpt lat="50.423" lon="3.47486">
        <ele>33.783447265625</ele>
        <time>2010-05-16T09:01:38Z</time>
      </trkpt>
      <trkpt lat="50.42308" lon="3.47526">
        <ele>31.860717773438</ele>
        <time>2010-05-16T09:01:44Z</time>
      </trkpt>
      <trkpt lat="50.4231" lon="3.47561">
        <ele>28.496215820312</ele>
        <time>2010-05-16T09:01:49Z</time>
      </trkpt>
      <trkpt lat="50.42314" lon="3.47573">
        <ele>28.015502929688</ele>
        <time>2010-05-16T09:01:51Z</time>
      </trkpt>
      <trkpt lat="50.42319" lon="3.476">
        <ele>26.573608398438</ele>
        <time>2010-05-16T09:01:55Z</time>
      </trkpt>
      <trkpt lat="50.42326" lon="3.47621">
        <ele>26.573608398438</ele>
        <time>2010-05-16T09:01:58Z</time>
      </trkpt>
      <trkpt lat="50.42335" lon="3.47646">
        <ele>27.054321289062</ele>
        <time>2010-05-16T09:02:02Z</time>
      </trkpt>
      <trkpt lat="50.42347" lon="3.47661">
        <ele>27.534912109375</ele>
        <time>2010-05-16T09:02:05Z</time>
      </trkpt>
      <trkpt lat="50.42362" lon="3.47676">
        <ele>28.976928710938</ele>
        <time>2010-05-16T09:02:08Z</time>
      </trkpt>
      <trkpt lat="50.42379" lon="3.4769">
        <ele>29.938110351562</ele>
        <time>2010-05-16T09:02:11Z</time>
      </trkpt>
      <trkpt lat="50.42393" lon="3.47706">
        <ele>31.380126953125</ele>
        <time>2010-05-16T09:02:14Z</time>
      </trkpt>
      <trkpt lat="50.42409" lon="3.47723">
        <ele>33.302856445312</ele>
        <time>2010-05-16T09:02:18Z</time>
      </trkpt>
      <trkpt lat="50.42424" lon="3.47743">
        <ele>34.26416015625</ele>
        <time>2010-05-16T09:02:22Z</time>
      </trkpt>
      <trkpt lat="50.42432" lon="3.47755">
        <ele>33.783447265625</ele>
        <time>2010-05-16T09:02:24Z</time>
      </trkpt>
      <trkpt lat="50.42439" lon="3.47766">
        <ele>34.744873046875</ele>
        <time>2010-05-16T09:02:26Z</time>
      </trkpt>
      <trkpt lat="50.42444" lon="3.47779">
        <ele>33.783447265625</ele>
        <time>2010-05-16T09:02:28Z</time>
      </trkpt>
      <trkpt lat="50.42455" lon="3.47797">
        <ele>32.341552734375</ele>
        <time>2010-05-16T09:02:31Z</time>
      </trkpt>
      <trkpt lat="50.42481" lon="3.47821">
        <ele>33.302856445312</ele>
        <time>2010-05-16T09:02:36Z</time>
      </trkpt>
      <trkpt lat="50.42491" lon="3.47832">
        <ele>31.860717773438</ele>
        <time>2010-05-16T09:02:38Z</time>
      </trkpt>
      <trkpt lat="50.42501" lon="3.47841">
        <ele>30.899536132812</ele>
        <time>2010-05-16T09:02:40Z</time>
      </trkpt>
      <trkpt lat="50.42516" lon="3.47862">
        <ele>31.380126953125</ele>
        <time>2010-05-16T09:02:44Z</time>
      </trkpt>
      <trkpt lat="50.42529" lon="3.47876">
        <ele>29.45751953125</ele>
        <time>2010-05-16T09:02:47Z</time>
      </trkpt>
      <trkpt lat="50.42553" lon="3.4789">
        <ele>29.938110351562</ele>
        <time>2010-05-16T09:02:52Z</time>
      </trkpt>
      <trkpt lat="50.4257" lon="3.479">
        <ele>27.534912109375</ele>
        <time>2010-05-16T09:02:56Z</time>
      </trkpt>
      <trkpt lat="50.42572" lon="3.47917">
        <ele>25.6123046875</ele>
        <time>2010-05-16T09:02:59Z</time>
      </trkpt>
      <trkpt lat="50.4257" lon="3.47924">
        <ele>25.6123046875</ele>
        <time>2010-05-16T09:03:00Z</time>
      </trkpt>
      <trkpt lat="50.42561" lon="3.47973">
        <ele>26.573608398438</ele>
        <time>2010-05-16T09:03:06Z</time>
      </trkpt>
      <trkpt lat="50.42561" lon="3.48006">
        <ele>25.131713867188</ele>
        <time>2010-05-16T09:03:10Z</time>
      </trkpt>
      <trkpt lat="50.42564" lon="3.48038">
        <ele>23.689575195312</ele>
        <time>2010-05-16T09:03:15Z</time>
      </trkpt>
      <trkpt lat="50.42565" lon="3.48043">
        <ele>23.208984375</ele>
        <time>2010-05-16T09:03:16Z</time>
      </trkpt>
      <trkpt lat="50.42566" lon="3.48057">
        <ele>23.208984375</ele>
        <time>2010-05-16T09:03:18Z</time>
      </trkpt>
      <trkpt lat="50.42573" lon="3.48091">
        <ele>22.24755859375</ele>
        <time>2010-05-16T09:03:22Z</time>
      </trkpt>
      <trkpt lat="50.42574" lon="3.48099">
        <ele>21.766967773438</ele>
        <time>2010-05-16T09:03:23Z</time>
      </trkpt>
      <trkpt lat="50.42562" lon="3.48133">
        <ele>21.286376953125</ele>
        <time>2010-05-16T09:03:27Z</time>
      </trkpt>
      <trkpt lat="50.42553" lon="3.48157">
        <ele>21.766967773438</ele>
        <time>2010-05-16T09:03:30Z</time>
      </trkpt>
      <trkpt lat="50.42546" lon="3.48177">
        <ele>21.286376953125</ele>
        <time>2010-05-16T09:03:33Z</time>
      </trkpt>
      <trkpt lat="50.42547" lon="3.48205">
        <ele>21.286376953125</ele>
        <time>2010-05-16T09:03:37Z</time>
      </trkpt>
      <trkpt lat="50.42547" lon="3.48223">
        <ele>21.766967773438</ele>
        <time>2010-05-16T09:03:40Z</time>
      </trkpt>
      <trkpt lat="50.42549" lon="3.48251">
        <ele>22.24755859375</ele>
        <time>2010-05-16T09:03:44Z</time>
      </trkpt>
      <trkpt lat="50.42548" lon="3.48287">
        <ele>20.8056640625</ele>
        <time>2010-05-16T09:03:50Z</time>
      </trkpt>
      <trkpt lat="50.42548" lon="3.48293">
        <ele>20.8056640625</ele>
        <time>2010-05-16T09:03:53Z</time>
      </trkpt>
      <trkpt lat="50.42544" lon="3.48297">
        <ele>25.131713867188</ele>
        <time>2010-05-16T09:04:06Z</time>
      </trkpt>
      <trkpt lat="50.42543" lon="3.48307">
        <ele>24.170288085938</ele>
        <time>2010-05-16T09:04:08Z</time>
      </trkpt>
      <trkpt lat="50.4253" lon="3.4835">
        <ele>24.651000976562</ele>
        <time>2010-05-16T09:04:13Z</time>
      </trkpt>
      <trkpt lat="50.42509" lon="3.48406">
        <ele>28.976928710938</ele>
        <time>2010-05-16T09:04:19Z</time>
      </trkpt>
      <trkpt lat="50.42506" lon="3.48432">
        <ele>31.380126953125</ele>
        <time>2010-05-16T09:04:22Z</time>
      </trkpt>
      <trkpt lat="50.42509" lon="3.48467">
        <ele>31.860717773438</ele>
        <time>2010-05-16T09:04:26Z</time>
      </trkpt>
      <trkpt lat="50.42506" lon="3.48492">
        <ele>32.822265625</ele>
        <time>2010-05-16T09:04:29Z</time>
      </trkpt>
      <trkpt lat="50.42496" lon="3.48527">
        <ele>32.341552734375</ele>
        <time>2010-05-16T09:04:33Z</time>
      </trkpt>
      <trkpt lat="50.42479" lon="3.48572">
        <ele>33.302856445312</ele>
        <time>2010-05-16T09:04:38Z</time>
      </trkpt>
      <trkpt lat="50.42465" lon="3.48605">
        <ele>34.26416015625</ele>
        <time>2010-05-16T09:04:42Z</time>
      </trkpt>
      <trkpt lat="50.42457" lon="3.48621">
        <ele>34.744873046875</ele>
        <time>2010-05-16T09:04:44Z</time>
      </trkpt>
      <trkpt lat="50.42457" lon="3.48661">
        <ele>36.186767578125</ele>
        <time>2010-05-16T09:04:49Z</time>
      </trkpt>
      <trkpt lat="50.4246" lon="3.4867">
        <ele>36.186767578125</ele>
        <time>2010-05-16T09:04:50Z</time>
      </trkpt>
      <trkpt lat="50.42471" lon="3.48705">
        <ele>33.783447265625</ele>
        <time>2010-05-16T09:04:54Z</time>
      </trkpt>
      <trkpt lat="50.42483" lon="3.48743">
        <ele>31.380126953125</ele>
        <time>2010-05-16T09:04:58Z</time>
      </trkpt>
      <trkpt lat="50.42486" lon="3.48772">
        <ele>29.45751953125</ele>
        <time>2010-05-16T09:05:01Z</time>
      </trkpt>
      <trkpt lat="50.42476" lon="3.48807">
        <ele>18.40234375</ele>
        <time>2010-05-16T09:05:06Z</time>
      </trkpt>
      <trkpt lat="50.42474" lon="3.48817">
        <ele>15.9990234375</ele>
        <time>2010-05-16T09:05:07Z</time>
      </trkpt>
      <trkpt lat="50.42458" lon="3.48866">
        <ele>8.7891845703125</ele>
        <time>2010-05-16T09:05:12Z</time>
      </trkpt>
      <trkpt lat="50.42451" lon="3.48884">
        <ele>6.866455078125</ele>
        <time>2010-05-16T09:05:14Z</time>
      </trkpt>
      <trkpt lat="50.42445" lon="3.48902">
        <ele>4.4632568359375</ele>
        <time>2010-05-16T09:05:16Z</time>
      </trkpt>
      <trkpt lat="50.42434" lon="3.48924">
        <ele>1.579345703125</ele>
        <time>2010-05-16T09:05:19Z</time>
      </trkpt>
      <trkpt lat="50.42413" lon="3.48961">
        <ele>-2.2659912109375</ele>
        <time>2010-05-16T09:05:24Z</time>
      </trkpt>
      <trkpt lat="50.42408" lon="3.48971">
        <ele>-3.7078857421875</ele>
        <time>2010-05-16T09:05:25Z</time>
      </trkpt>
      <trkpt lat="50.42401" lon="3.48988">
        <ele>-6.1112060546875</ele>
        <time>2010-05-16T09:05:27Z</time>
      </trkpt>
      <trkpt lat="50.42382" lon="3.49013">
        <ele>-6.5919189453125</ele>
        <time>2010-05-16T09:05:31Z</time>
      </trkpt>
      <trkpt lat="50.42367" lon="3.49024">
        <ele>-7.5531005859375</ele>
        <time>2010-05-16T09:05:33Z</time>
      </trkpt>
      <trkpt lat="50.42341" lon="3.49051">
        <ele>-4.6693115234375</ele>
        <time>2010-05-16T09:05:37Z</time>
      </trkpt>
      <trkpt lat="50.42328" lon="3.49067">
        <ele>-2.2659912109375</ele>
        <time>2010-05-16T09:05:39Z</time>
      </trkpt>
      <trkpt lat="50.42317" lon="3.49086">
        <ele>1.0986328125</ele>
        <time>2010-05-16T09:05:41Z</time>
      </trkpt>
      <trkpt lat="50.42285" lon="3.49152">
        <ele>11.673217773438</ele>
        <time>2010-05-16T09:05:47Z</time>
      </trkpt>
      <trkpt lat="50.42281" lon="3.49161">
        <ele>12.634399414062</ele>
        <time>2010-05-16T09:05:48Z</time>
      </trkpt>
      <trkpt lat="50.42271" lon="3.49182">
        <ele>19.844360351562</ele>
        <time>2010-05-16T09:05:50Z</time>
      </trkpt>
      <trkpt lat="50.42241" lon="3.49235">
        <ele>34.26416015625</ele>
        <time>2010-05-16T09:05:55Z</time>
      </trkpt>
      <trkpt lat="50.42252" lon="3.4926">
        <ele>33.302856445312</ele>
        <time>2010-05-16T09:05:58Z</time>
      </trkpt>
      <trkpt lat="50.42273" lon="3.49284">
        <ele>31.380126953125</ele>
        <time>2010-05-16T09:06:02Z</time>
      </trkpt>
      <trkpt lat="50.42304" lon="3.49325">
        <ele>30.899536132812</ele>
        <time>2010-05-16T09:06:08Z</time>
      </trkpt>
      <trkpt lat="50.42314" lon="3.49338">
        <ele>30.899536132812</ele>
        <time>2010-05-16T09:06:10Z</time>
      </trkpt>
      <trkpt lat="50.42319" lon="3.49369">
        <ele>28.976928710938</ele>
        <time>2010-05-16T09:06:14Z</time>
      </trkpt>
      <trkpt lat="50.42319" lon="3.49377">
        <ele>28.015502929688</ele>
        <time>2010-05-16T09:06:15Z</time>
      </trkpt>
      <trkpt lat="50.42314" lon="3.49407">
        <ele>28.496215820312</ele>
        <time>2010-05-16T09:06:18Z</time>
      </trkpt>
      <trkpt lat="50.42301" lon="3.49492">
        <ele>27.534912109375</ele>
        <time>2010-05-16T09:06:25Z</time>
      </trkpt>
      <trkpt lat="50.42294" lon="3.49555">
        <ele>27.534912109375</ele>
        <time>2010-05-16T09:06:30Z</time>
      </trkpt>
      <trkpt lat="50.42282" lon="3.49612">
        <ele>31.380126953125</ele>
        <time>2010-05-16T09:06:35Z</time>
      </trkpt>
      <trkpt lat="50.42271" lon="3.49658">
        <ele>36.186767578125</ele>
        <time>2010-05-16T09:06:39Z</time>
      </trkpt>
      <trkpt lat="50.4227" lon="3.4971">
        <ele>35.225463867188</ele>
        <time>2010-05-16T09:06:44Z</time>
      </trkpt>
      <trkpt lat="50.42273" lon="3.49774">
        <ele>36.186767578125</ele>
        <time>2010-05-16T09:06:50Z</time>
      </trkpt>
      <trkpt lat="50.42275" lon="3.49806">
        <ele>32.341552734375</ele>
        <time>2010-05-16T09:06:53Z</time>
      </trkpt>
      <trkpt lat="50.42279" lon="3.49832">
        <ele>31.380126953125</ele>
        <time>2010-05-16T09:06:56Z</time>
      </trkpt>
      <trkpt lat="50.42267" lon="3.49844">
        <ele>34.26416015625</ele>
        <time>2010-05-16T09:07:00Z</time>
      </trkpt>
      <trkpt lat="50.42238" lon="3.49857">
        <ele>31.860717773438</ele>
        <time>2010-05-16T09:07:05Z</time>
      </trkpt>
      <trkpt lat="50.42205" lon="3.49873">
        <ele>33.302856445312</ele>
        <time>2010-05-16T09:07:10Z</time>
      </trkpt>
      <trkpt lat="50.42158" lon="3.49894">
        <ele>33.783447265625</ele>
        <time>2010-05-16T09:07:17Z</time>
      </trkpt>
      <trkpt lat="50.4212" lon="3.49912">
        <ele>34.744873046875</ele>
        <time>2010-05-16T09:07:23Z</time>
      </trkpt>
      <trkpt lat="50.42084" lon="3.49928">
        <ele>34.26416015625</ele>
        <time>2010-05-16T09:07:28Z</time>
      </trkpt>
      <trkpt lat="50.42052" lon="3.49941">
        <ele>32.341552734375</ele>
        <time>2010-05-16T09:07:33Z</time>
      </trkpt>
      <trkpt lat="50.4202" lon="3.49957">
        <ele>29.45751953125</ele>
        <time>2010-05-16T09:07:38Z</time>
      </trkpt>
      <trkpt lat="50.41985" lon="3.49974">
        <ele>28.496215820312</ele>
        <time>2010-05-16T09:07:43Z</time>
      </trkpt>
      <trkpt lat="50.41946" lon="3.49989">
        <ele>28.015502929688</ele>
        <time>2010-05-16T09:07:49Z</time>
      </trkpt>
      <trkpt lat="50.41913" lon="3.50002">
        <ele>28.015502929688</ele>
        <time>2010-05-16T09:07:54Z</time>
      </trkpt>
      <trkpt lat="50.41879" lon="3.50018">
        <ele>29.938110351562</ele>
        <time>2010-05-16T09:07:59Z</time>
      </trkpt>
      <trkpt lat="50.41873" lon="3.5002">
        <ele>29.938110351562</ele>
        <time>2010-05-16T09:08:00Z</time>
      </trkpt>
      <trkpt lat="50.41847" lon="3.50035">
        <ele>30.418823242188</ele>
        <time>2010-05-16T09:08:05Z</time>
      </trkpt>
      <trkpt lat="50.41835" lon="3.50048">
        <ele>30.418823242188</ele>
        <time>2010-05-16T09:08:09Z</time>
      </trkpt>
      <trkpt lat="50.4183" lon="3.50038">
        <ele>30.418823242188</ele>
        <time>2010-05-16T09:08:12Z</time>
      </trkpt>
      <trkpt lat="50.41836" lon="3.50027">
        <ele>29.45751953125</ele>
        <time>2010-05-16T09:08:15Z</time>
      </trkpt>
      <trkpt lat="50.41843" lon="3.50032">
        <ele>28.976928710938</ele>
        <time>2010-05-16T09:08:18Z</time>
      </trkpt>
      <trkpt lat="50.41843" lon="3.50048">
        <ele>28.976928710938</ele>
        <time>2010-05-16T09:08:23Z</time>
      </trkpt>
      <trkpt lat="50.41842" lon="3.50042">
        <ele>28.976928710938</ele>
        <time>2010-05-16T09:08:26Z</time>
      </trkpt>
      <trkpt lat="50.41842" lon="3.50037">
        <ele>28.976928710938</ele>
        <time>2010-05-16T09:08:30Z</time>
      </trkpt>
      <trkpt lat="50.41841" lon="3.50039">
        <ele>33.302856445312</ele>
        <time>2010-05-16T09:12:01Z</time>
      </trkpt>
      <trkpt lat="50.41834" lon="3.50036">
        <ele>33.302856445312</ele>
        <time>2010-05-16T09:12:05Z</time>
      </trkpt>
      <trkpt lat="50.41833" lon="3.5004">
        <ele>33.302856445312</ele>
        <time>2010-05-16T09:12:06Z</time>
      </trkpt>
      <trkpt lat="50.4183" lon="3.50058">
        <ele>32.341552734375</ele>
        <time>2010-05-16T09:12:09Z</time>
      </trkpt>
      <trkpt lat="50.41807" lon="3.5012">
        <ele>30.418823242188</ele>
        <time>2010-05-16T09:12:19Z</time>
      </trkpt>
      <trkpt lat="50.41802" lon="3.50134">
        <ele>29.938110351562</ele>
        <time>2010-05-16T09:12:21Z</time>
      </trkpt>
      <trkpt lat="50.41786" lon="3.5017">
        <ele>29.938110351562</ele>
        <time>2010-05-16T09:12:26Z</time>
      </trkpt>
      <trkpt lat="50.41761" lon="3.50235">
        <ele>33.783447265625</ele>
        <time>2010-05-16T09:12:35Z</time>
      </trkpt>
      <trkpt lat="50.41743" lon="3.50281">
        <ele>33.783447265625</ele>
        <time>2010-05-16T09:12:41Z</time>
      </trkpt>
      <trkpt lat="50.41735" lon="3.50306">
        <ele>32.822265625</ele>
        <time>2010-05-16T09:12:44Z</time>
      </trkpt>
      <trkpt lat="50.41708" lon="3.50372">
        <ele>31.860717773438</ele>
        <time>2010-05-16T09:12:52Z</time>
      </trkpt>
      <trkpt lat="50.41705" lon="3.5038">
        <ele>31.860717773438</ele>
        <time>2010-05-16T09:12:53Z</time>
      </trkpt>
      <trkpt lat="50.41678" lon="3.50447">
        <ele>30.899536132812</ele>
        <time>2010-05-16T09:13:01Z</time>
      </trkpt>
      <trkpt lat="50.41675" lon="3.50455">
        <ele>31.380126953125</ele>
        <time>2010-05-16T09:13:02Z</time>
      </trkpt>
      <trkpt lat="50.41656" lon="3.50503">
        <ele>30.418823242188</ele>
        <time>2010-05-16T09:13:08Z</time>
      </trkpt>
      <trkpt lat="50.41636" lon="3.50554">
        <ele>29.938110351562</ele>
        <time>2010-05-16T09:13:14Z</time>
      </trkpt>
      <trkpt lat="50.41608" lon="3.50623">
        <ele>29.938110351562</ele>
        <time>2010-05-16T09:13:22Z</time>
      </trkpt>
      <trkpt lat="50.41581" lon="3.50693">
        <ele>29.45751953125</ele>
        <time>2010-05-16T09:13:30Z</time>
      </trkpt>
      <trkpt lat="50.41557" lon="3.50752">
        <ele>28.976928710938</ele>
        <time>2010-05-16T09:13:37Z</time>
      </trkpt>
      <trkpt lat="50.41537" lon="3.50804">
        <ele>28.976928710938</ele>
        <time>2010-05-16T09:13:43Z</time>
      </trkpt>
      <trkpt lat="50.41514" lon="3.50865">
        <ele>27.054321289062</ele>
        <time>2010-05-16T09:13:50Z</time>
      </trkpt>
      <trkpt lat="50.41498" lon="3.50914">
        <ele>28.015502929688</ele>
        <time>2010-05-16T09:13:56Z</time>
      </trkpt>
      <trkpt lat="50.41479" lon="3.50966">
        <ele>28.496215820312</ele>
        <time>2010-05-16T09:14:02Z</time>
      </trkpt>
      <trkpt lat="50.41453" lon="3.51033">
        <ele>29.938110351562</ele>
        <time>2010-05-16T09:14:10Z</time>
      </trkpt>
      <trkpt lat="50.4145" lon="3.51042">
        <ele>29.45751953125</ele>
        <time>2010-05-16T09:14:11Z</time>
      </trkpt>
      <trkpt lat="50.41455" lon="3.51059">
        <ele>29.45751953125</ele>
        <time>2010-05-16T09:14:14Z</time>
      </trkpt>
      <trkpt lat="50.4146" lon="3.51078">
        <ele>29.45751953125</ele>
        <time>2010-05-16T09:14:17Z</time>
      </trkpt>
      <trkpt lat="50.41473" lon="3.511">
        <ele>28.015502929688</ele>
        <time>2010-05-16T09:14:21Z</time>
      </trkpt>
      <trkpt lat="50.41486" lon="3.51115">
        <ele>28.496215820312</ele>
        <time>2010-05-16T09:14:24Z</time>
      </trkpt>
      <trkpt lat="50.41507" lon="3.51129">
        <ele>28.976928710938</ele>
        <time>2010-05-16T09:14:28Z</time>
      </trkpt>
      <trkpt lat="50.41518" lon="3.51136">
        <ele>28.976928710938</ele>
        <time>2010-05-16T09:14:30Z</time>
      </trkpt>
      <trkpt lat="50.41529" lon="3.51144">
        <ele>29.45751953125</ele>
        <time>2010-05-16T09:14:32Z</time>
      </trkpt>
      <trkpt lat="50.41544" lon="3.51162">
        <ele>30.418823242188</ele>
        <time>2010-05-16T09:14:35Z</time>
      </trkpt>
      <trkpt lat="50.41582" lon="3.51199">
        <ele>33.302856445312</ele>
        <time>2010-05-16T09:14:42Z</time>
      </trkpt>
      <trkpt lat="50.41604" lon="3.51222">
        <ele>33.783447265625</ele>
        <time>2010-05-16T09:14:46Z</time>
      </trkpt>
      <trkpt lat="50.41624" lon="3.51248">
        <ele>34.744873046875</ele>
        <time>2010-05-16T09:14:50Z</time>
      </trkpt>
      <trkpt lat="50.41646" lon="3.51274">
        <ele>34.26416015625</ele>
        <time>2010-05-16T09:14:54Z</time>
      </trkpt>
      <trkpt lat="50.41651" lon="3.51281">
        <ele>33.783447265625</ele>
        <time>2010-05-16T09:14:55Z</time>
      </trkpt>
      <trkpt lat="50.41679" lon="3.51329">
        <ele>33.783447265625</ele>
        <time>2010-05-16T09:15:01Z</time>
      </trkpt>
      <trkpt lat="50.41684" lon="3.51338">
        <ele>33.302856445312</ele>
        <time>2010-05-16T09:15:02Z</time>
      </trkpt>
      <trkpt lat="50.41699" lon="3.51359">
        <ele>32.822265625</ele>
        <time>2010-05-16T09:15:05Z</time>
      </trkpt>
      <trkpt lat="50.41724" lon="3.51378">
        <ele>32.822265625</ele>
        <time>2010-05-16T09:15:09Z</time>
      </trkpt>
      <trkpt lat="50.41761" lon="3.51405">
        <ele>32.822265625</ele>
        <time>2010-05-16T09:15:15Z</time>
      </trkpt>
      <trkpt lat="50.41784" lon="3.51419">
        <ele>32.341552734375</ele>
        <time>2010-05-16T09:15:19Z</time>
      </trkpt>
      <trkpt lat="50.41779" lon="3.51427">
        <ele>30.899536132812</ele>
        <time>2010-05-16T09:15:22Z</time>
      </trkpt>
      <trkpt lat="50.41759" lon="3.51434">
        <ele>30.899536132812</ele>
        <time>2010-05-16T09:15:27Z</time>
      </trkpt>
      <trkpt lat="50.41737" lon="3.51442">
        <ele>29.938110351562</ele>
        <time>2010-05-16T09:15:33Z</time>
      </trkpt>
      <trkpt lat="50.41733" lon="3.51443">
        <ele>29.938110351562</ele>
        <time>2010-05-16T09:15:34Z</time>
      </trkpt>
      <trkpt lat="50.4172" lon="3.5145">
        <ele>28.976928710938</ele>
        <time>2010-05-16T09:15:37Z</time>
      </trkpt>
      <trkpt lat="50.41702" lon="3.51469">
        <ele>29.45751953125</ele>
        <time>2010-05-16T09:15:42Z</time>
      </trkpt>
      <trkpt lat="50.41703" lon="3.51487">
        <ele>30.899536132812</ele>
        <time>2010-05-16T09:15:45Z</time>
      </trkpt>
      <trkpt lat="50.41704" lon="3.51531">
        <ele>36.186767578125</ele>
        <time>2010-05-16T09:15:52Z</time>
      </trkpt>
      <trkpt lat="50.41702" lon="3.51559">
        <ele>38.109375</ele>
        <time>2010-05-16T09:15:57Z</time>
      </trkpt>
      <trkpt lat="50.41696" lon="3.51592">
        <ele>40.032104492188</ele>
        <time>2010-05-16T09:16:03Z</time>
      </trkpt>
      <trkpt lat="50.4169" lon="3.51624">
        <ele>37.628662109375</ele>
        <time>2010-05-16T09:16:09Z</time>
      </trkpt>
      <trkpt lat="50.41681" lon="3.51664">
        <ele>39.070678710938</ele>
        <time>2010-05-16T09:16:16Z</time>
      </trkpt>
      <trkpt lat="50.41671" lon="3.51694">
        <ele>41.473999023438</ele>
        <time>2010-05-16T09:16:22Z</time>
      </trkpt>
      <trkpt lat="50.41653" lon="3.51693">
        <ele>44.358032226562</ele>
        <time>2010-05-16T09:16:28Z</time>
      </trkpt>
      <trkpt lat="50.41627" lon="3.51691">
        <ele>47.241821289062</ele>
        <time>2010-05-16T09:16:36Z</time>
      </trkpt>
      <trkpt lat="50.41609" lon="3.51691">
        <ele>47.241821289062</ele>
        <time>2010-05-16T09:16:41Z</time>
      </trkpt>
      <trkpt lat="50.41599" lon="3.51711">
        <ele>46.280639648438</ele>
        <time>2010-05-16T09:16:45Z</time>
      </trkpt>
      <trkpt lat="50.41597" lon="3.51768">
        <ele>45.319213867188</ele>
        <time>2010-05-16T09:16:52Z</time>
      </trkpt>
      <trkpt lat="50.41595" lon="3.51835">
        <ele>44.358032226562</ele>
        <time>2010-05-16T09:16:59Z</time>
      </trkpt>
      <trkpt lat="50.41591" lon="3.51923">
        <ele>43.396606445312</ele>
        <time>2010-05-16T09:17:07Z</time>
      </trkpt>
      <trkpt lat="50.41588" lon="3.52016">
        <ele>40.512817382812</ele>
        <time>2010-05-16T09:17:15Z</time>
      </trkpt>
      <trkpt lat="50.41582" lon="3.52127">
        <ele>37.628662109375</ele>
        <time>2010-05-16T09:17:24Z</time>
      </trkpt>
      <trkpt lat="50.41573" lon="3.52207">
        <ele>35.7060546875</ele>
        <time>2010-05-16T09:17:31Z</time>
      </trkpt>
      <trkpt lat="50.41563" lon="3.5228">
        <ele>35.7060546875</ele>
        <time>2010-05-16T09:17:37Z</time>
      </trkpt>
      <trkpt lat="50.4155" lon="3.52354">
        <ele>35.7060546875</ele>
        <time>2010-05-16T09:17:43Z</time>
      </trkpt>
      <trkpt lat="50.41536" lon="3.5244">
        <ele>35.225463867188</ele>
        <time>2010-05-16T09:17:50Z</time>
      </trkpt>
      <trkpt lat="50.4154" lon="3.52484">
        <ele>33.783447265625</ele>
        <time>2010-05-16T09:17:54Z</time>
      </trkpt>
      <trkpt lat="50.41545" lon="3.52504">
        <ele>33.302856445312</ele>
        <time>2010-05-16T09:17:56Z</time>
      </trkpt>
      <trkpt lat="50.41554" lon="3.52551">
        <ele>33.302856445312</ele>
        <time>2010-05-16T09:18:00Z</time>
      </trkpt>
      <trkpt lat="50.41556" lon="3.52571">
        <ele>33.783447265625</ele>
        <time>2010-05-16T09:18:02Z</time>
      </trkpt>
      <trkpt lat="50.41574" lon="3.52596">
        <ele>33.783447265625</ele>
        <time>2010-05-16T09:18:06Z</time>
      </trkpt>
      <trkpt lat="50.4161" lon="3.52647">
        <ele>35.7060546875</ele>
        <time>2010-05-16T09:18:13Z</time>
      </trkpt>
      <trkpt lat="50.41636" lon="3.52695">
        <ele>36.66748046875</ele>
        <time>2010-05-16T09:18:19Z</time>
      </trkpt>
      <trkpt lat="50.41645" lon="3.52711">
        <ele>37.148071289062</ele>
        <time>2010-05-16T09:18:21Z</time>
      </trkpt>
      <trkpt lat="50.4167" lon="3.52745">
        <ele>37.628662109375</ele>
        <time>2010-05-16T09:18:26Z</time>
      </trkpt>
      <trkpt lat="50.41682" lon="3.52752">
        <ele>38.109375</ele>
        <time>2010-05-16T09:18:28Z</time>
      </trkpt>
      <trkpt lat="50.41698" lon="3.52769">
        <ele>38.590087890625</ele>
        <time>2010-05-16T09:18:31Z</time>
      </trkpt>
      <trkpt lat="50.41723" lon="3.52789">
        <ele>39.55126953125</ele>
        <time>2010-05-16T09:18:35Z</time>
      </trkpt>
      <trkpt lat="50.41754" lon="3.52816">
        <ele>37.148071289062</ele>
        <time>2010-05-16T09:18:40Z</time>
      </trkpt>
      <trkpt lat="50.41796" lon="3.52851">
        <ele>36.66748046875</ele>
        <time>2010-05-16T09:18:46Z</time>
      </trkpt>
      <trkpt lat="50.41821" lon="3.52871">
        <ele>35.7060546875</ele>
        <time>2010-05-16T09:18:50Z</time>
      </trkpt>
      <trkpt lat="50.41833" lon="3.52881">
        <ele>35.225463867188</ele>
        <time>2010-05-16T09:18:52Z</time>
      </trkpt>
      <trkpt lat="50.41845" lon="3.52893">
        <ele>33.783447265625</ele>
        <time>2010-05-16T09:18:54Z</time>
      </trkpt>
      <trkpt lat="50.41866" lon="3.52907">
        <ele>32.341552734375</ele>
        <time>2010-05-16T09:18:58Z</time>
      </trkpt>
      <trkpt lat="50.41895" lon="3.5293">
        <ele>34.744873046875</ele>
        <time>2010-05-16T09:19:04Z</time>
      </trkpt>
      <trkpt lat="50.41904" lon="3.52938">
        <ele>36.186767578125</ele>
        <time>2010-05-16T09:19:06Z</time>
      </trkpt>
      <trkpt lat="50.41925" lon="3.52956">
        <ele>33.783447265625</ele>
        <time>2010-05-16T09:19:10Z</time>
      </trkpt>
      <trkpt lat="50.41943" lon="3.52973">
        <ele>36.186767578125</ele>
        <time>2010-05-16T09:19:13Z</time>
      </trkpt>
      <trkpt lat="50.41982" lon="3.53002">
        <ele>39.070678710938</ele>
        <time>2010-05-16T09:19:19Z</time>
      </trkpt>
      <trkpt lat="50.42002" lon="3.53019">
        <ele>41.954711914062</ele>
        <time>2010-05-16T09:19:22Z</time>
      </trkpt>
      <trkpt lat="50.42027" lon="3.53047">
        <ele>40.512817382812</ele>
        <time>2010-05-16T09:19:26Z</time>
      </trkpt>
      <trkpt lat="50.42033" lon="3.53067">
        <ele>38.109375</ele>
        <time>2010-05-16T09:19:29Z</time>
      </trkpt>
      <trkpt lat="50.4203" lon="3.53098">
        <ele>34.26416015625</ele>
        <time>2010-05-16T09:19:33Z</time>
      </trkpt>
      <trkpt lat="50.4202" lon="3.53153">
        <ele>30.899536132812</ele>
        <time>2010-05-16T09:19:40Z</time>
      </trkpt>
      <trkpt lat="50.42012" lon="3.53196">
        <ele>30.418823242188</ele>
        <time>2010-05-16T09:19:45Z</time>
      </trkpt>
      <trkpt lat="50.4201" lon="3.53205">
        <ele>30.418823242188</ele>
        <time>2010-05-16T09:19:46Z</time>
      </trkpt>
      <trkpt lat="50.41997" lon="3.53261">
        <ele>32.822265625</ele>
        <time>2010-05-16T09:19:52Z</time>
      </trkpt>
      <trkpt lat="50.41986" lon="3.53315">
        <ele>32.822265625</ele>
        <time>2010-05-16T09:19:58Z</time>
      </trkpt>
      <trkpt lat="50.41973" lon="3.53377">
        <ele>33.783447265625</ele>
        <time>2010-05-16T09:20:05Z</time>
      </trkpt>
      <trkpt lat="50.41972" lon="3.53385">
        <ele>33.302856445312</ele>
        <time>2010-05-16T09:20:06Z</time>
      </trkpt>
      <trkpt lat="50.4197" lon="3.534">
        <ele>32.822265625</ele>
        <time>2010-05-16T09:20:08Z</time>
      </trkpt>
      <trkpt lat="50.41972" lon="3.53437">
        <ele>33.302856445312</ele>
        <time>2010-05-16T09:20:13Z</time>
      </trkpt>
      <trkpt lat="50.41978" lon="3.53448">
        <ele>34.26416015625</ele>
        <time>2010-05-16T09:20:15Z</time>
      </trkpt>
      <trkpt lat="50.42" lon="3.5349">
        <ele>33.783447265625</ele>
        <time>2010-05-16T09:20:22Z</time>
      </trkpt>
      <trkpt lat="50.42023" lon="3.53528">
        <ele>34.26416015625</ele>
        <time>2010-05-16T09:20:28Z</time>
      </trkpt>
      <trkpt lat="50.42033" lon="3.53542">
        <ele>34.26416015625</ele>
        <time>2010-05-16T09:20:30Z</time>
      </trkpt>
      <trkpt lat="50.42056" lon="3.53581">
        <ele>35.7060546875</ele>
        <time>2010-05-16T09:20:35Z</time>
      </trkpt>
      <trkpt lat="50.42076" lon="3.53612">
        <ele>34.26416015625</ele>
        <time>2010-05-16T09:20:39Z</time>
      </trkpt>
      <trkpt lat="50.42107" lon="3.53665">
        <ele>36.186767578125</ele>
        <time>2010-05-16T09:20:46Z</time>
      </trkpt>
      <trkpt lat="50.42123" lon="3.53693">
        <ele>35.7060546875</ele>
        <time>2010-05-16T09:20:50Z</time>
      </trkpt>
      <trkpt lat="50.42125" lon="3.53724">
        <ele>34.744873046875</ele>
        <time>2010-05-16T09:20:54Z</time>
      </trkpt>
      <trkpt lat="50.42117" lon="3.53748">
        <ele>33.302856445312</ele>
        <time>2010-05-16T09:20:57Z</time>
      </trkpt>
      <trkpt lat="50.42107" lon="3.53772">
        <ele>30.899536132812</ele>
        <time>2010-05-16T09:21:00Z</time>
      </trkpt>
      <trkpt lat="50.42088" lon="3.53826">
        <ele>30.899536132812</ele>
        <time>2010-05-16T09:21:06Z</time>
      </trkpt>
      <trkpt lat="50.42066" lon="3.53884">
        <ele>34.744873046875</ele>
        <time>2010-05-16T09:21:12Z</time>
      </trkpt>
      <trkpt lat="50.42048" lon="3.53934">
        <ele>36.66748046875</ele>
        <time>2010-05-16T09:21:17Z</time>
      </trkpt>
      <trkpt lat="50.42035" lon="3.53973">
        <ele>38.109375</ele>
        <time>2010-05-16T09:21:21Z</time>
      </trkpt>
      <trkpt lat="50.42011" lon="3.54035">
        <ele>39.070678710938</ele>
        <time>2010-05-16T09:21:27Z</time>
      </trkpt>
      <trkpt lat="50.41999" lon="3.54073">
        <ele>40.993408203125</ele>
        <time>2010-05-16T09:21:31Z</time>
      </trkpt>
      <trkpt lat="50.41987" lon="3.54108">
        <ele>39.55126953125</ele>
        <time>2010-05-16T09:21:35Z</time>
      </trkpt>
      <trkpt lat="50.41982" lon="3.54153">
        <ele>38.590087890625</ele>
        <time>2010-05-16T09:21:40Z</time>
      </trkpt>
      <trkpt lat="50.4197" lon="3.54202">
        <ele>34.744873046875</ele>
        <time>2010-05-16T09:21:46Z</time>
      </trkpt>
      <trkpt lat="50.41951" lon="3.54251">
        <ele>34.26416015625</ele>
        <time>2010-05-16T09:21:52Z</time>
      </trkpt>
      <trkpt lat="50.41933" lon="3.54307">
        <ele>31.860717773438</ele>
        <time>2010-05-16T09:21:59Z</time>
      </trkpt>
      <trkpt lat="50.41917" lon="3.54357">
        <ele>30.418823242188</ele>
        <time>2010-05-16T09:22:06Z</time>
      </trkpt>
      <trkpt lat="50.41912" lon="3.54371">
        <ele>30.899536132812</ele>
        <time>2010-05-16T09:22:08Z</time>
      </trkpt>
      <trkpt lat="50.41888" lon="3.54436">
        <ele>30.418823242188</ele>
        <time>2010-05-16T09:22:17Z</time>
      </trkpt>
      <trkpt lat="50.41866" lon="3.54497">
        <ele>32.822265625</ele>
        <time>2010-05-16T09:22:26Z</time>
      </trkpt>
      <trkpt lat="50.41863" lon="3.54505">
        <ele>32.341552734375</ele>
        <time>2010-05-16T09:22:27Z</time>
      </trkpt>
      <trkpt lat="50.41844" lon="3.54558">
        <ele>33.302856445312</ele>
        <time>2010-05-16T09:22:34Z</time>
      </trkpt>
      <trkpt lat="50.41839" lon="3.54572">
        <ele>32.341552734375</ele>
        <time>2010-05-16T09:22:36Z</time>
      </trkpt>
      <trkpt lat="50.41824" lon="3.54617">
        <ele>31.380126953125</ele>
        <time>2010-05-16T09:22:43Z</time>
      </trkpt>
      <trkpt lat="50.41824" lon="3.54651">
        <ele>29.45751953125</ele>
        <time>2010-05-16T09:22:48Z</time>
      </trkpt>
      <trkpt lat="50.41825" lon="3.54658">
        <ele>28.976928710938</ele>
        <time>2010-05-16T09:22:49Z</time>
      </trkpt>
      <trkpt lat="50.41835" lon="3.54727">
        <ele>28.496215820312</ele>
        <time>2010-05-16T09:22:58Z</time>
      </trkpt>
      <trkpt lat="50.41845" lon="3.54794">
        <ele>28.496215820312</ele>
        <time>2010-05-16T09:23:06Z</time>
      </trkpt>
      <trkpt lat="50.41855" lon="3.54857">
        <ele>27.534912109375</ele>
        <time>2010-05-16T09:23:14Z</time>
      </trkpt>
      <trkpt lat="50.41861" lon="3.54904">
        <ele>27.054321289062</ele>
        <time>2010-05-16T09:23:20Z</time>
      </trkpt>
      <trkpt lat="50.41869" lon="3.5497">
        <ele>26.573608398438</ele>
        <time>2010-05-16T09:23:28Z</time>
      </trkpt>
      <trkpt lat="50.41879" lon="3.55038">
        <ele>24.651000976562</ele>
        <time>2010-05-16T09:23:36Z</time>
      </trkpt>
      <trkpt lat="50.41883" lon="3.55071">
        <ele>24.170288085938</ele>
        <time>2010-05-16T09:23:40Z</time>
      </trkpt>
      <trkpt lat="50.41888" lon="3.55121">
        <ele>22.728271484375</ele>
        <time>2010-05-16T09:23:46Z</time>
      </trkpt>
      <trkpt lat="50.4188" lon="3.55144">
        <ele>23.208984375</ele>
        <time>2010-05-16T09:23:49Z</time>
      </trkpt>
      <trkpt lat="50.41877" lon="3.5515">
        <ele>23.208984375</ele>
        <time>2010-05-16T09:23:50Z</time>
      </trkpt>
      <trkpt lat="50.41861" lon="3.55172">
        <ele>22.24755859375</ele>
        <time>2010-05-16T09:23:54Z</time>
      </trkpt>
      <trkpt lat="50.41853" lon="3.55169">
        <ele>23.208984375</ele>
        <time>2010-05-16T09:23:58Z</time>
      </trkpt>
      <trkpt lat="50.41848" lon="3.5515">
        <ele>24.651000976562</ele>
        <time>2010-05-16T09:24:02Z</time>
      </trkpt>
      <trkpt lat="50.41856" lon="3.55136">
        <ele>25.131713867188</ele>
        <time>2010-05-16T09:24:05Z</time>
      </trkpt>
      <trkpt lat="50.41867" lon="3.55115">
        <ele>26.573608398438</ele>
        <time>2010-05-16T09:24:09Z</time>
      </trkpt>
      <trkpt lat="50.41862" lon="3.55096">
        <ele>27.534912109375</ele>
        <time>2010-05-16T09:24:12Z</time>
      </trkpt>
      <trkpt lat="50.41854" lon="3.55077">
        <ele>30.418823242188</ele>
        <time>2010-05-16T09:24:16Z</time>
      </trkpt>
      <trkpt lat="50.41841" lon="3.55049">
        <ele>35.7060546875</ele>
        <time>2010-05-16T09:24:22Z</time>
      </trkpt>
      <trkpt lat="50.41825" lon="3.55016">
        <ele>40.993408203125</ele>
        <time>2010-05-16T09:24:29Z</time>
      </trkpt>
      <trkpt lat="50.41814" lon="3.54992">
        <ele>46.280639648438</ele>
        <time>2010-05-16T09:24:34Z</time>
      </trkpt>
      <trkpt lat="50.41796" lon="3.54961">
        <ele>52.529174804688</ele>
        <time>2010-05-16T09:24:41Z</time>
      </trkpt>
      <trkpt lat="50.41774" lon="3.54931">
        <ele>52.529174804688</ele>
        <time>2010-05-16T09:24:48Z</time>
      </trkpt>
      <trkpt lat="50.41764" lon="3.54916">
        <ele>51.56787109375</ele>
        <time>2010-05-16T09:24:51Z</time>
      </trkpt>
      <trkpt lat="50.41755" lon="3.54899">
        <ele>50.606567382812</ele>
        <time>2010-05-16T09:24:54Z</time>
      </trkpt>
      <trkpt lat="50.41745" lon="3.54872">
        <ele>49.645263671875</ele>
        <time>2010-05-16T09:24:58Z</time>
      </trkpt>
      <trkpt lat="50.41736" lon="3.54805">
        <ele>50.1259765625</ele>
        <time>2010-05-16T09:25:06Z</time>
      </trkpt>
      <trkpt lat="50.41737" lon="3.54758">
        <ele>45.799926757812</ele>
        <time>2010-05-16T09:25:11Z</time>
      </trkpt>
      <trkpt lat="50.41744" lon="3.54716">
        <ele>40.032104492188</ele>
        <time>2010-05-16T09:25:15Z</time>
      </trkpt>
      <trkpt lat="50.41748" lon="3.54693">
        <ele>38.109375</ele>
        <time>2010-05-16T09:25:17Z</time>
      </trkpt>
      <trkpt lat="50.41763" lon="3.54622">
        <ele>32.341552734375</ele>
        <time>2010-05-16T09:25:23Z</time>
      </trkpt>
      <trkpt lat="50.41769" lon="3.54599">
        <ele>31.380126953125</ele>
        <time>2010-05-16T09:25:25Z</time>
      </trkpt>
      <trkpt lat="50.41767" lon="3.54565">
        <ele>30.899536132812</ele>
        <time>2010-05-16T09:25:29Z</time>
      </trkpt>
      <trkpt lat="50.41772" lon="3.54554">
        <ele>30.899536132812</ele>
        <time>2010-05-16T09:25:31Z</time>
      </trkpt>
      <trkpt lat="50.41804" lon="3.54498">
        <ele>29.938110351562</ele>
        <time>2010-05-16T09:25:38Z</time>
      </trkpt>
      <trkpt lat="50.41832" lon="3.54457">
        <ele>30.899536132812</ele>
        <time>2010-05-16T09:25:44Z</time>
      </trkpt>
      <trkpt lat="50.41835" lon="3.54429">
        <ele>31.860717773438</ele>
        <time>2010-05-16T09:25:48Z</time>
      </trkpt>
      <trkpt lat="50.41831" lon="3.54425">
        <ele>31.860717773438</ele>
        <time>2010-05-16T09:25:49Z</time>
      </trkpt>
      <trkpt lat="50.41799" lon="3.54389">
        <ele>32.822265625</ele>
        <time>2010-05-16T09:25:57Z</time>
      </trkpt>
      <trkpt lat="50.41768" lon="3.54356">
        <ele>33.783447265625</ele>
        <time>2010-05-16T09:26:04Z</time>
      </trkpt>
      <trkpt lat="50.41731" lon="3.54315">
        <ele>33.783447265625</ele>
        <time>2010-05-16T09:26:12Z</time>
      </trkpt>
      <trkpt lat="50.4171" lon="3.54314">
        <ele>34.26416015625</ele>
        <time>2010-05-16T09:26:16Z</time>
      </trkpt>
      <trkpt lat="50.41697" lon="3.5432">
        <ele>34.26416015625</ele>
        <time>2010-05-16T09:26:18Z</time>
      </trkpt>
      <trkpt lat="50.41671" lon="3.54319">
        <ele>35.225463867188</ele>
        <time>2010-05-16T09:26:22Z</time>
      </trkpt>
      <trkpt lat="50.41615" lon="3.54285">
        <ele>38.109375</ele>
        <time>2010-05-16T09:26:31Z</time>
      </trkpt>
      <trkpt lat="50.4159" lon="3.54254">
        <ele>41.473999023438</ele>
        <time>2010-05-16T09:26:37Z</time>
      </trkpt>
      <trkpt lat="50.41587" lon="3.54249">
        <ele>41.473999023438</ele>
        <time>2010-05-16T09:26:38Z</time>
      </trkpt>
      <trkpt lat="50.41569" lon="3.54234">
        <ele>42.435424804688</ele>
        <time>2010-05-16T09:26:42Z</time>
      </trkpt>
      <trkpt lat="50.41544" lon="3.54233">
        <ele>43.396606445312</ele>
        <time>2010-05-16T09:26:47Z</time>
      </trkpt>
      <trkpt lat="50.41529" lon="3.5425">
        <ele>44.358032226562</ele>
        <time>2010-05-16T09:26:51Z</time>
      </trkpt>
      <trkpt lat="50.41525" lon="3.54271">
        <ele>44.838623046875</ele>
        <time>2010-05-16T09:26:54Z</time>
      </trkpt>
      <trkpt lat="50.41525" lon="3.54295">
        <ele>45.319213867188</ele>
        <time>2010-05-16T09:26:57Z</time>
      </trkpt>
      <trkpt lat="50.4152" lon="3.54371">
        <ele>45.319213867188</ele>
        <time>2010-05-16T09:27:06Z</time>
      </trkpt>
      <trkpt lat="50.41515" lon="3.54398">
        <ele>45.319213867188</ele>
        <time>2010-05-16T09:27:09Z</time>
      </trkpt>
      <trkpt lat="50.41499" lon="3.54434">
        <ele>44.838623046875</ele>
        <time>2010-05-16T09:27:14Z</time>
      </trkpt>
      <trkpt lat="50.4149" lon="3.54444">
        <ele>44.358032226562</ele>
        <time>2010-05-16T09:27:16Z</time>
      </trkpt>
      <trkpt lat="50.41464" lon="3.54457">
        <ele>43.396606445312</ele>
        <time>2010-05-16T09:27:21Z</time>
      </trkpt>
      <trkpt lat="50.41423" lon="3.54454">
        <ele>43.396606445312</ele>
        <time>2010-05-16T09:27:29Z</time>
      </trkpt>
      <trkpt lat="50.41409" lon="3.54437">
        <ele>42.916015625</ele>
        <time>2010-05-16T09:27:34Z</time>
      </trkpt>
      <trkpt lat="50.41399" lon="3.54435">
        <ele>42.916015625</ele>
        <time>2010-05-16T09:27:38Z</time>
      </trkpt>
      <trkpt lat="50.41398" lon="3.54432">
        <ele>43.396606445312</ele>
        <time>2010-05-16T09:27:39Z</time>
      </trkpt>
      <trkpt lat="50.41391" lon="3.54401">
        <ele>47.722534179688</ele>
        <time>2010-05-16T09:27:47Z</time>
      </trkpt>
      <trkpt lat="50.4139" lon="3.54397">
        <ele>48.203369140625</ele>
        <time>2010-05-16T09:27:48Z</time>
      </trkpt>
      <trkpt lat="50.41385" lon="3.54391">
        <ele>50.1259765625</ele>
        <time>2010-05-16T09:27:51Z</time>
      </trkpt>
      <trkpt lat="50.41376" lon="3.54397">
        <ele>53.490478515625</ele>
        <time>2010-05-16T09:27:57Z</time>
      </trkpt>
      <trkpt lat="50.41378" lon="3.54408">
        <ele>53.97119140625</ele>
        <time>2010-05-16T09:28:02Z</time>
      </trkpt>
      <trkpt lat="50.41379" lon="3.54414">
        <ele>53.490478515625</ele>
        <time>2010-05-16T09:28:04Z</time>
      </trkpt>
      <trkpt lat="50.41381" lon="3.54444">
        <ele>50.606567382812</ele>
        <time>2010-05-16T09:28:07Z</time>
      </trkpt>
      <trkpt lat="50.41388" lon="3.54498">
        <ele>46.76123046875</ele>
        <time>2010-05-16T09:28:10Z</time>
      </trkpt>
      <trkpt lat="50.4139" lon="3.5451">
        <ele>44.838623046875</ele>
        <time>2010-05-16T09:28:11Z</time>
      </trkpt>
      <trkpt lat="50.41386" lon="3.54533">
        <ele>43.396606445312</ele>
        <time>2010-05-16T09:28:15Z</time>
      </trkpt>
      <trkpt lat="50.41374" lon="3.54534">
        <ele>41.954711914062</ele>
        <time>2010-05-16T09:28:19Z</time>
      </trkpt>
      <trkpt lat="50.41352" lon="3.54537">
        <ele>41.954711914062</ele>
        <time>2010-05-16T09:28:26Z</time>
      </trkpt>
      <trkpt lat="50.41328" lon="3.5455">
        <ele>40.032104492188</ele>
        <time>2010-05-16T09:28:32Z</time>
      </trkpt>
      <trkpt lat="50.41312" lon="3.54555">
        <ele>40.032104492188</ele>
        <time>2010-05-16T09:28:36Z</time>
      </trkpt>
      <trkpt lat="50.41286" lon="3.54545">
        <ele>40.032104492188</ele>
        <time>2010-05-16T09:28:43Z</time>
      </trkpt>
      <trkpt lat="50.41277" lon="3.5455">
        <ele>39.55126953125</ele>
        <time>2010-05-16T09:28:46Z</time>
      </trkpt>
      <trkpt lat="50.41256" lon="3.54573">
        <ele>38.109375</ele>
        <time>2010-05-16T09:28:50Z</time>
      </trkpt>
      <trkpt lat="50.41249" lon="3.54573">
        <ele>36.66748046875</ele>
        <time>2010-05-16T09:28:52Z</time>
      </trkpt>
      <trkpt lat="50.41243" lon="3.54564">
        <ele>35.7060546875</ele>
        <time>2010-05-16T09:28:55Z</time>
      </trkpt>
      <trkpt lat="50.4124" lon="3.54561">
        <ele>35.225463867188</ele>
        <time>2010-05-16T09:28:56Z</time>
      </trkpt>
      <trkpt lat="50.41233" lon="3.54553">
        <ele>34.744873046875</ele>
        <time>2010-05-16T09:28:58Z</time>
      </trkpt>
      <trkpt lat="50.41219" lon="3.54531">
        <ele>34.744873046875</ele>
        <time>2010-05-16T09:29:02Z</time>
      </trkpt>
      <trkpt lat="50.412" lon="3.54478">
        <ele>34.744873046875</ele>
        <time>2010-05-16T09:29:09Z</time>
      </trkpt>
      <trkpt lat="50.41195" lon="3.54462">
        <ele>35.225463867188</ele>
        <time>2010-05-16T09:29:11Z</time>
      </trkpt>
      <trkpt lat="50.41186" lon="3.5443">
        <ele>35.7060546875</ele>
        <time>2010-05-16T09:29:16Z</time>
      </trkpt>
      <trkpt lat="50.41177" lon="3.54422">
        <ele>36.186767578125</ele>
        <time>2010-05-16T09:29:19Z</time>
      </trkpt>
      <trkpt lat="50.41179" lon="3.54403">
        <ele>35.7060546875</ele>
        <time>2010-05-16T09:29:23Z</time>
      </trkpt>
      <trkpt lat="50.41184" lon="3.54373">
        <ele>34.26416015625</ele>
        <time>2010-05-16T09:29:27Z</time>
      </trkpt>
      <trkpt lat="50.41195" lon="3.54355">
        <ele>34.744873046875</ele>
        <time>2010-05-16T09:29:30Z</time>
      </trkpt>
      <trkpt lat="50.41225" lon="3.5432">
        <ele>35.7060546875</ele>
        <time>2010-05-16T09:29:37Z</time>
      </trkpt>
      <trkpt lat="50.41251" lon="3.54291">
        <ele>36.66748046875</ele>
        <time>2010-05-16T09:29:42Z</time>
      </trkpt>
      <trkpt lat="50.41269" lon="3.54266">
        <ele>38.109375</ele>
        <time>2010-05-16T09:29:46Z</time>
      </trkpt>
      <trkpt lat="50.41288" lon="3.54249">
        <ele>38.109375</ele>
        <time>2010-05-16T09:29:50Z</time>
      </trkpt>
      <trkpt lat="50.41322" lon="3.54205">
        <ele>38.590087890625</ele>
        <time>2010-05-16T09:29:57Z</time>
      </trkpt>
      <trkpt lat="50.41357" lon="3.54167">
        <ele>38.590087890625</ele>
        <time>2010-05-16T09:30:03Z</time>
      </trkpt>
      <trkpt lat="50.41409" lon="3.54108">
        <ele>40.032104492188</ele>
        <time>2010-05-16T09:30:12Z</time>
      </trkpt>
      <trkpt lat="50.41442" lon="3.54068">
        <ele>39.55126953125</ele>
        <time>2010-05-16T09:30:18Z</time>
      </trkpt>
      <trkpt lat="50.41461" lon="3.54043">
        <ele>40.993408203125</ele>
        <time>2010-05-16T09:30:22Z</time>
      </trkpt>
      <trkpt lat="50.41468" lon="3.54035">
        <ele>41.954711914062</ele>
        <time>2010-05-16T09:30:24Z</time>
      </trkpt>
      <trkpt lat="50.41474" lon="3.53996">
        <ele>42.435424804688</ele>
        <time>2010-05-16T09:30:30Z</time>
      </trkpt>
      <trkpt lat="50.41485" lon="3.5392">
        <ele>40.993408203125</ele>
        <time>2010-05-16T09:30:39Z</time>
      </trkpt>
      <trkpt lat="50.41498" lon="3.53837">
        <ele>39.55126953125</ele>
        <time>2010-05-16T09:30:48Z</time>
      </trkpt>
      <trkpt lat="50.41491" lon="3.53806">
        <ele>40.032104492188</ele>
        <time>2010-05-16T09:30:52Z</time>
      </trkpt>
      <trkpt lat="50.41486" lon="3.53803">
        <ele>40.512817382812</ele>
        <time>2010-05-16T09:30:53Z</time>
      </trkpt>
      <trkpt lat="50.41464" lon="3.53796">
        <ele>40.032104492188</ele>
        <time>2010-05-16T09:30:57Z</time>
      </trkpt>
      <trkpt lat="50.41452" lon="3.53791">
        <ele>40.512817382812</ele>
        <time>2010-05-16T09:30:59Z</time>
      </trkpt>
      <trkpt lat="50.41401" lon="3.53772">
        <ele>40.993408203125</ele>
        <time>2010-05-16T09:31:07Z</time>
      </trkpt>
      <trkpt lat="50.41375" lon="3.53763">
        <ele>41.473999023438</ele>
        <time>2010-05-16T09:31:11Z</time>
      </trkpt>
      <trkpt lat="50.41363" lon="3.53738">
        <ele>40.993408203125</ele>
        <time>2010-05-16T09:31:15Z</time>
      </trkpt>
      <trkpt lat="50.41364" lon="3.5373">
        <ele>40.993408203125</ele>
        <time>2010-05-16T09:31:16Z</time>
      </trkpt>
      <trkpt lat="50.41373" lon="3.53663">
        <ele>40.032104492188</ele>
        <time>2010-05-16T09:31:23Z</time>
      </trkpt>
      <trkpt lat="50.41375" lon="3.53654">
        <ele>40.032104492188</ele>
        <time>2010-05-16T09:31:24Z</time>
      </trkpt>
      <trkpt lat="50.41377" lon="3.53635">
        <ele>39.55126953125</ele>
        <time>2010-05-16T09:31:26Z</time>
      </trkpt>
      <trkpt lat="50.41383" lon="3.53594">
        <ele>39.070678710938</ele>
        <time>2010-05-16T09:31:30Z</time>
      </trkpt>
      <trkpt lat="50.41395" lon="3.53525">
        <ele>38.590087890625</ele>
        <time>2010-05-16T09:31:37Z</time>
      </trkpt>
      <trkpt lat="50.41406" lon="3.5349">
        <ele>38.590087890625</ele>
        <time>2010-05-16T09:31:41Z</time>
      </trkpt>
      <trkpt lat="50.41419" lon="3.53463">
        <ele>40.032104492188</ele>
        <time>2010-05-16T09:31:46Z</time>
      </trkpt>
      <trkpt lat="50.41419" lon="3.53455">
        <ele>40.512817382812</ele>
        <time>2010-05-16T09:31:49Z</time>
      </trkpt>
      <trkpt lat="50.4142" lon="3.53442">
        <ele>40.512817382812</ele>
        <time>2010-05-16T09:31:52Z</time>
      </trkpt>
      <trkpt lat="50.41425" lon="3.53399">
        <ele>40.512817382812</ele>
        <time>2010-05-16T09:31:58Z</time>
      </trkpt>
      <trkpt lat="50.41431" lon="3.53374">
        <ele>40.032104492188</ele>
        <time>2010-05-16T09:32:01Z</time>
      </trkpt>
      <trkpt lat="50.41442" lon="3.5332">
        <ele>40.032104492188</ele>
        <time>2010-05-16T09:32:07Z</time>
      </trkpt>
      <trkpt lat="50.41455" lon="3.53269">
        <ele>40.032104492188</ele>
        <time>2010-05-16T09:32:12Z</time>
      </trkpt>
      <trkpt lat="50.41465" lon="3.5324">
        <ele>40.032104492188</ele>
        <time>2010-05-16T09:32:15Z</time>
      </trkpt>
      <trkpt lat="50.4148" lon="3.53199">
        <ele>40.993408203125</ele>
        <time>2010-05-16T09:32:20Z</time>
      </trkpt>
      <trkpt lat="50.41502" lon="3.53125">
        <ele>41.954711914062</ele>
        <time>2010-05-16T09:32:28Z</time>
      </trkpt>
      <trkpt lat="50.41518" lon="3.53052">
        <ele>41.954711914062</ele>
        <time>2010-05-16T09:32:35Z</time>
      </trkpt>
      <trkpt lat="50.41533" lon="3.5297">
        <ele>41.473999023438</ele>
        <time>2010-05-16T09:32:43Z</time>
      </trkpt>
      <trkpt lat="50.41542" lon="3.5292">
        <ele>41.473999023438</ele>
        <time>2010-05-16T09:32:49Z</time>
      </trkpt>
      <trkpt lat="50.41542" lon="3.52908">
        <ele>40.993408203125</ele>
        <time>2010-05-16T09:32:52Z</time>
      </trkpt>
      <trkpt lat="50.41542" lon="3.52897">
        <ele>40.032104492188</ele>
        <time>2010-05-16T09:32:55Z</time>
      </trkpt>
      <trkpt lat="50.41538" lon="3.52872">
        <ele>38.590087890625</ele>
        <time>2010-05-16T09:32:58Z</time>
      </trkpt>
      <trkpt lat="50.41532" lon="3.52869">
        <ele>38.590087890625</ele>
        <time>2010-05-16T09:33:00Z</time>
      </trkpt>
      <trkpt lat="50.4153" lon="3.52885">
        <ele>38.590087890625</ele>
        <time>2010-05-16T09:33:03Z</time>
      </trkpt>
      <trkpt lat="50.41529" lon="3.52892">
        <ele>38.590087890625</ele>
        <time>2010-05-16T09:33:04Z</time>
      </trkpt>
      <trkpt lat="50.41517" lon="3.52957">
        <ele>39.070678710938</ele>
        <time>2010-05-16T09:33:12Z</time>
      </trkpt>
      <trkpt lat="50.41508" lon="3.53012">
        <ele>40.512817382812</ele>
        <time>2010-05-16T09:33:18Z</time>
      </trkpt>
      <trkpt lat="50.41498" lon="3.53058">
        <ele>42.916015625</ele>
        <time>2010-05-16T09:33:23Z</time>
      </trkpt>
      <trkpt lat="50.41481" lon="3.53129">
        <ele>46.280639648438</ele>
        <time>2010-05-16T09:33:30Z</time>
      </trkpt>
      <trkpt lat="50.41457" lon="3.532">
        <ele>47.241821289062</ele>
        <time>2010-05-16T09:33:37Z</time>
      </trkpt>
      <trkpt lat="50.41442" lon="3.53244">
        <ele>46.76123046875</ele>
        <time>2010-05-16T09:33:42Z</time>
      </trkpt>
      <trkpt lat="50.41423" lon="3.53304">
        <ele>47.241821289062</ele>
        <time>2010-05-16T09:33:48Z</time>
      </trkpt>
      <trkpt lat="50.4141" lon="3.53355">
        <ele>46.76123046875</ele>
        <time>2010-05-16T09:33:53Z</time>
      </trkpt>
      <trkpt lat="50.41394" lon="3.53369">
        <ele>43.877319335938</ele>
        <time>2010-05-16T09:33:56Z</time>
      </trkpt>
      <trkpt lat="50.41377" lon="3.53352">
        <ele>42.916015625</ele>
        <time>2010-05-16T09:33:59Z</time>
      </trkpt>
      <trkpt lat="50.41364" lon="3.53343">
        <ele>41.473999023438</ele>
        <time>2010-05-16T09:34:01Z</time>
      </trkpt>
      <trkpt lat="50.41349" lon="3.53336">
        <ele>41.473999023438</ele>
        <time>2010-05-16T09:34:03Z</time>
      </trkpt>
      <trkpt lat="50.41304" lon="3.533">
        <ele>38.590087890625</ele>
        <time>2010-05-16T09:34:10Z</time>
      </trkpt>
      <trkpt lat="50.41265" lon="3.53267">
        <ele>36.66748046875</ele>
        <time>2010-05-16T09:34:16Z</time>
      </trkpt>
      <trkpt lat="50.41254" lon="3.53253">
        <ele>36.186767578125</ele>
        <time>2010-05-16T09:34:18Z</time>
      </trkpt>
      <trkpt lat="50.4122" lon="3.53216">
        <ele>37.148071289062</ele>
        <time>2010-05-16T09:34:24Z</time>
      </trkpt>
      <trkpt lat="50.41199" lon="3.53197">
        <ele>37.628662109375</ele>
        <time>2010-05-16T09:34:28Z</time>
      </trkpt>
      <trkpt lat="50.41187" lon="3.53167">
        <ele>37.628662109375</ele>
        <time>2010-05-16T09:34:32Z</time>
      </trkpt>
      <trkpt lat="50.41189" lon="3.53148">
        <ele>37.628662109375</ele>
        <time>2010-05-16T09:34:34Z</time>
      </trkpt>
      <trkpt lat="50.41198" lon="3.53077">
        <ele>36.66748046875</ele>
        <time>2010-05-16T09:34:41Z</time>
      </trkpt>
      <trkpt lat="50.41206" lon="3.53004">
        <ele>36.186767578125</ele>
        <time>2010-05-16T09:34:48Z</time>
      </trkpt>
      <trkpt lat="50.41218" lon="3.52881">
        <ele>37.148071289062</ele>
        <time>2010-05-16T09:35:00Z</time>
      </trkpt>
      <trkpt lat="50.4122" lon="3.5284">
        <ele>37.628662109375</ele>
        <time>2010-05-16T09:35:04Z</time>
      </trkpt>
      <trkpt lat="50.41218" lon="3.52769">
        <ele>38.109375</ele>
        <time>2010-05-16T09:35:11Z</time>
      </trkpt>
      <trkpt lat="50.41229" lon="3.52726">
        <ele>38.590087890625</ele>
        <time>2010-05-16T09:35:16Z</time>
      </trkpt>
      <trkpt lat="50.41232" lon="3.52718">
        <ele>38.109375</ele>
        <time>2010-05-16T09:35:17Z</time>
      </trkpt>
      <trkpt lat="50.41243" lon="3.52678">
        <ele>38.590087890625</ele>
        <time>2010-05-16T09:35:22Z</time>
      </trkpt>
      <trkpt lat="50.41253" lon="3.52668">
        <ele>39.55126953125</ele>
        <time>2010-05-16T09:35:25Z</time>
      </trkpt>
      <trkpt lat="50.41275" lon="3.52673">
        <ele>40.032104492188</ele>
        <time>2010-05-16T09:35:30Z</time>
      </trkpt>
      <trkpt lat="50.4128" lon="3.52674">
        <ele>40.032104492188</ele>
        <time>2010-05-16T09:35:31Z</time>
      </trkpt>
      <trkpt lat="50.41312" lon="3.52684">
        <ele>39.55126953125</ele>
        <time>2010-05-16T09:35:37Z</time>
      </trkpt>
      <trkpt lat="50.41341" lon="3.52682">
        <ele>39.55126953125</ele>
        <time>2010-05-16T09:35:43Z</time>
      </trkpt>
      <trkpt lat="50.4136" lon="3.52675">
        <ele>39.55126953125</ele>
        <time>2010-05-16T09:35:47Z</time>
      </trkpt>
      <trkpt lat="50.41374" lon="3.52674">
        <ele>39.55126953125</ele>
        <time>2010-05-16T09:35:50Z</time>
      </trkpt>
      <trkpt lat="50.41392" lon="3.52654">
        <ele>39.070678710938</ele>
        <time>2010-05-16T09:35:55Z</time>
      </trkpt>
      <trkpt lat="50.41395" lon="3.5265">
        <ele>39.55126953125</ele>
        <time>2010-05-16T09:35:56Z</time>
      </trkpt>
      <trkpt lat="50.41406" lon="3.52619">
        <ele>40.032104492188</ele>
        <time>2010-05-16T09:36:01Z</time>
      </trkpt>
      <trkpt lat="50.41411" lon="3.52587">
        <ele>41.954711914062</ele>
        <time>2010-05-16T09:36:07Z</time>
      </trkpt>
      <trkpt lat="50.41413" lon="3.52567">
        <ele>43.396606445312</ele>
        <time>2010-05-16T09:36:12Z</time>
      </trkpt>
      <trkpt lat="50.41417" lon="3.52541">
        <ele>46.280639648438</ele>
        <time>2010-05-16T09:36:19Z</time>
      </trkpt>
      <trkpt lat="50.41423" lon="3.52517">
        <ele>46.280639648438</ele>
        <time>2010-05-16T09:36:26Z</time>
      </trkpt>
      <trkpt lat="50.41431" lon="3.52496">
        <ele>47.722534179688</ele>
        <time>2010-05-16T09:36:32Z</time>
      </trkpt>
      <trkpt lat="50.4144" lon="3.5247">
        <ele>48.683959960938</ele>
        <time>2010-05-16T09:36:39Z</time>
      </trkpt>
      <trkpt lat="50.41448" lon="3.52441">
        <ele>50.1259765625</ele>
        <time>2010-05-16T09:36:46Z</time>
      </trkpt>
      <trkpt lat="50.41457" lon="3.52423">
        <ele>52.529174804688</ele>
        <time>2010-05-16T09:36:52Z</time>
      </trkpt>
      <trkpt lat="50.41465" lon="3.52408">
        <ele>53.97119140625</ele>
        <time>2010-05-16T09:36:57Z</time>
      </trkpt>
      <trkpt lat="50.41472" lon="3.52381">
        <ele>54.932373046875</ele>
        <time>2010-05-16T09:37:04Z</time>
      </trkpt>
      <trkpt lat="50.41474" lon="3.52359">
        <ele>54.932373046875</ele>
        <time>2010-05-16T09:37:10Z</time>
      </trkpt>
      <trkpt lat="50.41473" lon="3.52335">
        <ele>53.97119140625</ele>
        <time>2010-05-16T09:37:17Z</time>
      </trkpt>
      <trkpt lat="50.41476" lon="3.52311">
        <ele>54.932373046875</ele>
        <time>2010-05-16T09:37:24Z</time>
      </trkpt>
      <trkpt lat="50.41472" lon="3.52293">
        <ele>55.893798828125</ele>
        <time>2010-05-16T09:37:30Z</time>
      </trkpt>
      <trkpt lat="50.41465" lon="3.52276">
        <ele>59.739135742188</ele>
        <time>2010-05-16T09:37:37Z</time>
      </trkpt>
      <trkpt lat="50.41462" lon="3.52264">
        <ele>62.142333984375</ele>
        <time>2010-05-16T09:37:42Z</time>
      </trkpt>
      <trkpt lat="50.41459" lon="3.52254">
        <ele>64.065063476562</ele>
        <time>2010-05-16T09:37:47Z</time>
      </trkpt>
      <trkpt lat="50.41454" lon="3.52241">
        <ele>65.987670898438</ele>
        <time>2010-05-16T09:37:54Z</time>
      </trkpt>
      <trkpt lat="50.41451" lon="3.52235">
        <ele>68.390869140625</ele>
        <time>2010-05-16T09:37:58Z</time>
      </trkpt>
      <trkpt lat="50.41449" lon="3.52231">
        <ele>69.832885742188</ele>
        <time>2010-05-16T09:38:02Z</time>
      </trkpt>
      <trkpt lat="50.41449" lon="3.52231">
        <ele>71.27490234375</ele>
        <time>2010-05-16T09:38:06Z</time>
      </trkpt>
      <trkpt lat="50.41446" lon="3.52226">
        <ele>71.755493164062</ele>
        <time>2010-05-16T09:38:11Z</time>
      </trkpt>
      <trkpt lat="50.41441" lon="3.5222">
        <ele>73.67822265625</ele>
        <time>2010-05-16T09:38:18Z</time>
      </trkpt>
      <trkpt lat="50.41436" lon="3.52213">
        <ele>76.081420898438</ele>
        <time>2010-05-16T09:38:25Z</time>
      </trkpt>
      <trkpt lat="50.41428" lon="3.52209">
        <ele>79.446044921875</ele>
        <time>2010-05-16T09:38:35Z</time>
      </trkpt>
      <trkpt lat="50.41427" lon="3.52209">
        <ele>79.926635742188</ele>
        <time>2010-05-16T09:38:36Z</time>
      </trkpt>
      <trkpt lat="50.41418" lon="3.52213">
        <ele>82.810791015625</ele>
        <time>2010-05-16T09:38:45Z</time>
      </trkpt>
      <trkpt lat="50.41409" lon="3.52216">
        <ele>84.252685546875</ele>
        <time>2010-05-16T09:38:53Z</time>
      </trkpt>
      <trkpt lat="50.41399" lon="3.52217">
        <ele>86.17529296875</ele>
        <time>2010-05-16T09:39:01Z</time>
      </trkpt>
      <trkpt lat="50.41389" lon="3.52212">
        <ele>88.098022460938</ele>
        <time>2010-05-16T09:39:10Z</time>
      </trkpt>
      <trkpt lat="50.41388" lon="3.52206">
        <ele>88.578735351562</ele>
        <time>2010-05-16T09:39:16Z</time>
      </trkpt>
      <trkpt lat="50.41391" lon="3.52187">
        <ele>88.098022460938</ele>
        <time>2010-05-16T09:39:23Z</time>
      </trkpt>
      <trkpt lat="50.41394" lon="3.52168">
        <ele>88.098022460938</ele>
        <time>2010-05-16T09:39:30Z</time>
      </trkpt>
      <trkpt lat="50.41391" lon="3.52149">
        <ele>89.059326171875</ele>
        <time>2010-05-16T09:39:36Z</time>
      </trkpt>
      <trkpt lat="50.41394" lon="3.52134">
        <ele>88.578735351562</ele>
        <time>2010-05-16T09:39:42Z</time>
      </trkpt>
      <trkpt lat="50.41397" lon="3.52126">
        <ele>88.098022460938</ele>
        <time>2010-05-16T09:39:45Z</time>
      </trkpt>
      <trkpt lat="50.41407" lon="3.52109">
        <ele>87.6171875</ele>
        <time>2010-05-16T09:39:51Z</time>
      </trkpt>
      <trkpt lat="50.41418" lon="3.52079">
        <ele>87.136596679688</ele>
        <time>2010-05-16T09:39:59Z</time>
      </trkpt>
      <trkpt lat="50.41417" lon="3.52064">
        <ele>87.6171875</ele>
        <time>2010-05-16T09:40:03Z</time>
      </trkpt>
      <trkpt lat="50.41411" lon="3.52043">
        <ele>87.6171875</ele>
        <time>2010-05-16T09:40:08Z</time>
      </trkpt>
      <trkpt lat="50.41404" lon="3.52031">
        <ele>88.578735351562</ele>
        <time>2010-05-16T09:40:12Z</time>
      </trkpt>
      <trkpt lat="50.41398" lon="3.52013">
        <ele>89.059326171875</ele>
        <time>2010-05-16T09:40:16Z</time>
      </trkpt>
      <trkpt lat="50.41386" lon="3.51986">
        <ele>89.539916992188</ele>
        <time>2010-05-16T09:40:22Z</time>
      </trkpt>
      <trkpt lat="50.41382" lon="3.5198">
        <ele>89.059326171875</ele>
        <time>2010-05-16T09:40:24Z</time>
      </trkpt>
      <trkpt lat="50.41385" lon="3.5196">
        <ele>88.578735351562</ele>
        <time>2010-05-16T09:40:28Z</time>
      </trkpt>
      <trkpt lat="50.41395" lon="3.51948">
        <ele>89.059326171875</ele>
        <time>2010-05-16T09:40:32Z</time>
      </trkpt>
      <trkpt lat="50.41399" lon="3.51935">
        <ele>87.6171875</ele>
        <time>2010-05-16T09:40:35Z</time>
      </trkpt>
      <trkpt lat="50.41411" lon="3.51934">
        <ele>86.17529296875</ele>
        <time>2010-05-16T09:40:37Z</time>
      </trkpt>
      <trkpt lat="50.41418" lon="3.51938">
        <ele>86.17529296875</ele>
        <time>2010-05-16T09:40:39Z</time>
      </trkpt>
      <trkpt lat="50.41422" lon="3.51953">
        <ele>85.213989257812</ele>
        <time>2010-05-16T09:40:42Z</time>
      </trkpt>
      <trkpt lat="50.41426" lon="3.5196">
        <ele>85.213989257812</ele>
        <time>2010-05-16T09:40:44Z</time>
      </trkpt>
      <trkpt lat="50.41439" lon="3.51949">
        <ele>83.77197265625</ele>
        <time>2010-05-16T09:40:48Z</time>
      </trkpt>
      <trkpt lat="50.41441" lon="3.5194">
        <ele>84.252685546875</ele>
        <time>2010-05-16T09:40:49Z</time>
      </trkpt>
      <trkpt lat="50.41447" lon="3.51912">
        <ele>84.7333984375</ele>
        <time>2010-05-16T09:40:54Z</time>
      </trkpt>
      <trkpt lat="50.41451" lon="3.51894">
        <ele>85.213989257812</ele>
        <time>2010-05-16T09:40:57Z</time>
      </trkpt>
      <trkpt lat="50.41449" lon="3.5188">
        <ele>85.694580078125</ele>
        <time>2010-05-16T09:40:59Z</time>
      </trkpt>
      <trkpt lat="50.41446" lon="3.51868">
        <ele>86.17529296875</ele>
        <time>2010-05-16T09:41:01Z</time>
      </trkpt>
      <trkpt lat="50.41443" lon="3.51827">
        <ele>87.136596679688</ele>
        <time>2010-05-16T09:41:07Z</time>
      </trkpt>
      <trkpt lat="50.41445" lon="3.51807">
        <ele>87.136596679688</ele>
        <time>2010-05-16T09:41:10Z</time>
      </trkpt>
      <trkpt lat="50.41457" lon="3.5178">
        <ele>88.098022460938</ele>
        <time>2010-05-16T09:41:15Z</time>
      </trkpt>
      <trkpt lat="50.4147" lon="3.51774">
        <ele>87.136596679688</ele>
        <time>2010-05-16T09:41:18Z</time>
      </trkpt>
      <trkpt lat="50.41496" lon="3.51759">
        <ele>86.17529296875</ele>
        <time>2010-05-16T09:41:23Z</time>
      </trkpt>
      <trkpt lat="50.41502" lon="3.51729">
        <ele>85.694580078125</ele>
        <time>2010-05-16T09:41:26Z</time>
      </trkpt>
      <trkpt lat="50.41504" lon="3.51713">
        <ele>85.694580078125</ele>
        <time>2010-05-16T09:41:28Z</time>
      </trkpt>
      <trkpt lat="50.41495" lon="3.51674">
        <ele>85.694580078125</ele>
        <time>2010-05-16T09:41:34Z</time>
      </trkpt>
      <trkpt lat="50.41493" lon="3.5165">
        <ele>85.694580078125</ele>
        <time>2010-05-16T09:41:37Z</time>
      </trkpt>
      <trkpt lat="50.41487" lon="3.51638">
        <ele>86.17529296875</ele>
        <time>2010-05-16T09:41:39Z</time>
      </trkpt>
      <trkpt lat="50.41483" lon="3.51636">
        <ele>86.656005859375</ele>
        <time>2010-05-16T09:41:40Z</time>
      </trkpt>
      <trkpt lat="50.41457" lon="3.51641">
        <ele>89.059326171875</ele>
        <time>2010-05-16T09:41:46Z</time>
      </trkpt>
      <trkpt lat="50.41453" lon="3.51645">
        <ele>89.539916992188</ele>
        <time>2010-05-16T09:41:47Z</time>
      </trkpt>
      <trkpt lat="50.41433" lon="3.51651">
        <ele>90.020629882812</ele>
        <time>2010-05-16T09:41:52Z</time>
      </trkpt>
      <trkpt lat="50.41429" lon="3.51648">
        <ele>89.539916992188</ele>
        <time>2010-05-16T09:41:53Z</time>
      </trkpt>
      <trkpt lat="50.41407" lon="3.51631">
        <ele>90.020629882812</ele>
        <time>2010-05-16T09:41:58Z</time>
      </trkpt>
      <trkpt lat="50.41398" lon="3.51638">
        <ele>90.020629882812</ele>
        <time>2010-05-16T09:42:00Z</time>
      </trkpt>
      <trkpt lat="50.41389" lon="3.51652">
        <ele>90.020629882812</ele>
        <time>2010-05-16T09:42:03Z</time>
      </trkpt>
      <trkpt lat="50.4138" lon="3.51675">
        <ele>90.98193359375</ele>
        <time>2010-05-16T09:42:07Z</time>
      </trkpt>
      <trkpt lat="50.41375" lon="3.51693">
        <ele>91.462524414062</ele>
        <time>2010-05-16T09:42:10Z</time>
      </trkpt>
      <trkpt lat="50.4136" lon="3.51708">
        <ele>92.423950195312</ele>
        <time>2010-05-16T09:42:15Z</time>
      </trkpt>
      <trkpt lat="50.41347" lon="3.51732">
        <ele>92.423950195312</ele>
        <time>2010-05-16T09:42:20Z</time>
      </trkpt>
      <trkpt lat="50.41336" lon="3.51756">
        <ele>92.423950195312</ele>
        <time>2010-05-16T09:42:24Z</time>
      </trkpt>
      <trkpt lat="50.41324" lon="3.51782">
        <ele>92.423950195312</ele>
        <time>2010-05-16T09:42:28Z</time>
      </trkpt>
      <trkpt lat="50.41318" lon="3.51824">
        <ele>91.943237304688</ele>
        <time>2010-05-16T09:42:33Z</time>
      </trkpt>
      <trkpt lat="50.41303" lon="3.51857">
        <ele>91.462524414062</ele>
        <time>2010-05-16T09:42:38Z</time>
      </trkpt>
      <trkpt lat="50.41287" lon="3.51851">
        <ele>90.501342773438</ele>
        <time>2010-05-16T09:42:41Z</time>
      </trkpt>
      <trkpt lat="50.41278" lon="3.51835">
        <ele>89.539916992188</ele>
        <time>2010-05-16T09:42:44Z</time>
      </trkpt>
      <trkpt lat="50.41271" lon="3.51839">
        <ele>88.578735351562</ele>
        <time>2010-05-16T09:42:47Z</time>
      </trkpt>
      <trkpt lat="50.41271" lon="3.51844">
        <ele>88.578735351562</ele>
        <time>2010-05-16T09:42:48Z</time>
      </trkpt>
      <trkpt lat="50.41272" lon="3.51855">
        <ele>89.539916992188</ele>
        <time>2010-05-16T09:42:50Z</time>
      </trkpt>
      <trkpt lat="50.41265" lon="3.51875">
        <ele>90.98193359375</ele>
        <time>2010-05-16T09:42:54Z</time>
      </trkpt>
      <trkpt lat="50.41267" lon="3.51886">
        <ele>91.462524414062</ele>
        <time>2010-05-16T09:42:56Z</time>
      </trkpt>
      <trkpt lat="50.41269" lon="3.51896">
        <ele>91.462524414062</ele>
        <time>2010-05-16T09:42:58Z</time>
      </trkpt>
      <trkpt lat="50.41263" lon="3.51913">
        <ele>90.020629882812</ele>
        <time>2010-05-16T09:43:01Z</time>
      </trkpt>
      <trkpt lat="50.41254" lon="3.51935">
        <ele>90.020629882812</ele>
        <time>2010-05-16T09:43:05Z</time>
      </trkpt>
      <trkpt lat="50.41253" lon="3.51949">
        <ele>90.501342773438</ele>
        <time>2010-05-16T09:43:07Z</time>
      </trkpt>
      <trkpt lat="50.41251" lon="3.51976">
        <ele>91.462524414062</ele>
        <time>2010-05-16T09:43:11Z</time>
      </trkpt>
      <trkpt lat="50.41249" lon="3.51982">
        <ele>91.462524414062</ele>
        <time>2010-05-16T09:43:12Z</time>
      </trkpt>
      <trkpt lat="50.41256" lon="3.52006">
        <ele>91.462524414062</ele>
        <time>2010-05-16T09:43:16Z</time>
      </trkpt>
      <trkpt lat="50.41256" lon="3.52024">
        <ele>92.904541015625</ele>
        <time>2010-05-16T09:43:19Z</time>
      </trkpt>
      <trkpt lat="50.41246" lon="3.5204">
        <ele>93.385131835938</ele>
        <time>2010-05-16T09:43:22Z</time>
      </trkpt>
      <trkpt lat="50.41222" lon="3.52067">
        <ele>92.904541015625</ele>
        <time>2010-05-16T09:43:28Z</time>
      </trkpt>
      <trkpt lat="50.4122" lon="3.52089">
        <ele>92.423950195312</ele>
        <time>2010-05-16T09:43:31Z</time>
      </trkpt>
      <trkpt lat="50.41225" lon="3.52103">
        <ele>93.385131835938</ele>
        <time>2010-05-16T09:43:33Z</time>
      </trkpt>
      <trkpt lat="50.41236" lon="3.52133">
        <ele>93.865844726562</ele>
        <time>2010-05-16T09:43:38Z</time>
      </trkpt>
      <trkpt lat="50.41246" lon="3.52139">
        <ele>92.904541015625</ele>
        <time>2010-05-16T09:43:40Z</time>
      </trkpt>
      <trkpt lat="50.4127" lon="3.52161">
        <ele>90.020629882812</ele>
        <time>2010-05-16T09:43:45Z</time>
      </trkpt>
      <trkpt lat="50.4127" lon="3.52185">
        <ele>88.578735351562</ele>
        <time>2010-05-16T09:43:47Z</time>
      </trkpt>
      <trkpt lat="50.41272" lon="3.52207">
        <ele>88.578735351562</ele>
        <time>2010-05-16T09:43:50Z</time>
      </trkpt>
      <trkpt lat="50.41273" lon="3.52219">
        <ele>88.098022460938</ele>
        <time>2010-05-16T09:43:52Z</time>
      </trkpt>
      <trkpt lat="50.41265" lon="3.52239">
        <ele>88.578735351562</ele>
        <time>2010-05-16T09:43:56Z</time>
      </trkpt>
      <trkpt lat="50.41258" lon="3.52262">
        <ele>87.6171875</ele>
        <time>2010-05-16T09:44:00Z</time>
      </trkpt>
      <trkpt lat="50.41252" lon="3.52271">
        <ele>89.059326171875</ele>
        <time>2010-05-16T09:44:02Z</time>
      </trkpt>
      <trkpt lat="50.41232" lon="3.52298">
        <ele>90.020629882812</ele>
        <time>2010-05-16T09:44:07Z</time>
      </trkpt>
      <trkpt lat="50.41209" lon="3.52327">
        <ele>90.98193359375</ele>
        <time>2010-05-16T09:44:12Z</time>
      </trkpt>
      <trkpt lat="50.41199" lon="3.52353">
        <ele>91.943237304688</ele>
        <time>2010-05-16T09:44:16Z</time>
      </trkpt>
      <trkpt lat="50.41191" lon="3.52375">
        <ele>91.462524414062</ele>
        <time>2010-05-16T09:44:20Z</time>
      </trkpt>
      <trkpt lat="50.41181" lon="3.52391">
        <ele>91.462524414062</ele>
        <time>2010-05-16T09:44:23Z</time>
      </trkpt>
      <trkpt lat="50.41177" lon="3.52416">
        <ele>90.98193359375</ele>
        <time>2010-05-16T09:44:26Z</time>
      </trkpt>
      <trkpt lat="50.41168" lon="3.52452">
        <ele>88.098022460938</ele>
        <time>2010-05-16T09:44:31Z</time>
      </trkpt>
      <trkpt lat="50.41177" lon="3.52454">
        <ele>86.17529296875</ele>
        <time>2010-05-16T09:44:33Z</time>
      </trkpt>
      <trkpt lat="50.41187" lon="3.52451">
        <ele>84.7333984375</ele>
        <time>2010-05-16T09:44:35Z</time>
      </trkpt>
      <trkpt lat="50.41203" lon="3.52453">
        <ele>84.252685546875</ele>
        <time>2010-05-16T09:44:39Z</time>
      </trkpt>
      <trkpt lat="50.4123" lon="3.52469">
        <ele>82.810791015625</ele>
        <time>2010-05-16T09:44:44Z</time>
      </trkpt>
      <trkpt lat="50.41252" lon="3.52483">
        <ele>80.407470703125</ele>
        <time>2010-05-16T09:44:49Z</time>
      </trkpt>
      <trkpt lat="50.41264" lon="3.52483">
        <ele>79.446044921875</ele>
        <time>2010-05-16T09:44:53Z</time>
      </trkpt>
      <trkpt lat="50.41277" lon="3.52475">
        <ele>78.004028320312</ele>
        <time>2010-05-16T09:44:57Z</time>
      </trkpt>
      <trkpt lat="50.41287" lon="3.52461">
        <ele>76.081420898438</ele>
        <time>2010-05-16T09:45:00Z</time>
      </trkpt>
      <trkpt lat="50.41292" lon="3.5245">
        <ele>75.120239257812</ele>
        <time>2010-05-16T09:45:02Z</time>
      </trkpt>
      <trkpt lat="50.41308" lon="3.52436">
        <ele>75.120239257812</ele>
        <time>2010-05-16T09:45:07Z</time>
      </trkpt>
      <trkpt lat="50.41311" lon="3.52439">
        <ele>75.120239257812</ele>
        <time>2010-05-16T09:45:08Z</time>
      </trkpt>
      <trkpt lat="50.41331" lon="3.52453">
        <ele>74.639526367188</ele>
        <time>2010-05-16T09:45:13Z</time>
      </trkpt>
      <trkpt lat="50.41344" lon="3.52452">
        <ele>74.639526367188</ele>
        <time>2010-05-16T09:45:18Z</time>
      </trkpt>
      <trkpt lat="50.41352" lon="3.5245">
        <ele>74.639526367188</ele>
        <time>2010-05-16T09:45:20Z</time>
      </trkpt>
      <trkpt lat="50.41368" lon="3.52472">
        <ele>78.004028320312</ele>
        <time>2010-05-16T09:45:25Z</time>
      </trkpt>
      <trkpt lat="50.41374" lon="3.52487">
        <ele>77.5234375</ele>
        <time>2010-05-16T09:45:27Z</time>
      </trkpt>
      <trkpt lat="50.41377" lon="3.52521">
        <ele>76.562133789062</ele>
        <time>2010-05-16T09:45:32Z</time>
      </trkpt>
      <trkpt lat="50.41377" lon="3.52526">
        <ele>76.081420898438</ele>
        <time>2010-05-16T09:45:33Z</time>
      </trkpt>
      <trkpt lat="50.41369" lon="3.52549">
        <ele>74.639526367188</ele>
        <time>2010-05-16T09:45:38Z</time>
      </trkpt>
      <trkpt lat="50.41368" lon="3.52552">
        <ele>74.158813476562</ele>
        <time>2010-05-16T09:45:39Z</time>
      </trkpt>
      <trkpt lat="50.41363" lon="3.52568">
        <ele>72.716918945312</ele>
        <time>2010-05-16T09:45:43Z</time>
      </trkpt>
      <trkpt lat="50.41351" lon="3.52578">
        <ele>69.832885742188</ele>
        <time>2010-05-16T09:45:47Z</time>
      </trkpt>
      <trkpt lat="50.41348" lon="3.52589">
        <ele>66.46826171875</ele>
        <time>2010-05-16T09:45:51Z</time>
      </trkpt>
      <trkpt lat="50.41343" lon="3.52612">
        <ele>61.661743164062</ele>
        <time>2010-05-16T09:45:55Z</time>
      </trkpt>
      <trkpt lat="50.4134" lon="3.52617">
        <ele>60.2197265625</ele>
        <time>2010-05-16T09:45:56Z</time>
      </trkpt>
      <trkpt lat="50.41335" lon="3.52625">
        <ele>57.816528320312</ele>
        <time>2010-05-16T09:45:58Z</time>
      </trkpt>
      <trkpt lat="50.41322" lon="3.52624">
        <ele>55.893798828125</ele>
        <time>2010-05-16T09:46:02Z</time>
      </trkpt>
      <trkpt lat="50.41309" lon="3.52614">
        <ele>54.451782226562</ele>
        <time>2010-05-16T09:46:07Z</time>
      </trkpt>
      <trkpt lat="50.41308" lon="3.52614">
        <ele>54.451782226562</ele>
        <time>2010-05-16T09:46:09Z</time>
      </trkpt>
      <trkpt lat="50.41307" lon="3.52613">
        <ele>54.451782226562</ele>
        <time>2010-05-16T09:46:12Z</time>
      </trkpt>
      <trkpt lat="50.41304" lon="3.5261">
        <ele>54.451782226562</ele>
        <time>2010-05-16T09:46:13Z</time>
      </trkpt>
      <trkpt lat="50.41294" lon="3.5261">
        <ele>53.009765625</ele>
        <time>2010-05-16T09:46:16Z</time>
      </trkpt>
      <trkpt lat="50.4128" lon="3.52627">
        <ele>50.1259765625</ele>
        <time>2010-05-16T09:46:20Z</time>
      </trkpt>
      <trkpt lat="50.41273" lon="3.5264">
        <ele>47.722534179688</ele>
        <time>2010-05-16T09:46:23Z</time>
      </trkpt>
      <trkpt lat="50.41264" lon="3.52652">
        <ele>46.280639648438</ele>
        <time>2010-05-16T09:46:26Z</time>
      </trkpt>
      <trkpt lat="50.41251" lon="3.52654">
        <ele>44.838623046875</ele>
        <time>2010-05-16T09:46:29Z</time>
      </trkpt>
      <trkpt lat="50.41245" lon="3.52643">
        <ele>44.838623046875</ele>
        <time>2010-05-16T09:46:32Z</time>
      </trkpt>
      <trkpt lat="50.41239" lon="3.52629">
        <ele>44.358032226562</ele>
        <time>2010-05-16T09:46:35Z</time>
      </trkpt>
      <trkpt lat="50.41233" lon="3.52621">
        <ele>44.358032226562</ele>
        <time>2010-05-16T09:46:37Z</time>
      </trkpt>
      <trkpt lat="50.41212" lon="3.52613">
        <ele>43.396606445312</ele>
        <time>2010-05-16T09:46:42Z</time>
      </trkpt>
      <trkpt lat="50.41203" lon="3.52609">
        <ele>42.916015625</ele>
        <time>2010-05-16T09:46:44Z</time>
      </trkpt>
      <trkpt lat="50.41189" lon="3.52604">
        <ele>42.435424804688</ele>
        <time>2010-05-16T09:46:47Z</time>
      </trkpt>
      <trkpt lat="50.41169" lon="3.52605">
        <ele>40.993408203125</ele>
        <time>2010-05-16T09:46:51Z</time>
      </trkpt>
      <trkpt lat="50.41129" lon="3.52606">
        <ele>40.032104492188</ele>
        <time>2010-05-16T09:46:58Z</time>
      </trkpt>
      <trkpt lat="50.41101" lon="3.52611">
        <ele>39.55126953125</ele>
        <time>2010-05-16T09:47:03Z</time>
      </trkpt>
      <trkpt lat="50.41074" lon="3.52614">
        <ele>39.55126953125</ele>
        <time>2010-05-16T09:47:09Z</time>
      </trkpt>
      <trkpt lat="50.41069" lon="3.52613">
        <ele>39.55126953125</ele>
        <time>2010-05-16T09:47:10Z</time>
      </trkpt>
      <trkpt lat="50.41055" lon="3.52598">
        <ele>38.590087890625</ele>
        <time>2010-05-16T09:47:14Z</time>
      </trkpt>
      <trkpt lat="50.41049" lon="3.52564">
        <ele>37.148071289062</ele>
        <time>2010-05-16T09:47:20Z</time>
      </trkpt>
      <trkpt lat="50.4105" lon="3.52544">
        <ele>35.7060546875</ele>
        <time>2010-05-16T09:47:24Z</time>
      </trkpt>
      <trkpt lat="50.4104" lon="3.52532">
        <ele>34.744873046875</ele>
        <time>2010-05-16T09:47:28Z</time>
      </trkpt>
      <trkpt lat="50.41022" lon="3.52522">
        <ele>34.744873046875</ele>
        <time>2010-05-16T09:47:32Z</time>
      </trkpt>
      <trkpt lat="50.41002" lon="3.52481">
        <ele>33.783447265625</ele>
        <time>2010-05-16T09:47:37Z</time>
      </trkpt>
      <trkpt lat="50.40986" lon="3.52449">
        <ele>34.744873046875</ele>
        <time>2010-05-16T09:47:41Z</time>
      </trkpt>
      <trkpt lat="50.40981" lon="3.5243">
        <ele>34.744873046875</ele>
        <time>2010-05-16T09:47:43Z</time>
      </trkpt>
      <trkpt lat="50.40966" lon="3.52391">
        <ele>35.7060546875</ele>
        <time>2010-05-16T09:47:47Z</time>
      </trkpt>
      <trkpt lat="50.40948" lon="3.5235">
        <ele>37.628662109375</ele>
        <time>2010-05-16T09:47:52Z</time>
      </trkpt>
      <trkpt lat="50.40948" lon="3.52326">
        <ele>37.148071289062</ele>
        <time>2010-05-16T09:47:55Z</time>
      </trkpt>
      <trkpt lat="50.40956" lon="3.52309">
        <ele>37.148071289062</ele>
        <time>2010-05-16T09:47:57Z</time>
      </trkpt>
      <trkpt lat="50.40978" lon="3.52255">
        <ele>36.66748046875</ele>
        <time>2010-05-16T09:48:04Z</time>
      </trkpt>
      <trkpt lat="50.40999" lon="3.52202">
        <ele>37.628662109375</ele>
        <time>2010-05-16T09:48:12Z</time>
      </trkpt>
      <trkpt lat="50.41024" lon="3.52138">
        <ele>39.070678710938</ele>
        <time>2010-05-16T09:48:21Z</time>
      </trkpt>
      <trkpt lat="50.41044" lon="3.52088">
        <ele>40.032104492188</ele>
        <time>2010-05-16T09:48:28Z</time>
      </trkpt>
      <trkpt lat="50.41071" lon="3.52022">
        <ele>40.512817382812</ele>
        <time>2010-05-16T09:48:37Z</time>
      </trkpt>
      <trkpt lat="50.41095" lon="3.51959">
        <ele>39.070678710938</ele>
        <time>2010-05-16T09:48:45Z</time>
      </trkpt>
      <trkpt lat="50.41127" lon="3.51878">
        <ele>37.148071289062</ele>
        <time>2010-05-16T09:48:55Z</time>
      </trkpt>
      <trkpt lat="50.41151" lon="3.51818">
        <ele>36.186767578125</ele>
        <time>2010-05-16T09:49:02Z</time>
      </trkpt>
      <trkpt lat="50.41174" lon="3.51756">
        <ele>35.7060546875</ele>
        <time>2010-05-16T09:49:09Z</time>
      </trkpt>
      <trkpt lat="50.41198" lon="3.51696">
        <ele>35.225463867188</ele>
        <time>2010-05-16T09:49:16Z</time>
      </trkpt>
      <trkpt lat="50.41217" lon="3.51647">
        <ele>34.26416015625</ele>
        <time>2010-05-16T09:49:22Z</time>
      </trkpt>
      <trkpt lat="50.41242" lon="3.51583">
        <ele>32.822265625</ele>
        <time>2010-05-16T09:49:29Z</time>
      </trkpt>
      <trkpt lat="50.41263" lon="3.51527">
        <ele>31.380126953125</ele>
        <time>2010-05-16T09:49:35Z</time>
      </trkpt>
      <trkpt lat="50.41285" lon="3.5147">
        <ele>30.418823242188</ele>
        <time>2010-05-16T09:49:41Z</time>
      </trkpt>
      <trkpt lat="50.41306" lon="3.51411">
        <ele>28.015502929688</ele>
        <time>2010-05-16T09:49:47Z</time>
      </trkpt>
      <trkpt lat="50.4133" lon="3.51351">
        <ele>24.651000976562</ele>
        <time>2010-05-16T09:49:53Z</time>
      </trkpt>
      <trkpt lat="50.4135" lon="3.513">
        <ele>20.8056640625</ele>
        <time>2010-05-16T09:49:58Z</time>
      </trkpt>
      <trkpt lat="50.41377" lon="3.51229">
        <ele>20.324951171875</ele>
        <time>2010-05-16T09:50:05Z</time>
      </trkpt>
      <trkpt lat="50.41397" lon="3.51178">
        <ele>20.8056640625</ele>
        <time>2010-05-16T09:50:10Z</time>
      </trkpt>
      <trkpt lat="50.41419" lon="3.51119">
        <ele>20.8056640625</ele>
        <time>2010-05-16T09:50:16Z</time>
      </trkpt>
      <trkpt lat="50.41431" lon="3.5109">
        <ele>20.324951171875</ele>
        <time>2010-05-16T09:50:19Z</time>
      </trkpt>
      <trkpt lat="50.41429" lon="3.51071">
        <ele>20.8056640625</ele>
        <time>2010-05-16T09:50:22Z</time>
      </trkpt>
      <trkpt lat="50.41425" lon="3.51067">
        <ele>21.286376953125</ele>
        <time>2010-05-16T09:50:23Z</time>
      </trkpt>
      <trkpt lat="50.41394" lon="3.51038">
        <ele>22.24755859375</ele>
        <time>2010-05-16T09:50:29Z</time>
      </trkpt>
      <trkpt lat="50.41351" lon="3.50998">
        <ele>22.728271484375</ele>
        <time>2010-05-16T09:50:37Z</time>
      </trkpt>
      <trkpt lat="50.41319" lon="3.50967">
        <ele>23.208984375</ele>
        <time>2010-05-16T09:50:43Z</time>
      </trkpt>
      <trkpt lat="50.4129" lon="3.50944">
        <ele>24.651000976562</ele>
        <time>2010-05-16T09:50:48Z</time>
      </trkpt>
      <trkpt lat="50.41272" lon="3.50938">
        <ele>26.573608398438</ele>
        <time>2010-05-16T09:50:52Z</time>
      </trkpt>
      <trkpt lat="50.41267" lon="3.50936">
        <ele>26.573608398438</ele>
        <time>2010-05-16T09:50:53Z</time>
      </trkpt>
      <trkpt lat="50.41232" lon="3.50916">
        <ele>30.418823242188</ele>
        <time>2010-05-16T09:50:59Z</time>
      </trkpt>
      <trkpt lat="50.41207" lon="3.50902">
        <ele>32.341552734375</ele>
        <time>2010-05-16T09:51:03Z</time>
      </trkpt>
      <trkpt lat="50.41187" lon="3.50892">
        <ele>33.302856445312</ele>
        <time>2010-05-16T09:51:06Z</time>
      </trkpt>
      <trkpt lat="50.41161" lon="3.50876">
        <ele>35.7060546875</ele>
        <time>2010-05-16T09:51:10Z</time>
      </trkpt>
      <trkpt lat="50.41145" lon="3.50863">
        <ele>35.225463867188</ele>
        <time>2010-05-16T09:51:14Z</time>
      </trkpt>
      <trkpt lat="50.41128" lon="3.50849">
        <ele>33.302856445312</ele>
        <time>2010-05-16T09:51:18Z</time>
      </trkpt>
      <trkpt lat="50.41101" lon="3.50832">
        <ele>30.899536132812</ele>
        <time>2010-05-16T09:51:23Z</time>
      </trkpt>
      <trkpt lat="50.41079" lon="3.50822">
        <ele>29.45751953125</ele>
        <time>2010-05-16T09:51:27Z</time>
      </trkpt>
      <trkpt lat="50.41069" lon="3.50817">
        <ele>29.938110351562</ele>
        <time>2010-05-16T09:51:30Z</time>
      </trkpt>
      <trkpt lat="50.41063" lon="3.50813">
        <ele>30.418823242188</ele>
        <time>2010-05-16T09:51:35Z</time>
      </trkpt>
      <trkpt lat="50.41053" lon="3.50807">
        <ele>29.45751953125</ele>
        <time>2010-05-16T09:51:39Z</time>
      </trkpt>
      <trkpt lat="50.41042" lon="3.508">
        <ele>28.976928710938</ele>
        <time>2010-05-16T09:51:42Z</time>
      </trkpt>
      <trkpt lat="50.41021" lon="3.50789">
        <ele>27.054321289062</ele>
        <time>2010-05-16T09:51:47Z</time>
      </trkpt>
      <trkpt lat="50.41007" lon="3.50782">
        <ele>26.573608398438</ele>
        <time>2010-05-16T09:51:50Z</time>
      </trkpt>
      <trkpt lat="50.40988" lon="3.50771">
        <ele>26.092895507812</ele>
        <time>2010-05-16T09:51:54Z</time>
      </trkpt>
      <trkpt lat="50.40966" lon="3.5076">
        <ele>26.573608398438</ele>
        <time>2010-05-16T09:51:59Z</time>
      </trkpt>
      <trkpt lat="50.4096" lon="3.50758">
        <ele>27.054321289062</ele>
        <time>2010-05-16T09:52:02Z</time>
      </trkpt>
      <trkpt lat="50.40956" lon="3.5076">
        <ele>27.534912109375</ele>
        <time>2010-05-16T09:52:06Z</time>
      </trkpt>
      <trkpt lat="50.40949" lon="3.50761">
        <ele>27.534912109375</ele>
        <time>2010-05-16T09:52:09Z</time>
      </trkpt>
      <trkpt lat="50.40946" lon="3.50758">
        <ele>27.054321289062</ele>
        <time>2010-05-16T09:52:10Z</time>
      </trkpt>
      <trkpt lat="50.4093" lon="3.50749">
        <ele>27.054321289062</ele>
        <time>2010-05-16T09:52:15Z</time>
      </trkpt>
      <trkpt lat="50.40915" lon="3.50741">
        <ele>28.015502929688</ele>
        <time>2010-05-16T09:52:19Z</time>
      </trkpt>
      <trkpt lat="50.40897" lon="3.50729">
        <ele>28.496215820312</ele>
        <time>2010-05-16T09:52:23Z</time>
      </trkpt>
      <trkpt lat="50.40884" lon="3.50719">
        <ele>28.015502929688</ele>
        <time>2010-05-16T09:52:26Z</time>
      </trkpt>
      <trkpt lat="50.40862" lon="3.50703">
        <ele>28.496215820312</ele>
        <time>2010-05-16T09:52:31Z</time>
      </trkpt>
      <trkpt lat="50.40855" lon="3.50691">
        <ele>28.015502929688</ele>
        <time>2010-05-16T09:52:33Z</time>
      </trkpt>
      <trkpt lat="50.40842" lon="3.5065">
        <ele>29.45751953125</ele>
        <time>2010-05-16T09:52:38Z</time>
      </trkpt>
      <trkpt lat="50.40825" lon="3.50601">
        <ele>31.860717773438</ele>
        <time>2010-05-16T09:52:44Z</time>
      </trkpt>
      <trkpt lat="50.40802" lon="3.50535">
        <ele>34.26416015625</ele>
        <time>2010-05-16T09:52:52Z</time>
      </trkpt>
      <trkpt lat="50.40798" lon="3.50491">
        <ele>32.822265625</ele>
        <time>2010-05-16T09:52:58Z</time>
      </trkpt>
      <trkpt lat="50.40807" lon="3.50482">
        <ele>32.822265625</ele>
        <time>2010-05-16T09:53:02Z</time>
      </trkpt>
      <trkpt lat="50.40817" lon="3.50487">
        <ele>34.744873046875</ele>
        <time>2010-05-16T09:53:06Z</time>
      </trkpt>
      <trkpt lat="50.40834" lon="3.50479">
        <ele>35.7060546875</ele>
        <time>2010-05-16T09:53:11Z</time>
      </trkpt>
      <trkpt lat="50.40843" lon="3.50466">
        <ele>35.225463867188</ele>
        <time>2010-05-16T09:53:15Z</time>
      </trkpt>
      <trkpt lat="50.40837" lon="3.50453">
        <ele>35.225463867188</ele>
        <time>2010-05-16T09:53:19Z</time>
      </trkpt>
      <trkpt lat="50.4083" lon="3.50444">
        <ele>35.7060546875</ele>
        <time>2010-05-16T09:53:21Z</time>
      </trkpt>
      <trkpt lat="50.40823" lon="3.50435">
        <ele>36.186767578125</ele>
        <time>2010-05-16T09:53:23Z</time>
      </trkpt>
      <trkpt lat="50.40817" lon="3.50423">
        <ele>37.148071289062</ele>
        <time>2010-05-16T09:53:25Z</time>
      </trkpt>
      <trkpt lat="50.40797" lon="3.50387">
        <ele>37.628662109375</ele>
        <time>2010-05-16T09:53:32Z</time>
      </trkpt>
      <trkpt lat="50.40783" lon="3.50358">
        <ele>36.186767578125</ele>
        <time>2010-05-16T09:53:37Z</time>
      </trkpt>
      <trkpt lat="50.4078" lon="3.50352">
        <ele>35.7060546875</ele>
        <time>2010-05-16T09:53:38Z</time>
      </trkpt>
      <trkpt lat="50.40775" lon="3.50339">
        <ele>35.7060546875</ele>
        <time>2010-05-16T09:53:40Z</time>
      </trkpt>
      <trkpt lat="50.40763" lon="3.50296">
        <ele>38.590087890625</ele>
        <time>2010-05-16T09:53:46Z</time>
      </trkpt>
      <trkpt lat="50.40759" lon="3.50272">
        <ele>40.032104492188</ele>
        <time>2010-05-16T09:53:49Z</time>
      </trkpt>
      <trkpt lat="50.40744" lon="3.50242">
        <ele>42.435424804688</ele>
        <time>2010-05-16T09:53:54Z</time>
      </trkpt>
      <trkpt lat="50.40733" lon="3.50219">
        <ele>43.396606445312</ele>
        <time>2010-05-16T09:53:58Z</time>
      </trkpt>
      <trkpt lat="50.4073" lon="3.50212">
        <ele>44.358032226562</ele>
        <time>2010-05-16T09:53:59Z</time>
      </trkpt>
      <trkpt lat="50.40714" lon="3.5017">
        <ele>46.76123046875</ele>
        <time>2010-05-16T09:54:05Z</time>
      </trkpt>
      <trkpt lat="50.40704" lon="3.50144">
        <ele>47.241821289062</ele>
        <time>2010-05-16T09:54:09Z</time>
      </trkpt>
      <trkpt lat="50.40697" lon="3.50124">
        <ele>48.683959960938</ele>
        <time>2010-05-16T09:54:12Z</time>
      </trkpt>
      <trkpt lat="50.40679" lon="3.50079">
        <ele>48.203369140625</ele>
        <time>2010-05-16T09:54:19Z</time>
      </trkpt>
      <trkpt lat="50.40668" lon="3.50052">
        <ele>47.722534179688</ele>
        <time>2010-05-16T09:54:23Z</time>
      </trkpt>
      <trkpt lat="50.4066" lon="3.50012">
        <ele>45.799926757812</ele>
        <time>2010-05-16T09:54:28Z</time>
      </trkpt>
      <trkpt lat="50.40657" lon="3.49992">
        <ele>43.877319335938</ele>
        <time>2010-05-16T09:54:30Z</time>
      </trkpt>
      <trkpt lat="50.40645" lon="3.49984">
        <ele>43.396606445312</ele>
        <time>2010-05-16T09:54:33Z</time>
      </trkpt>
      <trkpt lat="50.40633" lon="3.49993">
        <ele>41.954711914062</ele>
        <time>2010-05-16T09:54:35Z</time>
      </trkpt>
      <trkpt lat="50.406" lon="3.50022">
        <ele>39.070678710938</ele>
        <time>2010-05-16T09:54:40Z</time>
      </trkpt>
      <trkpt lat="50.40587" lon="3.50035">
        <ele>36.66748046875</ele>
        <time>2010-05-16T09:54:43Z</time>
      </trkpt>
      <trkpt lat="50.40567" lon="3.50056">
        <ele>35.225463867188</ele>
        <time>2010-05-16T09:54:47Z</time>
      </trkpt>
      <trkpt lat="50.40559" lon="3.50075">
        <ele>34.26416015625</ele>
        <time>2010-05-16T09:54:50Z</time>
      </trkpt>
      <trkpt lat="50.40568" lon="3.50102">
        <ele>33.302856445312</ele>
        <time>2010-05-16T09:54:54Z</time>
      </trkpt>
      <trkpt lat="50.40585" lon="3.50165">
        <ele>32.341552734375</ele>
        <time>2010-05-16T09:55:02Z</time>
      </trkpt>
      <trkpt lat="50.40597" lon="3.50208">
        <ele>32.822265625</ele>
        <time>2010-05-16T09:55:09Z</time>
      </trkpt>
      <trkpt lat="50.40609" lon="3.50232">
        <ele>31.860717773438</ele>
        <time>2010-05-16T09:55:13Z</time>
      </trkpt>
      <trkpt lat="50.40644" lon="3.50272">
        <ele>28.496215820312</ele>
        <time>2010-05-16T09:55:18Z</time>
      </trkpt>
      <trkpt lat="50.4067" lon="3.50306">
        <ele>28.015502929688</ele>
        <time>2010-05-16T09:55:22Z</time>
      </trkpt>
      <trkpt lat="50.40691" lon="3.50346">
        <ele>27.054321289062</ele>
        <time>2010-05-16T09:55:27Z</time>
      </trkpt>
      <trkpt lat="50.40702" lon="3.50376">
        <ele>28.015502929688</ele>
        <time>2010-05-16T09:55:31Z</time>
      </trkpt>
      <trkpt lat="50.40712" lon="3.50399">
        <ele>28.015502929688</ele>
        <time>2010-05-16T09:55:34Z</time>
      </trkpt>
      <trkpt lat="50.40734" lon="3.50451">
        <ele>28.496215820312</ele>
        <time>2010-05-16T09:55:41Z</time>
      </trkpt>
      <trkpt lat="50.40747" lon="3.50473">
        <ele>29.45751953125</ele>
        <time>2010-05-16T09:55:44Z</time>
      </trkpt>
      <trkpt lat="50.40757" lon="3.50497">
        <ele>30.899536132812</ele>
        <time>2010-05-16T09:55:47Z</time>
      </trkpt>
      <trkpt lat="50.40757" lon="3.50516">
        <ele>30.418823242188</ele>
        <time>2010-05-16T09:55:50Z</time>
      </trkpt>
      <trkpt lat="50.4075" lon="3.50526">
        <ele>31.380126953125</ele>
        <time>2010-05-16T09:55:52Z</time>
      </trkpt>
      <trkpt lat="50.40732" lon="3.50538">
        <ele>31.380126953125</ele>
        <time>2010-05-16T09:55:56Z</time>
      </trkpt>
      <trkpt lat="50.40722" lon="3.50543">
        <ele>31.860717773438</ele>
        <time>2010-05-16T09:55:58Z</time>
      </trkpt>
      <trkpt lat="50.40696" lon="3.50553">
        <ele>29.938110351562</ele>
        <time>2010-05-16T09:56:04Z</time>
      </trkpt>
      <trkpt lat="50.40696" lon="3.50557">
        <ele>29.45751953125</ele>
        <time>2010-05-16T09:56:06Z</time>
      </trkpt>
      <trkpt lat="50.40702" lon="3.50554">
        <ele>29.45751953125</ele>
        <time>2010-05-16T09:56:09Z</time>
      </trkpt>
      <trkpt lat="50.40718" lon="3.50543">
        <ele>29.938110351562</ele>
        <time>2010-05-16T09:56:13Z</time>
      </trkpt>
      <trkpt lat="50.40737" lon="3.50528">
        <ele>30.418823242188</ele>
        <time>2010-05-16T09:56:18Z</time>
      </trkpt>
      <trkpt lat="50.40741" lon="3.50521">
        <ele>29.938110351562</ele>
        <time>2010-05-16T09:56:22Z</time>
      </trkpt>
      <trkpt lat="50.40741" lon="3.50521">
        <ele>29.938110351562</ele>
        <time>2010-05-16T09:56:23Z</time>
      </trkpt>
      <trkpt lat="50.40743" lon="3.50521">
        <ele>26.573608398438</ele>
        <time>2010-05-16T09:59:44Z</time>
      </trkpt>
      <trkpt lat="50.40742" lon="3.50522">
        <ele>26.573608398438</ele>
        <time>2010-05-16T09:59:45Z</time>
      </trkpt>
      <trkpt lat="50.40742" lon="3.50524">
        <ele>28.976928710938</ele>
        <time>2010-05-16T09:59:55Z</time>
      </trkpt>
      <trkpt lat="50.40745" lon="3.50527">
        <ele>28.976928710938</ele>
        <time>2010-05-16T09:59:59Z</time>
      </trkpt>
      <trkpt lat="50.40744" lon="3.50528">
        <ele>28.976928710938</ele>
        <time>2010-05-16T10:00:38Z</time>
      </trkpt>
      <trkpt lat="50.4074" lon="3.50534">
        <ele>29.938110351562</ele>
        <time>2010-05-16T10:00:41Z</time>
      </trkpt>
      <trkpt lat="50.40732" lon="3.50537">
        <ele>29.938110351562</ele>
        <time>2010-05-16T10:00:44Z</time>
      </trkpt>
      <trkpt lat="50.40709" lon="3.50546">
        <ele>30.418823242188</ele>
        <time>2010-05-16T10:00:49Z</time>
      </trkpt>
      <trkpt lat="50.4068" lon="3.50559">
        <ele>30.899536132812</ele>
        <time>2010-05-16T10:00:55Z</time>
      </trkpt>
      <trkpt lat="50.40661" lon="3.50567">
        <ele>30.418823242188</ele>
        <time>2010-05-16T10:00:59Z</time>
      </trkpt>
      <trkpt lat="50.40645" lon="3.50574">
        <ele>30.418823242188</ele>
        <time>2010-05-16T10:01:03Z</time>
      </trkpt>
      <trkpt lat="50.40629" lon="3.50583">
        <ele>30.418823242188</ele>
        <time>2010-05-16T10:01:07Z</time>
      </trkpt>
      <trkpt lat="50.40618" lon="3.50587">
        <ele>29.938110351562</ele>
        <time>2010-05-16T10:01:10Z</time>
      </trkpt>
      <trkpt lat="50.40583" lon="3.50602">
        <ele>29.45751953125</ele>
        <time>2010-05-16T10:01:18Z</time>
      </trkpt>
      <trkpt lat="50.40555" lon="3.50615">
        <ele>28.976928710938</ele>
        <time>2010-05-16T10:01:25Z</time>
      </trkpt>
      <trkpt lat="50.40526" lon="3.50628">
        <ele>28.496215820312</ele>
        <time>2010-05-16T10:01:32Z</time>
      </trkpt>
      <trkpt lat="50.40496" lon="3.5064">
        <ele>28.015502929688</ele>
        <time>2010-05-16T10:01:38Z</time>
      </trkpt>
      <trkpt lat="50.40483" lon="3.50647">
        <ele>28.496215820312</ele>
        <time>2010-05-16T10:01:41Z</time>
      </trkpt>
      <trkpt lat="50.40459" lon="3.50654">
        <ele>28.976928710938</ele>
        <time>2010-05-16T10:01:46Z</time>
      </trkpt>
      <trkpt lat="50.40446" lon="3.50651">
        <ele>29.45751953125</ele>
        <time>2010-05-16T10:01:49Z</time>
      </trkpt>
      <trkpt lat="50.40435" lon="3.50641">
        <ele>28.496215820312</ele>
        <time>2010-05-16T10:01:52Z</time>
      </trkpt>
      <trkpt lat="50.40435" lon="3.50634">
        <ele>28.496215820312</ele>
        <time>2010-05-16T10:01:53Z</time>
      </trkpt>
      <trkpt lat="50.40435" lon="3.50618">
        <ele>28.496215820312</ele>
        <time>2010-05-16T10:01:55Z</time>
      </trkpt>
      <trkpt lat="50.40434" lon="3.50602">
        <ele>28.976928710938</ele>
        <time>2010-05-16T10:01:57Z</time>
      </trkpt>
      <trkpt lat="50.40437" lon="3.50547">
        <ele>29.938110351562</ele>
        <time>2010-05-16T10:02:04Z</time>
      </trkpt>
      <trkpt lat="50.40429" lon="3.50484">
        <ele>30.418823242188</ele>
        <time>2010-05-16T10:02:11Z</time>
      </trkpt>
      <trkpt lat="50.40426" lon="3.50476">
        <ele>30.899536132812</ele>
        <time>2010-05-16T10:02:12Z</time>
      </trkpt>
      <trkpt lat="50.40421" lon="3.50462">
        <ele>31.860717773438</ele>
        <time>2010-05-16T10:02:14Z</time>
      </trkpt>
      <trkpt lat="50.40406" lon="3.50435">
        <ele>31.380126953125</ele>
        <time>2010-05-16T10:02:18Z</time>
      </trkpt>
      <trkpt lat="50.40367" lon="3.50395">
        <ele>30.418823242188</ele>
        <time>2010-05-16T10:02:26Z</time>
      </trkpt>
      <trkpt lat="50.40319" lon="3.50359">
        <ele>28.496215820312</ele>
        <time>2010-05-16T10:02:35Z</time>
      </trkpt>
      <trkpt lat="50.40284" lon="3.50334">
        <ele>29.45751953125</ele>
        <time>2010-05-16T10:02:42Z</time>
      </trkpt>
      <trkpt lat="50.40242" lon="3.50304">
        <ele>28.015502929688</ele>
        <time>2010-05-16T10:02:50Z</time>
      </trkpt>
      <trkpt lat="50.4022" lon="3.50293">
        <ele>26.573608398438</ele>
        <time>2010-05-16T10:02:54Z</time>
      </trkpt>
      <trkpt lat="50.40197" lon="3.50279">
        <ele>25.6123046875</ele>
        <time>2010-05-16T10:02:59Z</time>
      </trkpt>
      <trkpt lat="50.40199" lon="3.50258">
        <ele>25.6123046875</ele>
        <time>2010-05-16T10:03:02Z</time>
      </trkpt>
      <trkpt lat="50.40203" lon="3.50253">
        <ele>25.6123046875</ele>
        <time>2010-05-16T10:03:03Z</time>
      </trkpt>
      <trkpt lat="50.4021" lon="3.50244">
        <ele>25.6123046875</ele>
        <time>2010-05-16T10:03:05Z</time>
      </trkpt>
      <trkpt lat="50.40229" lon="3.50223">
        <ele>26.573608398438</ele>
        <time>2010-05-16T10:03:10Z</time>
      </trkpt>
      <trkpt lat="50.40242" lon="3.50206">
        <ele>26.092895507812</ele>
        <time>2010-05-16T10:03:14Z</time>
      </trkpt>
      <trkpt lat="50.40261" lon="3.502">
        <ele>27.054321289062</ele>
        <time>2010-05-16T10:03:19Z</time>
      </trkpt>
      <trkpt lat="50.40279" lon="3.50203">
        <ele>28.015502929688</ele>
        <time>2010-05-16T10:03:24Z</time>
      </trkpt>
      <trkpt lat="50.40302" lon="3.50214">
        <ele>28.976928710938</ele>
        <time>2010-05-16T10:03:31Z</time>
      </trkpt>
      <trkpt lat="50.40322" lon="3.50215">
        <ele>30.418823242188</ele>
        <time>2010-05-16T10:03:37Z</time>
      </trkpt>
      <trkpt lat="50.40341" lon="3.50203">
        <ele>32.822265625</ele>
        <time>2010-05-16T10:03:44Z</time>
      </trkpt>
      <trkpt lat="50.40366" lon="3.50184">
        <ele>34.26416015625</ele>
        <time>2010-05-16T10:03:54Z</time>
      </trkpt>
      <trkpt lat="50.40387" lon="3.50173">
        <ele>36.66748046875</ele>
        <time>2010-05-16T10:04:02Z</time>
      </trkpt>
      <trkpt lat="50.40402" lon="3.5016">
        <ele>39.55126953125</ele>
        <time>2010-05-16T10:04:09Z</time>
      </trkpt>
      <trkpt lat="50.40414" lon="3.50146">
        <ele>41.473999023438</ele>
        <time>2010-05-16T10:04:16Z</time>
      </trkpt>
      <trkpt lat="50.40425" lon="3.50126">
        <ele>43.396606445312</ele>
        <time>2010-05-16T10:04:23Z</time>
      </trkpt>
      <trkpt lat="50.40429" lon="3.50118">
        <ele>43.877319335938</ele>
        <time>2010-05-16T10:04:26Z</time>
      </trkpt>
      <trkpt lat="50.40432" lon="3.50103">
        <ele>46.280639648438</ele>
        <time>2010-05-16T10:04:31Z</time>
      </trkpt>
      <trkpt lat="50.40432" lon="3.50085">
        <ele>47.722534179688</ele>
        <time>2010-05-16T10:04:37Z</time>
      </trkpt>
      <trkpt lat="50.40425" lon="3.50056">
        <ele>51.087158203125</ele>
        <time>2010-05-16T10:04:45Z</time>
      </trkpt>
      <trkpt lat="50.40418" lon="3.50035">
        <ele>53.97119140625</ele>
        <time>2010-05-16T10:04:51Z</time>
      </trkpt>
      <trkpt lat="50.40408" lon="3.50011">
        <ele>56.855102539062</ele>
        <time>2010-05-16T10:04:58Z</time>
      </trkpt>
      <trkpt lat="50.40398" lon="3.49986">
        <ele>57.335815429688</ele>
        <time>2010-05-16T10:05:06Z</time>
      </trkpt>
      <trkpt lat="50.40385" lon="3.49966">
        <ele>58.777709960938</ele>
        <time>2010-05-16T10:05:13Z</time>
      </trkpt>
      <trkpt lat="50.40372" lon="3.49954">
        <ele>59.739135742188</ele>
        <time>2010-05-16T10:05:19Z</time>
      </trkpt>
      <trkpt lat="50.40354" lon="3.49945">
        <ele>62.142333984375</ele>
        <time>2010-05-16T10:05:26Z</time>
      </trkpt>
      <trkpt lat="50.40335" lon="3.49944">
        <ele>62.622924804688</ele>
        <time>2010-05-16T10:05:34Z</time>
      </trkpt>
      <trkpt lat="50.40317" lon="3.49953">
        <ele>64.065063476562</ele>
        <time>2010-05-16T10:05:41Z</time>
      </trkpt>
      <trkpt lat="50.40304" lon="3.4997">
        <ele>65.987670898438</ele>
        <time>2010-05-16T10:05:48Z</time>
      </trkpt>
      <trkpt lat="50.40298" lon="3.49986">
        <ele>67.910278320312</ele>
        <time>2010-05-16T10:05:53Z</time>
      </trkpt>
      <trkpt lat="50.40294" lon="3.50014">
        <ele>70.3134765625</ele>
        <time>2010-05-16T10:06:00Z</time>
      </trkpt>
      <trkpt lat="50.40294" lon="3.50018">
        <ele>70.3134765625</ele>
        <time>2010-05-16T10:06:01Z</time>
      </trkpt>
      <trkpt lat="50.40302" lon="3.50018">
        <ele>70.794189453125</ele>
        <time>2010-05-16T10:06:05Z</time>
      </trkpt>
      <trkpt lat="50.40306" lon="3.50012">
        <ele>71.27490234375</ele>
        <time>2010-05-16T10:06:08Z</time>
      </trkpt>
      <trkpt lat="50.40312" lon="3.50002">
        <ele>70.794189453125</ele>
        <time>2010-05-16T10:06:11Z</time>
      </trkpt>
      <trkpt lat="50.4033" lon="3.49988">
        <ele>70.794189453125</ele>
        <time>2010-05-16T10:06:16Z</time>
      </trkpt>
      <trkpt lat="50.40334" lon="3.49987">
        <ele>70.3134765625</ele>
        <time>2010-05-16T10:06:17Z</time>
      </trkpt>
      <trkpt lat="50.40356" lon="3.49984">
        <ele>70.3134765625</ele>
        <time>2010-05-16T10:06:23Z</time>
      </trkpt>
      <trkpt lat="50.40369" lon="3.49996">
        <ele>70.3134765625</ele>
        <time>2010-05-16T10:06:27Z</time>
      </trkpt>
      <trkpt lat="50.40382" lon="3.5002">
        <ele>69.832885742188</ele>
        <time>2010-05-16T10:06:32Z</time>
      </trkpt>
      <trkpt lat="50.40394" lon="3.50051">
        <ele>69.832885742188</ele>
        <time>2010-05-16T10:06:39Z</time>
      </trkpt>
      <trkpt lat="50.40398" lon="3.5006">
        <ele>69.352294921875</ele>
        <time>2010-05-16T10:06:42Z</time>
      </trkpt>
      <trkpt lat="50.40397" lon="3.50077">
        <ele>68.87158203125</ele>
        <time>2010-05-16T10:06:45Z</time>
      </trkpt>
      <trkpt lat="50.40383" lon="3.501">
        <ele>67.4296875</ele>
        <time>2010-05-16T10:06:49Z</time>
      </trkpt>
      <trkpt lat="50.40375" lon="3.50095">
        <ele>66.46826171875</ele>
        <time>2010-05-16T10:06:52Z</time>
      </trkpt>
      <trkpt lat="50.40369" lon="3.50095">
        <ele>66.46826171875</ele>
        <time>2010-05-16T10:06:54Z</time>
      </trkpt>
      <trkpt lat="50.40346" lon="3.501">
        <ele>65.507080078125</ele>
        <time>2010-05-16T10:07:00Z</time>
      </trkpt>
      <trkpt lat="50.40326" lon="3.50101">
        <ele>65.0263671875</ele>
        <time>2010-05-16T10:07:06Z</time>
      </trkpt>
      <trkpt lat="50.4031" lon="3.50099">
        <ele>64.545654296875</ele>
        <time>2010-05-16T10:07:11Z</time>
      </trkpt>
      <trkpt lat="50.40296" lon="3.50089">
        <ele>64.065063476562</ele>
        <time>2010-05-16T10:07:15Z</time>
      </trkpt>
      <trkpt lat="50.40285" lon="3.50069">
        <ele>64.065063476562</ele>
        <time>2010-05-16T10:07:19Z</time>
      </trkpt>
      <trkpt lat="50.40279" lon="3.5003">
        <ele>64.065063476562</ele>
        <time>2010-05-16T10:07:24Z</time>
      </trkpt>
      <trkpt lat="50.40284" lon="3.50007">
        <ele>64.065063476562</ele>
        <time>2010-05-16T10:07:27Z</time>
      </trkpt>
      <trkpt lat="50.40293" lon="3.49981">
        <ele>64.065063476562</ele>
        <time>2010-05-16T10:07:31Z</time>
      </trkpt>
      <trkpt lat="50.40302" lon="3.49963">
        <ele>64.065063476562</ele>
        <time>2010-05-16T10:07:34Z</time>
      </trkpt>
      <trkpt lat="50.40326" lon="3.49943">
        <ele>62.142333984375</ele>
        <time>2010-05-16T10:07:40Z</time>
      </trkpt>
      <trkpt lat="50.40328" lon="3.4994">
        <ele>62.142333984375</ele>
        <time>2010-05-16T10:07:42Z</time>
      </trkpt>
      <trkpt lat="50.40318" lon="3.49933">
        <ele>59.739135742188</ele>
        <time>2010-05-16T10:07:46Z</time>
      </trkpt>
      <trkpt lat="50.40294" lon="3.49934">
        <ele>54.451782226562</ele>
        <time>2010-05-16T10:07:50Z</time>
      </trkpt>
      <trkpt lat="50.40285" lon="3.49944">
        <ele>51.56787109375</ele>
        <time>2010-05-16T10:07:52Z</time>
      </trkpt>
      <trkpt lat="50.40268" lon="3.4997">
        <ele>44.838623046875</ele>
        <time>2010-05-16T10:07:57Z</time>
      </trkpt>
      <trkpt lat="50.40262" lon="3.49984">
        <ele>42.435424804688</ele>
        <time>2010-05-16T10:07:59Z</time>
      </trkpt>
      <trkpt lat="50.40249" lon="3.50012">
        <ele>39.070678710938</ele>
        <time>2010-05-16T10:08:03Z</time>
      </trkpt>
      <trkpt lat="50.4024" lon="3.50036">
        <ele>37.148071289062</ele>
        <time>2010-05-16T10:08:06Z</time>
      </trkpt>
      <trkpt lat="50.40239" lon="3.50061">
        <ele>35.7060546875</ele>
        <time>2010-05-16T10:08:09Z</time>
      </trkpt>
      <trkpt lat="50.40237" lon="3.50069">
        <ele>34.26416015625</ele>
        <time>2010-05-16T10:08:10Z</time>
      </trkpt>
      <trkpt lat="50.40227" lon="3.50129">
        <ele>28.496215820312</ele>
        <time>2010-05-16T10:08:15Z</time>
      </trkpt>
      <trkpt lat="50.40234" lon="3.50168">
        <ele>24.170288085938</ele>
        <time>2010-05-16T10:08:19Z</time>
      </trkpt>
      <trkpt lat="50.40244" lon="3.50185">
        <ele>21.766967773438</ele>
        <time>2010-05-16T10:08:22Z</time>
      </trkpt>
      <trkpt lat="50.40248" lon="3.50199">
        <ele>21.766967773438</ele>
        <time>2010-05-16T10:08:26Z</time>
      </trkpt>
      <trkpt lat="50.40248" lon="3.50199">
        <ele>21.286376953125</ele>
        <time>2010-05-16T10:08:27Z</time>
      </trkpt>
      <trkpt lat="50.40248" lon="3.50199">
        <ele>22.728271484375</ele>
        <time>2010-05-16T10:08:36Z</time>
      </trkpt>
      <trkpt lat="50.40244" lon="3.5021">
        <ele>22.728271484375</ele>
        <time>2010-05-16T10:08:40Z</time>
      </trkpt>
      <trkpt lat="50.40245" lon="3.50216">
        <ele>25.6123046875</ele>
        <time>2010-05-16T10:08:45Z</time>
      </trkpt>
      <trkpt lat="50.40251" lon="3.50219">
        <ele>27.054321289062</ele>
        <time>2010-05-16T10:08:47Z</time>
      </trkpt>
      <trkpt lat="50.40277" lon="3.50263">
        <ele>26.573608398438</ele>
        <time>2010-05-16T10:08:53Z</time>
      </trkpt>
      <trkpt lat="50.40283" lon="3.50265">
        <ele>26.092895507812</ele>
        <time>2010-05-16T10:08:54Z</time>
      </trkpt>
      <trkpt lat="50.40316" lon="3.50283">
        <ele>26.573608398438</ele>
        <time>2010-05-16T10:08:59Z</time>
      </trkpt>
      <trkpt lat="50.40333" lon="3.50284">
        <ele>28.015502929688</ele>
        <time>2010-05-16T10:09:02Z</time>
      </trkpt>
      <trkpt lat="50.40337" lon="3.50277">
        <ele>27.534912109375</ele>
        <time>2010-05-16T10:09:03Z</time>
      </trkpt>
      <trkpt lat="50.40345" lon="3.50261">
        <ele>27.534912109375</ele>
        <time>2010-05-16T10:09:05Z</time>
      </trkpt>
      <trkpt lat="50.4037" lon="3.50233">
        <ele>27.054321289062</ele>
        <time>2010-05-16T10:09:10Z</time>
      </trkpt>
      <trkpt lat="50.40408" lon="3.50198">
        <ele>30.899536132812</ele>
        <time>2010-05-16T10:09:17Z</time>
      </trkpt>
      <trkpt lat="50.40441" lon="3.50167">
        <ele>32.341552734375</ele>
        <time>2010-05-16T10:09:23Z</time>
      </trkpt>
      <trkpt lat="50.40446" lon="3.50162">
        <ele>32.341552734375</ele>
        <time>2010-05-16T10:09:24Z</time>
      </trkpt>
      <trkpt lat="50.40455" lon="3.50152">
        <ele>33.302856445312</ele>
        <time>2010-05-16T10:09:26Z</time>
      </trkpt>
      <trkpt lat="50.40469" lon="3.50137">
        <ele>29.45751953125</ele>
        <time>2010-05-16T10:09:29Z</time>
      </trkpt>
      <trkpt lat="50.4051" lon="3.50108">
        <ele>26.092895507812</ele>
        <time>2010-05-16T10:09:35Z</time>
      </trkpt>
      <trkpt lat="50.40528" lon="3.50095">
        <ele>26.573608398438</ele>
        <time>2010-05-16T10:09:38Z</time>
      </trkpt>
      <trkpt lat="50.40541" lon="3.50071">
        <ele>26.092895507812</ele>
        <time>2010-05-16T10:09:42Z</time>
      </trkpt>
      <trkpt lat="50.40542" lon="3.50022">
        <ele>27.534912109375</ele>
        <time>2010-05-16T10:09:48Z</time>
      </trkpt>
      <trkpt lat="50.40542" lon="3.50002">
        <ele>26.573608398438</ele>
        <time>2010-05-16T10:09:50Z</time>
      </trkpt>
      <trkpt lat="50.40543" lon="3.49923">
        <ele>26.092895507812</ele>
        <time>2010-05-16T10:09:56Z</time>
      </trkpt>
      <trkpt lat="50.40543" lon="3.49911">
        <ele>26.092895507812</ele>
        <time>2010-05-16T10:09:57Z</time>
      </trkpt>
      <trkpt lat="50.40523" lon="3.49859">
        <ele>26.573608398438</ele>
        <time>2010-05-16T10:10:02Z</time>
      </trkpt>
      <trkpt lat="50.40515" lon="3.49837">
        <ele>27.054321289062</ele>
        <time>2010-05-16T10:10:04Z</time>
      </trkpt>
      <trkpt lat="50.40514" lon="3.49809">
        <ele>28.976928710938</ele>
        <time>2010-05-16T10:10:07Z</time>
      </trkpt>
      <trkpt lat="50.40522" lon="3.49803">
        <ele>29.938110351562</ele>
        <time>2010-05-16T10:10:10Z</time>
      </trkpt>
      <trkpt lat="50.40533" lon="3.4979">
        <ele>28.496215820312</ele>
        <time>2010-05-16T10:10:13Z</time>
      </trkpt>
      <trkpt lat="50.40544" lon="3.49778">
        <ele>26.573608398438</ele>
        <time>2010-05-16T10:10:15Z</time>
      </trkpt>
      <trkpt lat="50.40568" lon="3.49742">
        <ele>25.131713867188</ele>
        <time>2010-05-16T10:10:20Z</time>
      </trkpt>
      <trkpt lat="50.40582" lon="3.49718">
        <ele>25.6123046875</ele>
        <time>2010-05-16T10:10:23Z</time>
      </trkpt>
      <trkpt lat="50.40616" lon="3.49661">
        <ele>24.170288085938</ele>
        <time>2010-05-16T10:10:30Z</time>
      </trkpt>
      <trkpt lat="50.40621" lon="3.49652">
        <ele>24.651000976562</ele>
        <time>2010-05-16T10:10:31Z</time>
      </trkpt>
      <trkpt lat="50.40643" lon="3.49621">
        <ele>24.170288085938</ele>
        <time>2010-05-16T10:10:35Z</time>
      </trkpt>
      <trkpt lat="50.40655" lon="3.49589">
        <ele>23.208984375</ele>
        <time>2010-05-16T10:10:38Z</time>
      </trkpt>
      <trkpt lat="50.40664" lon="3.49552">
        <ele>23.208984375</ele>
        <time>2010-05-16T10:10:41Z</time>
      </trkpt>
      <trkpt lat="50.40667" lon="3.49513">
        <ele>24.651000976562</ele>
        <time>2010-05-16T10:10:44Z</time>
      </trkpt>
      <trkpt lat="50.40656" lon="3.49453">
        <ele>28.015502929688</ele>
        <time>2010-05-16T10:10:49Z</time>
      </trkpt>
      <trkpt lat="50.40639" lon="3.49428">
        <ele>27.534912109375</ele>
        <time>2010-05-16T10:10:52Z</time>
      </trkpt>
      <trkpt lat="50.40634" lon="3.49408">
        <ele>28.496215820312</ele>
        <time>2010-05-16T10:10:54Z</time>
      </trkpt>
      <trkpt lat="50.40632" lon="3.49386">
        <ele>28.496215820312</ele>
        <time>2010-05-16T10:10:56Z</time>
      </trkpt>
      <trkpt lat="50.40629" lon="3.49326">
        <ele>30.418823242188</ele>
        <time>2010-05-16T10:11:01Z</time>
      </trkpt>
      <trkpt lat="50.40629" lon="3.49276">
        <ele>34.26416015625</ele>
        <time>2010-05-16T10:11:05Z</time>
      </trkpt>
      <trkpt lat="50.40634" lon="3.4923">
        <ele>37.148071289062</ele>
        <time>2010-05-16T10:11:09Z</time>
      </trkpt>
      <trkpt lat="50.40625" lon="3.49201">
        <ele>36.66748046875</ele>
        <time>2010-05-16T10:11:13Z</time>
      </trkpt>
      <trkpt lat="50.40603" lon="3.49193">
        <ele>35.225463867188</ele>
        <time>2010-05-16T10:11:17Z</time>
      </trkpt>
      <trkpt lat="50.40583" lon="3.49201">
        <ele>33.783447265625</ele>
        <time>2010-05-16T10:11:20Z</time>
      </trkpt>
      <trkpt lat="50.40566" lon="3.49214">
        <ele>32.341552734375</ele>
        <time>2010-05-16T10:11:23Z</time>
      </trkpt>
      <trkpt lat="50.4055" lon="3.49235">
        <ele>30.899536132812</ele>
        <time>2010-05-16T10:11:26Z</time>
      </trkpt>
      <trkpt lat="50.40536" lon="3.49265">
        <ele>28.976928710938</ele>
        <time>2010-05-16T10:11:29Z</time>
      </trkpt>
      <trkpt lat="50.40509" lon="3.49294">
        <ele>28.976928710938</ele>
        <time>2010-05-16T10:11:33Z</time>
      </trkpt>
      <trkpt lat="50.40501" lon="3.49299">
        <ele>28.496215820312</ele>
        <time>2010-05-16T10:11:34Z</time>
      </trkpt>
      <trkpt lat="50.40472" lon="3.49312">
        <ele>28.015502929688</ele>
        <time>2010-05-16T10:11:38Z</time>
      </trkpt>
      <trkpt lat="50.4045" lon="3.49291">
        <ele>27.054321289062</ele>
        <time>2010-05-16T10:11:42Z</time>
      </trkpt>
      <trkpt lat="50.40434" lon="3.49253">
        <ele>28.976928710938</ele>
        <time>2010-05-16T10:11:46Z</time>
      </trkpt>
      <trkpt lat="50.4042" lon="3.4923">
        <ele>32.341552734375</ele>
        <time>2010-05-16T10:11:49Z</time>
      </trkpt>
      <trkpt lat="50.40402" lon="3.49186">
        <ele>39.070678710938</ele>
        <time>2010-05-16T10:11:54Z</time>
      </trkpt>
      <trkpt lat="50.40411" lon="3.49151">
        <ele>40.512817382812</ele>
        <time>2010-05-16T10:11:58Z</time>
      </trkpt>
      <trkpt lat="50.40452" lon="3.49096">
        <ele>42.916015625</ele>
        <time>2010-05-16T10:12:06Z</time>
      </trkpt>
      <trkpt lat="50.40476" lon="3.49062">
        <ele>41.954711914062</ele>
        <time>2010-05-16T10:12:11Z</time>
      </trkpt>
      <trkpt lat="50.40491" lon="3.49031">
        <ele>38.590087890625</ele>
        <time>2010-05-16T10:12:15Z</time>
      </trkpt>
      <trkpt lat="50.40499" lon="3.49008">
        <ele>36.66748046875</ele>
        <time>2010-05-16T10:12:18Z</time>
      </trkpt>
      <trkpt lat="50.4048" lon="3.48989">
        <ele>31.860717773438</ele>
        <time>2010-05-16T10:12:22Z</time>
      </trkpt>
      <trkpt lat="50.40467" lon="3.48977">
        <ele>29.938110351562</ele>
        <time>2010-05-16T10:12:24Z</time>
      </trkpt>
      <trkpt lat="50.40421" lon="3.48945">
        <ele>20.8056640625</ele>
        <time>2010-05-16T10:12:31Z</time>
      </trkpt>
      <trkpt lat="50.40401" lon="3.48934">
        <ele>15.9990234375</ele>
        <time>2010-05-16T10:12:34Z</time>
      </trkpt>
      <trkpt lat="50.4039" lon="3.48914">
        <ele>14.557006835938</ele>
        <time>2010-05-16T10:12:38Z</time>
      </trkpt>
      <trkpt lat="50.40395" lon="3.48899">
        <ele>19.36376953125</ele>
        <time>2010-05-16T10:12:40Z</time>
      </trkpt>
      <trkpt lat="50.40401" lon="3.48883">
        <ele>20.324951171875</ele>
        <time>2010-05-16T10:12:42Z</time>
      </trkpt>
      <trkpt lat="50.4042" lon="3.48842">
        <ele>19.844360351562</ele>
        <time>2010-05-16T10:12:47Z</time>
      </trkpt>
      <trkpt lat="50.40439" lon="3.48799">
        <ele>23.208984375</ele>
        <time>2010-05-16T10:12:52Z</time>
      </trkpt>
      <trkpt lat="50.40462" lon="3.48747">
        <ele>24.651000976562</ele>
        <time>2010-05-16T10:12:58Z</time>
      </trkpt>
      <trkpt lat="50.40474" lon="3.48718">
        <ele>20.8056640625</ele>
        <time>2010-05-16T10:13:02Z</time>
      </trkpt>
      <trkpt lat="50.40487" lon="3.4869">
        <ele>18.40234375</ele>
        <time>2010-05-16T10:13:06Z</time>
      </trkpt>
      <trkpt lat="50.40506" lon="3.48659">
        <ele>21.286376953125</ele>
        <time>2010-05-16T10:13:12Z</time>
      </trkpt>
      <trkpt lat="50.40526" lon="3.48629">
        <ele>20.8056640625</ele>
        <time>2010-05-16T10:13:17Z</time>
      </trkpt>
      <trkpt lat="50.40534" lon="3.48611">
        <ele>21.286376953125</ele>
        <time>2010-05-16T10:13:19Z</time>
      </trkpt>
      <trkpt lat="50.40571" lon="3.48533">
        <ele>18.883056640625</ele>
        <time>2010-05-16T10:13:27Z</time>
      </trkpt>
      <trkpt lat="50.40585" lon="3.48503">
        <ele>17.441162109375</ele>
        <time>2010-05-16T10:13:30Z</time>
      </trkpt>
      <trkpt lat="50.40612" lon="3.48442">
        <ele>18.40234375</ele>
        <time>2010-05-16T10:13:36Z</time>
      </trkpt>
      <trkpt lat="50.40644" lon="3.48371">
        <ele>19.36376953125</ele>
        <time>2010-05-16T10:13:43Z</time>
      </trkpt>
      <trkpt lat="50.40665" lon="3.4832">
        <ele>19.844360351562</ele>
        <time>2010-05-16T10:13:48Z</time>
      </trkpt>
      <trkpt lat="50.40687" lon="3.48272">
        <ele>19.36376953125</ele>
        <time>2010-05-16T10:13:53Z</time>
      </trkpt>
      <trkpt lat="50.4071" lon="3.48219">
        <ele>18.883056640625</ele>
        <time>2010-05-16T10:13:59Z</time>
      </trkpt>
      <trkpt lat="50.40716" lon="3.48202">
        <ele>18.40234375</ele>
        <time>2010-05-16T10:14:01Z</time>
      </trkpt>
      <trkpt lat="50.40743" lon="3.48141">
        <ele>17.441162109375</ele>
        <time>2010-05-16T10:14:08Z</time>
      </trkpt>
      <trkpt lat="50.40747" lon="3.48133">
        <ele>17.441162109375</ele>
        <time>2010-05-16T10:14:09Z</time>
      </trkpt>
      <trkpt lat="50.40763" lon="3.48096">
        <ele>18.883056640625</ele>
        <time>2010-05-16T10:14:14Z</time>
      </trkpt>
      <trkpt lat="50.40781" lon="3.48055">
        <ele>16.96044921875</ele>
        <time>2010-05-16T10:14:20Z</time>
      </trkpt>
      <trkpt lat="50.40784" lon="3.48048">
        <ele>16.96044921875</ele>
        <time>2010-05-16T10:14:21Z</time>
      </trkpt>
      <trkpt lat="50.40799" lon="3.48012">
        <ele>17.921752929688</ele>
        <time>2010-05-16T10:14:26Z</time>
      </trkpt>
      <trkpt lat="50.40813" lon="3.47984">
        <ele>18.40234375</ele>
        <time>2010-05-16T10:14:30Z</time>
      </trkpt>
      <trkpt lat="50.40837" lon="3.47932">
        <ele>18.40234375</ele>
        <time>2010-05-16T10:14:37Z</time>
      </trkpt>
      <trkpt lat="50.40862" lon="3.47874">
        <ele>19.36376953125</ele>
        <time>2010-05-16T10:14:44Z</time>
      </trkpt>
      <trkpt lat="50.40886" lon="3.4783">
        <ele>21.766967773438</ele>
        <time>2010-05-16T10:14:50Z</time>
      </trkpt>
      <trkpt lat="50.40894" lon="3.47818">
        <ele>22.728271484375</ele>
        <time>2010-05-16T10:14:52Z</time>
      </trkpt>
      <trkpt lat="50.40914" lon="3.47786">
        <ele>24.170288085938</ele>
        <time>2010-05-16T10:14:57Z</time>
      </trkpt>
      <trkpt lat="50.40928" lon="3.47769">
        <ele>26.092895507812</ele>
        <time>2010-05-16T10:15:00Z</time>
      </trkpt>
      <trkpt lat="50.40937" lon="3.47756">
        <ele>25.6123046875</ele>
        <time>2010-05-16T10:15:02Z</time>
      </trkpt>
      <trkpt lat="50.40946" lon="3.47743">
        <ele>26.092895507812</ele>
        <time>2010-05-16T10:15:04Z</time>
      </trkpt>
      <trkpt lat="50.4096" lon="3.47725">
        <ele>28.015502929688</ele>
        <time>2010-05-16T10:15:07Z</time>
      </trkpt>
      <trkpt lat="50.4099" lon="3.47689">
        <ele>29.45751953125</ele>
        <time>2010-05-16T10:15:13Z</time>
      </trkpt>
      <trkpt lat="50.41027" lon="3.47648">
        <ele>30.899536132812</ele>
        <time>2010-05-16T10:15:20Z</time>
      </trkpt>
      <trkpt lat="50.41061" lon="3.47616">
        <ele>31.860717773438</ele>
        <time>2010-05-16T10:15:26Z</time>
      </trkpt>
      <trkpt lat="50.41096" lon="3.47583">
        <ele>29.45751953125</ele>
        <time>2010-05-16T10:15:32Z</time>
      </trkpt>
      <trkpt lat="50.4114" lon="3.4754">
        <ele>30.418823242188</ele>
        <time>2010-05-16T10:15:40Z</time>
      </trkpt>
      <trkpt lat="50.41167" lon="3.47517">
        <ele>31.860717773438</ele>
        <time>2010-05-16T10:15:45Z</time>
      </trkpt>
      <trkpt lat="50.41197" lon="3.47491">
        <ele>30.418823242188</ele>
        <time>2010-05-16T10:15:50Z</time>
      </trkpt>
      <trkpt lat="50.41246" lon="3.47446">
        <ele>30.418823242188</ele>
        <time>2010-05-16T10:15:58Z</time>
      </trkpt>
      <trkpt lat="50.41276" lon="3.47417">
        <ele>30.899536132812</ele>
        <time>2010-05-16T10:16:03Z</time>
      </trkpt>
      <trkpt lat="50.41312" lon="3.47385">
        <ele>32.341552734375</ele>
        <time>2010-05-16T10:16:09Z</time>
      </trkpt>
      <trkpt lat="50.41348" lon="3.47354">
        <ele>32.341552734375</ele>
        <time>2010-05-16T10:16:15Z</time>
      </trkpt>
      <trkpt lat="50.41384" lon="3.47321">
        <ele>33.302856445312</ele>
        <time>2010-05-16T10:16:21Z</time>
      </trkpt>
      <trkpt lat="50.4139" lon="3.47316">
        <ele>33.302856445312</ele>
        <time>2010-05-16T10:16:22Z</time>
      </trkpt>
      <trkpt lat="50.41424" lon="3.47285">
        <ele>34.26416015625</ele>
        <time>2010-05-16T10:16:28Z</time>
      </trkpt>
      <trkpt lat="50.4147" lon="3.47242">
        <ele>34.744873046875</ele>
        <time>2010-05-16T10:16:35Z</time>
      </trkpt>
      <trkpt lat="50.41517" lon="3.47198">
        <ele>30.418823242188</ele>
        <time>2010-05-16T10:16:42Z</time>
      </trkpt>
      <trkpt lat="50.41555" lon="3.47163">
        <ele>29.45751953125</ele>
        <time>2010-05-16T10:16:48Z</time>
      </trkpt>
      <trkpt lat="50.41567" lon="3.4715">
        <ele>28.976928710938</ele>
        <time>2010-05-16T10:16:50Z</time>
      </trkpt>
      <trkpt lat="50.41598" lon="3.4712">
        <ele>31.380126953125</ele>
        <time>2010-05-16T10:16:56Z</time>
      </trkpt>
      <trkpt lat="50.41622" lon="3.471">
        <ele>31.860717773438</ele>
        <time>2010-05-16T10:17:00Z</time>
      </trkpt>
      <trkpt lat="50.41665" lon="3.47063">
        <ele>28.496215820312</ele>
        <time>2010-05-16T10:17:07Z</time>
      </trkpt>
      <trkpt lat="50.41696" lon="3.47032">
        <ele>27.534912109375</ele>
        <time>2010-05-16T10:17:13Z</time>
      </trkpt>
      <trkpt lat="50.41701" lon="3.47005">
        <ele>27.054321289062</ele>
        <time>2010-05-16T10:17:17Z</time>
      </trkpt>
      <trkpt lat="50.4169" lon="3.46999">
        <ele>25.6123046875</ele>
        <time>2010-05-16T10:17:20Z</time>
      </trkpt>
      <trkpt lat="50.41674" lon="3.47">
        <ele>25.131713867188</ele>
        <time>2010-05-16T10:17:23Z</time>
      </trkpt>
      <trkpt lat="50.41625" lon="3.47005">
        <ele>24.651000976562</ele>
        <time>2010-05-16T10:17:31Z</time>
      </trkpt>
      <trkpt lat="50.4159" lon="3.47011">
        <ele>23.208984375</ele>
        <time>2010-05-16T10:17:36Z</time>
      </trkpt>
      <trkpt lat="50.41536" lon="3.47017">
        <ele>22.24755859375</ele>
        <time>2010-05-16T10:17:43Z</time>
      </trkpt>
      <trkpt lat="50.41512" lon="3.4702">
        <ele>19.36376953125</ele>
        <time>2010-05-16T10:17:46Z</time>
      </trkpt>
      <trkpt lat="50.41473" lon="3.47026">
        <ele>12.634399414062</ele>
        <time>2010-05-16T10:17:51Z</time>
      </trkpt>
      <trkpt lat="50.41417" lon="3.47032">
        <ele>4.94384765625</ele>
        <time>2010-05-16T10:17:58Z</time>
      </trkpt>
      <trkpt lat="50.41382" lon="3.47034">
        <ele>9.2698974609375</ele>
        <time>2010-05-16T10:18:02Z</time>
      </trkpt>
      <trkpt lat="50.41314" lon="3.4704">
        <ele>12.634399414062</ele>
        <time>2010-05-16T10:18:10Z</time>
      </trkpt>
      <trkpt lat="50.41256" lon="3.47047">
        <ele>15.037719726562</ele>
        <time>2010-05-16T10:18:17Z</time>
      </trkpt>
      <trkpt lat="50.41206" lon="3.47053">
        <ele>15.9990234375</ele>
        <time>2010-05-16T10:18:24Z</time>
      </trkpt>
      <trkpt lat="50.41152" lon="3.4706">
        <ele>16.479736328125</ele>
        <time>2010-05-16T10:18:32Z</time>
      </trkpt>
      <trkpt lat="50.41105" lon="3.47066">
        <ele>16.96044921875</ele>
        <time>2010-05-16T10:18:39Z</time>
      </trkpt>
      <trkpt lat="50.41075" lon="3.47069">
        <ele>16.96044921875</ele>
        <time>2010-05-16T10:18:44Z</time>
      </trkpt>
      <trkpt lat="50.41051" lon="3.4708">
        <ele>18.40234375</ele>
        <time>2010-05-16T10:18:49Z</time>
      </trkpt>
      <trkpt lat="50.41048" lon="3.47098">
        <ele>19.36376953125</ele>
        <time>2010-05-16T10:18:52Z</time>
      </trkpt>
      <trkpt lat="50.4105" lon="3.47137">
        <ele>21.766967773438</ele>
        <time>2010-05-16T10:18:57Z</time>
      </trkpt>
      <trkpt lat="50.41061" lon="3.47158">
        <ele>25.6123046875</ele>
        <time>2010-05-16T10:19:01Z</time>
      </trkpt>
      <trkpt lat="50.41071" lon="3.47178">
        <ele>25.6123046875</ele>
        <time>2010-05-16T10:19:05Z</time>
      </trkpt>
      <trkpt lat="50.41078" lon="3.47226">
        <ele>24.170288085938</ele>
        <time>2010-05-16T10:19:12Z</time>
      </trkpt>
      <trkpt lat="50.41078" lon="3.47251">
        <ele>25.131713867188</ele>
        <time>2010-05-16T10:19:16Z</time>
      </trkpt>
      <trkpt lat="50.41069" lon="3.47268">
        <ele>23.689575195312</ele>
        <time>2010-05-16T10:19:20Z</time>
      </trkpt>
      <trkpt lat="50.41056" lon="3.4728">
        <ele>23.208984375</ele>
        <time>2010-05-16T10:19:25Z</time>
      </trkpt>
      <trkpt lat="50.41037" lon="3.47287">
        <ele>21.766967773438</ele>
        <time>2010-05-16T10:19:30Z</time>
      </trkpt>
      <trkpt lat="50.41023" lon="3.47299">
        <ele>21.286376953125</ele>
        <time>2010-05-16T10:19:34Z</time>
      </trkpt>
      <trkpt lat="50.4101" lon="3.47315">
        <ele>24.651000976562</ele>
        <time>2010-05-16T10:19:39Z</time>
      </trkpt>
      <trkpt lat="50.4099" lon="3.47316">
        <ele>28.015502929688</ele>
        <time>2010-05-16T10:19:44Z</time>
      </trkpt>
      <trkpt lat="50.40976" lon="3.4732">
        <ele>28.976928710938</ele>
        <time>2010-05-16T10:19:48Z</time>
      </trkpt>
      <trkpt lat="50.40958" lon="3.47314">
        <ele>28.976928710938</ele>
        <time>2010-05-16T10:19:53Z</time>
      </trkpt>
      <trkpt lat="50.40942" lon="3.47309">
        <ele>30.418823242188</ele>
        <time>2010-05-16T10:19:57Z</time>
      </trkpt>
      <trkpt lat="50.40923" lon="3.47296">
        <ele>26.573608398438</ele>
        <time>2010-05-16T10:20:02Z</time>
      </trkpt>
      <trkpt lat="50.40918" lon="3.4728">
        <ele>20.324951171875</ele>
        <time>2010-05-16T10:20:05Z</time>
      </trkpt>
      <trkpt lat="50.40915" lon="3.47251">
        <ele>15.518432617188</ele>
        <time>2010-05-16T10:20:10Z</time>
      </trkpt>
      <trkpt lat="50.40915" lon="3.47233">
        <ele>15.518432617188</ele>
        <time>2010-05-16T10:20:13Z</time>
      </trkpt>
      <trkpt lat="50.40918" lon="3.47201">
        <ele>15.518432617188</ele>
        <time>2010-05-16T10:20:18Z</time>
      </trkpt>
      <trkpt lat="50.40916" lon="3.47172">
        <ele>16.479736328125</ele>
        <time>2010-05-16T10:20:23Z</time>
      </trkpt>
      <trkpt lat="50.40903" lon="3.47139">
        <ele>20.8056640625</ele>
        <time>2010-05-16T10:20:28Z</time>
      </trkpt>
      <trkpt lat="50.40881" lon="3.47116">
        <ele>24.651000976562</ele>
        <time>2010-05-16T10:20:31Z</time>
      </trkpt>
      <trkpt lat="50.40868" lon="3.47102">
        <ele>22.728271484375</ele>
        <time>2010-05-16T10:20:33Z</time>
      </trkpt>
      <trkpt lat="50.40839" lon="3.47093">
        <ele>17.921752929688</ele>
        <time>2010-05-16T10:20:37Z</time>
      </trkpt>
      <trkpt lat="50.40762" lon="3.471">
        <ele>13.595825195312</ele>
        <time>2010-05-16T10:20:47Z</time>
      </trkpt>
      <trkpt lat="50.40712" lon="3.47104">
        <ele>14.076416015625</ele>
        <time>2010-05-16T10:20:54Z</time>
      </trkpt>
      <trkpt lat="50.40687" lon="3.47101">
        <ele>14.557006835938</ele>
        <time>2010-05-16T10:20:58Z</time>
      </trkpt>
      <trkpt lat="50.4068" lon="3.47091">
        <ele>15.037719726562</ele>
        <time>2010-05-16T10:21:00Z</time>
      </trkpt>
      <trkpt lat="50.40679" lon="3.47083">
        <ele>15.518432617188</ele>
        <time>2010-05-16T10:21:01Z</time>
      </trkpt>
      <trkpt lat="50.4067" lon="3.47009">
        <ele>17.441162109375</ele>
        <time>2010-05-16T10:21:08Z</time>
      </trkpt>
      <trkpt lat="50.40654" lon="3.46918">
        <ele>18.40234375</ele>
        <time>2010-05-16T10:21:17Z</time>
      </trkpt>
      <trkpt lat="50.40653" lon="3.46908">
        <ele>17.921752929688</ele>
        <time>2010-05-16T10:21:18Z</time>
      </trkpt>
      <trkpt lat="50.40644" lon="3.4686">
        <ele>18.40234375</ele>
        <time>2010-05-16T10:21:24Z</time>
      </trkpt>
      <trkpt lat="50.40635" lon="3.46811">
        <ele>19.36376953125</ele>
        <time>2010-05-16T10:21:31Z</time>
      </trkpt>
      <trkpt lat="50.40622" lon="3.46744">
        <ele>21.766967773438</ele>
        <time>2010-05-16T10:21:40Z</time>
      </trkpt>
      <trkpt lat="50.40616" lon="3.46706">
        <ele>20.8056640625</ele>
        <time>2010-05-16T10:21:45Z</time>
      </trkpt>
      <trkpt lat="50.40611" lon="3.46685">
        <ele>20.8056640625</ele>
        <time>2010-05-16T10:21:48Z</time>
      </trkpt>
      <trkpt lat="50.40604" lon="3.46648">
        <ele>22.728271484375</ele>
        <time>2010-05-16T10:21:54Z</time>
      </trkpt>
      <trkpt lat="50.40594" lon="3.46592">
        <ele>23.689575195312</ele>
        <time>2010-05-16T10:22:02Z</time>
      </trkpt>
      <trkpt lat="50.40587" lon="3.46549">
        <ele>24.170288085938</ele>
        <time>2010-05-16T10:22:08Z</time>
      </trkpt>
      <trkpt lat="50.40577" lon="3.46489">
        <ele>25.6123046875</ele>
        <time>2010-05-16T10:22:16Z</time>
      </trkpt>
      <trkpt lat="50.40564" lon="3.46418">
        <ele>24.651000976562</ele>
        <time>2010-05-16T10:22:25Z</time>
      </trkpt>
      <trkpt lat="50.4056" lon="3.46395">
        <ele>24.651000976562</ele>
        <time>2010-05-16T10:22:28Z</time>
      </trkpt>
      <trkpt lat="50.40549" lon="3.46339">
        <ele>24.651000976562</ele>
        <time>2010-05-16T10:22:35Z</time>
      </trkpt>
      <trkpt lat="50.40537" lon="3.46273">
        <ele>25.131713867188</ele>
        <time>2010-05-16T10:22:43Z</time>
      </trkpt>
      <trkpt lat="50.40523" lon="3.46196">
        <ele>27.534912109375</ele>
        <time>2010-05-16T10:22:52Z</time>
      </trkpt>
      <trkpt lat="50.40517" lon="3.4617">
        <ele>28.015502929688</ele>
        <time>2010-05-16T10:22:55Z</time>
      </trkpt>
      <trkpt lat="50.40509" lon="3.46139">
        <ele>27.054321289062</ele>
        <time>2010-05-16T10:22:59Z</time>
      </trkpt>
      <trkpt lat="50.40489" lon="3.46086">
        <ele>25.131713867188</ele>
        <time>2010-05-16T10:23:06Z</time>
      </trkpt>
      <trkpt lat="50.40487" lon="3.46078">
        <ele>24.651000976562</ele>
        <time>2010-05-16T10:23:07Z</time>
      </trkpt>
      <trkpt lat="50.40467" lon="3.45992">
        <ele>24.651000976562</ele>
        <time>2010-05-16T10:23:17Z</time>
      </trkpt>
      <trkpt lat="50.40459" lon="3.45955">
        <ele>25.131713867188</ele>
        <time>2010-05-16T10:23:22Z</time>
      </trkpt>
      <trkpt lat="50.40448" lon="3.45938">
        <ele>25.131713867188</ele>
        <time>2010-05-16T10:23:26Z</time>
      </trkpt>
      <trkpt lat="50.40436" lon="3.45944">
        <ele>25.131713867188</ele>
        <time>2010-05-16T10:23:29Z</time>
      </trkpt>
      <trkpt lat="50.40392" lon="3.45977">
        <ele>26.092895507812</ele>
        <time>2010-05-16T10:23:38Z</time>
      </trkpt>
      <trkpt lat="50.40339" lon="3.46015">
        <ele>27.054321289062</ele>
        <time>2010-05-16T10:23:48Z</time>
      </trkpt>
      <trkpt lat="50.40294" lon="3.46046">
        <ele>25.6123046875</ele>
        <time>2010-05-16T10:23:56Z</time>
      </trkpt>
      <trkpt lat="50.40244" lon="3.46081">
        <ele>25.131713867188</ele>
        <time>2010-05-16T10:24:05Z</time>
      </trkpt>
      <trkpt lat="50.40216" lon="3.46101">
        <ele>25.6123046875</ele>
        <time>2010-05-16T10:24:10Z</time>
      </trkpt>
      <trkpt lat="50.40202" lon="3.46098">
        <ele>25.131713867188</ele>
        <time>2010-05-16T10:24:13Z</time>
      </trkpt>
      <trkpt lat="50.40203" lon="3.46082">
        <ele>25.6123046875</ele>
        <time>2010-05-16T10:24:15Z</time>
      </trkpt>
      <trkpt lat="50.40205" lon="3.46073">
        <ele>26.092895507812</ele>
        <time>2010-05-16T10:24:16Z</time>
      </trkpt>
      <trkpt lat="50.40224" lon="3.46004">
        <ele>25.6123046875</ele>
        <time>2010-05-16T10:24:24Z</time>
      </trkpt>
      <trkpt lat="50.40236" lon="3.4596">
        <ele>24.651000976562</ele>
        <time>2010-05-16T10:24:29Z</time>
      </trkpt>
      <trkpt lat="50.40234" lon="3.45928">
        <ele>24.651000976562</ele>
        <time>2010-05-16T10:24:33Z</time>
      </trkpt>
      <trkpt lat="50.40229" lon="3.45925">
        <ele>24.651000976562</ele>
        <time>2010-05-16T10:24:34Z</time>
      </trkpt>
      <trkpt lat="50.40212" lon="3.45916">
        <ele>24.651000976562</ele>
        <time>2010-05-16T10:24:37Z</time>
      </trkpt>
      <trkpt lat="50.40202" lon="3.45907">
        <ele>23.689575195312</ele>
        <time>2010-05-16T10:24:39Z</time>
      </trkpt>
      <trkpt lat="50.40182" lon="3.45894">
        <ele>23.208984375</ele>
        <time>2010-05-16T10:24:43Z</time>
      </trkpt>
      <trkpt lat="50.40173" lon="3.45899">
        <ele>23.689575195312</ele>
        <time>2010-05-16T10:24:47Z</time>
      </trkpt>
      <trkpt lat="50.40165" lon="3.45907">
        <ele>24.170288085938</ele>
        <time>2010-05-16T10:24:50Z</time>
      </trkpt>
      <trkpt lat="50.40149" lon="3.45908">
        <ele>22.728271484375</ele>
        <time>2010-05-16T10:24:54Z</time>
      </trkpt>
      <trkpt lat="50.40131" lon="3.45906">
        <ele>21.766967773438</ele>
        <time>2010-05-16T10:24:58Z</time>
      </trkpt>
      <trkpt lat="50.40126" lon="3.45891">
        <ele>21.766967773438</ele>
        <time>2010-05-16T10:25:01Z</time>
      </trkpt>
      <trkpt lat="50.40125" lon="3.4587">
        <ele>20.8056640625</ele>
        <time>2010-05-16T10:25:05Z</time>
      </trkpt>
      <trkpt lat="50.40123" lon="3.45865">
        <ele>20.8056640625</ele>
        <time>2010-05-16T10:25:06Z</time>
      </trkpt>
      <trkpt lat="50.40115" lon="3.45845">
        <ele>23.208984375</ele>
        <time>2010-05-16T10:25:12Z</time>
      </trkpt>
      <trkpt lat="50.40113" lon="3.45841">
        <ele>24.170288085938</ele>
        <time>2010-05-16T10:25:13Z</time>
      </trkpt>
      <trkpt lat="50.40117" lon="3.45824">
        <ele>26.573608398438</ele>
        <time>2010-05-16T10:25:18Z</time>
      </trkpt>
      <trkpt lat="50.40123" lon="3.45815">
        <ele>28.496215820312</ele>
        <time>2010-05-16T10:25:23Z</time>
      </trkpt>
      <trkpt lat="50.40133" lon="3.4581">
        <ele>30.899536132812</ele>
        <time>2010-05-16T10:25:27Z</time>
      </trkpt>
      <trkpt lat="50.40146" lon="3.45809">
        <ele>33.302856445312</ele>
        <time>2010-05-16T10:25:29Z</time>
      </trkpt>
      <trkpt lat="50.40168" lon="3.4581">
        <ele>33.783447265625</ele>
        <time>2010-05-16T10:25:32Z</time>
      </trkpt>
      <trkpt lat="50.40188" lon="3.45804">
        <ele>33.783447265625</ele>
        <time>2010-05-16T10:25:36Z</time>
      </trkpt>
      <trkpt lat="50.40187" lon="3.45795">
        <ele>32.822265625</ele>
        <time>2010-05-16T10:25:39Z</time>
      </trkpt>
      <trkpt lat="50.40177" lon="3.45788">
        <ele>29.938110351562</ele>
        <time>2010-05-16T10:25:42Z</time>
      </trkpt>
      <trkpt lat="50.40156" lon="3.45774">
        <ele>25.6123046875</ele>
        <time>2010-05-16T10:25:47Z</time>
      </trkpt>
      <trkpt lat="50.40125" lon="3.45747">
        <ele>21.286376953125</ele>
        <time>2010-05-16T10:25:54Z</time>
      </trkpt>
      <trkpt lat="50.40088" lon="3.45715">
        <ele>20.324951171875</ele>
        <time>2010-05-16T10:26:01Z</time>
      </trkpt>
      <trkpt lat="50.40054" lon="3.45687">
        <ele>17.921752929688</ele>
        <time>2010-05-16T10:26:07Z</time>
      </trkpt>
      <trkpt lat="50.40028" lon="3.45667">
        <ele>15.9990234375</ele>
        <time>2010-05-16T10:26:11Z</time>
      </trkpt>
      <trkpt lat="50.39995" lon="3.45638">
        <ele>14.557006835938</ele>
        <time>2010-05-16T10:26:16Z</time>
      </trkpt>
      <trkpt lat="50.39983" lon="3.45625">
        <ele>15.037719726562</ele>
        <time>2010-05-16T10:26:18Z</time>
      </trkpt>
      <trkpt lat="50.39965" lon="3.45602">
        <ele>16.479736328125</ele>
        <time>2010-05-16T10:26:21Z</time>
      </trkpt>
      <trkpt lat="50.3995" lon="3.45596">
        <ele>17.441162109375</ele>
        <time>2010-05-16T10:26:24Z</time>
      </trkpt>
      <trkpt lat="50.39939" lon="3.45582">
        <ele>16.96044921875</ele>
        <time>2010-05-16T10:26:27Z</time>
      </trkpt>
      <trkpt lat="50.39925" lon="3.45508">
        <ele>15.518432617188</ele>
        <time>2010-05-16T10:26:34Z</time>
      </trkpt>
      <trkpt lat="50.39911" lon="3.45429">
        <ele>13.595825195312</ele>
        <time>2010-05-16T10:26:42Z</time>
      </trkpt>
      <trkpt lat="50.39905" lon="3.45401">
        <ele>15.518432617188</ele>
        <time>2010-05-16T10:26:46Z</time>
      </trkpt>
      <trkpt lat="50.39904" lon="3.45398">
        <ele>15.9990234375</ele>
        <time>2010-05-16T10:26:48Z</time>
      </trkpt>
      <trkpt lat="50.39899" lon="3.45373">
        <ele>22.24755859375</ele>
        <time>2010-05-16T10:26:53Z</time>
      </trkpt>
      <trkpt lat="50.39897" lon="3.45365">
        <ele>22.728271484375</ele>
        <time>2010-05-16T10:26:54Z</time>
      </trkpt>
      <trkpt lat="50.39891" lon="3.4534">
        <ele>25.6123046875</ele>
        <time>2010-05-16T10:26:57Z</time>
      </trkpt>
      <trkpt lat="50.39882" lon="3.45318">
        <ele>28.496215820312</ele>
        <time>2010-05-16T10:27:00Z</time>
      </trkpt>
      <trkpt lat="50.39853" lon="3.45279">
        <ele>29.938110351562</ele>
        <time>2010-05-16T10:27:07Z</time>
      </trkpt>
      <trkpt lat="50.39835" lon="3.45264">
        <ele>28.496215820312</ele>
        <time>2010-05-16T10:27:11Z</time>
      </trkpt>
      <trkpt lat="50.39812" lon="3.45243">
        <ele>28.015502929688</ele>
        <time>2010-05-16T10:27:16Z</time>
      </trkpt>
      <trkpt lat="50.39794" lon="3.45225">
        <ele>27.534912109375</ele>
        <time>2010-05-16T10:27:20Z</time>
      </trkpt>
      <trkpt lat="50.39762" lon="3.45178">
        <ele>27.534912109375</ele>
        <time>2010-05-16T10:27:28Z</time>
      </trkpt>
      <trkpt lat="50.3974" lon="3.4513">
        <ele>30.899536132812</ele>
        <time>2010-05-16T10:27:35Z</time>
      </trkpt>
      <trkpt lat="50.39729" lon="3.451">
        <ele>31.380126953125</ele>
        <time>2010-05-16T10:27:39Z</time>
      </trkpt>
      <trkpt lat="50.39722" lon="3.45086">
        <ele>31.380126953125</ele>
        <time>2010-05-16T10:27:41Z</time>
      </trkpt>
      <trkpt lat="50.39705" lon="3.45042">
        <ele>28.976928710938</ele>
        <time>2010-05-16T10:27:47Z</time>
      </trkpt>
      <trkpt lat="50.39688" lon="3.44997">
        <ele>28.496215820312</ele>
        <time>2010-05-16T10:27:52Z</time>
      </trkpt>
      <trkpt lat="50.39679" lon="3.4497">
        <ele>28.496215820312</ele>
        <time>2010-05-16T10:27:56Z</time>
      </trkpt>
      <trkpt lat="50.39661" lon="3.44927">
        <ele>25.6123046875</ele>
        <time>2010-05-16T10:28:01Z</time>
      </trkpt>
      <trkpt lat="50.39649" lon="3.44901">
        <ele>24.170288085938</ele>
        <time>2010-05-16T10:28:05Z</time>
      </trkpt>
      <trkpt lat="50.39632" lon="3.44887">
        <ele>26.092895507812</ele>
        <time>2010-05-16T10:28:09Z</time>
      </trkpt>
      <trkpt lat="50.39619" lon="3.44876">
        <ele>26.092895507812</ele>
        <time>2010-05-16T10:28:12Z</time>
      </trkpt>
      <trkpt lat="50.39615" lon="3.44874">
        <ele>25.6123046875</ele>
        <time>2010-05-16T10:28:13Z</time>
      </trkpt>
      <trkpt lat="50.39608" lon="3.4487">
        <ele>25.6123046875</ele>
        <time>2010-05-16T10:28:15Z</time>
      </trkpt>
      <trkpt lat="50.39604" lon="3.44855">
        <ele>25.6123046875</ele>
        <time>2010-05-16T10:28:19Z</time>
      </trkpt>
      <trkpt lat="50.39595" lon="3.44813">
        <ele>25.131713867188</ele>
        <time>2010-05-16T10:28:25Z</time>
      </trkpt>
      <trkpt lat="50.39587" lon="3.44761">
        <ele>25.6123046875</ele>
        <time>2010-05-16T10:28:31Z</time>
      </trkpt>
      <trkpt lat="50.3958" lon="3.44719">
        <ele>25.6123046875</ele>
        <time>2010-05-16T10:28:36Z</time>
      </trkpt>
      <trkpt lat="50.39564" lon="3.44678">
        <ele>26.573608398438</ele>
        <time>2010-05-16T10:28:41Z</time>
      </trkpt>
      <trkpt lat="50.39542" lon="3.44624">
        <ele>27.534912109375</ele>
        <time>2010-05-16T10:28:47Z</time>
      </trkpt>
      <trkpt lat="50.39508" lon="3.44538">
        <ele>31.380126953125</ele>
        <time>2010-05-16T10:28:56Z</time>
      </trkpt>
      <trkpt lat="50.39476" lon="3.44462">
        <ele>32.822265625</ele>
        <time>2010-05-16T10:29:04Z</time>
      </trkpt>
      <trkpt lat="50.39441" lon="3.44374">
        <ele>32.822265625</ele>
        <time>2010-05-16T10:29:13Z</time>
      </trkpt>
      <trkpt lat="50.39405" lon="3.44284">
        <ele>32.822265625</ele>
        <time>2010-05-16T10:29:22Z</time>
      </trkpt>
      <trkpt lat="50.39376" lon="3.44212">
        <ele>31.860717773438</ele>
        <time>2010-05-16T10:29:29Z</time>
      </trkpt>
      <trkpt lat="50.39352" lon="3.44149">
        <ele>31.860717773438</ele>
        <time>2010-05-16T10:29:35Z</time>
      </trkpt>
      <trkpt lat="50.39326" lon="3.44086">
        <ele>31.380126953125</ele>
        <time>2010-05-16T10:29:41Z</time>
      </trkpt>
      <trkpt lat="50.39291" lon="3.43994">
        <ele>29.938110351562</ele>
        <time>2010-05-16T10:29:49Z</time>
      </trkpt>
      <trkpt lat="50.39254" lon="3.43904">
        <ele>29.45751953125</ele>
        <time>2010-05-16T10:29:57Z</time>
      </trkpt>
      <trkpt lat="50.39228" lon="3.43838">
        <ele>29.938110351562</ele>
        <time>2010-05-16T10:30:03Z</time>
      </trkpt>
      <trkpt lat="50.39206" lon="3.43782">
        <ele>29.938110351562</ele>
        <time>2010-05-16T10:30:08Z</time>
      </trkpt>
      <trkpt lat="50.39184" lon="3.43721">
        <ele>27.534912109375</ele>
        <time>2010-05-16T10:30:14Z</time>
      </trkpt>
      <trkpt lat="50.39161" lon="3.43667">
        <ele>26.573608398438</ele>
        <time>2010-05-16T10:30:20Z</time>
      </trkpt>
      <trkpt lat="50.39138" lon="3.43614">
        <ele>23.689575195312</ele>
        <time>2010-05-16T10:30:27Z</time>
      </trkpt>
      <trkpt lat="50.39113" lon="3.43554">
        <ele>24.651000976562</ele>
        <time>2010-05-16T10:30:35Z</time>
      </trkpt>
      <trkpt lat="50.39102" lon="3.43528">
        <ele>24.651000976562</ele>
        <time>2010-05-16T10:30:39Z</time>
      </trkpt>
      <trkpt lat="50.39092" lon="3.43503">
        <ele>26.092895507812</ele>
        <time>2010-05-16T10:30:43Z</time>
      </trkpt>
      <trkpt lat="50.3907" lon="3.43447">
        <ele>25.131713867188</ele>
        <time>2010-05-16T10:30:52Z</time>
      </trkpt>
      <trkpt lat="50.39043" lon="3.43379">
        <ele>28.976928710938</ele>
        <time>2010-05-16T10:31:02Z</time>
      </trkpt>
      <trkpt lat="50.39041" lon="3.43373">
        <ele>29.45751953125</ele>
        <time>2010-05-16T10:31:03Z</time>
      </trkpt>
      <trkpt lat="50.39032" lon="3.43344">
        <ele>32.822265625</ele>
        <time>2010-05-16T10:31:08Z</time>
      </trkpt>
      <trkpt lat="50.39032" lon="3.43326">
        <ele>31.380126953125</ele>
        <time>2010-05-16T10:31:11Z</time>
      </trkpt>
      <trkpt lat="50.39021" lon="3.43304">
        <ele>30.899536132812</ele>
        <time>2010-05-16T10:31:16Z</time>
      </trkpt>
      <trkpt lat="50.39015" lon="3.43281">
        <ele>31.380126953125</ele>
        <time>2010-05-16T10:31:19Z</time>
      </trkpt>
      <trkpt lat="50.39007" lon="3.43249">
        <ele>33.783447265625</ele>
        <time>2010-05-16T10:31:23Z</time>
      </trkpt>
      <trkpt lat="50.39" lon="3.43211">
        <ele>36.66748046875</ele>
        <time>2010-05-16T10:31:28Z</time>
      </trkpt>
      <trkpt lat="50.38994" lon="3.43203">
        <ele>36.66748046875</ele>
        <time>2010-05-16T10:31:30Z</time>
      </trkpt>
      <trkpt lat="50.38987" lon="3.43172">
        <ele>34.26416015625</ele>
        <time>2010-05-16T10:31:35Z</time>
      </trkpt>
      <trkpt lat="50.38985" lon="3.43167">
        <ele>33.302856445312</ele>
        <time>2010-05-16T10:31:36Z</time>
      </trkpt>
      <trkpt lat="50.3898" lon="3.43158">
        <ele>29.938110351562</ele>
        <time>2010-05-16T10:31:38Z</time>
      </trkpt>
      <trkpt lat="50.38971" lon="3.43133">
        <ele>26.092895507812</ele>
        <time>2010-05-16T10:31:41Z</time>
      </trkpt>
      <trkpt lat="50.38956" lon="3.43086">
        <ele>24.651000976562</ele>
        <time>2010-05-16T10:31:46Z</time>
      </trkpt>
      <trkpt lat="50.3895" lon="3.43053">
        <ele>25.131713867188</ele>
        <time>2010-05-16T10:31:50Z</time>
      </trkpt>
      <trkpt lat="50.38948" lon="3.43038">
        <ele>24.651000976562</ele>
        <time>2010-05-16T10:31:52Z</time>
      </trkpt>
      <trkpt lat="50.3894" lon="3.43006">
        <ele>24.651000976562</ele>
        <time>2010-05-16T10:31:56Z</time>
      </trkpt>
      <trkpt lat="50.38942" lon="3.42971">
        <ele>25.131713867188</ele>
        <time>2010-05-16T10:32:00Z</time>
      </trkpt>
      <trkpt lat="50.38954" lon="3.42925">
        <ele>28.976928710938</ele>
        <time>2010-05-16T10:32:05Z</time>
      </trkpt>
      <trkpt lat="50.38968" lon="3.42882">
        <ele>30.899536132812</ele>
        <time>2010-05-16T10:32:09Z</time>
      </trkpt>
      <trkpt lat="50.38984" lon="3.42851">
        <ele>24.651000976562</ele>
        <time>2010-05-16T10:32:12Z</time>
      </trkpt>
      <trkpt lat="50.38992" lon="3.4281">
        <ele>21.766967773438</ele>
        <time>2010-05-16T10:32:16Z</time>
      </trkpt>
      <trkpt lat="50.38993" lon="3.4279">
        <ele>22.24755859375</ele>
        <time>2010-05-16T10:32:18Z</time>
      </trkpt>
      <trkpt lat="50.38996" lon="3.42769">
        <ele>20.8056640625</ele>
        <time>2010-05-16T10:32:20Z</time>
      </trkpt>
      <trkpt lat="50.39003" lon="3.42715">
        <ele>17.921752929688</ele>
        <time>2010-05-16T10:32:25Z</time>
      </trkpt>
      <trkpt lat="50.39014" lon="3.42662">
        <ele>16.479736328125</ele>
        <time>2010-05-16T10:32:30Z</time>
      </trkpt>
      <trkpt lat="50.39028" lon="3.42613">
        <ele>17.441162109375</ele>
        <time>2010-05-16T10:32:35Z</time>
      </trkpt>
      <trkpt lat="50.39031" lon="3.42603">
        <ele>16.96044921875</ele>
        <time>2010-05-16T10:32:36Z</time>
      </trkpt>
      <trkpt lat="50.39037" lon="3.42545">
        <ele>18.40234375</ele>
        <time>2010-05-16T10:32:41Z</time>
      </trkpt>
      <trkpt lat="50.39042" lon="3.42517">
        <ele>19.36376953125</ele>
        <time>2010-05-16T10:32:44Z</time>
      </trkpt>
      <trkpt lat="50.39036" lon="3.42498">
        <ele>21.766967773438</ele>
        <time>2010-05-16T10:32:47Z</time>
      </trkpt>
      <trkpt lat="50.39031" lon="3.42473">
        <ele>24.651000976562</ele>
        <time>2010-05-16T10:32:51Z</time>
      </trkpt>
      <trkpt lat="50.39033" lon="3.42465">
        <ele>26.092895507812</ele>
        <time>2010-05-16T10:32:52Z</time>
      </trkpt>
      <trkpt lat="50.39037" lon="3.42451">
        <ele>27.054321289062</ele>
        <time>2010-05-16T10:32:54Z</time>
      </trkpt>
      <trkpt lat="50.39048" lon="3.42427">
        <ele>30.418823242188</ele>
        <time>2010-05-16T10:32:59Z</time>
      </trkpt>
      <trkpt lat="50.39049" lon="3.42424">
        <ele>31.380126953125</ele>
        <time>2010-05-16T10:33:01Z</time>
      </trkpt>
      <trkpt lat="50.39051" lon="3.42424">
        <ele>32.341552734375</ele>
        <time>2010-05-16T10:33:05Z</time>
      </trkpt>
      <trkpt lat="50.39054" lon="3.42421">
        <ele>34.26416015625</ele>
        <time>2010-05-16T10:33:09Z</time>
      </trkpt>
      <trkpt lat="50.39059" lon="3.42424">
        <ele>33.302856445312</ele>
        <time>2010-05-16T10:33:13Z</time>
      </trkpt>
      <trkpt lat="50.39064" lon="3.42443">
        <ele>30.418823242188</ele>
        <time>2010-05-16T10:33:19Z</time>
      </trkpt>
      <trkpt lat="50.39065" lon="3.42447">
        <ele>30.418823242188</ele>
        <time>2010-05-16T10:33:20Z</time>
      </trkpt>
      <trkpt lat="50.39074" lon="3.42478">
        <ele>28.015502929688</ele>
        <time>2010-05-16T10:33:27Z</time>
      </trkpt>
      <trkpt lat="50.39082" lon="3.4251">
        <ele>27.054321289062</ele>
        <time>2010-05-16T10:33:33Z</time>
      </trkpt>
      <trkpt lat="50.39088" lon="3.42537">
        <ele>27.054321289062</ele>
        <time>2010-05-16T10:33:38Z</time>
      </trkpt>
      <trkpt lat="50.39095" lon="3.42564">
        <ele>31.380126953125</ele>
        <time>2010-05-16T10:33:43Z</time>
      </trkpt>
      <trkpt lat="50.39099" lon="3.42598">
        <ele>34.744873046875</ele>
        <time>2010-05-16T10:33:49Z</time>
      </trkpt>
      <trkpt lat="50.39104" lon="3.42634">
        <ele>36.186767578125</ele>
        <time>2010-05-16T10:33:55Z</time>
      </trkpt>
      <trkpt lat="50.39108" lon="3.42673">
        <ele>38.109375</ele>
        <time>2010-05-16T10:34:02Z</time>
      </trkpt>
      <trkpt lat="50.39112" lon="3.42714">
        <ele>37.148071289062</ele>
        <time>2010-05-16T10:34:09Z</time>
      </trkpt>
      <trkpt lat="50.39116" lon="3.42767">
        <ele>36.66748046875</ele>
        <time>2010-05-16T10:34:18Z</time>
      </trkpt>
      <trkpt lat="50.39116" lon="3.42815">
        <ele>36.66748046875</ele>
        <time>2010-05-16T10:34:25Z</time>
      </trkpt>
      <trkpt lat="50.39118" lon="3.42876">
        <ele>36.66748046875</ele>
        <time>2010-05-16T10:34:33Z</time>
      </trkpt>
      <trkpt lat="50.39123" lon="3.42953">
        <ele>36.186767578125</ele>
        <time>2010-05-16T10:34:43Z</time>
      </trkpt>
      <trkpt lat="50.39125" lon="3.42968">
        <ele>36.186767578125</ele>
        <time>2010-05-16T10:34:45Z</time>
      </trkpt>
      <trkpt lat="50.39138" lon="3.42997">
        <ele>37.628662109375</ele>
        <time>2010-05-16T10:34:50Z</time>
      </trkpt>
      <trkpt lat="50.39146" lon="3.43">
        <ele>38.109375</ele>
        <time>2010-05-16T10:34:52Z</time>
      </trkpt>
      <trkpt lat="50.39156" lon="3.43001">
        <ele>38.590087890625</ele>
        <time>2010-05-16T10:34:54Z</time>
      </trkpt>
      <trkpt lat="50.39168" lon="3.42985">
        <ele>39.070678710938</ele>
        <time>2010-05-16T10:34:58Z</time>
      </trkpt>
      <trkpt lat="50.39173" lon="3.42955">
        <ele>39.55126953125</ele>
        <time>2010-05-16T10:35:02Z</time>
      </trkpt>
      <trkpt lat="50.39179" lon="3.4291">
        <ele>43.396606445312</ele>
        <time>2010-05-16T10:35:08Z</time>
      </trkpt>
      <trkpt lat="50.39177" lon="3.42848">
        <ele>43.877319335938</ele>
        <time>2010-05-16T10:35:15Z</time>
      </trkpt>
      <trkpt lat="50.39175" lon="3.42817">
        <ele>43.877319335938</ele>
        <time>2010-05-16T10:35:19Z</time>
      </trkpt>
      <trkpt lat="50.39171" lon="3.42784">
        <ele>43.877319335938</ele>
        <time>2010-05-16T10:35:23Z</time>
      </trkpt>
      <trkpt lat="50.39167" lon="3.42751">
        <ele>43.877319335938</ele>
        <time>2010-05-16T10:35:27Z</time>
      </trkpt>
      <trkpt lat="50.39166" lon="3.42734">
        <ele>43.877319335938</ele>
        <time>2010-05-16T10:35:29Z</time>
      </trkpt>
      <trkpt lat="50.39161" lon="3.42696">
        <ele>44.358032226562</ele>
        <time>2010-05-16T10:35:34Z</time>
      </trkpt>
      <trkpt lat="50.39158" lon="3.4268">
        <ele>44.358032226562</ele>
        <time>2010-05-16T10:35:36Z</time>
      </trkpt>
      <trkpt lat="50.39151" lon="3.42649">
        <ele>44.358032226562</ele>
        <time>2010-05-16T10:35:40Z</time>
      </trkpt>
      <trkpt lat="50.3915" lon="3.42642">
        <ele>44.358032226562</ele>
        <time>2010-05-16T10:35:41Z</time>
      </trkpt>
      <trkpt lat="50.39136" lon="3.42579">
        <ele>44.358032226562</ele>
        <time>2010-05-16T10:35:49Z</time>
      </trkpt>
      <trkpt lat="50.39129" lon="3.42545">
        <ele>44.358032226562</ele>
        <time>2010-05-16T10:35:54Z</time>
      </trkpt>
      <trkpt lat="50.39128" lon="3.42526">
        <ele>42.916015625</ele>
        <time>2010-05-16T10:35:59Z</time>
      </trkpt>
      <trkpt lat="50.39138" lon="3.4255">
        <ele>40.512817382812</ele>
        <time>2010-05-16T10:36:04Z</time>
      </trkpt>
      <trkpt lat="50.39152" lon="3.42584">
        <ele>40.512817382812</ele>
        <time>2010-05-16T10:36:07Z</time>
      </trkpt>
      <trkpt lat="50.39156" lon="3.42597">
        <ele>40.032104492188</ele>
        <time>2010-05-16T10:36:08Z</time>
      </trkpt>
      <trkpt lat="50.39167" lon="3.4262">
        <ele>37.628662109375</ele>
        <time>2010-05-16T10:36:11Z</time>
      </trkpt>
      <trkpt lat="50.39168" lon="3.42606">
        <ele>36.186767578125</ele>
        <time>2010-05-16T10:36:14Z</time>
      </trkpt>
      <trkpt lat="50.39167" lon="3.42599">
        <ele>35.225463867188</ele>
        <time>2010-05-16T10:36:15Z</time>
      </trkpt>
      <trkpt lat="50.39164" lon="3.42575">
        <ele>31.860717773438</ele>
        <time>2010-05-16T10:36:18Z</time>
      </trkpt>
      <trkpt lat="50.39164" lon="3.4253">
        <ele>29.938110351562</ele>
        <time>2010-05-16T10:36:22Z</time>
      </trkpt>
      <trkpt lat="50.39163" lon="3.42501">
        <ele>28.015502929688</ele>
        <time>2010-05-16T10:36:25Z</time>
      </trkpt>
      <trkpt lat="50.3916" lon="3.42483">
        <ele>26.573608398438</ele>
        <time>2010-05-16T10:36:27Z</time>
      </trkpt>
      <trkpt lat="50.3916" lon="3.42464">
        <ele>25.131713867188</ele>
        <time>2010-05-16T10:36:29Z</time>
      </trkpt>
      <trkpt lat="50.3917" lon="3.42431">
        <ele>23.208984375</ele>
        <time>2010-05-16T10:36:33Z</time>
      </trkpt>
      <trkpt lat="50.39186" lon="3.42386">
        <ele>20.324951171875</ele>
        <time>2010-05-16T10:36:38Z</time>
      </trkpt>
      <trkpt lat="50.39188" lon="3.42376">
        <ele>20.8056640625</ele>
        <time>2010-05-16T10:36:39Z</time>
      </trkpt>
      <trkpt lat="50.39188" lon="3.42359">
        <ele>19.844360351562</ele>
        <time>2010-05-16T10:36:41Z</time>
      </trkpt>
      <trkpt lat="50.39174" lon="3.42337">
        <ele>18.40234375</ele>
        <time>2010-05-16T10:36:45Z</time>
      </trkpt>
      <trkpt lat="50.39164" lon="3.42327">
        <ele>19.36376953125</ele>
        <time>2010-05-16T10:36:47Z</time>
      </trkpt>
      <trkpt lat="50.39155" lon="3.42318">
        <ele>18.40234375</ele>
        <time>2010-05-16T10:36:49Z</time>
      </trkpt>
      <trkpt lat="50.39134" lon="3.42288">
        <ele>13.595825195312</ele>
        <time>2010-05-16T10:36:54Z</time>
      </trkpt>
      <trkpt lat="50.3912" lon="3.42267">
        <ele>12.634399414062</ele>
        <time>2010-05-16T10:36:58Z</time>
      </trkpt>
      <trkpt lat="50.39106" lon="3.42241">
        <ele>13.595825195312</ele>
        <time>2010-05-16T10:37:02Z</time>
      </trkpt>
      <trkpt lat="50.3909" lon="3.4221">
        <ele>15.9990234375</ele>
        <time>2010-05-16T10:37:07Z</time>
      </trkpt>
      <trkpt lat="50.39077" lon="3.42186">
        <ele>20.8056640625</ele>
        <time>2010-05-16T10:37:11Z</time>
      </trkpt>
      <trkpt lat="50.39074" lon="3.42175">
        <ele>19.844360351562</ele>
        <time>2010-05-16T10:37:13Z</time>
      </trkpt>
      <trkpt lat="50.39081" lon="3.42154">
        <ele>19.844360351562</ele>
        <time>2010-05-16T10:37:17Z</time>
      </trkpt>
      <trkpt lat="50.39108" lon="3.42122">
        <ele>19.844360351562</ele>
        <time>2010-05-16T10:37:23Z</time>
      </trkpt>
      <trkpt lat="50.39159" lon="3.42064">
        <ele>20.324951171875</ele>
        <time>2010-05-16T10:37:32Z</time>
      </trkpt>
      <trkpt lat="50.39195" lon="3.42027">
        <ele>19.36376953125</ele>
        <time>2010-05-16T10:37:38Z</time>
      </trkpt>
      <trkpt lat="50.39244" lon="3.41976">
        <ele>19.36376953125</ele>
        <time>2010-05-16T10:37:46Z</time>
      </trkpt>
      <trkpt lat="50.39293" lon="3.41926">
        <ele>18.40234375</ele>
        <time>2010-05-16T10:37:54Z</time>
      </trkpt>
      <trkpt lat="50.39342" lon="3.41874">
        <ele>18.40234375</ele>
        <time>2010-05-16T10:38:02Z</time>
      </trkpt>
      <trkpt lat="50.3939" lon="3.41825">
        <ele>17.921752929688</ele>
        <time>2010-05-16T10:38:10Z</time>
      </trkpt>
      <trkpt lat="50.3945" lon="3.41762">
        <ele>17.921752929688</ele>
        <time>2010-05-16T10:38:20Z</time>
      </trkpt>
      <trkpt lat="50.39473" lon="3.41737">
        <ele>17.921752929688</ele>
        <time>2010-05-16T10:38:24Z</time>
      </trkpt>
      <trkpt lat="50.39495" lon="3.4171">
        <ele>17.921752929688</ele>
        <time>2010-05-16T10:38:28Z</time>
      </trkpt>
      <trkpt lat="50.39503" lon="3.41679">
        <ele>16.96044921875</ele>
        <time>2010-05-16T10:38:32Z</time>
      </trkpt>
      <trkpt lat="50.39499" lon="3.41673">
        <ele>16.96044921875</ele>
        <time>2010-05-16T10:38:33Z</time>
      </trkpt>
      <trkpt lat="50.39478" lon="3.41642">
        <ele>17.441162109375</ele>
        <time>2010-05-16T10:38:38Z</time>
      </trkpt>
      <trkpt lat="50.39455" lon="3.41603">
        <ele>22.24755859375</ele>
        <time>2010-05-16T10:38:43Z</time>
      </trkpt>
      <trkpt lat="50.39432" lon="3.41562">
        <ele>24.170288085938</ele>
        <time>2010-05-16T10:38:49Z</time>
      </trkpt>
      <trkpt lat="50.39411" lon="3.41525">
        <ele>27.534912109375</ele>
        <time>2010-05-16T10:38:55Z</time>
      </trkpt>
      <trkpt lat="50.39389" lon="3.41487">
        <ele>30.899536132812</ele>
        <time>2010-05-16T10:39:02Z</time>
      </trkpt>
      <trkpt lat="50.3938" lon="3.41462">
        <ele>35.225463867188</ele>
        <time>2010-05-16T10:39:07Z</time>
      </trkpt>
      <trkpt lat="50.39366" lon="3.41455">
        <ele>33.302856445312</ele>
        <time>2010-05-16T10:39:11Z</time>
      </trkpt>
      <trkpt lat="50.39355" lon="3.41453">
        <ele>29.45751953125</ele>
        <time>2010-05-16T10:39:14Z</time>
      </trkpt>
      <trkpt lat="50.39342" lon="3.41455">
        <ele>25.6123046875</ele>
        <time>2010-05-16T10:39:18Z</time>
      </trkpt>
      <trkpt lat="50.39318" lon="3.41444">
        <ele>18.40234375</ele>
        <time>2010-05-16T10:39:24Z</time>
      </trkpt>
      <trkpt lat="50.39301" lon="3.41433">
        <ele>15.518432617188</ele>
        <time>2010-05-16T10:39:28Z</time>
      </trkpt>
      <trkpt lat="50.39281" lon="3.41419">
        <ele>13.115112304688</ele>
        <time>2010-05-16T10:39:33Z</time>
      </trkpt>
      <trkpt lat="50.39254" lon="3.41402">
        <ele>11.192504882812</ele>
        <time>2010-05-16T10:39:39Z</time>
      </trkpt>
      <trkpt lat="50.3922" lon="3.4138">
        <ele>10.711791992188</ele>
        <time>2010-05-16T10:39:46Z</time>
      </trkpt>
      <trkpt lat="50.39189" lon="3.41363">
        <ele>10.711791992188</ele>
        <time>2010-05-16T10:39:52Z</time>
      </trkpt>
      <trkpt lat="50.39179" lon="3.41359">
        <ele>10.711791992188</ele>
        <time>2010-05-16T10:39:54Z</time>
      </trkpt>
      <trkpt lat="50.39141" lon="3.41335">
        <ele>14.557006835938</ele>
        <time>2010-05-16T10:40:01Z</time>
      </trkpt>
      <trkpt lat="50.391" lon="3.4131">
        <ele>16.479736328125</ele>
        <time>2010-05-16T10:40:08Z</time>
      </trkpt>
      <trkpt lat="50.39088" lon="3.41305">
        <ele>16.96044921875</ele>
        <time>2010-05-16T10:40:10Z</time>
      </trkpt>
      <trkpt lat="50.39046" lon="3.41281">
        <ele>17.921752929688</ele>
        <time>2010-05-16T10:40:17Z</time>
      </trkpt>
      <trkpt lat="50.39024" lon="3.41267">
        <ele>17.441162109375</ele>
        <time>2010-05-16T10:40:21Z</time>
      </trkpt>
      <trkpt lat="50.39014" lon="3.41261">
        <ele>16.479736328125</ele>
        <time>2010-05-16T10:40:23Z</time>
      </trkpt>
      <trkpt lat="50.38977" lon="3.41234">
        <ele>15.9990234375</ele>
        <time>2010-05-16T10:40:30Z</time>
      </trkpt>
      <trkpt lat="50.38965" lon="3.41227">
        <ele>16.479736328125</ele>
        <time>2010-05-16T10:40:32Z</time>
      </trkpt>
      <trkpt lat="50.38924" lon="3.41201">
        <ele>18.883056640625</ele>
        <time>2010-05-16T10:40:39Z</time>
      </trkpt>
      <trkpt lat="50.38869" lon="3.41168">
        <ele>21.766967773438</ele>
        <time>2010-05-16T10:40:48Z</time>
      </trkpt>
      <trkpt lat="50.38847" lon="3.41154">
        <ele>22.728271484375</ele>
        <time>2010-05-16T10:40:52Z</time>
      </trkpt>
      <trkpt lat="50.38824" lon="3.41159">
        <ele>22.24755859375</ele>
        <time>2010-05-16T10:40:56Z</time>
      </trkpt>
      <trkpt lat="50.38817" lon="3.41176">
        <ele>22.24755859375</ele>
        <time>2010-05-16T10:40:58Z</time>
      </trkpt>
      <trkpt lat="50.38795" lon="3.41271">
        <ele>23.689575195312</ele>
        <time>2010-05-16T10:41:07Z</time>
      </trkpt>
      <trkpt lat="50.38776" lon="3.41346">
        <ele>24.651000976562</ele>
        <time>2010-05-16T10:41:14Z</time>
      </trkpt>
      <trkpt lat="50.38752" lon="3.41444">
        <ele>26.092895507812</ele>
        <time>2010-05-16T10:41:23Z</time>
      </trkpt>
      <trkpt lat="50.38726" lon="3.41523">
        <ele>26.573608398438</ele>
        <time>2010-05-16T10:41:31Z</time>
      </trkpt>
      <trkpt lat="50.38702" lon="3.41571">
        <ele>27.054321289062</ele>
        <time>2010-05-16T10:41:37Z</time>
      </trkpt>
      <trkpt lat="50.38696" lon="3.41605">
        <ele>27.534912109375</ele>
        <time>2010-05-16T10:41:41Z</time>
      </trkpt>
      <trkpt lat="50.38704" lon="3.41693">
        <ele>27.534912109375</ele>
        <time>2010-05-16T10:41:50Z</time>
      </trkpt>
      <trkpt lat="50.38708" lon="3.41733">
        <ele>27.054321289062</ele>
        <time>2010-05-16T10:41:54Z</time>
      </trkpt>
      <trkpt lat="50.3872" lon="3.41825">
        <ele>26.573608398438</ele>
        <time>2010-05-16T10:42:03Z</time>
      </trkpt>
      <trkpt lat="50.38727" lon="3.41894">
        <ele>27.534912109375</ele>
        <time>2010-05-16T10:42:10Z</time>
      </trkpt>
      <trkpt lat="50.38729" lon="3.41914">
        <ele>27.054321289062</ele>
        <time>2010-05-16T10:42:12Z</time>
      </trkpt>
      <trkpt lat="50.38737" lon="3.41986">
        <ele>26.092895507812</ele>
        <time>2010-05-16T10:42:19Z</time>
      </trkpt>
      <trkpt lat="50.38747" lon="3.4207">
        <ele>26.573608398438</ele>
        <time>2010-05-16T10:42:27Z</time>
      </trkpt>
      <trkpt lat="50.38762" lon="3.42171">
        <ele>26.092895507812</ele>
        <time>2010-05-16T10:42:37Z</time>
      </trkpt>
      <trkpt lat="50.38772" lon="3.42262">
        <ele>26.573608398438</ele>
        <time>2010-05-16T10:42:46Z</time>
      </trkpt>
      <trkpt lat="50.38773" lon="3.42272">
        <ele>26.573608398438</ele>
        <time>2010-05-16T10:42:47Z</time>
      </trkpt>
      <trkpt lat="50.38779" lon="3.42338">
        <ele>26.573608398438</ele>
        <time>2010-05-16T10:42:54Z</time>
      </trkpt>
      <trkpt lat="50.38776" lon="3.42352">
        <ele>26.573608398438</ele>
        <time>2010-05-16T10:42:57Z</time>
      </trkpt>
      <trkpt lat="50.38777" lon="3.42353">
        <ele>27.054321289062</ele>
        <time>2010-05-16T10:43:00Z</time>
      </trkpt>
      <trkpt lat="50.38777" lon="3.42358">
        <ele>27.054321289062</ele>
        <time>2010-05-16T10:43:03Z</time>
      </trkpt>
      <trkpt lat="50.38769" lon="3.42368">
        <ele>27.054321289062</ele>
        <time>2010-05-16T10:43:07Z</time>
      </trkpt>
      <trkpt lat="50.3876" lon="3.42369">
        <ele>27.534912109375</ele>
        <time>2010-05-16T10:43:09Z</time>
      </trkpt>
      <trkpt lat="50.38737" lon="3.42387">
        <ele>29.45751953125</ele>
        <time>2010-05-16T10:43:14Z</time>
      </trkpt>
      <trkpt lat="50.38694" lon="3.42431">
        <ele>30.418823242188</ele>
        <time>2010-05-16T10:43:22Z</time>
      </trkpt>
      <trkpt lat="50.38648" lon="3.42476">
        <ele>30.418823242188</ele>
        <time>2010-05-16T10:43:30Z</time>
      </trkpt>
      <trkpt lat="50.3859" lon="3.42536">
        <ele>31.380126953125</ele>
        <time>2010-05-16T10:43:40Z</time>
      </trkpt>
      <trkpt lat="50.38567" lon="3.4256">
        <ele>31.380126953125</ele>
        <time>2010-05-16T10:43:44Z</time>
      </trkpt>
      <trkpt lat="50.38527" lon="3.42601">
        <ele>31.860717773438</ele>
        <time>2010-05-16T10:43:51Z</time>
      </trkpt>
      <trkpt lat="50.38521" lon="3.42606">
        <ele>31.860717773438</ele>
        <time>2010-05-16T10:43:52Z</time>
      </trkpt>
      <trkpt lat="50.38503" lon="3.42619">
        <ele>31.860717773438</ele>
        <time>2010-05-16T10:43:56Z</time>
      </trkpt>
      <trkpt lat="50.38497" lon="3.42626">
        <ele>31.380126953125</ele>
        <time>2010-05-16T10:43:58Z</time>
      </trkpt>
      <trkpt lat="50.38489" lon="3.4263">
        <ele>31.860717773438</ele>
        <time>2010-05-16T10:44:00Z</time>
      </trkpt>
      <trkpt lat="50.38478" lon="3.42643">
        <ele>31.860717773438</ele>
        <time>2010-05-16T10:44:03Z</time>
      </trkpt>
      <trkpt lat="50.38459" lon="3.42668">
        <ele>31.860717773438</ele>
        <time>2010-05-16T10:44:08Z</time>
      </trkpt>
      <trkpt lat="50.38445" lon="3.42678">
        <ele>31.860717773438</ele>
        <time>2010-05-16T10:44:12Z</time>
      </trkpt>
      <trkpt lat="50.38438" lon="3.42672">
        <ele>31.380126953125</ele>
        <time>2010-05-16T10:44:14Z</time>
      </trkpt>
    </trkseg>
  </trk>
</gpx>